<?xml version='1.0' encoding='UTF-8'?><gpx version="1.1" creator="JPX - https://github.com/jenetics/jpx" xmlns="http://www.topografix.com/GPX/1/1"><trk><trkseg><trkpt lat="14.558088949576756" lon="120.99608249352303"><ele>9.0</ele><time>2026-04-27T05:42:13.993Z</time></trkpt><trkpt lat="14.558142239289424" lon="120.99614824226005"><ele>9.0</ele><time>2026-04-27T05:42:17.993Z</time></trkpt><trkpt lat="14.558202496079053" lon="120.9961896856637"><ele>9.0</ele><time>2026-04-27T05:42:20.991Z</time></trkpt><trkpt lat="14.558262333105079" lon="120.99622284629211"><ele>9.0</ele><time>2026-04-27T05:42:24.993Z</time></trkpt><trkpt lat="14.558383369755992" lon="120.99620241958574"><ele>9.0</ele><time>2026-04-27T05:42:26.994Z</time></trkpt><trkpt lat="14.558463773723739" lon="120.99619227774431"><ele>9.0</ele><time>2026-04-27T05:42:27.995Z</time></trkpt><trkpt lat="14.55852191658718" lon="120.99616616863231"><ele>9.0</ele><time>2026-04-27T05:42:28.995Z</time></trkpt><trkpt lat="14.558590994691317" lon="120.996147414741"><ele>9.0</ele><time>2026-04-27T05:42:29.996Z</time></trkpt><trkpt lat="14.558664221028963" lon="120.99613327596211"><ele>9.0</ele><time>2026-04-27T05:42:30.996Z</time></trkpt><trkpt lat="14.558744425180175" lon="120.99611667400558"><ele>9.0</ele><time>2026-04-27T05:42:31.996Z</time></trkpt><trkpt lat="14.55882489632118" lon="120.99609902385531"><ele>9.0</ele><time>2026-04-27T05:42:32.997Z</time></trkpt><trkpt lat="14.558902917182575" lon="120.99609140015977"><ele>9.0</ele><time>2026-04-27T05:42:33.997Z</time></trkpt><trkpt lat="14.558991701777545" lon="120.99607014350664"><ele>9.0</ele><time>2026-04-27T05:42:34.997Z</time></trkpt><trkpt lat="14.5590813451009" lon="120.99605121248425"><ele>9.0</ele><time>2026-04-27T05:42:35.997Z</time></trkpt><trkpt lat="14.559168100604634" lon="120.99603390129312"><ele>9.0</ele><time>2026-04-27T05:42:36.998Z</time></trkpt><trkpt lat="14.55924323521449" lon="120.99601370429357"><ele>9.0</ele><time>2026-04-27T05:42:37.998Z</time></trkpt><trkpt lat="14.559335991501742" lon="120.99599143289339"><ele>9.0</ele><time>2026-04-27T05:42:38.998Z</time></trkpt><trkpt lat="14.559418781465665" lon="120.99597248640785"><ele>9.0</ele><time>2026-04-27T05:42:39.998Z</time></trkpt><trkpt lat="14.559495022289306" lon="120.99595960833544"><ele>8.857142857142858</ele><time>2026-04-27T05:42:40.998Z</time></trkpt><trkpt lat="14.559579577049146" lon="120.99593959234244"><ele>8.714285714285715</ele><time>2026-04-27T05:42:41.999Z</time></trkpt><trkpt lat="14.559649913328943" lon="120.99591934995075"><ele>8.571428571428571</ele><time>2026-04-27T05:42:42.999Z</time></trkpt><trkpt lat="14.559715591072045" lon="120.99590273296181"><ele>8.428571428571429</ele><time>2026-04-27T05:42:43.999Z</time></trkpt><trkpt lat="14.559786279170952" lon="120.99588295953288"><ele>8.285714285714285</ele><time>2026-04-27T05:42:44.999Z</time></trkpt><trkpt lat="14.559847566196362" lon="120.99586736583213"><ele>8.142857142857142</ele><time>2026-04-27T05:42:45.999Z</time></trkpt><trkpt lat="14.559912343030598" lon="120.99586576415649"><ele>8.0</ele><time>2026-04-27T05:42:46.999Z</time></trkpt><trkpt lat="14.560017471652298" lon="120.99584922721618"><ele>7.999999999999999</ele><time>2026-04-27T05:42:49Z</time></trkpt><trkpt lat="14.560088078602675" lon="120.99584470223654"><ele>8.0</ele><time>2026-04-27T05:42:51Z</time></trkpt><trkpt lat="14.560199267411635" lon="120.9958080740691"><ele>8.0</ele><time>2026-04-27T05:42:53Z</time></trkpt><trkpt lat="14.560279443640905" lon="120.99579716786216"><ele>8.0</ele><time>2026-04-27T05:42:54Z</time></trkpt><trkpt lat="14.56035434023977" lon="120.99578414567482"><ele>7.999999999999999</ele><time>2026-04-27T05:42:55Z</time></trkpt><trkpt lat="14.560440654062395" lon="120.99576135131194"><ele>8.0</ele><time>2026-04-27T05:42:56Z</time></trkpt><trkpt lat="14.560532588212107" lon="120.99573659723299"><ele>7.75</ele><time>2026-04-27T05:42:57Z</time></trkpt><trkpt lat="14.560632008467998" lon="120.99570853083998"><ele>7.5</ele><time>2026-04-27T05:42:58Z</time></trkpt><trkpt lat="14.560741987993291" lon="120.99567987151472"><ele>7.25</ele><time>2026-04-27T05:42:59.001Z</time></trkpt><trkpt lat="14.560859352000078" lon="120.99565585652475"><ele>7.0</ele><time>2026-04-27T05:43:00.001Z</time></trkpt><trkpt lat="14.560974737503376" lon="120.99562306325801"><ele>7.0</ele><time>2026-04-27T05:43:01.001Z</time></trkpt><trkpt lat="14.561094337489704" lon="120.99559806940431"><ele>7.0</ele><time>2026-04-27T05:43:02.001Z</time></trkpt><trkpt lat="14.561220709252241" lon="120.99557314863975"><ele>7.0</ele><time>2026-04-27T05:43:03.001Z</time></trkpt><trkpt lat="14.561346157330624" lon="120.9955435528354"><ele>7.0</ele><time>2026-04-27T05:43:04.001Z</time></trkpt><trkpt lat="14.561473396576126" lon="120.99550734266849"><ele>7.3999999999999995</ele><time>2026-04-27T05:43:05.001Z</time></trkpt><trkpt lat="14.561587936691877" lon="120.9954787286543"><ele>7.799999999999999</ele><time>2026-04-27T05:43:06.001Z</time></trkpt><trkpt lat="14.56169009479289" lon="120.99545094382331"><ele>8.2</ele><time>2026-04-27T05:43:07.001Z</time></trkpt><trkpt lat="14.56178579120112" lon="120.99542534335325"><ele>8.6</ele><time>2026-04-27T05:43:08.001Z</time></trkpt><trkpt lat="14.561876794849931" lon="120.99540748490499"><ele>9.0</ele><time>2026-04-27T05:43:09.001Z</time></trkpt><trkpt lat="14.561968267388393" lon="120.99538638647394"><ele>9.166666666666666</ele><time>2026-04-27T05:43:10.001Z</time></trkpt><trkpt lat="14.562055527594243" lon="120.99535457590096"><ele>9.333333333333334</ele><time>2026-04-27T05:43:11.001Z</time></trkpt><trkpt lat="14.562134541669128" lon="120.99533538784527"><ele>9.5</ele><time>2026-04-27T05:43:12.001Z</time></trkpt><trkpt lat="14.562201019071342" lon="120.99531656493744"><ele>9.666666666666668</ele><time>2026-04-27T05:43:13.001Z</time></trkpt><trkpt lat="14.562305627345571" lon="120.99529422356017"><ele>9.833333333333334</ele><time>2026-04-27T05:43:15.001Z</time></trkpt><trkpt lat="14.56238278860793" lon="120.99527819611863"><ele>10.0</ele><time>2026-04-27T05:43:17.001Z</time></trkpt><trkpt lat="14.562446587763677" lon="120.99527158421118"><ele>10.0</ele><time>2026-04-27T05:43:19.001Z</time></trkpt><trkpt lat="14.562509792870651" lon="120.99528506807768"><ele>10.0</ele><time>2026-04-27T05:43:55.002Z</time></trkpt><trkpt lat="14.562615084566177" lon="120.99533962225647"><ele>10.0</ele><time>2026-04-27T05:43:56.002Z</time></trkpt><trkpt lat="14.562679173402566" lon="120.99537001986155"><ele>10.0</ele><time>2026-04-27T05:43:57.002Z</time></trkpt><trkpt lat="14.562732937375253" lon="120.99545211139896"><ele>10.0</ele><time>2026-04-27T05:43:59.002Z</time></trkpt><trkpt lat="14.562742663145002" lon="120.9955173405014"><ele>10.0</ele><time>2026-04-27T05:44:00.002Z</time></trkpt><trkpt lat="14.562797162128748" lon="120.99558589724857"><ele>10.0</ele><time>2026-04-27T05:44:02.003Z</time></trkpt><trkpt lat="14.562842977746717" lon="120.99565567095979"><ele>10.0</ele><time>2026-04-27T05:44:07.003Z</time></trkpt><trkpt lat="14.56289149839534" lon="120.99575439540395"><ele>10.0</ele><time>2026-04-27T05:44:09.003Z</time></trkpt><trkpt lat="14.562927076050702" lon="120.99581434673351"><ele>10.0</ele><time>2026-04-27T05:44:10.003Z</time></trkpt><trkpt lat="14.562958374953606" lon="120.9958792823296"><ele>10.0</ele><time>2026-04-27T05:44:11.003Z</time></trkpt><trkpt lat="14.562986699750423" lon="120.99594754733933"><ele>10.0</ele><time>2026-04-27T05:44:12.003Z</time></trkpt><trkpt lat="14.563019389403332" lon="120.99601998299163"><ele>9.833333333333334</ele><time>2026-04-27T05:44:13.003Z</time></trkpt><trkpt lat="14.563053958218102" lon="120.99609341017413"><ele>9.666666666666668</ele><time>2026-04-27T05:44:14.003Z</time></trkpt><trkpt lat="14.563091679050373" lon="120.99616908863656"><ele>9.5</ele><time>2026-04-27T05:44:15.003Z</time></trkpt><trkpt lat="14.563125299394926" lon="120.99623806359754"><ele>9.333333333333334</ele><time>2026-04-27T05:44:16.003Z</time></trkpt><trkpt lat="14.563155606518016" lon="120.9963010997982"><ele>9.166666666666666</ele><time>2026-04-27T05:44:17.003Z</time></trkpt><trkpt lat="14.563187929807217" lon="120.99636987299496"><ele>9.0</ele><time>2026-04-27T05:44:18.003Z</time></trkpt><trkpt lat="14.563217074075991" lon="120.99644103416252"><ele>9.0</ele><time>2026-04-27T05:44:19.003Z</time></trkpt><trkpt lat="14.563245706879087" lon="120.99651368896177"><ele>9.0</ele><time>2026-04-27T05:44:20.003Z</time></trkpt><trkpt lat="14.563275736456145" lon="120.99657102950862"><ele>9.0</ele><time>2026-04-27T05:44:21.003Z</time></trkpt><trkpt lat="14.56329148942286" lon="120.99663957073933"><ele>9.0</ele><time>2026-04-27T05:44:22.003Z</time></trkpt><trkpt lat="14.563325005824733" lon="120.99672163363117"><ele>9.0</ele><time>2026-04-27T05:44:23.003Z</time></trkpt><trkpt lat="14.563364635379601" lon="120.99679853871402"><ele>9.0</ele><time>2026-04-27T05:44:24.003Z</time></trkpt><trkpt lat="14.563390603885361" lon="120.9968793865133"><ele>8.666666666666666</ele><time>2026-04-27T05:44:25.002Z</time></trkpt><trkpt lat="14.563424521557387" lon="120.99695912095697"><ele>8.333333333333334</ele><time>2026-04-27T05:44:26.002Z</time></trkpt><trkpt lat="14.56345776003346" lon="120.99702899555771"><ele>8.0</ele><time>2026-04-27T05:44:27.002Z</time></trkpt><trkpt lat="14.563493870665672" lon="120.99709083351718"><ele>7.666666666666667</ele><time>2026-04-27T05:44:28.002Z</time></trkpt><trkpt lat="14.563531784217533" lon="120.99715010402684"><ele>7.333333333333334</ele><time>2026-04-27T05:44:29.002Z</time></trkpt><trkpt lat="14.56357216858247" lon="120.9972523191048"><ele>7.0</ele><time>2026-04-27T05:44:31.002Z</time></trkpt><trkpt lat="14.563616440428966" lon="120.997320407267"><ele>7.0</ele><time>2026-04-27T05:44:33.002Z</time></trkpt><trkpt lat="14.563642295165534" lon="120.99739176354989"><ele>6.999999999999999</ele><time>2026-04-27T05:44:38.001Z</time></trkpt><trkpt lat="14.56369591475628" lon="120.99749132941784"><ele>6.999999999999999</ele><time>2026-04-27T05:44:40.001Z</time></trkpt><trkpt lat="14.56372811955985" lon="120.99757046603972"><ele>7.0</ele><time>2026-04-27T05:44:41.001Z</time></trkpt><trkpt lat="14.563759825962098" lon="120.99766296987093"><ele>7.0</ele><time>2026-04-27T05:44:42.001Z</time></trkpt><trkpt lat="14.563793623495615" lon="120.99775370232146"><ele>7.0</ele><time>2026-04-27T05:44:43.001Z</time></trkpt><trkpt lat="14.56383892768026" lon="120.9978460765464"><ele>6.999999999999999</ele><time>2026-04-27T05:44:44.001Z</time></trkpt><trkpt lat="14.563882452498342" lon="120.99794090552852"><ele>6.999999999999999</ele><time>2026-04-27T05:44:45.001Z</time></trkpt><trkpt lat="14.563923857840088" lon="120.99803175797685"><ele>7.0</ele><time>2026-04-27T05:44:46.001Z</time></trkpt><trkpt lat="14.563963396269754" lon="120.99811096143141"><ele>7.0</ele><time>2026-04-27T05:44:47.001Z</time></trkpt><trkpt lat="14.563986905399226" lon="120.99821025243757"><ele>7.000000000000001</ele><time>2026-04-27T05:44:49.001Z</time></trkpt><trkpt lat="14.563903023446967" lon="120.99829225582835"><ele>7.0</ele><time>2026-04-27T05:44:52.001Z</time></trkpt><trkpt lat="14.56383394393648" lon="120.99831436253436"><ele>7.0</ele><time>2026-04-27T05:44:53.001Z</time></trkpt><trkpt lat="14.56376328434894" lon="120.99834497517129"><ele>7.0</ele><time>2026-04-27T05:44:54.001Z</time></trkpt><trkpt lat="14.563687264765449" lon="120.99837234356431"><ele>7.000000000000001</ele><time>2026-04-27T05:44:55.001Z</time></trkpt><trkpt lat="14.563610450281828" lon="120.99839602193626"><ele>7.0</ele><time>2026-04-27T05:44:56.001Z</time></trkpt><trkpt lat="14.563524903115841" lon="120.9984145290095"><ele>7.000000000000001</ele><time>2026-04-27T05:44:57.001Z</time></trkpt><trkpt lat="14.563451225431258" lon="120.99843681597774"><ele>7.0</ele><time>2026-04-27T05:44:58.001Z</time></trkpt><trkpt lat="14.56338265791395" lon="120.9984514139517"><ele>7.0</ele><time>2026-04-27T05:44:59.001Z</time></trkpt><trkpt lat="14.56332335201359" lon="120.998473264376"><ele>7.0</ele><time>2026-04-27T05:45:00.001Z</time></trkpt><trkpt lat="14.563224436061217" lon="120.99851945070728"><ele>7.000000000000001</ele><time>2026-04-27T05:45:02.001Z</time></trkpt><trkpt lat="14.563157509332735" lon="120.99852861490149"><ele>7.0</ele><time>2026-04-27T05:45:04.001Z</time></trkpt><trkpt lat="14.5632462055717" lon="120.99850062461712"><ele>7.0</ele><time>2026-04-27T05:46:49.025Z</time></trkpt><trkpt lat="14.56325389677304" lon="120.99858416029055"><ele>6.999999999999999</ele><time>2026-04-27T05:46:52.027Z</time></trkpt><trkpt lat="14.56317954535126" lon="120.99863822636134"><ele>6.999999999999999</ele><time>2026-04-27T05:47:20.019Z</time></trkpt><trkpt lat="14.563124704203775" lon="120.99871288645453"><ele>7.0</ele><time>2026-04-27T05:47:24.02Z</time></trkpt><trkpt lat="14.56310632647874" lon="120.99864118071731"><ele>7.0</ele><time>2026-04-27T05:47:25.023Z</time></trkpt><trkpt lat="14.563050665721718" lon="120.99848589903726"><ele>7.0</ele><time>2026-04-27T05:47:27.003Z</time></trkpt><trkpt lat="14.56313017001414" lon="120.99835800643876"><ele>7.0</ele><time>2026-04-27T05:47:28.003Z</time></trkpt><trkpt lat="14.563145170013673" lon="120.99818042987235"><ele>7.0</ele><time>2026-04-27T05:47:35.002Z</time></trkpt><trkpt lat="14.563094712669164" lon="120.9981387633173"><ele>7.0</ele><time>2026-04-27T05:47:57.001Z</time></trkpt><trkpt lat="14.563028413990795" lon="120.99816116764498"><ele>7.0</ele><time>2026-04-27T05:48:05.001Z</time></trkpt><trkpt lat="14.563049175896017" lon="120.99822528005451"><ele>7.0</ele><time>2026-04-27T05:48:47.001Z</time></trkpt><trkpt lat="14.56304097420848" lon="120.99830183490474"><ele>7.0</ele><time>2026-04-27T05:48:50.001Z</time></trkpt><trkpt lat="14.563055717716225" lon="120.99836942511472"><ele>7.0</ele><time>2026-04-27T05:49:19.002Z</time></trkpt><trkpt lat="14.563077167623128" lon="120.99843695777189"><ele>7.0</ele><time>2026-04-27T05:49:25.002Z</time></trkpt><trkpt lat="14.56313542155835" lon="120.99848814951305"><ele>7.0</ele><time>2026-04-27T05:50:11.001Z</time></trkpt><trkpt lat="14.563180535101083" lon="120.99854546064469"><ele>7.0</ele><time>2026-04-27T05:50:14.001Z</time></trkpt><trkpt lat="14.563212492339872" lon="120.99860545693964"><ele>7.000000000000001</ele><time>2026-04-27T05:50:16.001Z</time></trkpt><trkpt lat="14.563256853592298" lon="120.99868220075604"><ele>7.0</ele><time>2026-04-27T05:50:18.001Z</time></trkpt><trkpt lat="14.563295684990619" lon="120.99876583800796"><ele>7.0</ele><time>2026-04-27T05:50:20.001Z</time></trkpt><trkpt lat="14.563334407824739" lon="120.99883478537295"><ele>7.0</ele><time>2026-04-27T05:50:23.001Z</time></trkpt><trkpt lat="14.563417570512646" lon="120.99883155843055"><ele>7.000000000000001</ele><time>2026-04-27T05:50:26.001Z</time></trkpt><trkpt lat="14.563481363089352" lon="120.99880573788099"><ele>7.0</ele><time>2026-04-27T05:50:27.001Z</time></trkpt><trkpt lat="14.563543067634823" lon="120.99876889114809"><ele>7.000000000000001</ele><time>2026-04-27T05:50:28.001Z</time></trkpt><trkpt lat="14.563637490711312" lon="120.998709508519"><ele>7.0</ele><time>2026-04-27T05:50:30.001Z</time></trkpt><trkpt lat="14.563710524064577" lon="120.9986692217895"><ele>7.0</ele><time>2026-04-27T05:50:32.001Z</time></trkpt><trkpt lat="14.56378226854702" lon="120.99863417419616"><ele>7.0</ele><time>2026-04-27T05:50:34.001Z</time></trkpt><trkpt lat="14.563863841418694" lon="120.99858175408274"><ele>7.000000000000001</ele><time>2026-04-27T05:50:36.001Z</time></trkpt><trkpt lat="14.563925179804857" lon="120.9985616260609"><ele>7.0</ele><time>2026-04-27T05:50:37.001Z</time></trkpt><trkpt lat="14.564009697252699" lon="120.99849485662297"><ele>7.000000000000001</ele><time>2026-04-27T05:50:39.001Z</time></trkpt><trkpt lat="14.564081944493621" lon="120.99846497795244"><ele>7.0</ele><time>2026-04-27T05:50:41.001Z</time></trkpt><trkpt lat="14.564113091838989" lon="120.99839945858615"><ele>7.0</ele><time>2026-04-27T05:50:44.001Z</time></trkpt><trkpt lat="14.564097289870308" lon="120.99830415451737"><ele>7.0</ele><time>2026-04-27T05:50:46.001Z</time></trkpt><trkpt lat="14.564097458920077" lon="120.99822689574171"><ele>7.000000000000001</ele><time>2026-04-27T05:50:48.001Z</time></trkpt><trkpt lat="14.564183780998253" lon="120.99817560009163"><ele>7.0</ele><time>2026-04-27T05:50:50.001Z</time></trkpt><trkpt lat="14.564242901812289" lon="120.99820591845547"><ele>7.0</ele><time>2026-04-27T05:50:51.001Z</time></trkpt><trkpt lat="14.56437498930062" lon="120.99817619361872"><ele>6.999999999999999</ele><time>2026-04-27T05:50:53.001Z</time></trkpt><trkpt lat="14.564448535659151" lon="120.9981596428197"><ele>6.999999999999999</ele><time>2026-04-27T05:50:54.001Z</time></trkpt><trkpt lat="14.5645254815828" lon="120.99814232698631"><ele>7.0</ele><time>2026-04-27T05:50:55.001Z</time></trkpt><trkpt lat="14.56460679642746" lon="120.99812402797048"><ele>7.0</ele><time>2026-04-27T05:50:56.001Z</time></trkpt><trkpt lat="14.564697059162906" lon="120.99810872192539"><ele>7.8</ele><time>2026-04-27T05:50:57.001Z</time></trkpt><trkpt lat="14.564792850841414" lon="120.99809094803224"><ele>8.6</ele><time>2026-04-27T05:50:58.001Z</time></trkpt><trkpt lat="14.564875619477222" lon="120.99807559053176"><ele>9.4</ele><time>2026-04-27T05:50:59.001Z</time></trkpt><trkpt lat="14.564975354046291" lon="120.99805708504688"><ele>10.200000000000001</ele><time>2026-04-27T05:51:00.001Z</time></trkpt><trkpt lat="14.565070560269234" lon="120.99804348457378"><ele>11.0</ele><time>2026-04-27T05:51:01.001Z</time></trkpt><trkpt lat="14.565162918516975" lon="120.99803104493186"><ele>11.0</ele><time>2026-04-27T05:51:02.001Z</time></trkpt><trkpt lat="14.565249140002102" lon="120.99801943184681"><ele>11.0</ele><time>2026-04-27T05:51:03.001Z</time></trkpt><trkpt lat="14.5653285904649" lon="120.99800873074334"><ele>11.0</ele><time>2026-04-27T05:51:04.001Z</time></trkpt><trkpt lat="14.565406824584706" lon="120.99799819346907"><ele>11.0</ele><time>2026-04-27T05:51:05.001Z</time></trkpt><trkpt lat="14.565475681405351" lon="120.9979889192151"><ele>11.0</ele><time>2026-04-27T05:51:06.001Z</time></trkpt><trkpt lat="14.565538350603022" lon="120.99797730903384"><ele>11.0</ele><time>2026-04-27T05:51:07.001Z</time></trkpt><trkpt lat="14.565600823043983" lon="120.99796736462113"><ele>11.0</ele><time>2026-04-27T05:51:08.001Z</time></trkpt><trkpt lat="14.565696563928583" lon="120.99793599151305"><ele>10.4</ele><time>2026-04-27T05:51:10.001Z</time></trkpt><trkpt lat="14.565782378799115" lon="120.99792113700175"><ele>9.8</ele><time>2026-04-27T05:51:12.001Z</time></trkpt><trkpt lat="14.565849309870737" lon="120.99792781027688"><ele>9.200000000000001</ele><time>2026-04-27T05:51:14.001Z</time></trkpt><trkpt lat="14.5658554710295" lon="120.99779705811964"><ele>8.600000000000001</ele><time>2026-04-27T05:51:18.001Z</time></trkpt><trkpt lat="14.565805353958195" lon="120.99770375501218"><ele>8.0</ele><time>2026-04-27T05:51:20.001Z</time></trkpt><trkpt lat="14.565755271737638" lon="120.9975965762517"><ele>7.999999999999999</ele><time>2026-04-27T05:51:22.001Z</time></trkpt><trkpt lat="14.565721265670478" lon="120.99752894503048"><ele>8.0</ele><time>2026-04-27T05:51:23.001Z</time></trkpt><trkpt lat="14.5656862381499" lon="120.99745203992823"><ele>8.0</ele><time>2026-04-27T05:51:24.001Z</time></trkpt><trkpt lat="14.565650911051419" lon="120.997370156194"><ele>8.0</ele><time>2026-04-27T05:51:25.001Z</time></trkpt><trkpt lat="14.565625908921058" lon="120.99729516381242"><ele>7.999999999999999</ele><time>2026-04-27T05:51:26.001Z</time></trkpt><trkpt lat="14.565607937349911" lon="120.9972109383569"><ele>8.0</ele><time>2026-04-27T05:51:27.001Z</time></trkpt><trkpt lat="14.565596789949762" lon="120.9971444076816"><ele>8.166666666666666</ele><time>2026-04-27T05:51:28.001Z</time></trkpt><trkpt lat="14.565576745522721" lon="120.99706548118778"><ele>8.333333333333332</ele><time>2026-04-27T05:51:30.002Z</time></trkpt><trkpt lat="14.565551869762288" lon="120.99700286418155"><ele>8.5</ele><time>2026-04-27T05:52:05.001Z</time></trkpt><trkpt lat="14.565529640158106" lon="120.9968983762955"><ele>8.666666666666666</ele><time>2026-04-27T05:52:07.001Z</time></trkpt><trkpt lat="14.565502271084029" lon="120.99682837092176"><ele>8.833333333333334</ele><time>2026-04-27T05:52:08.001Z</time></trkpt><trkpt lat="14.565468472843577" lon="120.99674814017055"><ele>9.0</ele><time>2026-04-27T05:52:09.001Z</time></trkpt><trkpt lat="14.565437182456073" lon="120.99664305031499"><ele>9.25</ele><time>2026-04-27T05:52:10.001Z</time></trkpt><trkpt lat="14.565381772520054" lon="120.99653012586472"><ele>9.5</ele><time>2026-04-27T05:52:11.001Z</time></trkpt><trkpt lat="14.565323608732173" lon="120.99639560751947"><ele>9.75</ele><time>2026-04-27T05:52:12.001Z</time></trkpt><trkpt lat="14.565269597391525" lon="120.99627076525532"><ele>10.0</ele><time>2026-04-27T05:52:13.001Z</time></trkpt><trkpt lat="14.565224623205399" lon="120.99616688526207"><ele>9.666666666666668</ele><time>2026-04-27T05:52:14.001Z</time></trkpt><trkpt lat="14.565200710665602" lon="120.99609368850909"><ele>9.333333333333334</ele><time>2026-04-27T05:52:15.001Z</time></trkpt><trkpt lat="14.565139562076684" lon="120.99597032114016"><ele>9.0</ele><time>2026-04-27T05:52:17.001Z</time></trkpt><trkpt lat="14.56510878311689" lon="120.9958993451246"><ele>8.666666666666666</ele><time>2026-04-27T05:52:18.001Z</time></trkpt><trkpt lat="14.565079930714914" lon="120.99583281173979"><ele>8.333333333333332</ele><time>2026-04-27T05:52:19.001Z</time></trkpt><trkpt lat="14.565049749154236" lon="120.99576321333502"><ele>8.0</ele><time>2026-04-27T05:52:20.001Z</time></trkpt><trkpt lat="14.565015699166047" lon="120.99568469433375"><ele>8.666666666666666</ele><time>2026-04-27T05:52:21.001Z</time></trkpt><trkpt lat="14.56497483385926" lon="120.99559592143831"><ele>9.333333333333332</ele><time>2026-04-27T05:52:22.001Z</time></trkpt><trkpt lat="14.564937461233413" lon="120.99551360008086"><ele>10.0</ele><time>2026-04-27T05:52:23.001Z</time></trkpt><trkpt lat="14.564900373982582" lon="120.99543374601971"><ele>10.666666666666666</ele><time>2026-04-27T05:52:24.001Z</time></trkpt><trkpt lat="14.564862870968382" lon="120.99535290948856"><ele>11.333333333333334</ele><time>2026-04-27T05:52:25.001Z</time></trkpt><trkpt lat="14.564838980186254" lon="120.99527049721965"><ele>12.0</ele><time>2026-04-27T05:52:26.001Z</time></trkpt><trkpt lat="14.564790378883306" lon="120.99519713174534"><ele>12.0</ele><time>2026-04-27T05:52:27.001Z</time></trkpt><trkpt lat="14.564759182035075" lon="120.99512453903552"><ele>12.0</ele><time>2026-04-27T05:52:28.001Z</time></trkpt><trkpt lat="14.56470144067647" lon="120.99500452198603"><ele>12.0</ele><time>2026-04-27T05:52:30.001Z</time></trkpt><trkpt lat="14.564661356969856" lon="120.99492429257613"><ele>12.0</ele><time>2026-04-27T05:52:31.001Z</time></trkpt><trkpt lat="14.564613323933836" lon="120.99484811756066"><ele>12.0</ele><time>2026-04-27T05:52:32.001Z</time></trkpt><trkpt lat="14.564579685486324" lon="120.9947659399611"><ele>11.5</ele><time>2026-04-27T05:52:33.001Z</time></trkpt><trkpt lat="14.564541790826807" lon="120.99470777567817"><ele>11.0</ele><time>2026-04-27T05:52:34.001Z</time></trkpt><trkpt lat="14.564493679346432" lon="120.99460912898306"><ele>10.5</ele><time>2026-04-27T05:52:36.001Z</time></trkpt><trkpt lat="14.56447682406589" lon="120.99454540235895"><ele>10.0</ele><time>2026-04-27T05:52:38.001Z</time></trkpt><trkpt lat="14.564394199733767" lon="120.99448767952018"><ele>9.5</ele><time>2026-04-27T05:53:40.001Z</time></trkpt><trkpt lat="14.564357396174874" lon="120.9943936704623"><ele>9.0</ele><time>2026-04-27T05:53:42.001Z</time></trkpt><trkpt lat="14.564318460126993" lon="120.99434119163558"><ele>9.857142857142858</ele><time>2026-04-27T05:53:44.001Z</time></trkpt><trkpt lat="14.564305150437914" lon="120.99427671973291"><ele>10.714285714285715</ele><time>2026-04-27T05:53:45.001Z</time></trkpt><trkpt lat="14.564226300372942" lon="120.99432529706863"><ele>11.571428571428573</ele><time>2026-04-27T05:53:46.001Z</time></trkpt><trkpt lat="14.564170705925308" lon="120.9943573522786"><ele>12.428571428571429</ele><time>2026-04-27T05:53:47.001Z</time></trkpt><trkpt lat="14.564109632907757" lon="120.99438663561723"><ele>13.285714285714285</ele><time>2026-04-27T05:53:48.001Z</time></trkpt><trkpt lat="14.564040644428134" lon="120.99441677795636"><ele>14.142857142857144</ele><time>2026-04-27T05:53:49.001Z</time></trkpt><trkpt lat="14.563969559280139" lon="120.9944447448117"><ele>15.0</ele><time>2026-04-27T05:53:50.001Z</time></trkpt><trkpt lat="14.563910009147076" lon="120.99447628270799"><ele>15.0</ele><time>2026-04-27T05:53:51.001Z</time></trkpt><trkpt lat="14.56385705439275" lon="120.99453639371339"><ele>15.0</ele><time>2026-04-27T05:53:53.001Z</time></trkpt><trkpt lat="14.563685768793537" lon="120.99457547001775"><ele>15.0</ele><time>2026-04-27T05:54:16.001Z</time></trkpt><trkpt lat="14.563626927665267" lon="120.99460546781458"><ele>15.0</ele><time>2026-04-27T05:54:17.001Z</time></trkpt><trkpt lat="14.56355659706581" lon="120.99464374624982"><ele>15.0</ele><time>2026-04-27T05:54:18.001Z</time></trkpt><trkpt lat="14.563497474467853" lon="120.99468762707782"><ele>14.5</ele><time>2026-04-27T05:54:19.001Z</time></trkpt><trkpt lat="14.56343592943505" lon="120.99473629154426"><ele>14.0</ele><time>2026-04-27T05:54:20.001Z</time></trkpt><trkpt lat="14.56336474632508" lon="120.99477926370477"><ele>13.5</ele><time>2026-04-27T05:54:21.001Z</time></trkpt><trkpt lat="14.563297452542784" lon="120.99483223784702"><ele>13.0</ele><time>2026-04-27T05:54:22.001Z</time></trkpt><trkpt lat="14.563226183166757" lon="120.9948621440652"><ele>12.5</ele><time>2026-04-27T05:54:23.001Z</time></trkpt><trkpt lat="14.56316824120985" lon="120.9949030377352"><ele>12.0</ele><time>2026-04-27T05:54:24.001Z</time></trkpt><trkpt lat="14.563050695751533" lon="120.99494419971802"><ele>12.0</ele><time>2026-04-27T05:54:26.001Z</time></trkpt><trkpt lat="14.562974203723819" lon="120.99498051440007"><ele>12.0</ele><time>2026-04-27T05:54:27.001Z</time></trkpt><trkpt lat="14.562901901338757" lon="120.99501478398878"><ele>12.0</ele><time>2026-04-27T05:54:28.001Z</time></trkpt><trkpt lat="14.562831965532673" lon="120.99504745918496"><ele>12.0</ele><time>2026-04-27T05:54:29.001Z</time></trkpt><trkpt lat="14.562754158854974" lon="120.99508381177533"><ele>12.0</ele><time>2026-04-27T05:54:30.001Z</time></trkpt><trkpt lat="14.562681437679457" lon="120.99511778833963"><ele>12.0</ele><time>2026-04-27T05:54:31.001Z</time></trkpt><trkpt lat="14.562553829781317" lon="120.99513881780274"><ele>11.6</ele><time>2026-04-27T05:54:33.001Z</time></trkpt><trkpt lat="14.56249114756213" lon="120.99514997242348"><ele>11.2</ele><time>2026-04-27T05:54:34.001Z</time></trkpt><trkpt lat="14.562424163918672" lon="120.99519066745077"><ele>10.8</ele><time>2026-04-27T05:54:35.001Z</time></trkpt><trkpt lat="14.562308564624486" lon="120.99522775954078"><ele>10.4</ele><time>2026-04-27T05:54:37.001Z</time></trkpt><trkpt lat="14.562185063540136" lon="120.9952577506128"><ele>10.0</ele><time>2026-04-27T05:54:39.001Z</time></trkpt><trkpt lat="14.562095095249967" lon="120.99528110890397"><ele>9.833333333333334</ele><time>2026-04-27T05:54:41.001Z</time></trkpt><trkpt lat="14.56202372518947" lon="120.99528279758228"><ele>9.666666666666668</ele><time>2026-04-27T05:54:43.001Z</time></trkpt><trkpt lat="14.561955306996087" lon="120.99527619692196"><ele>9.5</ele><time>2026-04-27T05:54:45.001Z</time></trkpt><trkpt lat="14.561870360972547" lon="120.99531284625351"><ele>9.333333333333334</ele><time>2026-04-27T05:54:48.001Z</time></trkpt><trkpt lat="14.561786589392728" lon="120.99532742565587"><ele>9.166666666666666</ele><time>2026-04-27T05:54:50.001Z</time></trkpt><trkpt lat="14.56171857497884" lon="120.99534947864746"><ele>9.0</ele><time>2026-04-27T05:54:51.001Z</time></trkpt><trkpt lat="14.56165282198196" lon="120.99536234628331"><ele>9.0</ele><time>2026-04-27T05:54:52.001Z</time></trkpt><trkpt lat="14.561561762644164" lon="120.9953727356051"><ele>9.0</ele><time>2026-04-27T05:54:53.001Z</time></trkpt><trkpt lat="14.561472788830436" lon="120.99538881465784"><ele>9.0</ele><time>2026-04-27T05:54:54.001Z</time></trkpt><trkpt lat="14.561378537238586" lon="120.99541493687272"><ele>9.0</ele><time>2026-04-27T05:54:55.001Z</time></trkpt><trkpt lat="14.561270931172746" lon="120.99545142333201"><ele>9.0</ele><time>2026-04-27T05:54:56.001Z</time></trkpt><trkpt lat="14.56116031637324" lon="120.9954781235809"><ele>8.6</ele><time>2026-04-27T05:54:57.001Z</time></trkpt><trkpt lat="14.56107078392035" lon="120.99550201601438"><ele>8.2</ele><time>2026-04-27T05:54:58.001Z</time></trkpt><trkpt lat="14.560966532072392" lon="120.99552510416433"><ele>7.799999999999999</ele><time>2026-04-27T05:54:59.001Z</time></trkpt><trkpt lat="14.560877901248833" lon="120.99554826983868"><ele>7.3999999999999995</ele><time>2026-04-27T05:55:00.001Z</time></trkpt><trkpt lat="14.560787562135365" lon="120.99556599590586"><ele>7.0</ele><time>2026-04-27T05:55:01.001Z</time></trkpt><trkpt lat="14.560693113815553" lon="120.99558232320226"><ele>7.000000000000001</ele><time>2026-04-27T05:55:02.001Z</time></trkpt><trkpt lat="14.560596808509892" lon="120.9955991291144"><ele>7.0</ele><time>2026-04-27T05:55:03.001Z</time></trkpt><trkpt lat="14.560521534682287" lon="120.99562448832326"><ele>7.0</ele><time>2026-04-27T05:55:04.001Z</time></trkpt><trkpt lat="14.560444993348524" lon="120.99564633339621"><ele>7.0</ele><time>2026-04-27T05:55:05.001Z</time></trkpt><trkpt lat="14.56037714917282" lon="120.9956644096653"><ele>7.000000000000001</ele><time>2026-04-27T05:55:06.001Z</time></trkpt><trkpt lat="14.56030343088496" lon="120.99568593959151"><ele>7.0</ele><time>2026-04-27T05:55:07.001Z</time></trkpt><trkpt lat="14.560196987109626" lon="120.9957217200814"><ele>7.6</ele><time>2026-04-27T05:55:09.001Z</time></trkpt><trkpt lat="14.560097042674517" lon="120.99574270750988"><ele>8.2</ele><time>2026-04-27T05:55:11.001Z</time></trkpt><trkpt lat="14.55999057701408" lon="120.99576295098393"><ele>8.8</ele><time>2026-04-27T05:55:13.001Z</time></trkpt><trkpt lat="14.55987804763027" lon="120.995780045287"><ele>9.4</ele><time>2026-04-27T05:55:15.001Z</time></trkpt><trkpt lat="14.5597720671521" lon="120.99580697390338"><ele>10.0</ele><time>2026-04-27T05:55:17.001Z</time></trkpt><trkpt lat="14.559664325413024" lon="120.99581825133919"><ele>9.833333333333334</ele><time>2026-04-27T05:55:19.001Z</time></trkpt><trkpt lat="14.559555368915655" lon="120.99584631896538"><ele>9.666666666666668</ele><time>2026-04-27T05:55:21.001Z</time></trkpt><trkpt lat="14.559464113170748" lon="120.99587137289804"><ele>9.5</ele><time>2026-04-27T05:55:23.001Z</time></trkpt><trkpt lat="14.559396864546297" lon="120.99588965767852"><ele>9.333333333333334</ele><time>2026-04-27T05:55:25.001Z</time></trkpt><trkpt lat="14.559314436091697" lon="120.99591165006667"><ele>9.166666666666666</ele><time>2026-04-27T05:55:27.001Z</time></trkpt><trkpt lat="14.559253988513168" lon="120.99593009571805"><ele>9.0</ele><time>2026-04-27T05:55:29.001Z</time></trkpt><trkpt lat="14.559179937801998" lon="120.99593207070991"><ele>9.0</ele><time>2026-04-27T05:55:31.001Z</time></trkpt><trkpt lat="14.559120423319428" lon="120.9959585813336"><ele>9.0</ele><time>2026-04-27T05:55:33.001Z</time></trkpt><trkpt lat="14.55905219771434" lon="120.99597596195095"><ele>9.0</ele><time>2026-04-27T05:55:35.001Z</time></trkpt><trkpt lat="14.55898505417785" lon="120.99599088707764"><ele>9.0</ele><time>2026-04-27T05:55:37.001Z</time></trkpt><trkpt lat="14.558900925946242" lon="120.99599667245424"><ele>9.0</ele><time>2026-04-27T05:55:41.001Z</time></trkpt><trkpt lat="14.558829453722488" lon="120.99601825237896"><ele>9.0</ele><time>2026-04-27T05:55:43.001Z</time></trkpt><trkpt lat="14.558731157625989" lon="120.99604985924904"><ele>9.0</ele><time>2026-04-27T05:55:45.001Z</time></trkpt><trkpt lat="14.558601200380638" lon="120.9960831652812"><ele>9.0</ele><time>2026-04-27T05:55:47.001Z</time></trkpt><trkpt lat="14.558516726895155" lon="120.996098251383"><ele>9.0</ele><time>2026-04-27T05:55:48.001Z</time></trkpt><trkpt lat="14.558451298165584" lon="120.99610744238292"><ele>9.0</ele><time>2026-04-27T05:55:49.001Z</time></trkpt><trkpt lat="14.558357516333873" lon="120.99612854023214"><ele>9.0</ele><time>2026-04-27T05:55:51.001Z</time></trkpt><trkpt lat="14.558285706851406" lon="120.99613570196533"><ele>9.0</ele><time>2026-04-27T05:55:53.001Z</time></trkpt><trkpt lat="14.55821473482009" lon="120.9961435778351"><ele>9.0</ele><time>2026-04-27T05:55:55Z</time></trkpt><trkpt lat="14.558144757329876" lon="120.99613734359387"><ele>9.0</ele><time>2026-04-27T05:56:02Z</time></trkpt><trkpt lat="14.558111156853942" lon="120.99601577943187"><ele>9.0</ele><time>2026-04-27T05:56:03Z</time></trkpt><trkpt lat="14.558043675373774" lon="120.99593057001154"><ele>9.0</ele><time>2026-04-27T05:56:05Z</time></trkpt><trkpt lat="14.558032420179973" lon="120.99584282194945"><ele>9.0</ele><time>2026-04-27T05:56:07Z</time></trkpt><trkpt lat="14.557979380630334" lon="120.99575020070964"><ele>9.0</ele><time>2026-04-27T05:56:09Z</time></trkpt><trkpt lat="14.557923478815345" lon="120.99566349450718"><ele>9.0</ele><time>2026-04-27T05:56:11Z</time></trkpt><trkpt lat="14.557863652216115" lon="120.99556525079768"><ele>9.0</ele><time>2026-04-27T05:56:13.076Z</time></trkpt><trkpt lat="14.557800904585221" lon="120.99547286040792"><ele>9.0</ele><time>2026-04-27T05:56:15.049Z</time></trkpt><trkpt lat="14.557744070833026" lon="120.99537567884217"><ele>8.5</ele><time>2026-04-27T05:56:17.042Z</time></trkpt><trkpt lat="14.55757874703036" lon="120.9949445914907"><ele>8.0</ele><time>2026-04-27T06:06:18.005Z</time></trkpt><trkpt lat="14.557605790635758" lon="120.99484386382372"><ele>8.0</ele><time>2026-04-27T06:07:39.001Z</time></trkpt><trkpt lat="14.557640787717347" lon="120.99476895687133"><ele>8.0</ele><time>2026-04-27T06:07:40.001Z</time></trkpt><trkpt lat="14.55769214361573" lon="120.99471880580494"><ele>8.0</ele><time>2026-04-27T06:07:41.001Z</time></trkpt><trkpt lat="14.557825609667379" lon="120.99483094534081"><ele>8.0</ele><time>2026-04-27T06:07:43.001Z</time></trkpt><trkpt lat="14.558011478766579" lon="120.99478901135767"><ele>7.999999999999999</ele><time>2026-04-27T06:07:47.001Z</time></trkpt><trkpt lat="14.5580878471269" lon="120.9947750992926"><ele>8.0</ele><time>2026-04-27T06:07:48.001Z</time></trkpt><trkpt lat="14.558166720296994" lon="120.99476359747095"><ele>8.0</ele><time>2026-04-27T06:07:49.001Z</time></trkpt><trkpt lat="14.558248111631775" lon="120.9947526398979"><ele>8.0</ele><time>2026-04-27T06:07:50.001Z</time></trkpt><trkpt lat="14.558335891479862" lon="120.994741264716"><ele>7.999999999999999</ele><time>2026-04-27T06:07:51.001Z</time></trkpt><trkpt lat="14.558417016922457" lon="120.99473101686769"><ele>8.0</ele><time>2026-04-27T06:07:52.001Z</time></trkpt><trkpt lat="14.558496878599215" lon="120.99472417158074"><ele>7.999999999999999</ele><time>2026-04-27T06:07:53.001Z</time></trkpt><trkpt lat="14.558564621441006" lon="120.9947183650417"><ele>8.0</ele><time>2026-04-27T06:07:54.001Z</time></trkpt><trkpt lat="14.55865566144059" lon="120.99471154004668"><ele>8.0</ele><time>2026-04-27T06:07:56.001Z</time></trkpt><trkpt lat="14.558754286642204" lon="120.99470390684753"><ele>8.0</ele><time>2026-04-27T06:07:59.001Z</time></trkpt><trkpt lat="14.558818311820902" lon="120.99469895155218"><ele>7.999999999999999</ele><time>2026-04-27T06:08:00.001Z</time></trkpt><trkpt lat="14.558882715579294" lon="120.99469396694327"><ele>8.0</ele><time>2026-04-27T06:08:01.001Z</time></trkpt><trkpt lat="14.558951835026303" lon="120.99466509179975"><ele>8.200000000000001</ele><time>2026-04-27T06:08:02.001Z</time></trkpt><trkpt lat="14.559070919057346" lon="120.99464849217398"><ele>8.4</ele><time>2026-04-27T06:08:04.001Z</time></trkpt><trkpt lat="14.559138861797301" lon="120.99464175517669"><ele>8.600000000000001</ele><time>2026-04-27T06:08:05.001Z</time></trkpt><trkpt lat="14.559261415975948" lon="120.99463398406424"><ele>8.8</ele><time>2026-04-27T06:08:07.001Z</time></trkpt><trkpt lat="14.559369126284485" lon="120.99461972427574"><ele>9.0</ele><time>2026-04-27T06:08:09.001Z</time></trkpt><trkpt lat="14.55947233884142" lon="120.99461142964199"><ele>9.2</ele><time>2026-04-27T06:08:11.001Z</time></trkpt><trkpt lat="14.559568369630947" lon="120.9945945489242"><ele>9.4</ele><time>2026-04-27T06:08:13.001Z</time></trkpt><trkpt lat="14.559673019062606" lon="120.99457476186615"><ele>9.6</ele><time>2026-04-27T06:08:15.001Z</time></trkpt><trkpt lat="14.55976614932685" lon="120.9945530955821"><ele>9.8</ele><time>2026-04-27T06:08:17.001Z</time></trkpt><trkpt lat="14.559847453361941" lon="120.99453570801732"><ele>10.0</ele><time>2026-04-27T06:08:19.001Z</time></trkpt><trkpt lat="14.55992499748233" lon="120.99453592541725"><ele>10.0</ele><time>2026-04-27T06:08:23.001Z</time></trkpt><trkpt lat="14.560021512756519" lon="120.99452153780862"><ele>10.0</ele><time>2026-04-27T06:08:26.001Z</time></trkpt><trkpt lat="14.560111800606064" lon="120.99448495914943"><ele>10.0</ele><time>2026-04-27T06:08:29Z</time></trkpt><trkpt lat="14.560192735496832" lon="120.99445759721577"><ele>10.0</ele><time>2026-04-27T06:08:31Z</time></trkpt><trkpt lat="14.560251800113015" lon="120.9944281688478"><ele>10.0</ele><time>2026-04-27T06:08:33Z</time></trkpt><trkpt lat="14.56031432501944" lon="120.9943940853534"><ele>10.0</ele><time>2026-04-27T06:08:35Z</time></trkpt><trkpt lat="14.560382426687989" lon="120.9943580940426"><ele>10.0</ele><time>2026-04-27T06:08:37Z</time></trkpt><trkpt lat="14.560464812737129" lon="120.99431867105031"><ele>10.0</ele><time>2026-04-27T06:08:39Z</time></trkpt><trkpt lat="14.560546390515482" lon="120.99427259414914"><ele>10.0</ele><time>2026-04-27T06:08:41Z</time></trkpt><trkpt lat="14.560615950106023" lon="120.99423614948606"><ele>10.0</ele><time>2026-04-27T06:08:43Z</time></trkpt><trkpt lat="14.560700817737741" lon="120.99419254067818"><ele>10.0</ele><time>2026-04-27T06:08:45Z</time></trkpt><trkpt lat="14.560788283976168" lon="120.99413693963554"><ele>10.0</ele><time>2026-04-27T06:08:47Z</time></trkpt><trkpt lat="14.560855335745384" lon="120.99410421726624"><ele>10.0</ele><time>2026-04-27T06:08:49Z</time></trkpt><trkpt lat="14.56092085066029" lon="120.99407312810128"><ele>10.0</ele><time>2026-04-27T06:08:51Z</time></trkpt><trkpt lat="14.561000146746707" lon="120.99403028134381"><ele>10.0</ele><time>2026-04-27T06:08:53Z</time></trkpt><trkpt lat="14.561062834245135" lon="120.99399126302292"><ele>10.0</ele><time>2026-04-27T06:08:55Z</time></trkpt><trkpt lat="14.561140089991563" lon="120.99395738975596"><ele>10.0</ele><time>2026-04-27T06:08:58Z</time></trkpt><trkpt lat="14.561195741664848" lon="120.99392460962797"><ele>10.0</ele><time>2026-04-27T06:09:02Z</time></trkpt><trkpt lat="14.56127714749293" lon="120.99403698661347"><ele>10.0</ele><time>2026-04-27T06:09:03Z</time></trkpt><trkpt lat="14.561324808622613" lon="120.99408376373216"><ele>10.0</ele><time>2026-04-27T06:09:05Z</time></trkpt><trkpt lat="14.561535479784853" lon="120.99412026207"><ele>10.0</ele><time>2026-04-27T06:09:08Z</time></trkpt><trkpt lat="14.56135208673893" lon="120.99392043083853"><ele>10.0</ele><time>2026-04-27T06:09:09Z</time></trkpt><trkpt lat="14.561310072917017" lon="120.9938522532909"><ele>10.0</ele><time>2026-04-27T06:09:10Z</time></trkpt><trkpt lat="14.56127569368618" lon="120.99376708325939"><ele>10.0</ele><time>2026-04-27T06:09:11Z</time></trkpt><trkpt lat="14.56124639784959" lon="120.99368577910353"><ele>10.0</ele><time>2026-04-27T06:09:12Z</time></trkpt><trkpt lat="14.561218476252442" lon="120.99358801288702"><ele>10.0</ele><time>2026-04-27T06:09:13Z</time></trkpt><trkpt lat="14.5611948971432" lon="120.99349049129646"><ele>10.0</ele><time>2026-04-27T06:09:14Z</time></trkpt><trkpt lat="14.56117396463488" lon="120.99338737058255"><ele>10.0</ele><time>2026-04-27T06:09:15Z</time></trkpt><trkpt lat="14.561159960977365" lon="120.99328850322027"><ele>10.0</ele><time>2026-04-27T06:09:16Z</time></trkpt><trkpt lat="14.561127968696232" lon="120.99316485154385"><ele>10.0</ele><time>2026-04-27T06:09:17Z</time></trkpt><trkpt lat="14.56110894709022" lon="120.9930703090198"><ele>10.0</ele><time>2026-04-27T06:09:18Z</time></trkpt><trkpt lat="14.561097453018943" lon="120.99297925947016"><ele>10.0</ele><time>2026-04-27T06:09:19Z</time></trkpt><trkpt lat="14.561084258594617" lon="120.99290856156978"><ele>10.0</ele><time>2026-04-27T06:09:20Z</time></trkpt><trkpt lat="14.561056327548883" lon="120.9928112281048"><ele>10.0</ele><time>2026-04-27T06:09:22Z</time></trkpt><trkpt lat="14.561053491220477" lon="120.99273670750377"><ele>10.0</ele><time>2026-04-27T06:09:24Z</time></trkpt><trkpt lat="14.561037814781924" lon="120.99266466334413"><ele>10.0</ele><time>2026-04-27T06:09:26Z</time></trkpt><trkpt lat="14.56099905966794" lon="120.99258597017472"><ele>10.0</ele><time>2026-04-27T06:10:08.001Z</time></trkpt><trkpt lat="14.56097533192727" lon="120.99249777754574"><ele>10.0</ele><time>2026-04-27T06:10:10.001Z</time></trkpt><trkpt lat="14.560959460010947" lon="120.99243005587685"><ele>10.0</ele><time>2026-04-27T06:10:11.001Z</time></trkpt><trkpt lat="14.560938843831481" lon="120.99235175424212"><ele>10.0</ele><time>2026-04-27T06:10:12.001Z</time></trkpt><trkpt lat="14.56089936498489" lon="120.9922551790107"><ele>10.0</ele><time>2026-04-27T06:10:13.001Z</time></trkpt><trkpt lat="14.560882746668867" lon="120.99214121437198"><ele>10.0</ele><time>2026-04-27T06:10:14.001Z</time></trkpt><trkpt lat="14.560856474232258" lon="120.99203258037261"><ele>10.0</ele><time>2026-04-27T06:10:15.001Z</time></trkpt><trkpt lat="14.560826473869316" lon="120.99191241964937"><ele>10.0</ele><time>2026-04-27T06:10:16.001Z</time></trkpt><trkpt lat="14.560794651797952" lon="120.99178533134737"><ele>10.0</ele><time>2026-04-27T06:10:17.001Z</time></trkpt><trkpt lat="14.560760660875124" lon="120.99164958126705"><ele>10.0</ele><time>2026-04-27T06:10:18.001Z</time></trkpt><trkpt lat="14.560724555173557" lon="120.99150538535544"><ele>10.0</ele><time>2026-04-27T06:10:19.001Z</time></trkpt><trkpt lat="14.560689018328224" lon="120.99136255460009"><ele>10.25</ele><time>2026-04-27T06:10:20.001Z</time></trkpt><trkpt lat="14.56065159070095" lon="120.9912121786239"><ele>10.5</ele><time>2026-04-27T06:10:21.001Z</time></trkpt><trkpt lat="14.560615834948385" lon="120.99106851987263"><ele>10.75</ele><time>2026-04-27T06:10:22.001Z</time></trkpt><trkpt lat="14.56057921837457" lon="120.990921402528"><ele>11.0</ele><time>2026-04-27T06:10:23.001Z</time></trkpt><trkpt lat="14.560541845814924" lon="120.99077124779879"><ele>12.0</ele><time>2026-04-27T06:10:24.001Z</time></trkpt><trkpt lat="14.560504506651087" lon="120.99062115439501"><ele>13.0</ele><time>2026-04-27T06:10:25.001Z</time></trkpt><trkpt lat="14.560467108948279" lon="120.99047082419115"><ele>14.0</ele><time>2026-04-27T06:10:26.001Z</time></trkpt><trkpt lat="14.560429875689218" lon="120.99032115499368"><ele>14.0</ele><time>2026-04-27T06:10:27.001Z</time></trkpt><trkpt lat="14.560396300324882" lon="120.99018382604697"><ele>14.0</ele><time>2026-04-27T06:10:28.001Z</time></trkpt><trkpt lat="14.560364709479941" lon="120.9900564828482"><ele>14.0</ele><time>2026-04-27T06:10:29.001Z</time></trkpt><trkpt lat="14.560335721405185" lon="120.98993963145107"><ele>14.0</ele><time>2026-04-27T06:10:30.001Z</time></trkpt><trkpt lat="14.560309335894729" lon="120.98983327103602"><ele>13.500000000000002</ele><time>2026-04-27T06:10:31.001Z</time></trkpt><trkpt lat="14.560286889883178" lon="120.98974279080727"><ele>13.0</ele><time>2026-04-27T06:10:32.001Z</time></trkpt><trkpt lat="14.560268269153994" lon="120.98966773034607"><ele>12.5</ele><time>2026-04-27T06:10:33.001Z</time></trkpt><trkpt lat="14.5602414703754" lon="120.98955970404329"><ele>12.0</ele><time>2026-04-27T06:10:35Z</time></trkpt><trkpt lat="14.560222534225781" lon="120.98948304919506"><ele>11.5</ele><time>2026-04-27T06:11:30Z</time></trkpt><trkpt lat="14.560200696544989" lon="120.98939400994178"><ele>11.0</ele><time>2026-04-27T06:11:32Z</time></trkpt><trkpt lat="14.560180094125014" lon="120.98932085564198"><ele>11.0</ele><time>2026-04-27T06:11:33Z</time></trkpt><trkpt lat="14.560154129214576" lon="120.98923679421753"><ele>11.0</ele><time>2026-04-27T06:11:34Z</time></trkpt><trkpt lat="14.560130688305156" lon="120.98914246433327"><ele>11.0</ele><time>2026-04-27T06:11:35Z</time></trkpt><trkpt lat="14.560105875831702" lon="120.98904330842416"><ele>11.0</ele><time>2026-04-27T06:11:36Z</time></trkpt><trkpt lat="14.560078822420186" lon="120.98893519724955"><ele>11.0</ele><time>2026-04-27T06:11:37Z</time></trkpt><trkpt lat="14.560049648587242" lon="120.98881861234527"><ele>11.5</ele><time>2026-04-27T06:11:38Z</time></trkpt><trkpt lat="14.560016927628288" lon="120.98869626536386"><ele>12.0</ele><time>2026-04-27T06:11:39Z</time></trkpt><trkpt lat="14.559984694925637" lon="120.98857284286733"><ele>12.5</ele><time>2026-04-27T06:11:40Z</time></trkpt><trkpt lat="14.559954240094337" lon="120.98845622801431"><ele>13.0</ele><time>2026-04-27T06:11:41Z</time></trkpt><trkpt lat="14.55992600921535" lon="120.98834829963539"><ele>12.999999999999998</ele><time>2026-04-27T06:11:42Z</time></trkpt><trkpt lat="14.559900826981975" lon="120.98825167480197"><ele>13.0</ele><time>2026-04-27T06:11:43Z</time></trkpt><trkpt lat="14.559880691518773" lon="120.98817441454419"><ele>13.0</ele><time>2026-04-27T06:11:44Z</time></trkpt><trkpt lat="14.559861001098701" lon="120.98809886192285"><ele>13.0</ele><time>2026-04-27T06:11:45Z</time></trkpt><trkpt lat="14.559838868328775" lon="120.98801393795868"><ele>12.999999999999998</ele><time>2026-04-27T06:11:46Z</time></trkpt><trkpt lat="14.559819613675577" lon="120.98794005738772"><ele>13.0</ele><time>2026-04-27T06:11:47Z</time></trkpt><trkpt lat="14.559796359670402" lon="120.98785083122219"><ele>12.999999999999998</ele><time>2026-04-27T06:11:48Z</time></trkpt><trkpt lat="14.55977980917367" lon="120.98778732657627"><ele>13.0</ele><time>2026-04-27T06:11:49Z</time></trkpt><trkpt lat="14.559754010089108" lon="120.98768833484931"><ele>13.0</ele><time>2026-04-27T06:11:51.001Z</time></trkpt><trkpt lat="14.559733122198304" lon="120.98760818752052"><ele>13.0</ele><time>2026-04-27T06:11:53.001Z</time></trkpt><trkpt lat="14.559709552670027" lon="120.98751775067026"><ele>12.999999999999998</ele><time>2026-04-27T06:12:31.001Z</time></trkpt><trkpt lat="14.559685963590608" lon="120.98740996890191"><ele>13.0</ele><time>2026-04-27T06:12:33.001Z</time></trkpt><trkpt lat="14.559669726383326" lon="120.98733458185347"><ele>12.0</ele><time>2026-04-27T06:12:34.001Z</time></trkpt><trkpt lat="14.559628412075186" lon="120.98722230467042"><ele>11.0</ele><time>2026-04-27T06:12:36.001Z</time></trkpt><trkpt lat="14.559606464542082" lon="120.98709484275646"><ele>10.0</ele><time>2026-04-27T06:12:38.001Z</time></trkpt><trkpt lat="14.559559866733888" lon="120.98702730168064"><ele>9.0</ele><time>2026-04-27T06:12:40.001Z</time></trkpt><trkpt lat="14.559294170798395" lon="120.9870902429854"><ele>9.0</ele><time>2026-04-27T06:12:41Z</time></trkpt><trkpt lat="14.559229011959523" lon="120.98711000074807"><ele>9.0</ele><time>2026-04-27T06:12:42Z</time></trkpt><trkpt lat="14.55915594275974" lon="120.98715205133612"><ele>9.0</ele><time>2026-04-27T06:12:43Z</time></trkpt><trkpt lat="14.559071374124507" lon="120.98720072390789"><ele>9.0</ele><time>2026-04-27T06:12:44Z</time></trkpt><trkpt lat="14.55897284274889" lon="120.98724946561198"><ele>9.0</ele><time>2026-04-27T06:12:45Z</time></trkpt><trkpt lat="14.558862716361386" lon="120.98730073243642"><ele>9.0</ele><time>2026-04-27T06:12:46Z</time></trkpt><trkpt lat="14.5587449876941" lon="120.98735352477755"><ele>9.0</ele><time>2026-04-27T06:12:47Z</time></trkpt><trkpt lat="14.558621620336107" lon="120.98740812115388"><ele>9.0</ele><time>2026-04-27T06:12:48Z</time></trkpt><trkpt lat="14.55849160243993" lon="120.98746277750186"><ele>9.0</ele><time>2026-04-27T06:12:49Z</time></trkpt><trkpt lat="14.558352898796759" lon="120.98751993168347"><ele>8.25</ele><time>2026-04-27T06:12:50Z</time></trkpt><trkpt lat="14.55820728566027" lon="120.98756875075557"><ele>7.5</ele><time>2026-04-27T06:12:51Z</time></trkpt><trkpt lat="14.558068711395164" lon="120.98761357749574"><ele>6.75</ele><time>2026-04-27T06:12:52Z</time></trkpt><trkpt lat="14.557941003560995" lon="120.98765628698297"><ele>6.0</ele><time>2026-04-27T06:12:53Z</time></trkpt><trkpt lat="14.557818265625162" lon="120.9877009135546"><ele>6.0</ele><time>2026-04-27T06:12:54Z</time></trkpt><trkpt lat="14.55769026310007" lon="120.98774150332841"><ele>6.0</ele><time>2026-04-27T06:12:55Z</time></trkpt><trkpt lat="14.557559912604782" lon="120.98777801426532"><ele>6.0</ele><time>2026-04-27T06:12:56Z</time></trkpt><trkpt lat="14.557431382389746" lon="120.9878056930423"><ele>6.0</ele><time>2026-04-27T06:12:57Z</time></trkpt><trkpt lat="14.557301102926212" lon="120.98783654973407"><ele>6.0</ele><time>2026-04-27T06:12:58Z</time></trkpt><trkpt lat="14.557171228327693" lon="120.98787264290975"><ele>6.0</ele><time>2026-04-27T06:12:59Z</time></trkpt><trkpt lat="14.557047578081134" lon="120.98791275274797"><ele>6.0</ele><time>2026-04-27T06:13:00Z</time></trkpt><trkpt lat="14.55692818517208" lon="120.98794643611552"><ele>6.0</ele><time>2026-04-27T06:13:01Z</time></trkpt><trkpt lat="14.556809525217814" lon="120.98798703903493"><ele>6.75</ele><time>2026-04-27T06:13:02Z</time></trkpt><trkpt lat="14.556693651526897" lon="120.98802453109424"><ele>7.5</ele><time>2026-04-27T06:13:03Z</time></trkpt><trkpt lat="14.55658580454369" lon="120.98805971294625"><ele>8.25</ele><time>2026-04-27T06:13:04Z</time></trkpt><trkpt lat="14.556480047258079" lon="120.98809120122178"><ele>9.0</ele><time>2026-04-27T06:13:05Z</time></trkpt><trkpt lat="14.556366314543686" lon="120.988125837767"><ele>9.0</ele><time>2026-04-27T06:13:06Z</time></trkpt><trkpt lat="14.556257337264126" lon="120.98815996017666"><ele>9.0</ele><time>2026-04-27T06:13:07Z</time></trkpt><trkpt lat="14.556148257175998" lon="120.98819216235033"><ele>9.0</ele><time>2026-04-27T06:13:08Z</time></trkpt><trkpt lat="14.556040384063776" lon="120.98822345838714"><ele>9.0</ele><time>2026-04-27T06:13:09Z</time></trkpt><trkpt lat="14.555930664456836" lon="120.98826063417275"><ele>8.833333333333334</ele><time>2026-04-27T06:13:10Z</time></trkpt><trkpt lat="14.555831376410026" lon="120.98829210350128"><ele>8.666666666666666</ele><time>2026-04-27T06:13:11Z</time></trkpt><trkpt lat="14.555738900985647" lon="120.98832138369622"><ele>8.5</ele><time>2026-04-27T06:13:12Z</time></trkpt><trkpt lat="14.555665764219322" lon="120.9883425554325"><ele>8.333333333333332</ele><time>2026-04-27T06:13:13Z</time></trkpt><trkpt lat="14.55558942294346" lon="120.98837508070781"><ele>8.166666666666666</ele><time>2026-04-27T06:13:14Z</time></trkpt><trkpt lat="14.5555055055711" lon="120.98839724419803"><ele>8.0</ele><time>2026-04-27T06:13:15Z</time></trkpt><trkpt lat="14.555417142468198" lon="120.98842506496692"><ele>7.6000000000000005</ele><time>2026-04-27T06:13:16Z</time></trkpt><trkpt lat="14.555326336229461" lon="120.98844998161124"><ele>7.200000000000001</ele><time>2026-04-27T06:13:17Z</time></trkpt><trkpt lat="14.555229202411606" lon="120.98848061700137"><ele>6.8</ele><time>2026-04-27T06:13:18Z</time></trkpt><trkpt lat="14.555131216107311" lon="120.98851100955076"><ele>6.4</ele><time>2026-04-27T06:13:19Z</time></trkpt><trkpt lat="14.555020173691561" lon="120.98854361458109"><ele>6.0</ele><time>2026-04-27T06:13:20Z</time></trkpt><trkpt lat="14.554912222480109" lon="120.98858392387699"><ele>6.0</ele><time>2026-04-27T06:13:21Z</time></trkpt><trkpt lat="14.554812334368258" lon="120.98861955919766"><ele>6.0</ele><time>2026-04-27T06:13:22Z</time></trkpt><trkpt lat="14.554697578102916" lon="120.9886571836718"><ele>6.0</ele><time>2026-04-27T06:13:23Z</time></trkpt><trkpt lat="14.554593641987553" lon="120.98868800726409"><ele>6.0</ele><time>2026-04-27T06:13:24Z</time></trkpt><trkpt lat="14.554498239862172" lon="120.98871266570954"><ele>6.0</ele><time>2026-04-27T06:13:25Z</time></trkpt><trkpt lat="14.55441792081899" lon="120.98873696151429"><ele>6.166666666666667</ele><time>2026-04-27T06:13:26Z</time></trkpt><trkpt lat="14.55435750791408" lon="120.98875789705423"><ele>6.333333333333334</ele><time>2026-04-27T06:13:27Z</time></trkpt><trkpt lat="14.554278119510117" lon="120.98879436632629"><ele>6.5</ele><time>2026-04-27T06:13:30Z</time></trkpt><trkpt lat="14.554190145325107" lon="120.98881439259294"><ele>6.666666666666667</ele><time>2026-04-27T06:13:32Z</time></trkpt><trkpt lat="14.554077435023126" lon="120.988847217292"><ele>6.833333333333334</ele><time>2026-04-27T06:13:34Z</time></trkpt><trkpt lat="14.554004594095774" lon="120.98886923499387"><ele>7.0</ele><time>2026-04-27T06:13:35Z</time></trkpt><trkpt lat="14.553941303667608" lon="120.98888952688617"><ele>7.000000000000001</ele><time>2026-04-27T06:13:36Z</time></trkpt><trkpt lat="14.553875593646978" lon="120.9889127534721"><ele>7.0</ele><time>2026-04-27T06:13:37Z</time></trkpt><trkpt lat="14.553802676083412" lon="120.98893623581849"><ele>7.0</ele><time>2026-04-27T06:13:38Z</time></trkpt><trkpt lat="14.553729327579449" lon="120.98895983170407"><ele>7.0</ele><time>2026-04-27T06:13:39Z</time></trkpt><trkpt lat="14.553663779787927" lon="120.98898211228104"><ele>7.000000000000001</ele><time>2026-04-27T06:13:40Z</time></trkpt><trkpt lat="14.55356957709947" lon="120.98900777635689"><ele>7.0</ele><time>2026-04-27T06:13:42Z</time></trkpt><trkpt lat="14.55349956186826" lon="120.98902824666729"><ele>6.8</ele><time>2026-04-27T06:13:46Z</time></trkpt><trkpt lat="14.553388239831975" lon="120.98906550937097"><ele>6.6</ele><time>2026-04-27T06:13:48Z</time></trkpt><trkpt lat="14.553327294644408" lon="120.98908607020829"><ele>6.3999999999999995</ele><time>2026-04-27T06:13:49Z</time></trkpt><trkpt lat="14.553249651393376" lon="120.98911074310877"><ele>6.199999999999999</ele><time>2026-04-27T06:13:50Z</time></trkpt><trkpt lat="14.553102903964078" lon="120.98914620489504"><ele>6.0</ele><time>2026-04-27T06:13:52Z</time></trkpt><trkpt lat="14.553021951812655" lon="120.98915677927079"><ele>6.5</ele><time>2026-04-27T06:13:53Z</time></trkpt><trkpt lat="14.552952299003186" lon="120.98918416692374"><ele>7.0</ele><time>2026-04-27T06:13:54Z</time></trkpt><trkpt lat="14.552872917214533" lon="120.98921851202154"><ele>7.5</ele><time>2026-04-27T06:13:55.001Z</time></trkpt><trkpt lat="14.552798109925192" lon="120.98926016547472"><ele>8.0</ele><time>2026-04-27T06:13:56.001Z</time></trkpt><trkpt lat="14.552719470974242" lon="120.98929632039885"><ele>8.5</ele><time>2026-04-27T06:13:57.001Z</time></trkpt><trkpt lat="14.552661890982241" lon="120.98933310536933"><ele>9.0</ele><time>2026-04-27T06:13:58.001Z</time></trkpt><trkpt lat="14.552605781534648" lon="120.98937501124415"><ele>9.25</ele><time>2026-04-27T06:14:00.001Z</time></trkpt><trkpt lat="14.552417278330923" lon="120.9894051855381"><ele>9.5</ele><time>2026-04-27T06:14:01.001Z</time></trkpt><trkpt lat="14.552309099620347" lon="120.98945013768646"><ele>9.75</ele><time>2026-04-27T06:14:02.001Z</time></trkpt><trkpt lat="14.552188104768714" lon="120.98948640670255"><ele>10.0</ele><time>2026-04-27T06:14:03.001Z</time></trkpt><trkpt lat="14.552070556116684" lon="120.9895214029148"><ele>9.75</ele><time>2026-04-27T06:14:04.001Z</time></trkpt><trkpt lat="14.551959520452959" lon="120.98955767246497"><ele>9.5</ele><time>2026-04-27T06:14:05.001Z</time></trkpt><trkpt lat="14.55185634101015" lon="120.98958102169324"><ele>9.25</ele><time>2026-04-27T06:14:06.001Z</time></trkpt><trkpt lat="14.551767674218066" lon="120.98958799054166"><ele>9.0</ele><time>2026-04-27T06:14:07.001Z</time></trkpt><trkpt lat="14.551611210800598" lon="120.98965043432726"><ele>9.0</ele><time>2026-04-27T06:14:08.001Z</time></trkpt><trkpt lat="14.551495997765757" lon="120.9896794151899"><ele>9.0</ele><time>2026-04-27T06:14:09.001Z</time></trkpt><trkpt lat="14.551379724706402" lon="120.98970816804646"><ele>9.0</ele><time>2026-04-27T06:14:10.001Z</time></trkpt><trkpt lat="14.551261648356846" lon="120.98973610232845"><ele>9.0</ele><time>2026-04-27T06:14:11.001Z</time></trkpt><trkpt lat="14.551137881535105" lon="120.98976238685344"><ele>8.5</ele><time>2026-04-27T06:14:12.001Z</time></trkpt><trkpt lat="14.55101121369245" lon="120.98978829825286"><ele>8.0</ele><time>2026-04-27T06:14:13.001Z</time></trkpt><trkpt lat="14.5508920032552" lon="120.98981743733631"><ele>7.5</ele><time>2026-04-27T06:14:14.001Z</time></trkpt><trkpt lat="14.550776229595026" lon="120.98984547884635"><ele>7.0</ele><time>2026-04-27T06:14:15.001Z</time></trkpt><trkpt lat="14.550663964592319" lon="120.98987288421263"><ele>7.0</ele><time>2026-04-27T06:14:16.001Z</time></trkpt><trkpt lat="14.550550684133029" lon="120.98990329026083"><ele>7.0</ele><time>2026-04-27T06:14:17.001Z</time></trkpt><trkpt lat="14.550439172076429" lon="120.9899327784609"><ele>7.0</ele><time>2026-04-27T06:14:18.001Z</time></trkpt><trkpt lat="14.550333234806963" lon="120.98995898084657"><ele>7.0</ele><time>2026-04-27T06:14:19.001Z</time></trkpt><trkpt lat="14.550221802059548" lon="120.98997960373676"><ele>7.25</ele><time>2026-04-27T06:14:20.001Z</time></trkpt><trkpt lat="14.55010684255532" lon="120.99000173630516"><ele>7.5</ele><time>2026-04-27T06:14:21.001Z</time></trkpt><trkpt lat="14.549989503045138" lon="120.99002364302126"><ele>7.75</ele><time>2026-04-27T06:14:22.001Z</time></trkpt><trkpt lat="14.54987089655625" lon="120.99004588896076"><ele>8.0</ele><time>2026-04-27T06:14:23.001Z</time></trkpt><trkpt lat="14.5497506899074" lon="120.99007168958592"><ele>8.0</ele><time>2026-04-27T06:14:24.001Z</time></trkpt><trkpt lat="14.549631232510922" lon="120.99010211551477"><ele>8.0</ele><time>2026-04-27T06:14:25.001Z</time></trkpt><trkpt lat="14.549513770175835" lon="120.99013304272744"><ele>8.0</ele><time>2026-04-27T06:14:26.001Z</time></trkpt><trkpt lat="14.549396742094778" lon="120.99016134964853"><ele>8.0</ele><time>2026-04-27T06:14:27.001Z</time></trkpt><trkpt lat="14.549278587271878" lon="120.99018923437748"><ele>8.0</ele><time>2026-04-27T06:14:28.001Z</time></trkpt><trkpt lat="14.549162028043908" lon="120.99022141954657"><ele>8.0</ele><time>2026-04-27T06:14:29.001Z</time></trkpt><trkpt lat="14.549038712648379" lon="120.99025271559505"><ele>8.0</ele><time>2026-04-27T06:14:30.001Z</time></trkpt><trkpt lat="14.548911474832462" lon="120.9902890180766"><ele>8.0</ele><time>2026-04-27T06:14:31.001Z</time></trkpt><trkpt lat="14.548786788527092" lon="120.99031997550888"><ele>9.75</ele><time>2026-04-27T06:14:32.001Z</time></trkpt><trkpt lat="14.548658178468385" lon="120.99035413329624"><ele>11.5</ele><time>2026-04-27T06:14:33.001Z</time></trkpt><trkpt lat="14.548529868299566" lon="120.99039010678595"><ele>13.25</ele><time>2026-04-27T06:14:34.001Z</time></trkpt><trkpt lat="14.548399772849143" lon="120.99041737376729"><ele>15.0</ele><time>2026-04-27T06:14:35.001Z</time></trkpt><trkpt lat="14.548278775023704" lon="120.99044504414293"><ele>15.0</ele><time>2026-04-27T06:14:36.001Z</time></trkpt><trkpt lat="14.548148646373063" lon="120.99047353849593"><ele>15.0</ele><time>2026-04-27T06:14:37.001Z</time></trkpt><trkpt lat="14.548030746084347" lon="120.99050110157778"><ele>15.0</ele><time>2026-04-27T06:14:38.001Z</time></trkpt><trkpt lat="14.54792319843016" lon="120.99052878851398"><ele>15.0</ele><time>2026-04-27T06:14:39.001Z</time></trkpt><trkpt lat="14.54781201282403" lon="120.99055367931358"><ele>13.6</ele><time>2026-04-27T06:14:40.001Z</time></trkpt><trkpt lat="14.54771021910363" lon="120.99057636891874"><ele>12.2</ele><time>2026-04-27T06:14:41.001Z</time></trkpt><trkpt lat="14.547595861925439" lon="120.99060455473011"><ele>10.8</ele><time>2026-04-27T06:14:42.001Z</time></trkpt><trkpt lat="14.54749802648007" lon="120.99062868574214"><ele>9.4</ele><time>2026-04-27T06:14:43.001Z</time></trkpt><trkpt lat="14.547416553432411" lon="120.99064727425437"><ele>8.0</ele><time>2026-04-27T06:14:44.001Z</time></trkpt><trkpt lat="14.547327034798126" lon="120.99067269558626"><ele>8.0</ele><time>2026-04-27T06:14:45.001Z</time></trkpt><trkpt lat="14.547233047407492" lon="120.99070692409497"><ele>8.0</ele><time>2026-04-27T06:14:46.001Z</time></trkpt><trkpt lat="14.547121767374916" lon="120.990733193429"><ele>8.0</ele><time>2026-04-27T06:14:46.999Z</time></trkpt><trkpt lat="14.547010804120367" lon="120.9907536555935"><ele>8.0</ele><time>2026-04-27T06:14:47.999Z</time></trkpt><trkpt lat="14.546886194448701" lon="120.99078180998839"><ele>7.75</ele><time>2026-04-27T06:14:48.999Z</time></trkpt><trkpt lat="14.546760351733704" lon="120.99081420681556"><ele>7.5</ele><time>2026-04-27T06:14:49.999Z</time></trkpt><trkpt lat="14.546644575005494" lon="120.9908386174744"><ele>7.25</ele><time>2026-04-27T06:14:50.999Z</time></trkpt><trkpt lat="14.546523803031388" lon="120.99086528991228"><ele>7.0</ele><time>2026-04-27T06:14:51.999Z</time></trkpt><trkpt lat="14.546402972137198" lon="120.99089106243153"><ele>7.0</ele><time>2026-04-27T06:14:52.999Z</time></trkpt><trkpt lat="14.54627162369372" lon="120.99091996916972"><ele>7.0</ele><time>2026-04-27T06:14:53.999Z</time></trkpt><trkpt lat="14.546158191335827" lon="120.99095043967812"><ele>7.0</ele><time>2026-04-27T06:14:54.999Z</time></trkpt><trkpt lat="14.546031957362723" lon="120.99098171960479"><ele>7.0</ele><time>2026-04-27T06:14:55.999Z</time></trkpt><trkpt lat="14.545914271027458" lon="120.99100788737307"><ele>7.0</ele><time>2026-04-27T06:14:56.999Z</time></trkpt><trkpt lat="14.5457908967942" lon="120.99103623316255"><ele>7.0</ele><time>2026-04-27T06:14:57.999Z</time></trkpt><trkpt lat="14.545681028480725" lon="120.99106198090739"><ele>7.0</ele><time>2026-04-27T06:14:58.999Z</time></trkpt><trkpt lat="14.545564164120933" lon="120.99108937334367"><ele>7.0</ele><time>2026-04-27T06:14:59.999Z</time></trkpt><trkpt lat="14.545441606980935" lon="120.99111357640051"><ele>8.0</ele><time>2026-04-27T06:15:00.999Z</time></trkpt><trkpt lat="14.545316081382547" lon="120.9911398475886"><ele>9.0</ele><time>2026-04-27T06:15:01.999Z</time></trkpt><trkpt lat="14.545180681519506" lon="120.9911717494323"><ele>10.0</ele><time>2026-04-27T06:15:03Z</time></trkpt><trkpt lat="14.54504588729606" lon="120.99120834466119"><ele>11.0</ele><time>2026-04-27T06:15:04Z</time></trkpt><trkpt lat="14.544896468450485" lon="120.99123610264485"><ele>11.0</ele><time>2026-04-27T06:15:05Z</time></trkpt><trkpt lat="14.544736872765736" lon="120.99126827545177"><ele>11.0</ele><time>2026-04-27T06:15:06Z</time></trkpt><trkpt lat="14.544581542140056" lon="120.9912979474135"><ele>11.0</ele><time>2026-04-27T06:15:07Z</time></trkpt><trkpt lat="14.544425507381325" lon="120.99132816028114"><ele>10.0</ele><time>2026-04-27T06:15:08Z</time></trkpt><trkpt lat="14.544260056054332" lon="120.99136116652018"><ele>9.0</ele><time>2026-04-27T06:15:09Z</time></trkpt><trkpt lat="14.544088324377611" lon="120.99139483261018"><ele>8.0</ele><time>2026-04-27T06:15:10Z</time></trkpt><trkpt lat="14.54390713577479" lon="120.99142385267552"><ele>8.0</ele><time>2026-04-27T06:15:11Z</time></trkpt><trkpt lat="14.543734906054581" lon="120.99145240571323"><ele>8.0</ele><time>2026-04-27T06:15:12Z</time></trkpt><trkpt lat="14.543558519560543" lon="120.99148696353278"><ele>8.0</ele><time>2026-04-27T06:15:13Z</time></trkpt><trkpt lat="14.543373241927512" lon="120.99151855310701"><ele>7.333333333333333</ele><time>2026-04-27T06:15:14Z</time></trkpt><trkpt lat="14.543194226454487" lon="120.99155281247273"><ele>6.666666666666666</ele><time>2026-04-27T06:15:15Z</time></trkpt><trkpt lat="14.543015161055525" lon="120.99158499771502"><ele>6.0</ele><time>2026-04-27T06:15:16Z</time></trkpt><trkpt lat="14.542841027515458" lon="120.99161430676824"><ele>5.666666666666667</ele><time>2026-04-27T06:15:17Z</time></trkpt><trkpt lat="14.542650791882998" lon="120.9916467525541"><ele>5.333333333333334</ele><time>2026-04-27T06:15:18Z</time></trkpt><trkpt lat="14.542474933731624" lon="120.99167821043748"><ele>5.0</ele><time>2026-04-27T06:15:19Z</time></trkpt><trkpt lat="14.542290015151435" lon="120.99170833355929"><ele>5.666666666666667</ele><time>2026-04-27T06:15:20Z</time></trkpt><trkpt lat="14.542114231538505" lon="120.99174389983281"><ele>6.333333333333334</ele><time>2026-04-27T06:15:21Z</time></trkpt><trkpt lat="14.541929411200464" lon="120.99177208978853"><ele>7.0</ele><time>2026-04-27T06:15:22Z</time></trkpt><trkpt lat="14.541744995334017" lon="120.99181302271043"><ele>7.0</ele><time>2026-04-27T06:15:23Z</time></trkpt><trkpt lat="14.541563334493093" lon="120.99184425141847"><ele>7.0</ele><time>2026-04-27T06:15:24Z</time></trkpt><trkpt lat="14.541381056570202" lon="120.99186818540218"><ele>7.0</ele><time>2026-04-27T06:15:25Z</time></trkpt><trkpt lat="14.54119512523659" lon="120.99189485399273"><ele>11.333333333333334</ele><time>2026-04-27T06:15:26Z</time></trkpt><trkpt lat="14.541015498231799" lon="120.99192242694534"><ele>15.666666666666668</ele><time>2026-04-27T06:15:27Z</time></trkpt><trkpt lat="14.540852892779453" lon="120.9919517598752"><ele>20.0</ele><time>2026-04-27T06:15:28Z</time></trkpt><trkpt lat="14.540698292523704" lon="120.99197759921152"><ele>20.0</ele><time>2026-04-27T06:15:29Z</time></trkpt><trkpt lat="14.540544179945574" lon="120.99198989611409"><ele>20.0</ele><time>2026-04-27T06:15:30Z</time></trkpt><trkpt lat="14.540396447417129" lon="120.99201726178636"><ele>20.0</ele><time>2026-04-27T06:15:31Z</time></trkpt><trkpt lat="14.540253931030364" lon="120.99203936574852"><ele>20.0</ele><time>2026-04-27T06:15:32Z</time></trkpt><trkpt lat="14.540120179196729" lon="120.99205924035012"><ele>17.25</ele><time>2026-04-27T06:15:33Z</time></trkpt><trkpt lat="14.539990960303184" lon="120.99206948760462"><ele>14.5</ele><time>2026-04-27T06:15:34Z</time></trkpt><trkpt lat="14.539853721366397" lon="120.99209234257152"><ele>11.75</ele><time>2026-04-27T06:15:35Z</time></trkpt><trkpt lat="14.539720879882017" lon="120.99210474951879"><ele>9.0</ele><time>2026-04-27T06:15:36Z</time></trkpt><trkpt lat="14.539586413899062" lon="120.99212272283319"><ele>8.25</ele><time>2026-04-27T06:15:37Z</time></trkpt><trkpt lat="14.539450784365853" lon="120.99210333142291"><ele>7.5</ele><time>2026-04-27T06:15:38Z</time></trkpt><trkpt lat="14.539307883999458" lon="120.99211864394658"><ele>6.75</ele><time>2026-04-27T06:15:39Z</time></trkpt><trkpt lat="14.53917108597414" lon="120.99217980440442"><ele>6.0</ele><time>2026-04-27T06:15:40Z</time></trkpt><trkpt lat="14.539032732008788" lon="120.99220041941076"><ele>6.0</ele><time>2026-04-27T06:15:41Z</time></trkpt><trkpt lat="14.53888621491652" lon="120.99221849580348"><ele>6.0</ele><time>2026-04-27T06:15:42Z</time></trkpt><trkpt lat="14.53874006715061" lon="120.99223902237918"><ele>6.0</ele><time>2026-04-27T06:15:43Z</time></trkpt><trkpt lat="14.538593870796365" lon="120.99225977623506"><ele>6.0</ele><time>2026-04-27T06:15:44Z</time></trkpt><trkpt lat="14.538441513487417" lon="120.99227541046625"><ele>5.75</ele><time>2026-04-27T06:15:45Z</time></trkpt><trkpt lat="14.538290021786732" lon="120.99228977041668"><ele>5.5</ele><time>2026-04-27T06:15:46Z</time></trkpt><trkpt lat="14.538150336806046" lon="120.99230899722637"><ele>5.25</ele><time>2026-04-27T06:15:47Z</time></trkpt><trkpt lat="14.538016720529079" lon="120.9923264804576"><ele>5.0</ele><time>2026-04-27T06:15:48Z</time></trkpt><trkpt lat="14.537879566069254" lon="120.99234134426194"><ele>5.0</ele><time>2026-04-27T06:15:49Z</time></trkpt><trkpt lat="14.537743650420992" lon="120.99235386546323"><ele>5.0</ele><time>2026-04-27T06:15:50Z</time></trkpt><trkpt lat="14.53760868112839" lon="120.9923700061537"><ele>5.0</ele><time>2026-04-27T06:15:51Z</time></trkpt><trkpt lat="14.537471690201556" lon="120.99238518021177"><ele>5.0</ele><time>2026-04-27T06:15:52Z</time></trkpt><trkpt lat="14.537326675310936" lon="120.99239864019083"><ele>5.0</ele><time>2026-04-27T06:15:53Z</time></trkpt><trkpt lat="14.537200402779083" lon="120.99241777644143"><ele>5.0</ele><time>2026-04-27T06:15:54Z</time></trkpt><trkpt lat="14.537059549459082" lon="120.9924338077995"><ele>5.0</ele><time>2026-04-27T06:15:55Z</time></trkpt><trkpt lat="14.536917755590336" lon="120.9924482937419"><ele>5.0</ele><time>2026-04-27T06:15:56Z</time></trkpt><trkpt lat="14.536774738984061" lon="120.99246406531961"><ele>4.666666666666667</ele><time>2026-04-27T06:15:57Z</time></trkpt><trkpt lat="14.536631148772386" lon="120.99247966691627"><ele>4.333333333333333</ele><time>2026-04-27T06:15:58Z</time></trkpt><trkpt lat="14.536478186134337" lon="120.99249836943136"><ele>4.0</ele><time>2026-04-27T06:15:59Z</time></trkpt><trkpt lat="14.536319258542203" lon="120.9925095505904"><ele>5.0</ele><time>2026-04-27T06:16:00Z</time></trkpt><trkpt lat="14.536245833880319" lon="120.99252638235646"><ele>6.0</ele><time>2026-04-27T06:16:01Z</time></trkpt><trkpt lat="14.536134435383747" lon="120.99253598800314"><ele>7.0</ele><time>2026-04-27T06:16:02Z</time></trkpt><trkpt lat="14.536017633040975" lon="120.99254544783659"><ele>8.0</ele><time>2026-04-27T06:16:03Z</time></trkpt><trkpt lat="14.535894196202365" lon="120.99255098248148"><ele>9.0</ele><time>2026-04-27T06:16:04Z</time></trkpt><trkpt lat="14.535766021429511" lon="120.99256488466848"><ele>9.0</ele><time>2026-04-27T06:16:05Z</time></trkpt><trkpt lat="14.535633356176229" lon="120.99258075553863"><ele>9.0</ele><time>2026-04-27T06:16:06Z</time></trkpt><trkpt lat="14.535497637708403" lon="120.99259662698597"><ele>9.0</ele><time>2026-04-27T06:16:07Z</time></trkpt><trkpt lat="14.535363536972014" lon="120.99261434308306"><ele>9.0</ele><time>2026-04-27T06:16:08.001Z</time></trkpt><trkpt lat="14.535233018504513" lon="120.99263064448655"><ele>9.0</ele><time>2026-04-27T06:16:09.001Z</time></trkpt><trkpt lat="14.535107522394652" lon="120.9926419862461"><ele>9.0</ele><time>2026-04-27T06:16:10.001Z</time></trkpt><trkpt lat="14.534988321979991" lon="120.99265479288762"><ele>9.0</ele><time>2026-04-27T06:16:11.001Z</time></trkpt><trkpt lat="14.534872426343815" lon="120.9926671878935"><ele>9.0</ele><time>2026-04-27T06:16:12.001Z</time></trkpt><trkpt lat="14.534755042034252" lon="120.99268151721002"><ele>9.0</ele><time>2026-04-27T06:16:13.001Z</time></trkpt><trkpt lat="14.534634389552135" lon="120.99269303175855"><ele>9.0</ele><time>2026-04-27T06:16:14.001Z</time></trkpt><trkpt lat="14.534511270718" lon="120.99270643723469"><ele>9.0</ele><time>2026-04-27T06:16:15.001Z</time></trkpt><trkpt lat="14.534386077032504" lon="120.99271866401261"><ele>9.0</ele><time>2026-04-27T06:16:16.001Z</time></trkpt><trkpt lat="14.534257704523723" lon="120.9927336614096"><ele>8.5</ele><time>2026-04-27T06:16:17.001Z</time></trkpt><trkpt lat="14.534126087031465" lon="120.99275032107354"><ele>8.0</ele><time>2026-04-27T06:16:18.001Z</time></trkpt><trkpt lat="14.533990546378558" lon="120.99276509384242"><ele>7.5</ele><time>2026-04-27T06:16:19.001Z</time></trkpt><trkpt lat="14.533855606529823" lon="120.99277889519941"><ele>7.0</ele><time>2026-04-27T06:16:20.001Z</time></trkpt><trkpt lat="14.53372252924933" lon="120.9927940754779"><ele>8.5</ele><time>2026-04-27T06:16:21.001Z</time></trkpt><trkpt lat="14.533591993075122" lon="120.99280919895261"><ele>10.0</ele><time>2026-04-27T06:16:22.001Z</time></trkpt><trkpt lat="14.533464407974165" lon="120.99282418323386"><ele>11.5</ele><time>2026-04-27T06:16:23.001Z</time></trkpt><trkpt lat="14.533328308241861" lon="120.99283401693476"><ele>13.0</ele><time>2026-04-27T06:16:24.001Z</time></trkpt><trkpt lat="14.53319651991026" lon="120.99285223682264"><ele>13.0</ele><time>2026-04-27T06:16:25.001Z</time></trkpt><trkpt lat="14.53307440884578" lon="120.99285622029835"><ele>13.0</ele><time>2026-04-27T06:16:26.001Z</time></trkpt><trkpt lat="14.532963163412193" lon="120.99285956716729"><ele>13.0</ele><time>2026-04-27T06:16:27.001Z</time></trkpt><trkpt lat="14.532859263698727" lon="120.99287623496063"><ele>13.0</ele><time>2026-04-27T06:16:28.001Z</time></trkpt><trkpt lat="14.532762003050491" lon="120.99289892026944"><ele>13.0</ele><time>2026-04-27T06:16:29.001Z</time></trkpt><trkpt lat="14.532667153649198" lon="120.9929148430521"><ele>12.0</ele><time>2026-04-27T06:16:30.001Z</time></trkpt><trkpt lat="14.532568801165969" lon="120.99292867404867"><ele>11.0</ele><time>2026-04-27T06:16:31.001Z</time></trkpt><trkpt lat="14.53246376790031" lon="120.99295090032358"><ele>10.0</ele><time>2026-04-27T06:16:32.001Z</time></trkpt><trkpt lat="14.532351409942713" lon="120.99296635018317"><ele>9.0</ele><time>2026-04-27T06:16:33.001Z</time></trkpt><trkpt lat="14.532234364506891" lon="120.99298009000063"><ele>8.0</ele><time>2026-04-27T06:16:34.001Z</time></trkpt><trkpt lat="14.532104179613837" lon="120.99299677019411"><ele>7.5</ele><time>2026-04-27T06:16:35.001Z</time></trkpt><trkpt lat="14.53196504613697" lon="120.99301552936521"><ele>7.0</ele><time>2026-04-27T06:16:36.001Z</time></trkpt><trkpt lat="14.531817930081523" lon="120.9930361647007"><ele>6.5</ele><time>2026-04-27T06:16:37.001Z</time></trkpt><trkpt lat="14.531665250151022" lon="120.9930546933326"><ele>6.0</ele><time>2026-04-27T06:16:38.001Z</time></trkpt><trkpt lat="14.53149887913454" lon="120.993071824654"><ele>6.0</ele><time>2026-04-27T06:16:39.001Z</time></trkpt><trkpt lat="14.53132326788193" lon="120.99309255107971"><ele>6.0</ele><time>2026-04-27T06:16:40.001Z</time></trkpt><trkpt lat="14.531149123543733" lon="120.99311828244122"><ele>6.0</ele><time>2026-04-27T06:16:41.001Z</time></trkpt><trkpt lat="14.53096729089048" lon="120.99313737277123"><ele>5.0</ele><time>2026-04-27T06:16:42.001Z</time></trkpt><trkpt lat="14.530785057513834" lon="120.99315639724345"><ele>4.0</ele><time>2026-04-27T06:16:43.001Z</time></trkpt><trkpt lat="14.5305867478492" lon="120.99317903923453"><ele>3.0</ele><time>2026-04-27T06:16:44.001Z</time></trkpt><trkpt lat="14.530399519866993" lon="120.99320007992046"><ele>4.333333333333334</ele><time>2026-04-27T06:16:45.001Z</time></trkpt><trkpt lat="14.530214664170966" lon="120.99321599378874"><ele>5.666666666666667</ele><time>2026-04-27T06:16:46.001Z</time></trkpt><trkpt lat="14.530039427207676" lon="120.99323520704253"><ele>7.0</ele><time>2026-04-27T06:16:47.001Z</time></trkpt><trkpt lat="14.529869401825932" lon="120.99325107376117"><ele>7.0</ele><time>2026-04-27T06:16:48.001Z</time></trkpt><trkpt lat="14.529711263177798" lon="120.99326618869429"><ele>7.0</ele><time>2026-04-27T06:16:49.001Z</time></trkpt><trkpt lat="14.529566510926227" lon="120.99328788442432"><ele>7.0</ele><time>2026-04-27T06:16:50.001Z</time></trkpt><trkpt lat="14.529434917084238" lon="120.99330654099106"><ele>7.0</ele><time>2026-04-27T06:16:51.001Z</time></trkpt><trkpt lat="14.529299895745249" lon="120.99331995614637"><ele>7.0</ele><time>2026-04-27T06:16:52.001Z</time></trkpt><trkpt lat="14.529165068763232" lon="120.99333006219042"><ele>7.0</ele><time>2026-04-27T06:16:52.999Z</time></trkpt><trkpt lat="14.529039479933873" lon="120.99334409498151"><ele>7.0</ele><time>2026-04-27T06:16:53.999Z</time></trkpt><trkpt lat="14.528914307561564" lon="120.99335170513899"><ele>7.0</ele><time>2026-04-27T06:16:54.999Z</time></trkpt><trkpt lat="14.528785841644948" lon="120.9933635184591"><ele>7.3999999999999995</ele><time>2026-04-27T06:16:55.999Z</time></trkpt><trkpt lat="14.528659328077103" lon="120.99337574370698"><ele>7.799999999999999</ele><time>2026-04-27T06:16:56.999Z</time></trkpt><trkpt lat="14.528559017001678" lon="120.99338629591736"><ele>8.2</ele><time>2026-04-27T06:16:57.999Z</time></trkpt><trkpt lat="14.52846772149825" lon="120.99338921393012"><ele>8.6</ele><time>2026-04-27T06:16:58.999Z</time></trkpt><trkpt lat="14.528398727132133" lon="120.99339403895326"><ele>9.0</ele><time>2026-04-27T06:16:59.999Z</time></trkpt><trkpt lat="14.528330014571921" lon="120.99339193702544"><ele>9.0</ele><time>2026-04-27T06:17:00.999Z</time></trkpt><trkpt lat="14.528263543296754" lon="120.99338831421775"><ele>9.0</ele><time>2026-04-27T06:17:01.999Z</time></trkpt><trkpt lat="14.5281910237813" lon="120.99338624470502"><ele>9.0</ele><time>2026-04-27T06:17:02.999Z</time></trkpt><trkpt lat="14.528119522574277" lon="120.99341154761699"><ele>9.0</ele><time>2026-04-27T06:17:03.999Z</time></trkpt><trkpt lat="14.528056589288731" lon="120.99341871182375"><ele>9.0</ele><time>2026-04-27T06:17:04.999Z</time></trkpt><trkpt lat="14.52796206393163" lon="120.99342947241378"><ele>9.0</ele><time>2026-04-27T06:17:06.999Z</time></trkpt><trkpt lat="14.527873439781843" lon="120.99343956122046"><ele>9.166666666666666</ele><time>2026-04-27T06:17:08.999Z</time></trkpt><trkpt lat="14.527781748721756" lon="120.99344999915988"><ele>9.333333333333334</ele><time>2026-04-27T06:17:10.999Z</time></trkpt><trkpt lat="14.527694570643087" lon="120.99345992334557"><ele>9.5</ele><time>2026-04-27T06:17:13.999Z</time></trkpt><trkpt lat="14.527627053307286" lon="120.99346760939436"><ele>9.666666666666668</ele><time>2026-04-27T06:17:19Z</time></trkpt><trkpt lat="14.52753653829324" lon="120.99348069875661"><ele>9.833333333333334</ele><time>2026-04-27T06:17:42Z</time></trkpt><trkpt lat="14.527433605950394" lon="120.99350220465013"><ele>10.0</ele><time>2026-04-27T06:17:44Z</time></trkpt><trkpt lat="14.527370280589453" lon="120.9935190594621"><ele>10.0</ele><time>2026-04-27T06:17:45Z</time></trkpt><trkpt lat="14.527252953596538" lon="120.99353672831974"><ele>10.0</ele><time>2026-04-27T06:17:47Z</time></trkpt><trkpt lat="14.527185635001384" lon="120.99354556011129"><ele>10.0</ele><time>2026-04-27T06:17:48Z</time></trkpt><trkpt lat="14.527115707337622" lon="120.99355116419677"><ele>10.0</ele><time>2026-04-27T06:17:49Z</time></trkpt><trkpt lat="14.527042879705613" lon="120.9935593825857"><ele>10.0</ele><time>2026-04-27T06:17:50Z</time></trkpt><trkpt lat="14.526969014990659" lon="120.99356811717148"><ele>10.0</ele><time>2026-04-27T06:17:51Z</time></trkpt><trkpt lat="14.52689328449495" lon="120.99357993509642"><ele>9.4</ele><time>2026-04-27T06:17:52Z</time></trkpt><trkpt lat="14.526808634351886" lon="120.99358733969264"><ele>8.8</ele><time>2026-04-27T06:17:53Z</time></trkpt><trkpt lat="14.526710343098598" lon="120.99358711554143"><ele>8.2</ele><time>2026-04-27T06:17:54Z</time></trkpt><trkpt lat="14.52660587944866" lon="120.9935881445933"><ele>7.6</ele><time>2026-04-27T06:17:55Z</time></trkpt><trkpt lat="14.526502701318055" lon="120.99359110453545"><ele>7.0</ele><time>2026-04-27T06:17:56Z</time></trkpt><trkpt lat="14.526389282775728" lon="120.99359202763587"><ele>7.0</ele><time>2026-04-27T06:17:57Z</time></trkpt><trkpt lat="14.526278002123105" lon="120.99359807291619"><ele>6.999999999999999</ele><time>2026-04-27T06:17:58Z</time></trkpt><trkpt lat="14.526173420969132" lon="120.99360933747532"><ele>6.999999999999999</ele><time>2026-04-27T06:17:59Z</time></trkpt><trkpt lat="14.52607388138116" lon="120.99361603816195"><ele>7.0</ele><time>2026-04-27T06:18:00Z</time></trkpt><trkpt lat="14.525980731111446" lon="120.99362286816695"><ele>7.0</ele><time>2026-04-27T06:18:01Z</time></trkpt><trkpt lat="14.525873569890399" lon="120.99362742325691"><ele>7.5</ele><time>2026-04-27T06:18:02Z</time></trkpt><trkpt lat="14.525755991746761" lon="120.99362825156959"><ele>8.0</ele><time>2026-04-27T06:18:03Z</time></trkpt><trkpt lat="14.525631349756162" lon="120.99362508483108"><ele>8.5</ele><time>2026-04-27T06:18:04Z</time></trkpt><trkpt lat="14.525498401755174" lon="120.99362492215451"><ele>9.0</ele><time>2026-04-27T06:18:05Z</time></trkpt><trkpt lat="14.525359065369376" lon="120.9936262647409"><ele>9.0</ele><time>2026-04-27T06:18:06Z</time></trkpt><trkpt lat="14.525208299505636" lon="120.99362560295667"><ele>9.0</ele><time>2026-04-27T06:18:07Z</time></trkpt><trkpt lat="14.525057144459701" lon="120.99361819269787"><ele>9.0</ele><time>2026-04-27T06:18:08Z</time></trkpt><trkpt lat="14.524894777993092" lon="120.99361656170512"><ele>9.0</ele><time>2026-04-27T06:18:09Z</time></trkpt><trkpt lat="14.524728823353271" lon="120.99361554174973"><ele>9.0</ele><time>2026-04-27T06:18:10Z</time></trkpt><trkpt lat="14.524556659400671" lon="120.99361920696609"><ele>9.0</ele><time>2026-04-27T06:18:11Z</time></trkpt><trkpt lat="14.524385930519554" lon="120.99361797194773"><ele>8.666666666666666</ele><time>2026-04-27T06:18:12Z</time></trkpt><trkpt lat="14.524210878546219" lon="120.993614686686"><ele>8.333333333333332</ele><time>2026-04-27T06:18:13Z</time></trkpt><trkpt lat="14.524031233815027" lon="120.9936160916902"><ele>8.0</ele><time>2026-04-27T06:18:14Z</time></trkpt><trkpt lat="14.523849966458577" lon="120.99361364811409"><ele>8.0</ele><time>2026-04-27T06:18:15Z</time></trkpt><trkpt lat="14.523664883926084" lon="120.99360969543226"><ele>8.0</ele><time>2026-04-27T06:18:16.001Z</time></trkpt><trkpt lat="14.523481597240718" lon="120.99360672637306"><ele>8.0</ele><time>2026-04-27T06:18:17.001Z</time></trkpt><trkpt lat="14.523296839873298" lon="120.99360901272367"><ele>8.0</ele><time>2026-04-27T06:18:18.001Z</time></trkpt><trkpt lat="14.523114172908995" lon="120.99360497281528"><ele>8.0</ele><time>2026-04-27T06:18:19.001Z</time></trkpt><trkpt lat="14.522935226349519" lon="120.99360045578753"><ele>8.0</ele><time>2026-04-27T06:18:20.001Z</time></trkpt><trkpt lat="14.522755386841645" lon="120.99359903434538"><ele>7.0</ele><time>2026-04-27T06:18:21.001Z</time></trkpt><trkpt lat="14.522575652044386" lon="120.99360161216322"><ele>6.0</ele><time>2026-04-27T06:18:22.001Z</time></trkpt><trkpt lat="14.522386540746766" lon="120.99359825528632"><ele>5.0</ele><time>2026-04-27T06:18:23.001Z</time></trkpt><trkpt lat="14.5222007001684" lon="120.99359524310034"><ele>5.0</ele><time>2026-04-27T06:18:24.001Z</time></trkpt><trkpt lat="14.52202086275982" lon="120.99359072934361"><ele>5.0</ele><time>2026-04-27T06:18:25.001Z</time></trkpt><trkpt lat="14.521848535917682" lon="120.99358157282438"><ele>5.0</ele><time>2026-04-27T06:18:26.001Z</time></trkpt><trkpt lat="14.521673388482789" lon="120.99357072386519"><ele>5.0</ele><time>2026-04-27T06:18:27.001Z</time></trkpt><trkpt lat="14.521491234753308" lon="120.99355162299875"><ele>5.0</ele><time>2026-04-27T06:18:28.001Z</time></trkpt><trkpt lat="14.521324485394837" lon="120.99353696174242"><ele>5.0</ele><time>2026-04-27T06:18:29.001Z</time></trkpt><trkpt lat="14.521149198829916" lon="120.99352693165258"><ele>5.0</ele><time>2026-04-27T06:18:30.001Z</time></trkpt><trkpt lat="14.520980315567483" lon="120.9935132911136"><ele>5.0</ele><time>2026-04-27T06:18:31.001Z</time></trkpt><trkpt lat="14.520798348900891" lon="120.99350236575525"><ele>5.0</ele><time>2026-04-27T06:18:32.001Z</time></trkpt><trkpt lat="14.520631357788119" lon="120.99348744060784"><ele>5.0</ele><time>2026-04-27T06:18:33.001Z</time></trkpt><trkpt lat="14.520463053555744" lon="120.99347463291713"><ele>5.0</ele><time>2026-04-27T06:18:34.001Z</time></trkpt><trkpt lat="14.520302620338732" lon="120.99346081282751"><ele>5.0</ele><time>2026-04-27T06:18:35.001Z</time></trkpt><trkpt lat="14.520131622584966" lon="120.99345163363031"><ele>6.0</ele><time>2026-04-27T06:18:36.001Z</time></trkpt><trkpt lat="14.519969262559126" lon="120.99344102028518"><ele>7.0</ele><time>2026-04-27T06:18:37.001Z</time></trkpt><trkpt lat="14.519811196847199" lon="120.99342715969378"><ele>8.0</ele><time>2026-04-27T06:18:38.001Z</time></trkpt><trkpt lat="14.519652029600985" lon="120.99342302169434"><ele>14.333333333333332</ele><time>2026-04-27T06:18:39.001Z</time></trkpt><trkpt lat="14.519486975603245" lon="120.99341073143817"><ele>20.666666666666668</ele><time>2026-04-27T06:18:40.001Z</time></trkpt><trkpt lat="14.519316173369951" lon="120.99339778380944"><ele>27.0</ele><time>2026-04-27T06:18:41.001Z</time></trkpt><trkpt lat="14.519134567364947" lon="120.99337623179164"><ele>27.0</ele><time>2026-04-27T06:18:42.001Z</time></trkpt><trkpt lat="14.518966460567153" lon="120.99335783482933"><ele>27.0</ele><time>2026-04-27T06:18:43.001Z</time></trkpt><trkpt lat="14.51880730353081" lon="120.99335749438069"><ele>27.0</ele><time>2026-04-27T06:18:44.001Z</time></trkpt><trkpt lat="14.518644403540128" lon="120.99336462747074"><ele>25.5</ele><time>2026-04-27T06:18:45.001Z</time></trkpt><trkpt lat="14.51850541634533" lon="120.99335209872972"><ele>24.0</ele><time>2026-04-27T06:18:46.001Z</time></trkpt><trkpt lat="14.518394721753559" lon="120.9932947001189"><ele>22.5</ele><time>2026-04-27T06:18:47.001Z</time></trkpt><trkpt lat="14.518280815856851" lon="120.99324618533969"><ele>21.0</ele><time>2026-04-27T06:18:48.001Z</time></trkpt><trkpt lat="14.51817086751377" lon="120.99323611199253"><ele>19.0</ele><time>2026-04-27T06:18:49.001Z</time></trkpt><trkpt lat="14.518075306384244" lon="120.99320222776679"><ele>17.0</ele><time>2026-04-27T06:18:50.001Z</time></trkpt><trkpt lat="14.517991133042791" lon="120.99319090257482"><ele>15.0</ele><time>2026-04-27T06:18:51.001Z</time></trkpt><trkpt lat="14.517909431754216" lon="120.99318591890409"><ele>13.0</ele><time>2026-04-27T06:18:52.001Z</time></trkpt><trkpt lat="14.517840829995937" lon="120.99316272186735"><ele>11.0</ele><time>2026-04-27T06:18:53.001Z</time></trkpt><trkpt lat="14.517778816843064" lon="120.99310346129609"><ele>9.0</ele><time>2026-04-27T06:18:54.001Z</time></trkpt><trkpt lat="14.517714961590249" lon="120.99306244424355"><ele>8.4</ele><time>2026-04-27T06:18:55.001Z</time></trkpt><trkpt lat="14.517639138876099" lon="120.99302711506384"><ele>7.800000000000001</ele><time>2026-04-27T06:18:56.001Z</time></trkpt><trkpt lat="14.517665372483155" lon="120.99290405863594"><ele>7.199999999999999</ele><time>2026-04-27T06:18:58.001Z</time></trkpt><trkpt lat="14.517621251007986" lon="120.99280301355712"><ele>6.6</ele><time>2026-04-27T06:18:59.999Z</time></trkpt><trkpt lat="14.517614904875504" lon="120.99267951042282"><ele>6.0</ele><time>2026-04-27T06:19:01.999Z</time></trkpt><trkpt lat="14.517617933549728" lon="120.99258265932845"><ele>6.4</ele><time>2026-04-27T06:19:02.999Z</time></trkpt><trkpt lat="14.517621155053765" lon="120.99247964187586"><ele>6.8</ele><time>2026-04-27T06:19:03.999Z</time></trkpt><trkpt lat="14.517614257120696" lon="120.99236586799131"><ele>7.200000000000001</ele><time>2026-04-27T06:19:04.999Z</time></trkpt><trkpt lat="14.517600705697127" lon="120.99224767807398"><ele>7.6000000000000005</ele><time>2026-04-27T06:19:05.999Z</time></trkpt><trkpt lat="14.517582106649712" lon="120.99212941569002"><ele>8.0</ele><time>2026-04-27T06:19:06.999Z</time></trkpt><trkpt lat="14.517563651659142" lon="120.99201206932547"><ele>8.0</ele><time>2026-04-27T06:19:07.999Z</time></trkpt><trkpt lat="14.517545238437624" lon="120.9918949884563"><ele>8.0</ele><time>2026-04-27T06:19:08.999Z</time></trkpt><trkpt lat="14.51753000983482" lon="120.99179323698831"><ele>8.0</ele><time>2026-04-27T06:19:09.999Z</time></trkpt><trkpt lat="14.517510841653529" lon="120.99168568661845"><ele>8.0</ele><time>2026-04-27T06:19:10.999Z</time></trkpt><trkpt lat="14.517496028344306" lon="120.99160718520432"><ele>8.0</ele><time>2026-04-27T06:19:11.999Z</time></trkpt><trkpt lat="14.517482943035908" lon="120.99153826617938"><ele>7.999999999999999</ele><time>2026-04-27T06:19:12.999Z</time></trkpt><trkpt lat="14.517468327947686" lon="120.99146139922486"><ele>8.0</ele><time>2026-04-27T06:19:13.999Z</time></trkpt><trkpt lat="14.517445690618018" lon="120.99134233982183"><ele>8.0</ele><time>2026-04-27T06:19:15.999Z</time></trkpt><trkpt lat="14.517432841987409" lon="120.99127476341815"><ele>8.0</ele><time>2026-04-27T06:19:18.999Z</time></trkpt><trkpt lat="14.517418030330367" lon="120.99119686202015"><ele>7.999999999999999</ele><time>2026-04-27T06:19:59Z</time></trkpt><trkpt lat="14.51740828319418" lon="120.99112155363362"><ele>8.0</ele><time>2026-04-27T06:20:03Z</time></trkpt><trkpt lat="14.517342378576608" lon="120.99110264259537"><ele>7.999999999999999</ele><time>2026-04-27T06:20:04Z</time></trkpt><trkpt lat="14.517325168994516" lon="120.99102856838715"><ele>8.0</ele><time>2026-04-27T06:20:06Z</time></trkpt><trkpt lat="14.517328691893287" lon="120.99094047002006"><ele>8.0</ele><time>2026-04-27T06:20:08Z</time></trkpt><trkpt lat="14.517310244093949" lon="120.99082569438374"><ele>8.0</ele><time>2026-04-27T06:20:10Z</time></trkpt><trkpt lat="14.517361589126141" lon="120.99075524277704"><ele>7.999999999999999</ele><time>2026-04-27T06:20:11Z</time></trkpt><trkpt lat="14.517354501820797" lon="120.99068744168585"><ele>8.0</ele><time>2026-04-27T06:20:12Z</time></trkpt><trkpt lat="14.517117842423863" lon="120.99059796340683"><ele>8.600000000000001</ele><time>2026-04-27T06:20:14.001Z</time></trkpt><trkpt lat="14.517039008402783" lon="120.99056709440714"><ele>9.200000000000001</ele><time>2026-04-27T06:20:15.001Z</time></trkpt><trkpt lat="14.516961659555024" lon="120.99054832251032"><ele>9.8</ele><time>2026-04-27T06:20:16.001Z</time></trkpt><trkpt lat="14.516867129032162" lon="120.99053753828399"><ele>10.4</ele><time>2026-04-27T06:20:17.001Z</time></trkpt><trkpt lat="14.516764845481129" lon="120.99053150572477"><ele>11.0</ele><time>2026-04-27T06:20:18.001Z</time></trkpt><trkpt lat="14.516665980016839" lon="120.99051680984101"><ele>11.0</ele><time>2026-04-27T06:20:19.001Z</time></trkpt><trkpt lat="14.516562534535533" lon="120.99050402524273"><ele>11.0</ele><time>2026-04-27T06:20:20.001Z</time></trkpt><trkpt lat="14.51644487219798" lon="120.99049151242885"><ele>11.0</ele><time>2026-04-27T06:20:21.001Z</time></trkpt><trkpt lat="14.516325036109013" lon="120.99047754288517"><ele>11.0</ele><time>2026-04-27T06:20:22.001Z</time></trkpt><trkpt lat="14.516207278091304" lon="120.99046193475763"><ele>12.25</ele><time>2026-04-27T06:20:23.001Z</time></trkpt><trkpt lat="14.516085781400054" lon="120.99044164099743"><ele>13.5</ele><time>2026-04-27T06:20:24.001Z</time></trkpt><trkpt lat="14.515961464610482" lon="120.99041979357433"><ele>14.75</ele><time>2026-04-27T06:20:25.001Z</time></trkpt><trkpt lat="14.515832011028435" lon="120.99040058237041"><ele>16.0</ele><time>2026-04-27T06:20:26.001Z</time></trkpt><trkpt lat="14.515703465103634" lon="120.99038819197112"><ele>16.0</ele><time>2026-04-27T06:20:27.001Z</time></trkpt><trkpt lat="14.51557551421369" lon="120.99037630714682"><ele>16.0</ele><time>2026-04-27T06:20:28.001Z</time></trkpt><trkpt lat="14.515443819186052" lon="120.99035837357533"><ele>16.0</ele><time>2026-04-27T06:20:29.001Z</time></trkpt><trkpt lat="14.515312301953747" lon="120.99034150707571"><ele>16.0</ele><time>2026-04-27T06:20:30.001Z</time></trkpt><trkpt lat="14.515182179251664" lon="120.99033049499147"><ele>15.200000000000001</ele><time>2026-04-27T06:20:31.001Z</time></trkpt><trkpt lat="14.515062799362406" lon="120.99031969281762"><ele>14.400000000000002</ele><time>2026-04-27T06:20:32.001Z</time></trkpt><trkpt lat="14.514952566663341" lon="120.99030487276127"><ele>13.6</ele><time>2026-04-27T06:20:33.001Z</time></trkpt><trkpt lat="14.514843368864021" lon="120.99029146054932"><ele>12.8</ele><time>2026-04-27T06:20:34.001Z</time></trkpt><trkpt lat="14.514743456215152" lon="120.99027772721567"><ele>12.0</ele><time>2026-04-27T06:20:35.001Z</time></trkpt><trkpt lat="14.514649669135954" lon="120.9902657853316"><ele>11.0</ele><time>2026-04-27T06:20:36.001Z</time></trkpt><trkpt lat="14.514554699588697" lon="120.99025363633463"><ele>10.0</ele><time>2026-04-27T06:20:37.001Z</time></trkpt><trkpt lat="14.514451504194074" lon="120.9902429321879"><ele>9.0</ele><time>2026-04-27T06:20:38.001Z</time></trkpt><trkpt lat="14.514352354699016" lon="120.99023021113112"><ele>8.0</ele><time>2026-04-27T06:20:39.001Z</time></trkpt><trkpt lat="14.514246362948965" lon="120.99021998424975"><ele>7.0</ele><time>2026-04-27T06:20:40.001Z</time></trkpt><trkpt lat="14.514142747028801" lon="120.99020954155996"><ele>7.0</ele><time>2026-04-27T06:20:41.001Z</time></trkpt><trkpt lat="14.514040735041892" lon="120.99019836613512"><ele>6.999999999999999</ele><time>2026-04-27T06:20:42.001Z</time></trkpt><trkpt lat="14.513940741780585" lon="120.9901882092204"><ele>6.999999999999999</ele><time>2026-04-27T06:20:43.001Z</time></trkpt><trkpt lat="14.51383628410863" lon="120.99017585519842"><ele>7.0</ele><time>2026-04-27T06:20:44.001Z</time></trkpt><trkpt lat="14.513724422027066" lon="120.99016403491335"><ele>7.0</ele><time>2026-04-27T06:20:45.001Z</time></trkpt><trkpt lat="14.513610872669904" lon="120.99014688886979"><ele>6.75</ele><time>2026-04-27T06:20:46.001Z</time></trkpt><trkpt lat="14.51350097626551" lon="120.99012564095524"><ele>6.5</ele><time>2026-04-27T06:20:47.001Z</time></trkpt><trkpt lat="14.513386205230264" lon="120.99010564610357"><ele>6.25</ele><time>2026-04-27T06:20:48.001Z</time></trkpt><trkpt lat="14.513269583461183" lon="120.99008552733582"><ele>6.0</ele><time>2026-04-27T06:20:49.001Z</time></trkpt><trkpt lat="14.513141422585527" lon="120.99006093467234"><ele>6.0</ele><time>2026-04-27T06:20:50.001Z</time></trkpt><trkpt lat="14.513011481989903" lon="120.99003446522713"><ele>6.0</ele><time>2026-04-27T06:20:51.001Z</time></trkpt><trkpt lat="14.512875760723295" lon="120.98999965636656"><ele>6.0</ele><time>2026-04-27T06:20:52.001Z</time></trkpt><trkpt lat="14.512737962735441" lon="120.98996157060891"><ele>6.0</ele><time>2026-04-27T06:20:53.001Z</time></trkpt><trkpt lat="14.512607023678184" lon="120.98992506853786"><ele>5.25</ele><time>2026-04-27T06:20:54.001Z</time></trkpt><trkpt lat="14.512471665963009" lon="120.9898844088068"><ele>4.5</ele><time>2026-04-27T06:20:55.001Z</time></trkpt><trkpt lat="14.512336304271635" lon="120.98984003930451"><ele>3.75</ele><time>2026-04-27T06:20:56.001Z</time></trkpt><trkpt lat="14.51219215608119" lon="120.9897981440953"><ele>3.0</ele><time>2026-04-27T06:20:57.001Z</time></trkpt><trkpt lat="14.512047143937863" lon="120.98975765669212"><ele>3.0</ele><time>2026-04-27T06:20:58.001Z</time></trkpt><trkpt lat="14.511898518073897" lon="120.98971702561688"><ele>3.0</ele><time>2026-04-27T06:20:59.001Z</time></trkpt><trkpt lat="14.511747797801428" lon="120.98967379097907"><ele>3.0</ele><time>2026-04-27T06:21:00.001Z</time></trkpt><trkpt lat="14.511599809477136" lon="120.98962945661943"><ele>3.0</ele><time>2026-04-27T06:21:01.001Z</time></trkpt><trkpt lat="14.511444875975847" lon="120.98957992815559"><ele>3.0</ele><time>2026-04-27T06:21:02.001Z</time></trkpt><trkpt lat="14.511288496221276" lon="120.98953142293615"><ele>3.0</ele><time>2026-04-27T06:21:03.001Z</time></trkpt><trkpt lat="14.511127531919868" lon="120.98948445220697"><ele>2.3333333333333335</ele><time>2026-04-27T06:21:04.001Z</time></trkpt><trkpt lat="14.510964957843013" lon="120.98943860417776"><ele>1.6666666666666665</ele><time>2026-04-27T06:21:04.999Z</time></trkpt><trkpt lat="14.510797833380455" lon="120.98938694413397"><ele>1.0</ele><time>2026-04-27T06:21:05.999Z</time></trkpt><trkpt lat="14.510628086273437" lon="120.98933271002434"><ele>1.0</ele><time>2026-04-27T06:21:06.999Z</time></trkpt><trkpt lat="14.510454856648053" lon="120.98928023070572"><ele>1.0</ele><time>2026-04-27T06:21:07.999Z</time></trkpt><trkpt lat="14.51028012591214" lon="120.98922644368727"><ele>1.0</ele><time>2026-04-27T06:21:08.999Z</time></trkpt><trkpt lat="14.510101797538459" lon="120.98917681561466"><ele>2.3333333333333335</ele><time>2026-04-27T06:21:09.999Z</time></trkpt><trkpt lat="14.509922142573183" lon="120.98912350013293"><ele>3.666666666666667</ele><time>2026-04-27T06:21:10.999Z</time></trkpt><trkpt lat="14.509742959021393" lon="120.98906746913248"><ele>5.0</ele><time>2026-04-27T06:21:11.999Z</time></trkpt><trkpt lat="14.509562774809893" lon="120.98901060451458"><ele>6.333333333333334</ele><time>2026-04-27T06:21:12.999Z</time></trkpt><trkpt lat="14.5093850775861" lon="120.98895755281656"><ele>7.666666666666667</ele><time>2026-04-27T06:21:13.999Z</time></trkpt><trkpt lat="14.50921529473278" lon="120.98890407990616"><ele>9.0</ele><time>2026-04-27T06:21:14.999Z</time></trkpt><trkpt lat="14.509044842439554" lon="120.9888488815239"><ele>9.0</ele><time>2026-04-27T06:21:15.999Z</time></trkpt><trkpt lat="14.508881662647054" lon="120.98879331625325"><ele>9.0</ele><time>2026-04-27T06:21:16.999Z</time></trkpt><trkpt lat="14.508720943937282" lon="120.98874162073218"><ele>9.0</ele><time>2026-04-27T06:21:17.999Z</time></trkpt><trkpt lat="14.508575578698249" lon="120.98866796083155"><ele>8.5</ele><time>2026-04-27T06:21:18.999Z</time></trkpt><trkpt lat="14.508433555508965" lon="120.98861364806166"><ele>8.0</ele><time>2026-04-27T06:21:19.999Z</time></trkpt><trkpt lat="14.508294514834995" lon="120.98856047587351"><ele>7.5</ele><time>2026-04-27T06:21:20.999Z</time></trkpt><trkpt lat="14.5081578057942" lon="120.98850819535338"><ele>7.0</ele><time>2026-04-27T06:21:21.999Z</time></trkpt><trkpt lat="14.508023401732853" lon="120.98845389562385"><ele>7.25</ele><time>2026-04-27T06:21:22.999Z</time></trkpt><trkpt lat="14.507887788701796" lon="120.98839895417947"><ele>7.5</ele><time>2026-04-27T06:21:24Z</time></trkpt><trkpt lat="14.507753723369241" lon="120.98834463976743"><ele>7.75</ele><time>2026-04-27T06:21:25Z</time></trkpt><trkpt lat="14.507626937557378" lon="120.98829327452881"><ele>8.0</ele><time>2026-04-27T06:21:26Z</time></trkpt><trkpt lat="14.50749714585139" lon="120.9882406915077"><ele>8.25</ele><time>2026-04-27T06:21:27Z</time></trkpt><trkpt lat="14.507374415336209" lon="120.98819096921"><ele>8.5</ele><time>2026-04-27T06:21:28Z</time></trkpt><trkpt lat="14.507254407265123" lon="120.98814234987199"><ele>8.75</ele><time>2026-04-27T06:21:29Z</time></trkpt><trkpt lat="14.507140220897043" lon="120.98809608910325"><ele>9.0</ele><time>2026-04-27T06:21:30Z</time></trkpt><trkpt lat="14.507018037036834" lon="120.98804658826735"><ele>9.0</ele><time>2026-04-27T06:21:31Z</time></trkpt><trkpt lat="14.506906230764349" lon="120.98800129176014"><ele>9.0</ele><time>2026-04-27T06:21:32Z</time></trkpt><trkpt lat="14.506803453461592" lon="120.98795965464844"><ele>9.0</ele><time>2026-04-27T06:21:33Z</time></trkpt><trkpt lat="14.506704513669696" lon="120.98791961278604"><ele>9.0</ele><time>2026-04-27T06:21:34Z</time></trkpt><trkpt lat="14.506603051512048" lon="120.98787855010251"><ele>9.0</ele><time>2026-04-27T06:21:35Z</time></trkpt><trkpt lat="14.506501116008442" lon="120.98783729585104"><ele>9.0</ele><time>2026-04-27T06:21:36Z</time></trkpt><trkpt lat="14.506402749135496" lon="120.98779748585702"><ele>9.0</ele><time>2026-04-27T06:21:37Z</time></trkpt><trkpt lat="14.506316006201075" lon="120.98775658074332"><ele>9.0</ele><time>2026-04-27T06:21:38Z</time></trkpt><trkpt lat="14.506236870448706" lon="120.98771899213942"><ele>9.0</ele><time>2026-04-27T06:21:39Z</time></trkpt><trkpt lat="14.506170177997564" lon="120.98768731769128"><ele>9.0</ele><time>2026-04-27T06:21:40Z</time></trkpt><trkpt lat="14.506111673800152" lon="120.98765964936423"><ele>9.0</ele><time>2026-04-27T06:21:41Z</time></trkpt><trkpt lat="14.506021029686012" lon="120.98761678114"><ele>8.857142857142858</ele><time>2026-04-27T06:21:43Z</time></trkpt><trkpt lat="14.505956237669272" lon="120.98758579866991"><ele>8.714285714285715</ele><time>2026-04-27T06:21:45Z</time></trkpt><trkpt lat="14.5058966282656" lon="120.9875572824794"><ele>8.571428571428571</ele><time>2026-04-27T06:21:47Z</time></trkpt><trkpt lat="14.50583187670136" lon="120.987578771721"><ele>8.428571428571429</ele><time>2026-04-27T06:21:49Z</time></trkpt><trkpt lat="14.505772423075548" lon="120.98755373751598"><ele>8.285714285714285</ele><time>2026-04-27T06:21:52Z</time></trkpt><trkpt lat="14.505685810535283" lon="120.98757470056053"><ele>8.142857142857142</ele><time>2026-04-27T06:21:54Z</time></trkpt><trkpt lat="14.505618412465404" lon="120.98755583573525"><ele>8.0</ele><time>2026-04-27T06:21:55Z</time></trkpt><trkpt lat="14.505548943001973" lon="120.98751005593488"><ele>7.800000000000001</ele><time>2026-04-27T06:21:56Z</time></trkpt><trkpt lat="14.505474212415331" lon="120.98746021093135"><ele>7.6000000000000005</ele><time>2026-04-27T06:21:57Z</time></trkpt><trkpt lat="14.505391711633202" lon="120.9874100782977"><ele>7.3999999999999995</ele><time>2026-04-27T06:21:58Z</time></trkpt><trkpt lat="14.505298299618978" lon="120.98736049116258"><ele>7.199999999999999</ele><time>2026-04-27T06:21:59Z</time></trkpt><trkpt lat="14.505202245788926" lon="120.98730514225363"><ele>7.0</ele><time>2026-04-27T06:22:00Z</time></trkpt><trkpt lat="14.505102536710032" lon="120.98724374674553"><ele>7.0</ele><time>2026-04-27T06:22:01Z</time></trkpt><trkpt lat="14.50499493045587" lon="120.98717876139821"><ele>7.0</ele><time>2026-04-27T06:22:02Z</time></trkpt><trkpt lat="14.504887892303445" lon="120.98711357756564"><ele>7.0</ele><time>2026-04-27T06:22:03Z</time></trkpt><trkpt lat="14.504768825092489" lon="120.98704419562588"><ele>7.0</ele><time>2026-04-27T06:22:04Z</time></trkpt><trkpt lat="14.504648453034417" lon="120.98697677934541"><ele>7.5</ele><time>2026-04-27T06:22:05Z</time></trkpt><trkpt lat="14.504516526159904" lon="120.98690713721612"><ele>8.0</ele><time>2026-04-27T06:22:06Z</time></trkpt><trkpt lat="14.504379355335594" lon="120.98683739612373"><ele>8.5</ele><time>2026-04-27T06:22:07Z</time></trkpt><trkpt lat="14.504247072083663" lon="120.98676881031048"><ele>9.0</ele><time>2026-04-27T06:22:08.001Z</time></trkpt><trkpt lat="14.504119372086352" lon="120.98669960545487"><ele>9.2</ele><time>2026-04-27T06:22:09.001Z</time></trkpt><trkpt lat="14.504020715222419" lon="120.98663919287107"><ele>9.4</ele><time>2026-04-27T06:22:10.001Z</time></trkpt><trkpt lat="14.503902353909872" lon="120.98657409601188"><ele>9.6</ele><time>2026-04-27T06:22:11.001Z</time></trkpt><trkpt lat="14.503809233988292" lon="120.98652279248132"><ele>9.8</ele><time>2026-04-27T06:22:12.001Z</time></trkpt><trkpt lat="14.503727188903074" lon="120.98647866982023"><ele>10.0</ele><time>2026-04-27T06:22:13.001Z</time></trkpt><trkpt lat="14.503656182546083" lon="120.98645208546885"><ele>9.166666666666668</ele><time>2026-04-27T06:22:14.001Z</time></trkpt><trkpt lat="14.503553488311955" lon="120.9864570053929"><ele>8.333333333333334</ele><time>2026-04-27T06:22:16.001Z</time></trkpt><trkpt lat="14.503491304000102" lon="120.98653550837672"><ele>7.5</ele><time>2026-04-27T06:22:18.001Z</time></trkpt><trkpt lat="14.50352521445254" lon="120.98662285637567"><ele>6.666666666666667</ele><time>2026-04-27T06:22:19.001Z</time></trkpt><trkpt lat="14.50350410841653" lon="120.98669353008037"><ele>5.833333333333334</ele><time>2026-04-27T06:22:20.001Z</time></trkpt><trkpt lat="14.503481722587" lon="120.9867700165521"><ele>5.0</ele><time>2026-04-27T06:22:21.001Z</time></trkpt><trkpt lat="14.503454566838206" lon="120.9868631219766"><ele>5.0</ele><time>2026-04-27T06:22:22.001Z</time></trkpt><trkpt lat="14.50342727736277" lon="120.9869566859124"><ele>5.0</ele><time>2026-04-27T06:22:23.001Z</time></trkpt><trkpt lat="14.503401107304295" lon="120.98704647849344"><ele>5.0</ele><time>2026-04-27T06:22:24.001Z</time></trkpt><trkpt lat="14.503368372214988" lon="120.98716051027826"><ele>5.0</ele><time>2026-04-27T06:22:25.001Z</time></trkpt><trkpt lat="14.503339126299421" lon="120.98725955415173"><ele>5.0</ele><time>2026-04-27T06:22:26.001Z</time></trkpt><trkpt lat="14.503309181941386" lon="120.98736268816637"><ele>5.0</ele><time>2026-04-27T06:22:27.001Z</time></trkpt><trkpt lat="14.503279180192521" lon="120.98746647638902"><ele>5.0</ele><time>2026-04-27T06:22:28.001Z</time></trkpt><trkpt lat="14.503248746206701" lon="120.98756967486581"><ele>5.0</ele><time>2026-04-27T06:22:29.001Z</time></trkpt><trkpt lat="14.503215568438842" lon="120.98768150210687"><ele>5.0</ele><time>2026-04-27T06:22:30.001Z</time></trkpt><trkpt lat="14.503184976742718" lon="120.98778461768924"><ele>5.0</ele><time>2026-04-27T06:22:31.001Z</time></trkpt><trkpt lat="14.503152560542585" lon="120.9878966432665"><ele>4.8</ele><time>2026-04-27T06:22:32.001Z</time></trkpt><trkpt lat="14.50312013784256" lon="120.98800869134392"><ele>4.6</ele><time>2026-04-27T06:22:33.001Z</time></trkpt><trkpt lat="14.503088155045564" lon="120.98811922715925"><ele>4.4</ele><time>2026-04-27T06:22:34.001Z</time></trkpt><trkpt lat="14.503057474334547" lon="120.98822549359926"><ele>4.2</ele><time>2026-04-27T06:22:35.001Z</time></trkpt><trkpt lat="14.503031555326153" lon="120.98831526728797"><ele>4.0</ele><time>2026-04-27T06:22:36.001Z</time></trkpt><trkpt lat="14.50300923627339" lon="120.98840043095421"><ele>4.0</ele><time>2026-04-27T06:22:37.001Z</time></trkpt><trkpt lat="14.502994750181067" lon="120.98849559258359"><ele>4.0</ele><time>2026-04-27T06:22:38.001Z</time></trkpt><trkpt lat="14.502992739854841" lon="120.98859001377748"><ele>4.0</ele><time>2026-04-27T06:22:39.001Z</time></trkpt><trkpt lat="14.502996741027594" lon="120.98868817818732"><ele>4.0</ele><time>2026-04-27T06:22:40.001Z</time></trkpt><trkpt lat="14.503014089428811" lon="120.98878355207871"><ele>4.0</ele><time>2026-04-27T06:22:41.001Z</time></trkpt><trkpt lat="14.502948726520296" lon="120.98890477408287"><ele>3.4000000000000004</ele><time>2026-04-27T06:22:42.001Z</time></trkpt><trkpt lat="14.50288438620507" lon="120.98900030923976"><ele>2.8000000000000003</ele><time>2026-04-27T06:22:43.001Z</time></trkpt><trkpt lat="14.50284746098123" lon="120.98910392336361"><ele>2.2</ele><time>2026-04-27T06:22:44.001Z</time></trkpt><trkpt lat="14.502811795545256" lon="120.98922303164345"><ele>1.6</ele><time>2026-04-27T06:22:45.001Z</time></trkpt><trkpt lat="14.502788563960126" lon="120.9893133900329"><ele>1.0</ele><time>2026-04-27T06:22:46.001Z</time></trkpt><trkpt lat="14.502762514937906" lon="120.98939407694549"><ele>0.9999999999999999</ele><time>2026-04-27T06:22:47.001Z</time></trkpt><trkpt lat="14.502742468217575" lon="120.98946835610072"><ele>1.0</ele><time>2026-04-27T06:22:48.001Z</time></trkpt><trkpt lat="14.502703860231463" lon="120.98952585374951"><ele>1.0</ele><time>2026-04-27T06:22:49.001Z</time></trkpt><trkpt lat="14.502639719936635" lon="120.98957690398217"><ele>1.0</ele><time>2026-04-27T06:22:50.001Z</time></trkpt><trkpt lat="14.502564543420435" lon="120.98960064210114"><ele>0.9999999999999999</ele><time>2026-04-27T06:22:51.001Z</time></trkpt><trkpt lat="14.502479048135546" lon="120.98960821878464"><ele>1.0</ele><time>2026-04-27T06:22:52.001Z</time></trkpt><trkpt lat="14.50239660231283" lon="120.98956468605891"><ele>1.0</ele><time>2026-04-27T06:22:53.001Z</time></trkpt><trkpt lat="14.502301797490704" lon="120.98953652588563"><ele>1.0</ele><time>2026-04-27T06:22:54.001Z</time></trkpt><trkpt lat="14.502204567214825" lon="120.98951740394361"><ele>1.0</ele><time>2026-04-27T06:22:55.001Z</time></trkpt><trkpt lat="14.502101909850252" lon="120.98948585242472"><ele>1.0</ele><time>2026-04-27T06:22:56.001Z</time></trkpt><trkpt lat="14.501993795911428" lon="120.98946793125789"><ele>1.0</ele><time>2026-04-27T06:22:57.001Z</time></trkpt><trkpt lat="14.501880677162129" lon="120.98946815495921"><ele>2.0</ele><time>2026-04-27T06:22:58.001Z</time></trkpt><trkpt lat="14.501757110805375" lon="120.98947125772712"><ele>3.0</ele><time>2026-04-27T06:22:59.001Z</time></trkpt><trkpt lat="14.501639095181757" lon="120.98945755151198"><ele>4.0</ele><time>2026-04-27T06:23:00.001Z</time></trkpt><trkpt lat="14.501518819508165" lon="120.98942505567472"><ele>5.0</ele><time>2026-04-27T06:23:01.001Z</time></trkpt><trkpt lat="14.50140877869826" lon="120.98938558253991"><ele>5.0</ele><time>2026-04-27T06:23:02.001Z</time></trkpt><trkpt lat="14.501296860497426" lon="120.98934919614518"><ele>5.0</ele><time>2026-04-27T06:23:03.001Z</time></trkpt><trkpt lat="14.501192070848758" lon="120.98931530254542"><ele>5.0</ele><time>2026-04-27T06:23:04.001Z</time></trkpt><trkpt lat="14.501084525518797" lon="120.9892800526314"><ele>5.0</ele><time>2026-04-27T06:23:05.001Z</time></trkpt><trkpt lat="14.500984612276097" lon="120.98924708005728"><ele>5.0</ele><time>2026-04-27T06:23:06.001Z</time></trkpt><trkpt lat="14.500886420640553" lon="120.98921912628938"><ele>4.8</ele><time>2026-04-27T06:23:07.002Z</time></trkpt><trkpt lat="14.500800616925" lon="120.98919235165906"><ele>4.6</ele><time>2026-04-27T06:23:08.002Z</time></trkpt><trkpt lat="14.500729357280278" lon="120.98917068775519"><ele>4.4</ele><time>2026-04-27T06:23:09.002Z</time></trkpt><trkpt lat="14.50063111384617" lon="120.98913805383152"><ele>4.2</ele><time>2026-04-27T06:23:11Z</time></trkpt><trkpt lat="14.50058483648798" lon="120.98908813124194"><ele>4.0</ele><time>2026-04-27T06:23:14Z</time></trkpt><trkpt lat="14.50069729467216" lon="120.98915311195044"><ele>3.9999999999999996</ele><time>2026-04-27T06:23:16Z</time></trkpt><trkpt lat="14.500802613819646" lon="120.98915579802305"><ele>4.0</ele><time>2026-04-27T06:23:19Z</time></trkpt><trkpt lat="14.50087382663458" lon="120.98917747562169"><ele>4.0</ele><time>2026-04-27T06:23:20Z</time></trkpt><trkpt lat="14.500946746954286" lon="120.98919967299561"><ele>4.0</ele><time>2026-04-27T06:23:21Z</time></trkpt><trkpt lat="14.501033010162066" lon="120.98922593208265"><ele>3.9999999999999996</ele><time>2026-04-27T06:23:22Z</time></trkpt><trkpt lat="14.501113408563961" lon="120.98925058679455"><ele>4.0</ele><time>2026-04-27T06:23:23Z</time></trkpt><trkpt lat="14.501197852521322" lon="120.9892750480771"><ele>4.166666666666666</ele><time>2026-04-27T06:23:24Z</time></trkpt><trkpt lat="14.501295350080275" lon="120.98930257561885"><ele>4.333333333333333</ele><time>2026-04-27T06:23:25Z</time></trkpt><trkpt lat="14.501383473380994" lon="120.98933000830917"><ele>4.5</ele><time>2026-04-27T06:23:26Z</time></trkpt><trkpt lat="14.501458320549633" lon="120.98935496898822"><ele>4.666666666666667</ele><time>2026-04-27T06:23:27Z</time></trkpt><trkpt lat="14.501527321036678" lon="120.9893770881302"><ele>4.833333333333334</ele><time>2026-04-27T06:23:28Z</time></trkpt><trkpt lat="14.501602380703519" lon="120.98939945548102"><ele>5.0</ele><time>2026-04-27T06:23:29Z</time></trkpt><trkpt lat="14.501689267799891" lon="120.98942534733798"><ele>5.0</ele><time>2026-04-27T06:23:30Z</time></trkpt><trkpt lat="14.50177715277422" lon="120.98945153655067"><ele>5.0</ele><time>2026-04-27T06:23:31Z</time></trkpt><trkpt lat="14.501843556585078" lon="120.98948154181349"><ele>5.0</ele><time>2026-04-27T06:23:33Z</time></trkpt><trkpt lat="14.501889660771214" lon="120.98953685111056"><ele>5.0</ele><time>2026-04-27T06:23:34Z</time></trkpt><trkpt lat="14.501963539935987" lon="120.9895952887887"><ele>5.0</ele><time>2026-04-27T06:23:36Z</time></trkpt><trkpt lat="14.50198298156686" lon="120.9897129918032"><ele>5.0</ele><time>2026-04-27T06:23:39Z</time></trkpt><trkpt lat="14.501969291602519" lon="120.98980245628384"><ele>5.0</ele><time>2026-04-27T06:23:41Z</time></trkpt><trkpt lat="14.50195586447337" lon="120.98989033303478"><ele>5.0</ele><time>2026-04-27T06:23:43Z</time></trkpt><trkpt lat="14.50194531592193" lon="120.98995934286741"><ele>5.0</ele><time>2026-04-27T06:23:44Z</time></trkpt><trkpt lat="14.501925678132046" lon="120.99003072450434"><ele>5.0</ele><time>2026-04-27T06:23:47Z</time></trkpt><trkpt lat="14.501799857749475" lon="120.99003792672552"><ele>5.0</ele><time>2026-04-27T06:23:48Z</time></trkpt><trkpt lat="14.501692218982525" lon="120.9899932679813"><ele>5.0</ele><time>2026-04-27T06:23:50Z</time></trkpt><trkpt lat="14.501582372152445" lon="120.98996777673221"><ele>5.0</ele><time>2026-04-27T06:23:52Z</time></trkpt><trkpt lat="14.501466066813894" lon="120.98993175141102"><ele>5.0</ele><time>2026-04-27T06:23:54Z</time></trkpt><trkpt lat="14.50140217270441" lon="120.98991110441678"><ele>5.0</ele><time>2026-04-27T06:23:55Z</time></trkpt><trkpt lat="14.501337101688788" lon="120.98989103637243"><ele>5.0</ele><time>2026-04-27T06:23:56.001Z</time></trkpt><trkpt lat="14.501256493115918" lon="120.98987052699316"><ele>5.8</ele><time>2026-04-27T06:23:57.001Z</time></trkpt><trkpt lat="14.501190614989378" lon="120.98984861842766"><ele>6.6</ele><time>2026-04-27T06:23:58.001Z</time></trkpt><trkpt lat="14.501126265506043" lon="120.98983218210869"><ele>7.4</ele><time>2026-04-27T06:23:59.001Z</time></trkpt><trkpt lat="14.501013665478991" lon="120.98979358267704"><ele>8.2</ele><time>2026-04-27T06:24:01.001Z</time></trkpt><trkpt lat="14.50091386706621" lon="120.98976829851404"><ele>9.0</ele><time>2026-04-27T06:24:03.001Z</time></trkpt><trkpt lat="14.500814309905245" lon="120.98973101990056"><ele>9.0</ele><time>2026-04-27T06:24:05.001Z</time></trkpt><trkpt lat="14.500694897660509" lon="120.98969666954635"><ele>9.0</ele><time>2026-04-27T06:24:07.001Z</time></trkpt><trkpt lat="14.500629813521021" lon="120.98967173574631"><ele>9.0</ele><time>2026-04-27T06:24:08.001Z</time></trkpt><trkpt lat="14.500525597701301" lon="120.98963390663124"><ele>9.0</ele><time>2026-04-27T06:24:10.001Z</time></trkpt><trkpt lat="14.500423381538113" lon="120.9896102528324"><ele>9.0</ele><time>2026-04-27T06:24:12.001Z</time></trkpt><trkpt lat="14.500303436100184" lon="120.98956786056186"><ele>8.666666666666666</ele><time>2026-04-27T06:24:14.001Z</time></trkpt><trkpt lat="14.50022939097761" lon="120.9895467080778"><ele>8.333333333333334</ele><time>2026-04-27T06:24:15.001Z</time></trkpt><trkpt lat="14.500150105520486" lon="120.9895143554609"><ele>8.0</ele><time>2026-04-27T06:24:16.001Z</time></trkpt><trkpt lat="14.500068600064035" lon="120.98948908555246"><ele>7.666666666666667</ele><time>2026-04-27T06:24:17.001Z</time></trkpt><trkpt lat="14.499980277995085" lon="120.98946007701831"><ele>7.333333333333334</ele><time>2026-04-27T06:24:18.001Z</time></trkpt><trkpt lat="14.49988790378312" lon="120.98943033413876"><ele>7.0</ele><time>2026-04-27T06:24:19.001Z</time></trkpt><trkpt lat="14.499799241288743" lon="120.98940249363149"><ele>7.0</ele><time>2026-04-27T06:24:20.001Z</time></trkpt><trkpt lat="14.499701981000479" lon="120.98937239346719"><ele>6.999999999999999</ele><time>2026-04-27T06:24:21.001Z</time></trkpt><trkpt lat="14.499609560761389" lon="120.98934183595941"><ele>6.999999999999999</ele><time>2026-04-27T06:24:22.001Z</time></trkpt><trkpt lat="14.499527919080094" lon="120.98931748064186"><ele>7.0</ele><time>2026-04-27T06:24:23.001Z</time></trkpt><trkpt lat="14.499441244350852" lon="120.98929336623694"><ele>7.0</ele><time>2026-04-27T06:24:24.001Z</time></trkpt><trkpt lat="14.499364991340457" lon="120.98927286065788"><ele>7.199999999999999</ele><time>2026-04-27T06:24:25.001Z</time></trkpt><trkpt lat="14.499285688218592" lon="120.9892387258685"><ele>7.3999999999999995</ele><time>2026-04-27T06:24:26.001Z</time></trkpt><trkpt lat="14.499202152872487" lon="120.98921140660318"><ele>7.6000000000000005</ele><time>2026-04-27T06:24:27.001Z</time></trkpt><trkpt lat="14.499109361466457" lon="120.98918454710203"><ele>7.800000000000001</ele><time>2026-04-27T06:24:28.001Z</time></trkpt><trkpt lat="14.499023582357074" lon="120.98916190012626"><ele>8.0</ele><time>2026-04-27T06:24:29.001Z</time></trkpt><trkpt lat="14.498929000273977" lon="120.98913143646203"><ele>7.666666666666666</ele><time>2026-04-27T06:24:30.001Z</time></trkpt><trkpt lat="14.498848840011211" lon="120.98910474810488"><ele>7.333333333333333</ele><time>2026-04-27T06:24:31.001Z</time></trkpt><trkpt lat="14.498773247753983" lon="120.98908195015548"><ele>7.0</ele><time>2026-04-27T06:24:32.001Z</time></trkpt><trkpt lat="14.498686030062993" lon="120.98905705687206"><ele>6.666666666666666</ele><time>2026-04-27T06:24:33.001Z</time></trkpt><trkpt lat="14.498597388936616" lon="120.98903128834738"><ele>6.333333333333333</ele><time>2026-04-27T06:24:34.001Z</time></trkpt><trkpt lat="14.49852209780732" lon="120.98901414977344"><ele>6.0</ele><time>2026-04-27T06:24:35.001Z</time></trkpt><trkpt lat="14.49843627851196" lon="120.9889837665973"><ele>6.0</ele><time>2026-04-27T06:24:36.001Z</time></trkpt><trkpt lat="14.498357101861163" lon="120.98895905677884"><ele>6.0</ele><time>2026-04-27T06:24:37.001Z</time></trkpt><trkpt lat="14.498275921368467" lon="120.98893831541596"><ele>6.0</ele><time>2026-04-27T06:24:38.001Z</time></trkpt><trkpt lat="14.498189379991535" lon="120.98891393773877"><ele>6.0</ele><time>2026-04-27T06:24:39.001Z</time></trkpt><trkpt lat="14.498096466078875" lon="120.98888860478449"><ele>6.0</ele><time>2026-04-27T06:24:40.001Z</time></trkpt><trkpt lat="14.498001427982862" lon="120.98886273584623"><ele>6.199999999999999</ele><time>2026-04-27T06:24:41.001Z</time></trkpt><trkpt lat="14.497908431996844" lon="120.9888314860093"><ele>6.3999999999999995</ele><time>2026-04-27T06:24:42.001Z</time></trkpt><trkpt lat="14.497815084733405" lon="120.98879926197311"><ele>6.6</ele><time>2026-04-27T06:24:43.001Z</time></trkpt><trkpt lat="14.497705706466807" lon="120.98877066339307"><ele>6.8</ele><time>2026-04-27T06:24:44.001Z</time></trkpt><trkpt lat="14.497594271661326" lon="120.9887392222373"><ele>7.0</ele><time>2026-04-27T06:24:45.001Z</time></trkpt><trkpt lat="14.497483313733378" lon="120.98870542120525"><ele>7.0</ele><time>2026-04-27T06:24:46.001Z</time></trkpt><trkpt lat="14.497371220246224" lon="120.98867151145626"><ele>7.0</ele><time>2026-04-27T06:24:47.001Z</time></trkpt><trkpt lat="14.497262390038566" lon="120.98864016764874"><ele>7.0</ele><time>2026-04-27T06:24:48.001Z</time></trkpt><trkpt lat="14.497143830885515" lon="120.98860210697688"><ele>7.0</ele><time>2026-04-27T06:24:49.001Z</time></trkpt><trkpt lat="14.4970358287903" lon="120.98857481313337"><ele>7.0</ele><time>2026-04-27T06:24:50.001Z</time></trkpt><trkpt lat="14.49691484405249" lon="120.98853823983899"><ele>7.0</ele><time>2026-04-27T06:24:51.001Z</time></trkpt><trkpt lat="14.496796179397066" lon="120.98850254697713"><ele>7.0</ele><time>2026-04-27T06:24:52.002Z</time></trkpt><trkpt lat="14.496676763628683" lon="120.98846319839515"><ele>7.0</ele><time>2026-04-27T06:24:53.002Z</time></trkpt><trkpt lat="14.496559909603942" lon="120.98841036740215"><ele>7.0</ele><time>2026-04-27T06:24:54.002Z</time></trkpt><trkpt lat="14.496443530101214" lon="120.98837129414454"><ele>7.0</ele><time>2026-04-27T06:24:55.002Z</time></trkpt><trkpt lat="14.496315184407143" lon="120.98834499520085"><ele>7.0</ele><time>2026-04-27T06:24:56.002Z</time></trkpt><trkpt lat="14.49619076315211" lon="120.98830222314399"><ele>7.0</ele><time>2026-04-27T06:24:57.002Z</time></trkpt><trkpt lat="14.496071328231897" lon="120.98825212888612"><ele>6.75</ele><time>2026-04-27T06:24:58.002Z</time></trkpt><trkpt lat="14.495957021743456" lon="120.98820922996046"><ele>6.5</ele><time>2026-04-27T06:24:59.002Z</time></trkpt><trkpt lat="14.495844792027397" lon="120.98816771036225"><ele>6.25</ele><time>2026-04-27T06:25:00.002Z</time></trkpt><trkpt lat="14.495729994175566" lon="120.98811942431345"><ele>6.0</ele><time>2026-04-27T06:25:01.002Z</time></trkpt><trkpt lat="14.495635148753694" lon="120.98808600149854"><ele>6.0</ele><time>2026-04-27T06:25:02.002Z</time></trkpt><trkpt lat="14.495540972006307" lon="120.9880471385503"><ele>6.0</ele><time>2026-04-27T06:25:03.002Z</time></trkpt><trkpt lat="14.495454434728467" lon="120.98801614797362"><ele>6.0</ele><time>2026-04-27T06:25:04.002Z</time></trkpt><trkpt lat="14.495366101512744" lon="120.98797791702874"><ele>6.0</ele><time>2026-04-27T06:25:05.002Z</time></trkpt><trkpt lat="14.495280002969155" lon="120.98794407858605"><ele>6.0</ele><time>2026-04-27T06:25:06.002Z</time></trkpt><trkpt lat="14.495186417447053" lon="120.98790473406038"><ele>6.0</ele><time>2026-04-27T06:25:07.002Z</time></trkpt><trkpt lat="14.495097069812132" lon="120.98786572256641"><ele>6.0</ele><time>2026-04-27T06:25:08.002Z</time></trkpt><trkpt lat="14.495014172512274" lon="120.9878111646613"><ele>6.0</ele><time>2026-04-27T06:25:09.002Z</time></trkpt><trkpt lat="14.494917474891077" lon="120.98778141155819"><ele>6.0</ele><time>2026-04-27T06:25:10.002Z</time></trkpt><trkpt lat="14.494827154287671" lon="120.98774100775951"><ele>6.0</ele><time>2026-04-27T06:25:11.002Z</time></trkpt><trkpt lat="14.494749738487759" lon="120.98770820195888"><ele>6.0</ele><time>2026-04-27T06:25:12.002Z</time></trkpt><trkpt lat="14.494671114520065" lon="120.98767023304373"><ele>6.0</ele><time>2026-04-27T06:25:13.002Z</time></trkpt><trkpt lat="14.494586961552791" lon="120.98762892595536"><ele>6.0</ele><time>2026-04-27T06:25:14.002Z</time></trkpt><trkpt lat="14.494499151928343" lon="120.98758585214439"><ele>6.0</ele><time>2026-04-27T06:25:15.002Z</time></trkpt><trkpt lat="14.494412916941712" lon="120.98754477544617"><ele>6.0</ele><time>2026-04-27T06:25:16.002Z</time></trkpt><trkpt lat="14.49431985411088" lon="120.98749194665417"><ele>5.8</ele><time>2026-04-27T06:25:17Z</time></trkpt><trkpt lat="14.49422986177266" lon="120.98744670600402"><ele>5.6</ele><time>2026-04-27T06:25:18Z</time></trkpt><trkpt lat="14.494134705671575" lon="120.98740639523679"><ele>5.4</ele><time>2026-04-27T06:25:19Z</time></trkpt><trkpt lat="14.49403022474199" lon="120.9873570185688"><ele>5.2</ele><time>2026-04-27T06:25:20Z</time></trkpt><trkpt lat="14.493930500837727" lon="120.98728759042264"><ele>5.0</ele><time>2026-04-27T06:25:21Z</time></trkpt><trkpt lat="14.493822363564153" lon="120.98724726868994"><ele>5.25</ele><time>2026-04-27T06:25:22Z</time></trkpt><trkpt lat="14.493710655876972" lon="120.98718787276846"><ele>5.5</ele><time>2026-04-27T06:25:23Z</time></trkpt><trkpt lat="14.49360335924441" lon="120.98713524029291"><ele>5.75</ele><time>2026-04-27T06:25:24Z</time></trkpt><trkpt lat="14.493501236752664" lon="120.98708210746186"><ele>6.0</ele><time>2026-04-27T06:25:25Z</time></trkpt><trkpt lat="14.493400441717455" lon="120.98703159028909"><ele>6.0</ele><time>2026-04-27T06:25:26Z</time></trkpt><trkpt lat="14.493311631584351" lon="120.98698680529553"><ele>6.0</ele><time>2026-04-27T06:25:27Z</time></trkpt><trkpt lat="14.493221204227353" lon="120.98694134177721"><ele>6.0</ele><time>2026-04-27T06:25:28Z</time></trkpt><trkpt lat="14.493137574483324" lon="120.98690330947326"><ele>6.0</ele><time>2026-04-27T06:25:29Z</time></trkpt><trkpt lat="14.493060538788672" lon="120.9868784959818"><ele>6.0</ele><time>2026-04-27T06:25:30Z</time></trkpt><trkpt lat="14.492978017615682" lon="120.98686208361049"><ele>6.333333333333333</ele><time>2026-04-27T06:25:31Z</time></trkpt><trkpt lat="14.49290558902632" lon="120.98684614143711"><ele>6.666666666666666</ele><time>2026-04-27T06:25:32Z</time></trkpt><trkpt lat="14.492833997600687" lon="120.98682526414336"><ele>7.0</ele><time>2026-04-27T06:25:33Z</time></trkpt><trkpt lat="14.492720591044877" lon="120.98679645605618"><ele>7.333333333333333</ele><time>2026-04-27T06:25:35Z</time></trkpt><trkpt lat="14.492630466521229" lon="120.98676533307582"><ele>7.666666666666666</ele><time>2026-04-27T06:25:37Z</time></trkpt><trkpt lat="14.492569279586151" lon="120.98673836891511"><ele>8.0</ele><time>2026-04-27T06:25:39Z</time></trkpt><trkpt lat="14.492556962363174" lon="120.9868026728934"><ele>8.0</ele><time>2026-04-27T06:25:40Z</time></trkpt><trkpt lat="14.492514234557733" lon="120.98669664750045"><ele>8.0</ele><time>2026-04-27T06:25:41Z</time></trkpt><trkpt lat="14.492519766941378" lon="120.98661384546034"><ele>8.0</ele><time>2026-04-27T06:25:43Z</time></trkpt><trkpt lat="14.492550791484604" lon="120.98651646258531"><ele>8.0</ele><time>2026-04-27T06:25:45Z</time></trkpt><trkpt lat="14.492625312905682" lon="120.9865095776936"><ele>8.0</ele><time>2026-04-27T06:25:46Z</time></trkpt><trkpt lat="14.492458934619973" lon="120.98644649374684"><ele>8.200000000000001</ele><time>2026-04-27T06:25:47Z</time></trkpt><trkpt lat="14.492379421240468" lon="120.9864162148774"><ele>8.4</ele><time>2026-04-27T06:25:48Z</time></trkpt><trkpt lat="14.492287866064952" lon="120.98637231404213"><ele>8.600000000000001</ele><time>2026-04-27T06:25:49Z</time></trkpt><trkpt lat="14.49218940392152" lon="120.98632489835387"><ele>8.8</ele><time>2026-04-27T06:25:50Z</time></trkpt><trkpt lat="14.492082569844982" lon="120.98626549269387"><ele>9.0</ele><time>2026-04-27T06:25:51Z</time></trkpt><trkpt lat="14.491974429829812" lon="120.9861961525687"><ele>9.0</ele><time>2026-04-27T06:25:52Z</time></trkpt><trkpt lat="14.49185968071662" lon="120.98611486007341"><ele>9.0</ele><time>2026-04-27T06:25:53Z</time></trkpt><trkpt lat="14.491763683569893" lon="120.98600079467491"><ele>9.0</ele><time>2026-04-27T06:25:54Z</time></trkpt><trkpt lat="14.49165542921827" lon="120.98591533975826"><ele>9.0</ele><time>2026-04-27T06:25:55Z</time></trkpt><trkpt lat="14.49156321287279" lon="120.9858362218384"><ele>8.666666666666666</ele><time>2026-04-27T06:25:56Z</time></trkpt><trkpt lat="14.491479209820305" lon="120.98576415052267"><ele>8.333333333333334</ele><time>2026-04-27T06:25:57Z</time></trkpt><trkpt lat="14.491408860149917" lon="120.98569663379241"><ele>8.0</ele><time>2026-04-27T06:25:58.001Z</time></trkpt><trkpt lat="14.49135245661674" lon="120.9856486884629"><ele>7.666666666666667</ele><time>2026-04-27T06:25:59.001Z</time></trkpt><trkpt lat="14.491286799546458" lon="120.98559287732051"><ele>7.333333333333334</ele><time>2026-04-27T06:26:01.001Z</time></trkpt><trkpt lat="14.491235912388005" lon="120.98555096734799"><ele>7.0</ele><time>2026-04-27T06:26:04.001Z</time></trkpt><trkpt lat="14.491156842392195" lon="120.9854891529622"><ele>7.0</ele><time>2026-04-27T06:26:06.001Z</time></trkpt><trkpt lat="14.49109049160346" lon="120.98544160240601"><ele>6.999999999999999</ele><time>2026-04-27T06:26:09.001Z</time></trkpt><trkpt lat="14.491015567910106" lon="120.9853879080263"><ele>6.999999999999999</ele><time>2026-04-27T06:26:11.001Z</time></trkpt><trkpt lat="14.490912489208219" lon="120.98531403619647"><ele>7.0</ele><time>2026-04-27T06:26:13.001Z</time></trkpt><trkpt lat="14.490830814636507" lon="120.98526653898179"><ele>7.0</ele><time>2026-04-27T06:26:15.001Z</time></trkpt><trkpt lat="14.490758334981843" lon="120.98522421818355"><ele>7.000000000000001</ele><time>2026-04-27T06:26:18.001Z</time></trkpt><trkpt lat="14.490641134271325" lon="120.98515578482406"><ele>7.0</ele><time>2026-04-27T06:26:20.001Z</time></trkpt><trkpt lat="14.490566076273886" lon="120.98511195853791"><ele>7.0</ele><time>2026-04-27T06:26:21.001Z</time></trkpt><trkpt lat="14.490494517409656" lon="120.98507017539173"><ele>7.0</ele><time>2026-04-27T06:26:22.001Z</time></trkpt><trkpt lat="14.490433185926884" lon="120.98503090333953"><ele>7.000000000000001</ele><time>2026-04-27T06:26:23.001Z</time></trkpt><trkpt lat="14.490382181925241" lon="120.98498791036415"><ele>7.0</ele><time>2026-04-27T06:26:24.001Z</time></trkpt><trkpt lat="14.49033648240632" lon="120.98493520538732"><ele>6.8</ele><time>2026-04-27T06:26:25.001Z</time></trkpt><trkpt lat="14.490299697970316" lon="120.98487389047881"><ele>6.6</ele><time>2026-04-27T06:26:26.001Z</time></trkpt><trkpt lat="14.490285626862734" lon="120.98480521004356"><ele>6.3999999999999995</ele><time>2026-04-27T06:26:27.001Z</time></trkpt><trkpt lat="14.49023312623259" lon="120.98469527933314"><ele>6.199999999999999</ele><time>2026-04-27T06:26:28.001Z</time></trkpt><trkpt lat="14.490186920977726" lon="120.98460043714995"><ele>6.0</ele><time>2026-04-27T06:26:29.001Z</time></trkpt><trkpt lat="14.490129162031334" lon="120.98451605523204"><ele>6.0</ele><time>2026-04-27T06:26:30.001Z</time></trkpt><trkpt lat="14.490052631592402" lon="120.9844447732506"><ele>6.0</ele><time>2026-04-27T06:26:31.001Z</time></trkpt><trkpt lat="14.48997431709733" lon="120.9843765628162"><ele>6.0</ele><time>2026-04-27T06:26:32.001Z</time></trkpt><trkpt lat="14.489890954761037" lon="120.98430741887101"><ele>6.0</ele><time>2026-04-27T06:26:33.001Z</time></trkpt><trkpt lat="14.48979878562407" lon="120.9842309017116"><ele>6.0</ele><time>2026-04-27T06:26:34.001Z</time></trkpt><trkpt lat="14.489739069935515" lon="120.98418132679551"><ele>6.0</ele><time>2026-04-27T06:26:35.001Z</time></trkpt><trkpt lat="14.4896747192969" lon="120.98412790410225"><ele>6.0</ele><time>2026-04-27T06:26:36.001Z</time></trkpt><trkpt lat="14.489612454023163" lon="120.98408784998475"><ele>6.0</ele><time>2026-04-27T06:26:37.001Z</time></trkpt><trkpt lat="14.489498852835533" lon="120.98410829800021"><ele>6.0</ele><time>2026-04-27T06:26:39.001Z</time></trkpt><trkpt lat="14.489441548981683" lon="120.98413532660966"><ele>6.0</ele><time>2026-04-27T06:26:40.001Z</time></trkpt><trkpt lat="14.489433689654977" lon="120.98421022155436"><ele>6.0</ele><time>2026-04-27T06:26:41.001Z</time></trkpt><trkpt lat="14.489378139775125" lon="120.98431849591779"><ele>6.199999999999999</ele><time>2026-04-27T06:26:43.001Z</time></trkpt><trkpt lat="14.489303661962234" lon="120.98445195701444"><ele>6.3999999999999995</ele><time>2026-04-27T06:26:45.001Z</time></trkpt><trkpt lat="14.489276632884915" lon="120.98451526553632"><ele>6.6</ele><time>2026-04-27T06:26:46.001Z</time></trkpt><trkpt lat="14.489234490721241" lon="120.98458174193048"><ele>6.8</ele><time>2026-04-27T06:26:48.001Z</time></trkpt><trkpt lat="14.489130211444758" lon="120.9845382311311"><ele>7.0</ele><time>2026-04-27T06:26:51.001Z</time></trkpt><trkpt lat="14.489071981078594" lon="120.98451260664118"><ele>7.0</ele><time>2026-04-27T06:26:52.001Z</time></trkpt><trkpt lat="14.48898353457816" lon="120.98445745667475"><ele>6.999999999999999</ele><time>2026-04-27T06:26:54.002Z</time></trkpt><trkpt lat="14.488924543325512" lon="120.98441776565403"><ele>6.999999999999999</ele><time>2026-04-27T06:26:58.002Z</time></trkpt><trkpt lat="14.488842057080044" lon="120.98436701784195"><ele>7.0</ele><time>2026-04-27T06:27:00.002Z</time></trkpt><trkpt lat="14.488754611771425" lon="120.98430946590938"><ele>7.0</ele><time>2026-04-27T06:27:02.002Z</time></trkpt><trkpt lat="14.488685453830916" lon="120.98425124503683"><ele>7.000000000000001</ele><time>2026-04-27T06:27:05.002Z</time></trkpt><trkpt lat="14.488632748402491" lon="120.98421560239899"><ele>7.0</ele><time>2026-04-27T06:27:17.002Z</time></trkpt><trkpt lat="14.48855381570714" lon="120.98416582258835"><ele>7.0</ele><time>2026-04-27T06:27:19.002Z</time></trkpt><trkpt lat="14.488451304666624" lon="120.98409978318851"><ele>7.0</ele><time>2026-04-27T06:27:21.002Z</time></trkpt><trkpt lat="14.488395552428225" lon="120.98406386660874"><ele>7.000000000000001</ele><time>2026-04-27T06:27:22.002Z</time></trkpt><trkpt lat="14.488340013719402" lon="120.98402808760595"><ele>7.0</ele><time>2026-04-27T06:27:23Z</time></trkpt><trkpt lat="14.48828023294888" lon="120.98398957578607"><ele>7.000000000000001</ele><time>2026-04-27T06:27:24Z</time></trkpt><trkpt lat="14.488215876952925" lon="120.9839481165243"><ele>7.0</ele><time>2026-04-27T06:27:25Z</time></trkpt><trkpt lat="14.48814891590018" lon="120.98389970134953"><ele>7.0</ele><time>2026-04-27T06:27:26Z</time></trkpt><trkpt lat="14.488080973655894" lon="120.98384943891512"><ele>7.0</ele><time>2026-04-27T06:27:27Z</time></trkpt><trkpt lat="14.48800419445123" lon="120.98378994179373"><ele>7.000000000000001</ele><time>2026-04-27T06:27:28Z</time></trkpt><trkpt lat="14.487917658674366" lon="120.98372158539304"><ele>7.0</ele><time>2026-04-27T06:27:29Z</time></trkpt><trkpt lat="14.48783191639174" lon="120.98365368512081"><ele>7.5</ele><time>2026-04-27T06:27:30Z</time></trkpt><trkpt lat="14.487753371745654" lon="120.98359137132034"><ele>8.0</ele><time>2026-04-27T06:27:31Z</time></trkpt><trkpt lat="14.487665534409896" lon="120.98352168509862"><ele>8.5</ele><time>2026-04-27T06:27:32Z</time></trkpt><trkpt lat="14.48757220448223" lon="120.98344764134268"><ele>9.0</ele><time>2026-04-27T06:27:33Z</time></trkpt><trkpt lat="14.487471126756517" lon="120.9833674585529"><ele>8.8</ele><time>2026-04-27T06:27:34Z</time></trkpt><trkpt lat="14.487374938433186" lon="120.98329120353264"><ele>8.600000000000001</ele><time>2026-04-27T06:27:35Z</time></trkpt><trkpt lat="14.487282825176042" lon="120.98321817909546"><ele>8.4</ele><time>2026-04-27T06:27:36Z</time></trkpt><trkpt lat="14.487195379484925" lon="120.98314885495597"><ele>8.200000000000001</ele><time>2026-04-27T06:27:37Z</time></trkpt><trkpt lat="14.487125439484108" lon="120.98309340877076"><ele>8.0</ele><time>2026-04-27T06:27:38Z</time></trkpt><trkpt lat="14.487058015210769" lon="120.98303995696385"><ele>8.0</ele><time>2026-04-27T06:27:39Z</time></trkpt><trkpt lat="14.486952820382921" lon="120.9829565618598"><ele>8.0</ele><time>2026-04-27T06:27:40Z</time></trkpt><trkpt lat="14.486868442130376" lon="120.98288966947436"><ele>8.0</ele><time>2026-04-27T06:27:41Z</time></trkpt><trkpt lat="14.486780258597884" lon="120.98281976038587"><ele>8.0</ele><time>2026-04-27T06:27:42Z</time></trkpt><trkpt lat="14.486689751957787" lon="120.98274800963641"><ele>8.0</ele><time>2026-04-27T06:27:43Z</time></trkpt><trkpt lat="14.48659695266794" lon="120.98267444131096"><ele>8.0</ele><time>2026-04-27T06:27:44Z</time></trkpt><trkpt lat="14.486504393924362" lon="120.98260106370384"><ele>8.0</ele><time>2026-04-27T06:27:45Z</time></trkpt><trkpt lat="14.486415588202213" lon="120.98253066138524"><ele>8.0</ele><time>2026-04-27T06:27:46Z</time></trkpt><trkpt lat="14.486327565111598" lon="120.9824662084165"><ele>7.4</ele><time>2026-04-27T06:27:47Z</time></trkpt><trkpt lat="14.486239447108254" lon="120.98240337855557"><ele>6.800000000000001</ele><time>2026-04-27T06:27:48Z</time></trkpt><trkpt lat="14.486155571035923" lon="120.98234357282706"><ele>6.2</ele><time>2026-04-27T06:27:49Z</time></trkpt><trkpt lat="14.486050419155658" lon="120.98231065064587"><ele>5.6</ele><time>2026-04-27T06:27:50Z</time></trkpt><trkpt lat="14.485943955015378" lon="120.98226629396791"><ele>5.0</ele><time>2026-04-27T06:27:51Z</time></trkpt><trkpt lat="14.485838492703836" lon="120.9822300882661"><ele>5.0</ele><time>2026-04-27T06:27:52Z</time></trkpt><trkpt lat="14.485737195940937" lon="120.9821856617938"><ele>5.0</ele><time>2026-04-27T06:27:53Z</time></trkpt><trkpt lat="14.485669432255142" lon="120.98210361108606"><ele>5.0</ele><time>2026-04-27T06:27:54Z</time></trkpt><trkpt lat="14.485585764244528" lon="120.9820317683574"><ele>5.0</ele><time>2026-04-27T06:27:55.001Z</time></trkpt><trkpt lat="14.485499174141832" lon="120.98195741627798"><ele>5.0</ele><time>2026-04-27T06:27:56.001Z</time></trkpt><trkpt lat="14.485417259239934" lon="120.9818772356004"><ele>6.0</ele><time>2026-04-27T06:27:57.001Z</time></trkpt><trkpt lat="14.48533426240407" lon="120.98179152490503"><ele>7.0</ele><time>2026-04-27T06:27:58.001Z</time></trkpt><trkpt lat="14.485251687295275" lon="120.98170624970263"><ele>8.0</ele><time>2026-04-27T06:27:59.001Z</time></trkpt><trkpt lat="14.485169904880761" lon="120.98162112727896"><ele>9.0</ele><time>2026-04-27T06:28:00.001Z</time></trkpt><trkpt lat="14.485078422822344" lon="120.98152818285081"><ele>9.75</ele><time>2026-04-27T06:28:01.001Z</time></trkpt><trkpt lat="14.484973752092793" lon="120.98143377561168"><ele>10.5</ele><time>2026-04-27T06:28:02.001Z</time></trkpt><trkpt lat="14.484879901906353" lon="120.98134905890281"><ele>11.25</ele><time>2026-04-27T06:28:03.001Z</time></trkpt><trkpt lat="14.484794850469468" lon="120.98127228367764"><ele>12.0</ele><time>2026-04-27T06:28:04.001Z</time></trkpt><trkpt lat="14.484720893892009" lon="120.98120552366791"><ele>12.0</ele><time>2026-04-27T06:28:05.001Z</time></trkpt><trkpt lat="14.484662698710009" lon="120.98115299134733"><ele>12.0</ele><time>2026-04-27T06:28:06.001Z</time></trkpt><trkpt lat="14.484588932535692" lon="120.98108640320181"><ele>12.0</ele><time>2026-04-27T06:28:08.001Z</time></trkpt><trkpt lat="14.484525065568794" lon="120.98102875101455"><ele>12.0</ele><time>2026-04-27T06:28:13.001Z</time></trkpt><trkpt lat="14.4844489593682" lon="120.98096024892546"><ele>12.0</ele><time>2026-04-27T06:28:15.001Z</time></trkpt><trkpt lat="14.48439920077647" lon="120.98091547309434"><ele>12.0</ele><time>2026-04-27T06:28:16.001Z</time></trkpt><trkpt lat="14.484348060258403" lon="120.98086945372073"><ele>11.5</ele><time>2026-04-27T06:28:17.001Z</time></trkpt><trkpt lat="14.484295999794563" lon="120.98082260655036"><ele>11.0</ele><time>2026-04-27T06:28:18.001Z</time></trkpt><trkpt lat="14.4842368065814" lon="120.98076934087557"><ele>10.5</ele><time>2026-04-27T06:28:19.001Z</time></trkpt><trkpt lat="14.484174920439528" lon="120.98071365192797"><ele>10.0</ele><time>2026-04-27T06:28:20.001Z</time></trkpt><trkpt lat="14.484109612535125" lon="120.98065488388308"><ele>9.5</ele><time>2026-04-27T06:28:21.001Z</time></trkpt><trkpt lat="14.484039743843764" lon="120.98059201177742"><ele>9.0</ele><time>2026-04-27T06:28:22.001Z</time></trkpt><trkpt lat="14.483972082835756" lon="120.98053112624247"><ele>9.0</ele><time>2026-04-27T06:28:23.001Z</time></trkpt><trkpt lat="14.483899332669308" lon="120.98046566118738"><ele>9.0</ele><time>2026-04-27T06:28:24.001Z</time></trkpt><trkpt lat="14.483833712036036" lon="120.98040661172145"><ele>9.0</ele><time>2026-04-27T06:28:25.001Z</time></trkpt><trkpt lat="14.483772858254905" lon="120.98035185176605"><ele>9.0</ele><time>2026-04-27T06:28:26.001Z</time></trkpt><trkpt lat="14.483705661737758" lon="120.98029138422619"><ele>9.0</ele><time>2026-04-27T06:28:27.001Z</time></trkpt><trkpt lat="14.483636702517954" lon="120.98022933050643"><ele>9.0</ele><time>2026-04-27T06:28:28.001Z</time></trkpt><trkpt lat="14.483576854409991" lon="120.98017547552088"><ele>8.857142857142858</ele><time>2026-04-27T06:28:29.001Z</time></trkpt><trkpt lat="14.48351694191393" lon="120.98012156259463"><ele>8.714285714285715</ele><time>2026-04-27T06:28:30.001Z</time></trkpt><trkpt lat="14.483467634903995" lon="120.98007719311262"><ele>8.571428571428571</ele><time>2026-04-27T06:28:31.001Z</time></trkpt><trkpt lat="14.483413821268295" lon="120.98002876832403"><ele>8.428571428571429</ele><time>2026-04-27T06:28:32.001Z</time></trkpt><trkpt lat="14.483360846121641" lon="120.97998109804276"><ele>8.285714285714285</ele><time>2026-04-27T06:28:33.001Z</time></trkpt><trkpt lat="14.48330441544437" lon="120.97993031827545"><ele>8.142857142857142</ele><time>2026-04-27T06:28:34.001Z</time></trkpt><trkpt lat="14.483241694686622" lon="120.97987387831074"><ele>8.0</ele><time>2026-04-27T06:28:35.001Z</time></trkpt><trkpt lat="14.483177070646303" lon="120.97981572560397"><ele>8.0</ele><time>2026-04-27T06:28:36.001Z</time></trkpt><trkpt lat="14.483121401222048" lon="120.97976563086897"><ele>7.999999999999999</ele><time>2026-04-27T06:28:37.001Z</time></trkpt><trkpt lat="14.48307169166977" lon="120.97972089918093"><ele>8.0</ele><time>2026-04-27T06:28:38.001Z</time></trkpt><trkpt lat="14.483012071743014" lon="120.97966724952342"><ele>8.0</ele><time>2026-04-27T06:28:40.001Z</time></trkpt><trkpt lat="14.482951832114576" lon="120.97961298156187"><ele>7.999999999999999</ele><time>2026-04-27T06:28:45.001Z</time></trkpt><trkpt lat="14.48289567971058" lon="120.97956368421129"><ele>8.0</ele><time>2026-04-27T06:28:47.001Z</time></trkpt><trkpt lat="14.482846525603057" lon="120.9795216311865"><ele>8.0</ele><time>2026-04-27T06:28:50.001Z</time></trkpt><trkpt lat="14.482772519173558" lon="120.97945831619674"><ele>7.999999999999999</ele><time>2026-04-27T06:28:53.002Z</time></trkpt><trkpt lat="14.482722136900902" lon="120.97941521246757"><ele>8.0</ele><time>2026-04-27T06:28:54.002Z</time></trkpt><trkpt lat="14.48267106931756" lon="120.9793715224247"><ele>8.0</ele><time>2026-04-27T06:28:55.002Z</time></trkpt><trkpt lat="14.482620480721755" lon="120.97932824215495"><ele>8.0</ele><time>2026-04-27T06:28:56.002Z</time></trkpt><trkpt lat="14.482535060292847" lon="120.97925516209034"><ele>7.999999999999999</ele><time>2026-04-27T06:28:58.002Z</time></trkpt><trkpt lat="14.48247037227033" lon="120.97919981929272"><ele>8.0</ele><time>2026-04-27T06:29:00.002Z</time></trkpt><trkpt lat="14.482413292041489" lon="120.97915098522637"><ele>8.0</ele><time>2026-04-27T06:29:02.002Z</time></trkpt><trkpt lat="14.482338798738459" lon="120.9790872536951"><ele>8.0</ele><time>2026-04-27T06:29:04.002Z</time></trkpt><trkpt lat="14.482240078705683" lon="120.97900279533494"><ele>8.0</ele><time>2026-04-27T06:29:06.002Z</time></trkpt><trkpt lat="14.482137486631238" lon="120.97891502434915"><ele>8.0</ele><time>2026-04-27T06:29:08.002Z</time></trkpt><trkpt lat="14.482036928913866" lon="120.97882899364312"><ele>8.0</ele><time>2026-04-27T06:29:10.002Z</time></trkpt><trkpt lat="14.481951282775185" lon="120.97875928410942"><ele>8.0</ele><time>2026-04-27T06:29:12.002Z</time></trkpt><trkpt lat="14.481856058698886" lon="120.97868112744895"><ele>8.0</ele><time>2026-04-27T06:29:14.002Z</time></trkpt><trkpt lat="14.481806634747416" lon="120.9786405619537"><ele>8.0</ele><time>2026-04-27T06:29:15.002Z</time></trkpt><trkpt lat="14.481727233590304" lon="120.97857916433132"><ele>8.0</ele><time>2026-04-27T06:29:17.002Z</time></trkpt><trkpt lat="14.481672807326296" lon="120.97853730905753"><ele>8.0</ele><time>2026-04-27T06:29:19.002Z</time></trkpt><trkpt lat="14.481613300364153" lon="120.97850664849219"><ele>7.999999999999999</ele><time>2026-04-27T06:29:21.002Z</time></trkpt><trkpt lat="14.481538228709061" lon="120.97850305415926"><ele>8.0</ele><time>2026-04-27T06:29:23.002Z</time></trkpt><trkpt lat="14.481460627867515" lon="120.97848435017106"><ele>8.0</ele><time>2026-04-27T06:29:26.002Z</time></trkpt><trkpt lat="14.481409951076795" lon="120.97843490554276"><ele>7.999999999999999</ele><time>2026-04-27T06:29:31Z</time></trkpt><trkpt lat="14.48136060651516" lon="120.97839281317191"><ele>8.0</ele><time>2026-04-27T06:29:36Z</time></trkpt><trkpt lat="14.481303341087914" lon="120.97834396404134"><ele>8.0</ele><time>2026-04-27T06:29:41Z</time></trkpt><trkpt lat="14.481250637692765" lon="120.97829900647586"><ele>7.800000000000001</ele><time>2026-04-27T06:29:45Z</time></trkpt><trkpt lat="14.481182994564335" lon="120.97824130489086"><ele>7.6000000000000005</ele><time>2026-04-27T06:29:47Z</time></trkpt><trkpt lat="14.481114852709455" lon="120.97818015669297"><ele>7.3999999999999995</ele><time>2026-04-27T06:29:49Z</time></trkpt><trkpt lat="14.481032381057348" lon="120.97810403649827"><ele>7.199999999999999</ele><time>2026-04-27T06:29:51Z</time></trkpt><trkpt lat="14.480969089748394" lon="120.97804561947846"><ele>7.0</ele><time>2026-04-27T06:29:53Z</time></trkpt><trkpt lat="14.480901159142608" lon="120.97798292037582"><ele>7.000000000000001</ele><time>2026-04-27T06:29:56Z</time></trkpt><trkpt lat="14.480848348021862" lon="120.97793870699535"><ele>7.0</ele><time>2026-04-27T06:29:58.001Z</time></trkpt><trkpt lat="14.480780717662983" lon="120.9778819761376"><ele>7.0</ele><time>2026-04-27T06:30:01.001Z</time></trkpt><trkpt lat="14.480716620877928" lon="120.97782820967784"><ele>7.0</ele><time>2026-04-27T06:30:04.001Z</time></trkpt><trkpt lat="14.480666526851062" lon="120.97778618895293"><ele>7.000000000000001</ele><time>2026-04-27T06:30:06.001Z</time></trkpt><trkpt lat="14.480587437312604" lon="120.97771984571399"><ele>7.0</ele><time>2026-04-27T06:30:08.001Z</time></trkpt><trkpt lat="14.480496930489604" lon="120.97764392528708"><ele>7.0</ele><time>2026-04-27T06:30:10.001Z</time></trkpt><trkpt lat="14.480440084308205" lon="120.97759624053825"><ele>6.999999999999999</ele><time>2026-04-27T06:30:11.001Z</time></trkpt><trkpt lat="14.480340463606838" lon="120.97751267506737"><ele>6.999999999999999</ele><time>2026-04-27T06:30:13.001Z</time></trkpt><trkpt lat="14.480258568734198" lon="120.97744397861244"><ele>7.0</ele><time>2026-04-27T06:30:15.001Z</time></trkpt><trkpt lat="14.480186928531031" lon="120.97737608933224"><ele>7.0</ele><time>2026-04-27T06:30:17.001Z</time></trkpt><trkpt lat="14.480098408434921" lon="120.97727985303283"><ele>7.166666666666667</ele><time>2026-04-27T06:30:19.001Z</time></trkpt><trkpt lat="14.480006238816623" lon="120.97717964908682"><ele>7.333333333333334</ele><time>2026-04-27T06:30:21.001Z</time></trkpt><trkpt lat="14.479958547820473" lon="120.9771271647761"><ele>7.5</ele><time>2026-04-27T06:30:22.001Z</time></trkpt><trkpt lat="14.479909844495992" lon="120.97707216686679"><ele>7.666666666666666</ele><time>2026-04-27T06:30:23.001Z</time></trkpt><trkpt lat="14.479859080260207" lon="120.97701484173469"><ele>7.833333333333333</ele><time>2026-04-27T06:30:24.001Z</time></trkpt><trkpt lat="14.479808192407841" lon="120.9769569162771"><ele>8.0</ele><time>2026-04-27T06:30:25.001Z</time></trkpt><trkpt lat="14.479759436257623" lon="120.97690005758386"><ele>8.0</ele><time>2026-04-27T06:30:26.001Z</time></trkpt><trkpt lat="14.479693398600366" lon="120.97682304543619"><ele>8.0</ele><time>2026-04-27T06:30:27.001Z</time></trkpt><trkpt lat="14.479632278618874" lon="120.97675176819857"><ele>8.0</ele><time>2026-04-27T06:30:28.001Z</time></trkpt><trkpt lat="14.479565218637848" lon="120.97667356382233"><ele>8.0</ele><time>2026-04-27T06:30:29.001Z</time></trkpt><trkpt lat="14.479506415697008" lon="120.97660494736805"><ele>8.0</ele><time>2026-04-27T06:30:30.001Z</time></trkpt><trkpt lat="14.479457262951625" lon="120.97654686596779"><ele>7.4</ele><time>2026-04-27T06:30:31.001Z</time></trkpt><trkpt lat="14.479397727117052" lon="120.97647510710509"><ele>6.800000000000001</ele><time>2026-04-27T06:30:32.001Z</time></trkpt><trkpt lat="14.479339813516548" lon="120.97640301842803"><ele>6.2</ele><time>2026-04-27T06:30:33.001Z</time></trkpt><trkpt lat="14.47927949050022" lon="120.97632807275922"><ele>5.6</ele><time>2026-04-27T06:30:34.001Z</time></trkpt><trkpt lat="14.479222664897605" lon="120.97625747228653"><ele>5.0</ele><time>2026-04-27T06:30:35.001Z</time></trkpt><trkpt lat="14.479163473261059" lon="120.976183932245"><ele>5.0</ele><time>2026-04-27T06:30:36.001Z</time></trkpt><trkpt lat="14.479119213540384" lon="120.97612894371387"><ele>5.0</ele><time>2026-04-27T06:30:37.001Z</time></trkpt><trkpt lat="14.479048271802915" lon="120.97604125025943"><ele>5.0</ele><time>2026-04-27T06:30:39.001Z</time></trkpt><trkpt lat="14.478979360002102" lon="120.97595711003869"><ele>5.0</ele><time>2026-04-27T06:30:41.001Z</time></trkpt><trkpt lat="14.47891422998056" lon="120.97587658877679"><ele>5.0</ele><time>2026-04-27T06:30:43.001Z</time></trkpt><trkpt lat="14.47884382642675" lon="120.9757891350595"><ele>5.333333333333334</ele><time>2026-04-27T06:30:45.001Z</time></trkpt><trkpt lat="14.478784585408114" lon="120.97571565381911"><ele>5.666666666666667</ele><time>2026-04-27T06:30:47.001Z</time></trkpt><trkpt lat="14.478732774908368" lon="120.97565162114836"><ele>6.0</ele><time>2026-04-27T06:30:50.001Z</time></trkpt><trkpt lat="14.478688440747183" lon="120.97559682849567"><ele>6.333333333333334</ele><time>2026-04-27T06:30:55.001Z</time></trkpt><trkpt lat="14.478642469898723" lon="120.97554038430168"><ele>6.666666666666667</ele><time>2026-04-27T06:30:58.002Z</time></trkpt><trkpt lat="14.478598528299388" lon="120.97548656862811"><ele>7.0</ele><time>2026-04-27T06:31:02.002Z</time></trkpt><trkpt lat="14.47853154284965" lon="120.97540453093912"><ele>7.0</ele><time>2026-04-27T06:31:05.002Z</time></trkpt><trkpt lat="14.478461417714596" lon="120.97531864807658"><ele>6.999999999999999</ele><time>2026-04-27T06:31:07.002Z</time></trkpt><trkpt lat="14.478414455991773" lon="120.9752524121691"><ele>6.999999999999999</ele><time>2026-04-27T06:31:09.002Z</time></trkpt><trkpt lat="14.478363069909694" lon="120.97517369280921"><ele>7.0</ele><time>2026-04-27T06:31:12.002Z</time></trkpt><trkpt lat="14.47832010719429" lon="120.97509863516414"><ele>7.0</ele><time>2026-04-27T06:31:14.002Z</time></trkpt><trkpt lat="14.47826273270132" lon="120.97500535441354"><ele>7.166666666666667</ele><time>2026-04-27T06:31:16.002Z</time></trkpt><trkpt lat="14.478215250623618" lon="120.97493996629224"><ele>7.333333333333334</ele><time>2026-04-27T06:31:18.002Z</time></trkpt><trkpt lat="14.478166547737306" lon="120.97487519600915"><ele>7.5</ele><time>2026-04-27T06:31:21.002Z</time></trkpt><trkpt lat="14.478071145399566" lon="120.97494440910165"><ele>7.666666666666666</ele><time>2026-04-27T06:31:22.002Z</time></trkpt><trkpt lat="14.478001557234105" lon="120.97494718329885"><ele>7.833333333333333</ele><time>2026-04-27T06:31:26.002Z</time></trkpt><trkpt lat="14.477987517157052" lon="120.97488240314853"><ele>8.0</ele><time>2026-04-27T06:31:28.002Z</time></trkpt><trkpt lat="14.47791246958187" lon="120.97478849188035"><ele>8.0</ele><time>2026-04-27T06:31:30.002Z</time></trkpt><trkpt lat="14.477865002005744" lon="120.97472909295004"><ele>8.0</ele><time>2026-04-27T06:31:31.002Z</time></trkpt><trkpt lat="14.47780344925188" lon="120.97465206853177"><ele>8.0</ele><time>2026-04-27T06:31:32.002Z</time></trkpt><trkpt lat="14.477740602393874" lon="120.97457340027482"><ele>8.0</ele><time>2026-04-27T06:31:33.002Z</time></trkpt><trkpt lat="14.477670164994962" lon="120.97448503872072"><ele>8.0</ele><time>2026-04-27T06:31:34.002Z</time></trkpt><trkpt lat="14.477586444603729" lon="120.97438652117917"><ele>8.0</ele><time>2026-04-27T06:31:35Z</time></trkpt><trkpt lat="14.477512714513525" lon="120.97429742243065"><ele>8.0</ele><time>2026-04-27T06:31:36Z</time></trkpt><trkpt lat="14.477432762084332" lon="120.97420216918339"><ele>8.0</ele><time>2026-04-27T06:31:37Z</time></trkpt><trkpt lat="14.477365515452115" lon="120.97412205331413"><ele>8.0</ele><time>2026-04-27T06:31:38Z</time></trkpt><trkpt lat="14.477300612758029" lon="120.97404472994675"><ele>8.0</ele><time>2026-04-27T06:31:39Z</time></trkpt><trkpt lat="14.477242320541526" lon="120.97397528887595"><ele>7.7142857142857135</ele><time>2026-04-27T06:31:40Z</time></trkpt><trkpt lat="14.477191117741645" lon="120.97391436356922"><ele>7.428571428571428</ele><time>2026-04-27T06:31:41Z</time></trkpt><trkpt lat="14.477148371023027" lon="120.97386350000481"><ele>7.142857142857142</ele><time>2026-04-27T06:31:43Z</time></trkpt><trkpt lat="14.477095653050279" lon="120.97380077150927"><ele>6.857142857142857</ele><time>2026-04-27T06:31:47Z</time></trkpt><trkpt lat="14.477023236749915" lon="120.97376030305317"><ele>6.571428571428571</ele><time>2026-04-27T06:31:50Z</time></trkpt><trkpt lat="14.476973730308218" lon="120.97370474088935"><ele>6.285714285714285</ele><time>2026-04-27T06:31:52Z</time></trkpt><trkpt lat="14.476927446995475" lon="120.9736575673717"><ele>6.0</ele><time>2026-04-27T06:31:55Z</time></trkpt><trkpt lat="14.476859249936686" lon="120.97356387211246"><ele>6.0</ele><time>2026-04-27T06:31:58Z</time></trkpt><trkpt lat="14.476840268642567" lon="120.97348930275626"><ele>6.0</ele><time>2026-04-27T06:31:59Z</time></trkpt><trkpt lat="14.476788646820198" lon="120.97342941262306"><ele>6.0</ele><time>2026-04-27T06:32:00Z</time></trkpt><trkpt lat="14.476687571899669" lon="120.97339656132432"><ele>6.0</ele><time>2026-04-27T06:32:01Z</time></trkpt><trkpt lat="14.47662403452292" lon="120.973325036087"><ele>6.0</ele><time>2026-04-27T06:32:02.001Z</time></trkpt><trkpt lat="14.476558771020839" lon="120.97324535119287"><ele>5.833333333333333</ele><time>2026-04-27T06:32:03.001Z</time></trkpt><trkpt lat="14.476496843724814" lon="120.97317326607157"><ele>5.666666666666667</ele><time>2026-04-27T06:32:04.001Z</time></trkpt><trkpt lat="14.476434742131707" lon="120.97310324812503"><ele>5.5</ele><time>2026-04-27T06:32:05.001Z</time></trkpt><trkpt lat="14.47638209845837" lon="120.97303508040827"><ele>5.333333333333334</ele><time>2026-04-27T06:32:06.001Z</time></trkpt><trkpt lat="14.476353007467077" lon="120.97296329603643"><ele>5.166666666666667</ele><time>2026-04-27T06:32:07.001Z</time></trkpt><trkpt lat="14.476360189182474" lon="120.97289268594228"><ele>5.0</ele><time>2026-04-27T06:32:08.001Z</time></trkpt><trkpt lat="14.476400291734977" lon="120.97283956171279"><ele>5.0</ele><time>2026-04-27T06:32:09.001Z</time></trkpt><trkpt lat="14.4764604161492" lon="120.97279665509849"><ele>5.0</ele><time>2026-04-27T06:32:10.001Z</time></trkpt><trkpt lat="14.476521204353904" lon="120.97274698983121"><ele>5.0</ele><time>2026-04-27T06:32:11.001Z</time></trkpt><trkpt lat="14.476575042530898" lon="120.97268022674945"><ele>5.0</ele><time>2026-04-27T06:32:12.001Z</time></trkpt><trkpt lat="14.47661254441081" lon="120.97260401128514"><ele>5.0</ele><time>2026-04-27T06:32:13.001Z</time></trkpt><trkpt lat="14.47663184188178" lon="120.97251244350389"><ele>5.0</ele><time>2026-04-27T06:32:15.001Z</time></trkpt><trkpt lat="14.476632224795717" lon="120.97244356484852"><ele>5.4</ele><time>2026-04-27T06:32:17.001Z</time></trkpt><trkpt lat="14.47654855511185" lon="120.97232290278137"><ele>5.8</ele><time>2026-04-27T06:32:19.001Z</time></trkpt><trkpt lat="14.476494722130269" lon="120.97225404888697"><ele>6.199999999999999</ele><time>2026-04-27T06:32:20.001Z</time></trkpt><trkpt lat="14.476439584627062" lon="120.97217529790376"><ele>6.6</ele><time>2026-04-27T06:32:21.001Z</time></trkpt><trkpt lat="14.476384946224535" lon="120.97209801918173"><ele>7.0</ele><time>2026-04-27T06:32:22.001Z</time></trkpt><trkpt lat="14.47633054929195" lon="120.97202259883898"><ele>7.0</ele><time>2026-04-27T06:32:23.001Z</time></trkpt><trkpt lat="14.476278936887942" lon="120.97195878003622"><ele>6.999999999999999</ele><time>2026-04-27T06:32:24.001Z</time></trkpt><trkpt lat="14.476229522941736" lon="120.97190962471697"><ele>6.999999999999999</ele><time>2026-04-27T06:32:25.001Z</time></trkpt><trkpt lat="14.476126129255665" lon="120.97187140324769"><ele>7.0</ele><time>2026-04-27T06:32:27.001Z</time></trkpt><trkpt lat="14.476067259135913" lon="120.97179676644295"><ele>7.0</ele><time>2026-04-27T06:32:30.001Z</time></trkpt><trkpt lat="14.476032259317792" lon="120.97170262701614"><ele>6.666666666666667</ele><time>2026-04-27T06:32:32.001Z</time></trkpt><trkpt lat="14.475990596033471" lon="120.97163239999416"><ele>6.333333333333334</ele><time>2026-04-27T06:32:34.001Z</time></trkpt><trkpt lat="14.475943235183884" lon="120.9715548597631"><ele>6.0</ele><time>2026-04-27T06:32:36.001Z</time></trkpt><trkpt lat="14.47590979648489" lon="120.9714877381349"><ele>5.666666666666667</ele><time>2026-04-27T06:32:37.001Z</time></trkpt><trkpt lat="14.475873299398561" lon="120.97141247662489"><ele>5.333333333333334</ele><time>2026-04-27T06:32:38.001Z</time></trkpt><trkpt lat="14.475829583662824" lon="120.97132698473"><ele>5.0</ele><time>2026-04-27T06:32:39.001Z</time></trkpt><trkpt lat="14.47577784678061" lon="120.97123848781143"><ele>5.0</ele><time>2026-04-27T06:32:40.001Z</time></trkpt><trkpt lat="14.475719134634883" lon="120.9711470186512"><ele>5.0</ele><time>2026-04-27T06:32:41.001Z</time></trkpt><trkpt lat="14.47565427633401" lon="120.97104611455782"><ele>5.0</ele><time>2026-04-27T06:32:42.001Z</time></trkpt><trkpt lat="14.475588495149312" lon="120.97095030466322"><ele>5.0</ele><time>2026-04-27T06:32:43.001Z</time></trkpt><trkpt lat="14.475521167482613" lon="120.97085006715511"><ele>5.166666666666667</ele><time>2026-04-27T06:32:44.001Z</time></trkpt><trkpt lat="14.475471782201126" lon="120.97077077024905"><ele>5.333333333333334</ele><time>2026-04-27T06:32:45.001Z</time></trkpt><trkpt lat="14.475423651957874" lon="120.97069300712859"><ele>5.5</ele><time>2026-04-27T06:32:46.001Z</time></trkpt><trkpt lat="14.475380235119006" lon="120.97062756856826"><ele>5.666666666666667</ele><time>2026-04-27T06:32:47.001Z</time></trkpt><trkpt lat="14.475330581136888" lon="120.97056545280988"><ele>5.833333333333333</ele><time>2026-04-27T06:32:48.001Z</time></trkpt><trkpt lat="14.475269331733116" lon="120.97048652843758"><ele>6.0</ele><time>2026-04-27T06:32:49.001Z</time></trkpt><trkpt lat="14.475209187951666" lon="120.97041217878234"><ele>6.199999999999999</ele><time>2026-04-27T06:32:50.001Z</time></trkpt><trkpt lat="14.475145799451706" lon="120.97033003646452"><ele>6.3999999999999995</ele><time>2026-04-27T06:32:51.001Z</time></trkpt><trkpt lat="14.475073008115515" lon="120.97024294365148"><ele>6.6</ele><time>2026-04-27T06:32:52.001Z</time></trkpt><trkpt lat="14.475006264494986" lon="120.97015437773003"><ele>6.8</ele><time>2026-04-27T06:32:53.001Z</time></trkpt><trkpt lat="14.47493756461566" lon="120.97006388877779"><ele>7.0</ele><time>2026-04-27T06:32:54.001Z</time></trkpt><trkpt lat="14.47487595731826" lon="120.96997782383502"><ele>6.666666666666667</ele><time>2026-04-27T06:32:55.001Z</time></trkpt><trkpt lat="14.474825795833802" lon="120.96990804375359"><ele>6.333333333333334</ele><time>2026-04-27T06:32:56.001Z</time></trkpt><trkpt lat="14.474790288055729" lon="120.9698512984188"><ele>6.0</ele><time>2026-04-27T06:32:57.001Z</time></trkpt><trkpt lat="14.47471343036532" lon="120.96979337662724"><ele>5.666666666666667</ele><time>2026-04-27T06:32:59.001Z</time></trkpt><trkpt lat="14.474602930701614" lon="120.96982411749794"><ele>5.333333333333334</ele><time>2026-04-27T06:33:01.001Z</time></trkpt><trkpt lat="14.474534117101221" lon="120.96986068468227"><ele>5.0</ele><time>2026-04-27T06:33:02.002Z</time></trkpt><trkpt lat="14.474453887666757" lon="120.96989181106552"><ele>4.8</ele><time>2026-04-27T06:33:03.002Z</time></trkpt><trkpt lat="14.474374803631454" lon="120.96991496263556"><ele>4.6</ele><time>2026-04-27T06:33:04.002Z</time></trkpt><trkpt lat="14.474283072044502" lon="120.96995971732822"><ele>4.4</ele><time>2026-04-27T06:33:05.002Z</time></trkpt><trkpt lat="14.47419031158761" lon="120.97000469418448"><ele>4.2</ele><time>2026-04-27T06:33:06.002Z</time></trkpt><trkpt lat="14.474098682529593" lon="120.97005499262971"><ele>4.0</ele><time>2026-04-27T06:33:07.002Z</time></trkpt><trkpt lat="14.47400003464082" lon="120.97010008766624"><ele>4.0</ele><time>2026-04-27T06:33:08.002Z</time></trkpt><trkpt lat="14.473896660490732" lon="120.97014478702181"><ele>4.0</ele><time>2026-04-27T06:33:09.002Z</time></trkpt><trkpt lat="14.473795016690287" lon="120.97019397150697"><ele>4.0</ele><time>2026-04-27T06:33:10.002Z</time></trkpt><trkpt lat="14.473696248405016" lon="120.97025198763943"><ele>4.0</ele><time>2026-04-27T06:33:11.002Z</time></trkpt><trkpt lat="14.473596048218525" lon="120.97032775738882"><ele>3.75</ele><time>2026-04-27T06:33:12.002Z</time></trkpt><trkpt lat="14.47349636549793" lon="120.97041215271847"><ele>3.5</ele><time>2026-04-27T06:33:13.002Z</time></trkpt><trkpt lat="14.473395706143473" lon="120.97049313785293"><ele>3.25</ele><time>2026-04-27T06:33:14.002Z</time></trkpt><trkpt lat="14.47329271774586" lon="120.97057747007109"><ele>3.0</ele><time>2026-04-27T06:33:15.002Z</time></trkpt><trkpt lat="14.473193037790303" lon="120.97067321574858"><ele>3.0</ele><time>2026-04-27T06:33:16.002Z</time></trkpt><trkpt lat="14.473091795496368" lon="120.97077104285235"><ele>3.0</ele><time>2026-04-27T06:33:17.002Z</time></trkpt><trkpt lat="14.472987756208672" lon="120.97087175837665"><ele>3.0</ele><time>2026-04-27T06:33:18.002Z</time></trkpt><trkpt lat="14.47288928376322" lon="120.9709610452805"><ele>3.0</ele><time>2026-04-27T06:33:19.002Z</time></trkpt><trkpt lat="14.472774808127161" lon="120.97105790510827"><ele>3.25</ele><time>2026-04-27T06:33:20.002Z</time></trkpt><trkpt lat="14.472663532637842" lon="120.9711446137869"><ele>3.5</ele><time>2026-04-27T06:33:21.002Z</time></trkpt><trkpt lat="14.472547304891993" lon="120.97121645150064"><ele>3.75</ele><time>2026-04-27T06:33:22.002Z</time></trkpt><trkpt lat="14.472430565467077" lon="120.97127126651658"><ele>4.0</ele><time>2026-04-27T06:33:23.002Z</time></trkpt><trkpt lat="14.472315244745728" lon="120.97131165380024"><ele>4.0</ele><time>2026-04-27T06:33:24.002Z</time></trkpt><trkpt lat="14.472197479849388" lon="120.97134445601789"><ele>4.0</ele><time>2026-04-27T06:33:25.002Z</time></trkpt><trkpt lat="14.472075750927985" lon="120.9713719810632"><ele>4.0</ele><time>2026-04-27T06:33:26.002Z</time></trkpt><trkpt lat="14.471952000934383" lon="120.97139296620489"><ele>4.0</ele><time>2026-04-27T06:33:27.002Z</time></trkpt><trkpt lat="14.471837254313822" lon="120.97139608994009"><ele>4.4</ele><time>2026-04-27T06:33:28.002Z</time></trkpt><trkpt lat="14.471719056085078" lon="120.97138642122009"><ele>4.800000000000001</ele><time>2026-04-27T06:33:29.002Z</time></trkpt><trkpt lat="14.471616069778545" lon="120.97136445277647"><ele>5.199999999999999</ele><time>2026-04-27T06:33:30.002Z</time></trkpt><trkpt lat="14.471520196017542" lon="120.9713322091129"><ele>5.6</ele><time>2026-04-27T06:33:31.002Z</time></trkpt><trkpt lat="14.471442308801981" lon="120.97128749087524"><ele>6.0</ele><time>2026-04-27T06:33:32.002Z</time></trkpt><trkpt lat="14.471377215904079" lon="120.971223122602"><ele>6.0</ele><time>2026-04-27T06:33:33.002Z</time></trkpt><trkpt lat="14.4713200046131" lon="120.97113920247318"><ele>6.0</ele><time>2026-04-27T06:33:34.002Z</time></trkpt><trkpt lat="14.471281684817805" lon="120.97106493002107"><ele>6.0</ele><time>2026-04-27T06:33:35.002Z</time></trkpt><trkpt lat="14.471246081131577" lon="120.97097913004173"><ele>6.0</ele><time>2026-04-27T06:33:36.002Z</time></trkpt><trkpt lat="14.471244925529176" lon="120.97089159136259"><ele>6.0</ele><time>2026-04-27T06:33:37.002Z</time></trkpt><trkpt lat="14.471256090045976" lon="120.97078884274762"><ele>6.0</ele><time>2026-04-27T06:33:38.002Z</time></trkpt><trkpt lat="14.471273672083342" lon="120.97068219561733"><ele>6.0</ele><time>2026-04-27T06:33:39.002Z</time></trkpt><trkpt lat="14.471292050767333" lon="120.97057390208765"><ele>6.0</ele><time>2026-04-27T06:33:40.002Z</time></trkpt><trkpt lat="14.471317424008495" lon="120.97045921841692"><ele>6.0</ele><time>2026-04-27T06:33:41Z</time></trkpt><trkpt lat="14.471351735658706" lon="120.97035744606231"><ele>6.0</ele><time>2026-04-27T06:33:42Z</time></trkpt><trkpt lat="14.471397240283396" lon="120.97025458281186"><ele>6.0</ele><time>2026-04-27T06:33:43Z</time></trkpt><trkpt lat="14.471461414526797" lon="120.97015916648219"><ele>6.0</ele><time>2026-04-27T06:33:44Z</time></trkpt><trkpt lat="14.471542463560555" lon="120.97006835417817"><ele>6.0</ele><time>2026-04-27T06:33:45Z</time></trkpt><trkpt lat="14.47162424418026" lon="120.96999783506757"><ele>6.0</ele><time>2026-04-27T06:33:46Z</time></trkpt><trkpt lat="14.471720450036116" lon="120.96991644841864"><ele>5.6</ele><time>2026-04-27T06:33:47Z</time></trkpt><trkpt lat="14.471814745522815" lon="120.96984358635461"><ele>5.199999999999999</ele><time>2026-04-27T06:33:48Z</time></trkpt><trkpt lat="14.471901820215994" lon="120.96976849543108"><ele>4.800000000000001</ele><time>2026-04-27T06:33:49Z</time></trkpt><trkpt lat="14.471980333438376" lon="120.96969048366036"><ele>4.4</ele><time>2026-04-27T06:33:50Z</time></trkpt><trkpt lat="14.47204820758848" lon="120.96960865772651"><ele>4.0</ele><time>2026-04-27T06:33:51Z</time></trkpt><trkpt lat="14.472110082717863" lon="120.96952586930813"><ele>3.9999999999999996</ele><time>2026-04-27T06:33:52Z</time></trkpt><trkpt lat="14.472165063583104" lon="120.96945222747757"><ele>4.0</ele><time>2026-04-27T06:33:53Z</time></trkpt><trkpt lat="14.472201715024214" lon="120.96937538318133"><ele>4.0</ele><time>2026-04-27T06:33:54Z</time></trkpt><trkpt lat="14.472211654863052" lon="120.96929360889398"><ele>4.0</ele><time>2026-04-27T06:33:55Z</time></trkpt><trkpt lat="14.472204067807683" lon="120.96920055184545"><ele>3.9999999999999996</ele><time>2026-04-27T06:33:56Z</time></trkpt><trkpt lat="14.472184057756383" lon="120.96910375063999"><ele>4.0</ele><time>2026-04-27T06:33:57Z</time></trkpt><trkpt lat="14.472147517733271" lon="120.96900138576905"><ele>4.5</ele><time>2026-04-27T06:33:58Z</time></trkpt><trkpt lat="14.472093139592356" lon="120.96890060709767"><ele>5.0</ele><time>2026-04-27T06:33:59Z</time></trkpt><trkpt lat="14.472023736914513" lon="120.96878786026657"><ele>5.5</ele><time>2026-04-27T06:34:00Z</time></trkpt><trkpt lat="14.471959278027715" lon="120.96868730535705"><ele>6.0</ele><time>2026-04-27T06:34:01Z</time></trkpt><trkpt lat="14.471894123873863" lon="120.96856954205825"><ele>6.0</ele><time>2026-04-27T06:34:02Z</time></trkpt><trkpt lat="14.471832385422951" lon="120.96846339644587"><ele>6.0</ele><time>2026-04-27T06:34:03Z</time></trkpt><trkpt lat="14.471771095179548" lon="120.96835063355977"><ele>6.0</ele><time>2026-04-27T06:34:04.001Z</time></trkpt><trkpt lat="14.471718443252303" lon="120.96826148069049"><ele>6.0</ele><time>2026-04-27T06:34:05.001Z</time></trkpt><trkpt lat="14.47165892975311" lon="120.9681560680631"><ele>5.75</ele><time>2026-04-27T06:34:06.001Z</time></trkpt><trkpt lat="14.471590436043156" lon="120.96806176640655"><ele>5.5</ele><time>2026-04-27T06:34:07.001Z</time></trkpt><trkpt lat="14.471505436880213" lon="120.96798699960598"><ele>5.25</ele><time>2026-04-27T06:34:08.001Z</time></trkpt><trkpt lat="14.471400224162917" lon="120.96791897037377"><ele>5.0</ele><time>2026-04-27T06:34:09.001Z</time></trkpt><trkpt lat="14.471304475402496" lon="120.96784572206383"><ele>5.0</ele><time>2026-04-27T06:34:10.001Z</time></trkpt><trkpt lat="14.471200544876323" lon="120.9677787968034"><ele>5.0</ele><time>2026-04-27T06:34:11.001Z</time></trkpt><trkpt lat="14.471095803645516" lon="120.96771767969915"><ele>5.0</ele><time>2026-04-27T06:34:12.001Z</time></trkpt><trkpt lat="14.470990941224107" lon="120.96765324435864"><ele>5.0</ele><time>2026-04-27T06:34:13.001Z</time></trkpt><trkpt lat="14.470905412611305" lon="120.96759544703794"><ele>5.0</ele><time>2026-04-27T06:34:14.001Z</time></trkpt><trkpt lat="14.470819800402914" lon="120.96752889405657"><ele>5.0</ele><time>2026-04-27T06:34:15.001Z</time></trkpt><trkpt lat="14.47075138258352" lon="120.96746960432897"><ele>5.0</ele><time>2026-04-27T06:34:16.001Z</time></trkpt><trkpt lat="14.470699327939315" lon="120.96742734152777"><ele>5.0</ele><time>2026-04-27T06:34:17.001Z</time></trkpt><trkpt lat="14.470565542038797" lon="120.96741086192607"><ele>5.0</ele><time>2026-04-27T06:34:19.001Z</time></trkpt><trkpt lat="14.470450830309519" lon="120.96746031211471"><ele>4.8</ele><time>2026-04-27T06:34:21.001Z</time></trkpt><trkpt lat="14.470355870156865" lon="120.96745786421225"><ele>4.6</ele><time>2026-04-27T06:34:22.001Z</time></trkpt><trkpt lat="14.470253323014775" lon="120.9674473778604"><ele>4.4</ele><time>2026-04-27T06:34:23.001Z</time></trkpt><trkpt lat="14.470178439992733" lon="120.96742973453279"><ele>4.2</ele><time>2026-04-27T06:34:24.001Z</time></trkpt><trkpt lat="14.47007965552919" lon="120.96742838805743"><ele>4.0</ele><time>2026-04-27T06:34:25.001Z</time></trkpt><trkpt lat="14.469980270663026" lon="120.96742447759522"><ele>3.9999999999999996</ele><time>2026-04-27T06:34:26.001Z</time></trkpt><trkpt lat="14.469895261072057" lon="120.96741517018526"><ele>4.0</ele><time>2026-04-27T06:34:27.001Z</time></trkpt><trkpt lat="14.469824260298482" lon="120.96741046378459"><ele>4.0</ele><time>2026-04-27T06:34:28.001Z</time></trkpt><trkpt lat="14.469748925010418" lon="120.96742439173711"><ele>4.0</ele><time>2026-04-27T06:34:29.001Z</time></trkpt><trkpt lat="14.46967178101465" lon="120.96746484849712"><ele>3.9999999999999996</ele><time>2026-04-27T06:34:30.001Z</time></trkpt><trkpt lat="14.469605921558063" lon="120.96751226815212"><ele>4.0</ele><time>2026-04-27T06:34:31.001Z</time></trkpt><trkpt lat="14.469556860634729" lon="120.96756601260238"><ele>4.5</ele><time>2026-04-27T06:34:32.001Z</time></trkpt><trkpt lat="14.469526660464869" lon="120.96764042587967"><ele>5.0</ele><time>2026-04-27T06:34:33.001Z</time></trkpt><trkpt lat="14.469517685038934" lon="120.96772621202724"><ele>5.5</ele><time>2026-04-27T06:34:34.001Z</time></trkpt><trkpt lat="14.469510977780368" lon="120.9678229206117"><ele>6.0</ele><time>2026-04-27T06:34:35.001Z</time></trkpt><trkpt lat="14.46949939487346" lon="120.96791790757148"><ele>6.500000000000001</ele><time>2026-04-27T06:34:36.001Z</time></trkpt><trkpt lat="14.469483152932268" lon="120.96801407455285"><ele>7.0</ele><time>2026-04-27T06:34:37.001Z</time></trkpt><trkpt lat="14.469466891661295" lon="120.96811784065517"><ele>7.0</ele><time>2026-04-27T06:34:38.001Z</time></trkpt><trkpt lat="14.469451676005821" lon="120.96822511704565"><ele>7.0</ele><time>2026-04-27T06:34:39.001Z</time></trkpt><trkpt lat="14.469426758696248" lon="120.96833624072032"><ele>7.0</ele><time>2026-04-27T06:34:40.001Z</time></trkpt><trkpt lat="14.469406938443878" lon="120.96846292538672"><ele>7.0</ele><time>2026-04-27T06:34:41.001Z</time></trkpt><trkpt lat="14.469382237156507" lon="120.96858633781784"><ele>6.8</ele><time>2026-04-27T06:34:42.001Z</time></trkpt><trkpt lat="14.469357802419289" lon="120.96870786887119"><ele>6.6</ele><time>2026-04-27T06:34:43.001Z</time></trkpt><trkpt lat="14.469338041543855" lon="120.96882875185145"><ele>6.3999999999999995</ele><time>2026-04-27T06:34:44.001Z</time></trkpt><trkpt lat="14.46931887888357" lon="120.96894448787249"><ele>6.199999999999999</ele><time>2026-04-27T06:34:45.001Z</time></trkpt><trkpt lat="14.469301572378308" lon="120.96904290145076"><ele>6.0</ele><time>2026-04-27T06:34:46.001Z</time></trkpt><trkpt lat="14.469279398272691" lon="120.96910727930208"><ele>6.0</ele><time>2026-04-27T06:34:47.001Z</time></trkpt><trkpt lat="14.469243314875003" lon="120.9691737319999"><ele>6.0</ele><time>2026-04-27T06:34:48.001Z</time></trkpt><trkpt lat="14.469191958334324" lon="120.96921662144545"><ele>6.0</ele><time>2026-04-27T06:34:49.001Z</time></trkpt><trkpt lat="14.469124259453274" lon="120.96926091720191"><ele>6.0</ele><time>2026-04-27T06:34:50.001Z</time></trkpt><trkpt lat="14.469050576742893" lon="120.96929858276225"><ele>6.0</ele><time>2026-04-27T06:34:51.001Z</time></trkpt><trkpt lat="14.46897260692173" lon="120.96934210700381"><ele>6.0</ele><time>2026-04-27T06:34:52.001Z</time></trkpt><trkpt lat="14.468891992482313" lon="120.96938039925188"><ele>6.199999999999999</ele><time>2026-04-27T06:34:53.001Z</time></trkpt><trkpt lat="14.468776578777685" lon="120.969429191414"><ele>6.3999999999999995</ele><time>2026-04-27T06:34:55.001Z</time></trkpt><trkpt lat="14.46869217557141" lon="120.96943170510994"><ele>6.6</ele><time>2026-04-27T06:34:56.001Z</time></trkpt><trkpt lat="14.468577620313592" lon="120.96940246664745"><ele>6.8</ele><time>2026-04-27T06:34:58.001Z</time></trkpt><trkpt lat="14.468510605236823" lon="120.96938586993203"><ele>7.0</ele><time>2026-04-27T06:35:00.001Z</time></trkpt><trkpt lat="14.468478895927872" lon="120.96932721648595"><ele>7.000000000000001</ele><time>2026-04-27T06:35:03.002Z</time></trkpt><trkpt lat="14.468496626052216" lon="120.96924189726502"><ele>7.0</ele><time>2026-04-27T06:35:05.002Z</time></trkpt><trkpt lat="14.468494746713809" lon="120.96914315805353"><ele>7.0</ele><time>2026-04-27T06:35:07.002Z</time></trkpt><trkpt lat="14.468408278985299" lon="120.96904554657819"><ele>7.0</ele><time>2026-04-27T06:35:09.002Z</time></trkpt><trkpt lat="14.46835589974621" lon="120.96899779656428"><ele>7.000000000000001</ele><time>2026-04-27T06:35:10.002Z</time></trkpt><trkpt lat="14.4683055769023" lon="120.96894650912876"><ele>7.0</ele><time>2026-04-27T06:35:11.002Z</time></trkpt><trkpt lat="14.468254245624866" lon="120.96889770617206"><ele>7.000000000000001</ele><time>2026-04-27T06:35:12.002Z</time></trkpt><trkpt lat="14.468191032118629" lon="120.96883564097062"><ele>7.0</ele><time>2026-04-27T06:35:14.002Z</time></trkpt><trkpt lat="14.468114778920754" lon="120.96876366885925"><ele>7.0</ele><time>2026-04-27T06:35:18.002Z</time></trkpt><trkpt lat="14.468069648285363" lon="120.96871662195545"><ele>7.0</ele><time>2026-04-27T06:35:19.002Z</time></trkpt><trkpt lat="14.468021085669722" lon="120.96866833722218"><ele>7.000000000000001</ele><time>2026-04-27T06:35:20.002Z</time></trkpt><trkpt lat="14.467976662883299" lon="120.96862074667098"><ele>7.0</ele><time>2026-04-27T06:35:21.002Z</time></trkpt><trkpt lat="14.46790764132694" lon="120.96855068039255"><ele>7.000000000000001</ele><time>2026-04-27T06:35:23.002Z</time></trkpt><trkpt lat="14.467845473241645" lon="120.96848123650165"><ele>7.0</ele><time>2026-04-27T06:35:26.002Z</time></trkpt><trkpt lat="14.467775399021347" lon="120.96841907633488"><ele>7.0</ele><time>2026-04-27T06:35:30.002Z</time></trkpt><trkpt lat="14.467727624631081" lon="120.96837592829992"><ele>7.0</ele><time>2026-04-27T06:35:31.002Z</time></trkpt><trkpt lat="14.4676777671989" lon="120.96833271064195"><ele>7.000000000000001</ele><time>2026-04-27T06:35:32.002Z</time></trkpt><trkpt lat="14.46759941621014" lon="120.968255867531"><ele>7.0</ele><time>2026-04-27T06:35:34.002Z</time></trkpt><trkpt lat="14.467551961178833" lon="120.96820430670275"><ele>6.833333333333334</ele><time>2026-04-27T06:35:36.002Z</time></trkpt><trkpt lat="14.467501357844514" lon="120.96815862362659"><ele>6.666666666666667</ele><time>2026-04-27T06:35:39.002Z</time></trkpt><trkpt lat="14.467450315238155" lon="120.96810265819616"><ele>6.5</ele><time>2026-04-27T06:35:43.002Z</time></trkpt><trkpt lat="14.467414659214874" lon="120.96802054853876"><ele>6.333333333333334</ele><time>2026-04-27T06:35:45.002Z</time></trkpt><trkpt lat="14.467381864745791" lon="120.96793131291584"><ele>6.166666666666667</ele><time>2026-04-27T06:35:47.001Z</time></trkpt><trkpt lat="14.467375211605434" lon="120.9678400351055"><ele>6.0</ele><time>2026-04-27T06:35:49.001Z</time></trkpt><trkpt lat="14.467365285085998" lon="120.9677612765929"><ele>6.0</ele><time>2026-04-27T06:35:51.001Z</time></trkpt><trkpt lat="14.46737195658076" lon="120.9676784644295"><ele>6.0</ele><time>2026-04-27T06:35:53.001Z</time></trkpt><trkpt lat="14.467396770807039" lon="120.9676160032897"><ele>6.0</ele><time>2026-04-27T06:35:56.001Z</time></trkpt><trkpt lat="14.46740877218246" lon="120.96752399010418"><ele>6.0</ele><time>2026-04-27T06:35:58.001Z</time></trkpt><trkpt lat="14.4674327640696" lon="120.96740854161588"><ele>6.0</ele><time>2026-04-27T06:36:00Z</time></trkpt><trkpt lat="14.46745555303176" lon="120.96733725059632"><ele>6.0</ele><time>2026-04-27T06:36:01Z</time></trkpt><trkpt lat="14.467489509843372" lon="120.967268921926"><ele>5.666666666666667</ele><time>2026-04-27T06:36:02Z</time></trkpt><trkpt lat="14.467529606855644" lon="120.96719440766944"><ele>5.333333333333333</ele><time>2026-04-27T06:36:03Z</time></trkpt><trkpt lat="14.467574879745843" lon="120.96711237914366"><ele>5.0</ele><time>2026-04-27T06:36:04Z</time></trkpt><trkpt lat="14.467622962075612" lon="120.96702924170789"><ele>4.666666666666666</ele><time>2026-04-27T06:36:05Z</time></trkpt><trkpt lat="14.467666763103711" lon="120.96695567194604"><ele>4.333333333333333</ele><time>2026-04-27T06:36:06.001Z</time></trkpt><trkpt lat="14.467704701846856" lon="120.96689260099495"><ele>4.0</ele><time>2026-04-27T06:36:07.001Z</time></trkpt><trkpt lat="14.46773525643622" lon="120.96682717706842"><ele>3.9999999999999996</ele><time>2026-04-27T06:36:08.001Z</time></trkpt><trkpt lat="14.467756049987065" lon="120.96676010379842"><ele>4.0</ele><time>2026-04-27T06:36:09.001Z</time></trkpt><trkpt lat="14.467779749597968" lon="120.96668491745204"><ele>4.0</ele><time>2026-04-27T06:36:10.001Z</time></trkpt><trkpt lat="14.467797230665505" lon="120.96660013931552"><ele>4.0</ele><time>2026-04-27T06:36:11.001Z</time></trkpt><trkpt lat="14.467819212484534" lon="120.96650314320411"><ele>3.9999999999999996</ele><time>2026-04-27T06:36:12.001Z</time></trkpt><trkpt lat="14.467845461482897" lon="120.96639495189892"><ele>4.0</ele><time>2026-04-27T06:36:13.001Z</time></trkpt><trkpt lat="14.467870289349285" lon="120.96628217000611"><ele>4.5</ele><time>2026-04-27T06:36:14.001Z</time></trkpt><trkpt lat="14.467895578529918" lon="120.96616136639109"><ele>5.0</ele><time>2026-04-27T06:36:15.001Z</time></trkpt><trkpt lat="14.467920262737707" lon="120.96602727708074"><ele>5.5</ele><time>2026-04-27T06:36:16.001Z</time></trkpt><trkpt lat="14.467945813695236" lon="120.96589057697126"><ele>6.0</ele><time>2026-04-27T06:36:17.001Z</time></trkpt><trkpt lat="14.467963319702429" lon="120.96575645283431"><ele>6.0</ele><time>2026-04-27T06:36:18.001Z</time></trkpt><trkpt lat="14.46798060659229" lon="120.96562641753152"><ele>6.0</ele><time>2026-04-27T06:36:19.001Z</time></trkpt><trkpt lat="14.46799867785514" lon="120.9655103398673"><ele>6.0</ele><time>2026-04-27T06:36:20.001Z</time></trkpt><trkpt lat="14.468019208532871" lon="120.96541137113"><ele>6.0</ele><time>2026-04-27T06:36:21.001Z</time></trkpt><trkpt lat="14.468039504042965" lon="120.96531610335717"><ele>6.0</ele><time>2026-04-27T06:36:22.001Z</time></trkpt><trkpt lat="14.468055921158868" lon="120.96522978996406"><ele>6.0</ele><time>2026-04-27T06:36:23.001Z</time></trkpt><trkpt lat="14.468070020255148" lon="120.9651507363327"><ele>6.0</ele><time>2026-04-27T06:36:24.001Z</time></trkpt><trkpt lat="14.468079266611802" lon="120.96504575039944"><ele>6.0</ele><time>2026-04-27T06:36:26.001Z</time></trkpt><trkpt lat="14.468014467482488" lon="120.96500743009246"><ele>6.0</ele><time>2026-04-27T06:36:30.001Z</time></trkpt><trkpt lat="14.467961077881867" lon="120.965078948856"><ele>6.0</ele><time>2026-04-27T06:36:32.001Z</time></trkpt><trkpt lat="14.467952500294238" lon="120.96515497267582"><ele>6.0</ele><time>2026-04-27T06:36:33.001Z</time></trkpt><trkpt lat="14.467948314935052" lon="120.96523772887123"><ele>5.8</ele><time>2026-04-27T06:36:34.001Z</time></trkpt><trkpt lat="14.467939645065275" lon="120.9653275603403"><ele>5.6</ele><time>2026-04-27T06:36:35.001Z</time></trkpt><trkpt lat="14.467923012757566" lon="120.96542999827884"><ele>5.4</ele><time>2026-04-27T06:36:36.001Z</time></trkpt><trkpt lat="14.46790029355867" lon="120.96554212185274"><ele>5.2</ele><time>2026-04-27T06:36:37.001Z</time></trkpt><trkpt lat="14.467875560037651" lon="120.96565879433577"><ele>5.0</ele><time>2026-04-27T06:36:38.001Z</time></trkpt><trkpt lat="14.46784677181587" lon="120.96578497439799"><ele>5.75</ele><time>2026-04-27T06:36:39.001Z</time></trkpt><trkpt lat="14.467817473806484" lon="120.96591291842628"><ele>6.5</ele><time>2026-04-27T06:36:40.001Z</time></trkpt><trkpt lat="14.467785268456895" lon="120.96604190377947"><ele>7.25</ele><time>2026-04-27T06:36:41.001Z</time></trkpt><trkpt lat="14.46775119355813" lon="120.96615070267568"><ele>8.0</ele><time>2026-04-27T06:36:42.001Z</time></trkpt><trkpt lat="14.467721570595405" lon="120.96624644181347"><ele>7.999999999999999</ele><time>2026-04-27T06:36:43.001Z</time></trkpt><trkpt lat="14.467693808612921" lon="120.96632095950353"><ele>8.0</ele><time>2026-04-27T06:36:44.001Z</time></trkpt><trkpt lat="14.467668072122455" lon="120.96638537134896"><ele>8.0</ele><time>2026-04-27T06:36:45.001Z</time></trkpt><trkpt lat="14.467618449915168" lon="120.9664722029408"><ele>8.0</ele><time>2026-04-27T06:36:47.001Z</time></trkpt><trkpt lat="14.467559002370454" lon="120.96650543371102"><ele>7.999999999999999</ele><time>2026-04-27T06:36:49.001Z</time></trkpt><trkpt lat="14.467467482528033" lon="120.96648860344507"><ele>8.0</ele><time>2026-04-27T06:36:51.001Z</time></trkpt><trkpt lat="14.467402672965429" lon="120.966440059494"><ele>7.999999999999999</ele><time>2026-04-27T06:36:53.001Z</time></trkpt><trkpt lat="14.467378758627676" lon="120.96632914863856"><ele>8.0</ele><time>2026-04-27T06:36:55.001Z</time></trkpt><trkpt lat="14.467373437213773" lon="120.96625950578101"><ele>8.0</ele><time>2026-04-27T06:36:56.001Z</time></trkpt><trkpt lat="14.467368934505481" lon="120.96619001987183"><ele>8.0</ele><time>2026-04-27T06:36:57.001Z</time></trkpt><trkpt lat="14.467355129165748" lon="120.96611053481838"><ele>7.999999999999999</ele><time>2026-04-27T06:36:58.001Z</time></trkpt><trkpt lat="14.46734879542549" lon="120.9660356753456"><ele>8.0</ele><time>2026-04-27T06:36:59.001Z</time></trkpt><trkpt lat="14.467350278670878" lon="120.96595342512643"><ele>7.999999999999999</ele><time>2026-04-27T06:37:00.001Z</time></trkpt><trkpt lat="14.467358402698844" lon="120.96586979998473"><ele>8.0</ele><time>2026-04-27T06:37:01.001Z</time></trkpt><trkpt lat="14.467361728499448" lon="120.96578904508672"><ele>8.0</ele><time>2026-04-27T06:37:02.001Z</time></trkpt><trkpt lat="14.467363709051691" lon="120.9656932052158"><ele>8.0</ele><time>2026-04-27T06:37:03.001Z</time></trkpt><trkpt lat="14.467363453796889" lon="120.96560085566749"><ele>7.999999999999999</ele><time>2026-04-27T06:37:04.001Z</time></trkpt><trkpt lat="14.46736299188452" lon="120.96550103597856"><ele>8.0</ele><time>2026-04-27T06:37:05.001Z</time></trkpt><trkpt lat="14.467360448945547" lon="120.96539817661865"><ele>7.6000000000000005</ele><time>2026-04-27T06:37:06.001Z</time></trkpt><trkpt lat="14.46735552026072" lon="120.96529658630445"><ele>7.200000000000001</ele><time>2026-04-27T06:37:07.001Z</time></trkpt><trkpt lat="14.46734626017379" lon="120.96519190850381"><ele>6.8</ele><time>2026-04-27T06:37:08.001Z</time></trkpt><trkpt lat="14.467330140156415" lon="120.96507992583136"><ele>6.4</ele><time>2026-04-27T06:37:09.001Z</time></trkpt><trkpt lat="14.467310994709958" lon="120.96496637060545"><ele>6.0</ele><time>2026-04-27T06:37:10.001Z</time></trkpt><trkpt lat="14.46728025647899" lon="120.96484871246338"><ele>6.0</ele><time>2026-04-27T06:37:11.001Z</time></trkpt><trkpt lat="14.467242650770572" lon="120.96473500691629"><ele>6.0</ele><time>2026-04-27T06:37:12.001Z</time></trkpt><trkpt lat="14.467204790959498" lon="120.96460900101087"><ele>6.0</ele><time>2026-04-27T06:37:13.001Z</time></trkpt><trkpt lat="14.467169207642886" lon="120.96448458766763"><ele>6.0</ele><time>2026-04-27T06:37:14.001Z</time></trkpt><trkpt lat="14.467133903867152" lon="120.96436097271794"><ele>5.6</ele><time>2026-04-27T06:37:15.002Z</time></trkpt><trkpt lat="14.467105653073416" lon="120.96423534123679"><ele>5.199999999999999</ele><time>2026-04-27T06:37:16.002Z</time></trkpt><trkpt lat="14.467071011030706" lon="120.96414283062519"><ele>4.800000000000001</ele><time>2026-04-27T06:37:17.002Z</time></trkpt><trkpt lat="14.467042760216739" lon="120.96404497937496"><ele>4.4</ele><time>2026-04-27T06:37:18.002Z</time></trkpt><trkpt lat="14.467018696771495" lon="120.96395674215516"><ele>4.0</ele><time>2026-04-27T06:37:19.002Z</time></trkpt><trkpt lat="14.467006051882295" lon="120.96388201577828"><ele>4.6</ele><time>2026-04-27T06:37:20.002Z</time></trkpt><trkpt lat="14.467004021329759" lon="120.96381164621876"><ele>5.2</ele><time>2026-04-27T06:37:21.002Z</time></trkpt><trkpt lat="14.467015424087663" lon="120.96370947780856"><ele>5.799999999999999</ele><time>2026-04-27T06:37:23.002Z</time></trkpt><trkpt lat="14.46706458652426" lon="120.96361589828393"><ele>6.3999999999999995</ele><time>2026-04-27T06:37:25.002Z</time></trkpt><trkpt lat="14.467176159200248" lon="120.96356650657377"><ele>7.0</ele><time>2026-04-27T06:37:27.002Z</time></trkpt><trkpt lat="14.467245391430353" lon="120.96354344091543"><ele>7.000000000000001</ele><time>2026-04-27T06:37:28.002Z</time></trkpt><trkpt lat="14.467313946655759" lon="120.96351498873454"><ele>7.0</ele><time>2026-04-27T06:37:29.002Z</time></trkpt><trkpt lat="14.467388316015278" lon="120.96348062625455"><ele>7.0</ele><time>2026-04-27T06:37:30.002Z</time></trkpt><trkpt lat="14.467472620031144" lon="120.96344539348262"><ele>7.0</ele><time>2026-04-27T06:37:31.002Z</time></trkpt><trkpt lat="14.467562541352105" lon="120.96341369338865"><ele>7.000000000000001</ele><time>2026-04-27T06:37:32.002Z</time></trkpt><trkpt lat="14.467653248040131" lon="120.96337861435073"><ele>7.0</ele><time>2026-04-27T06:37:33.002Z</time></trkpt><trkpt lat="14.467740703681631" lon="120.96334125929346"><ele>6.833333333333334</ele><time>2026-04-27T06:37:34.002Z</time></trkpt><trkpt lat="14.467820674738286" lon="120.9633109990756"><ele>6.666666666666667</ele><time>2026-04-27T06:37:35.002Z</time></trkpt><trkpt lat="14.46789862676367" lon="120.96328034865022"><ele>6.5</ele><time>2026-04-27T06:37:36.002Z</time></trkpt><trkpt lat="14.46797024514951" lon="120.96325169500172"><ele>6.333333333333334</ele><time>2026-04-27T06:37:37.002Z</time></trkpt><trkpt lat="14.468036603899101" lon="120.9632277044052"><ele>6.166666666666667</ele><time>2026-04-27T06:37:38.002Z</time></trkpt><trkpt lat="14.468095610246468" lon="120.96320280457614"><ele>6.0</ele><time>2026-04-27T06:37:39.002Z</time></trkpt><trkpt lat="14.468206323824829" lon="120.9631638610234"><ele>6.0</ele><time>2026-04-27T06:37:41.002Z</time></trkpt><trkpt lat="14.468286160349875" lon="120.96312754478602"><ele>6.0</ele><time>2026-04-27T06:37:43.002Z</time></trkpt><trkpt lat="14.468340944208556" lon="120.96306379551409"><ele>6.0</ele><time>2026-04-27T06:37:46.002Z</time></trkpt><trkpt lat="14.46830700378077" lon="120.96299573416638"><ele>6.0</ele><time>2026-04-27T06:37:49.002Z</time></trkpt><trkpt lat="14.4682388391652" lon="120.96296886007009"><ele>6.0</ele><time>2026-04-27T06:37:51.002Z</time></trkpt><trkpt lat="14.468123865902376" lon="120.96300292849612"><ele>6.0</ele><time>2026-04-27T06:37:53Z</time></trkpt><trkpt lat="14.468053408344876" lon="120.9630347793118"><ele>6.0</ele><time>2026-04-27T06:37:54Z</time></trkpt><trkpt lat="14.467971685093923" lon="120.96306898304005"><ele>6.0</ele><time>2026-04-27T06:37:55Z</time></trkpt><trkpt lat="14.467886566491787" lon="120.96310274827557"><ele>6.0</ele><time>2026-04-27T06:37:56Z</time></trkpt><trkpt lat="14.46779111062157" lon="120.96314168553178"><ele>6.0</ele><time>2026-04-27T06:37:57Z</time></trkpt><trkpt lat="14.46770017427896" lon="120.96317745378855"><ele>6.0</ele><time>2026-04-27T06:37:58Z</time></trkpt><trkpt lat="14.467597707696319" lon="120.96321262228184"><ele>6.6</ele><time>2026-04-27T06:37:59Z</time></trkpt><trkpt lat="14.467496594062776" lon="120.96324520554133"><ele>7.199999999999999</ele><time>2026-04-27T06:38:00Z</time></trkpt><trkpt lat="14.467395422357663" lon="120.96327577220069"><ele>7.800000000000001</ele><time>2026-04-27T06:38:01Z</time></trkpt><trkpt lat="14.46731026882004" lon="120.96329523816101"><ele>8.4</ele><time>2026-04-27T06:38:02Z</time></trkpt><trkpt lat="14.467226924398027" lon="120.96331246901258"><ele>9.0</ele><time>2026-04-27T06:38:03Z</time></trkpt><trkpt lat="14.467150175533687" lon="120.96331797344908"><ele>9.0</ele><time>2026-04-27T06:38:04Z</time></trkpt><trkpt lat="14.46707347478996" lon="120.96331725050341"><ele>9.0</ele><time>2026-04-27T06:38:05Z</time></trkpt><trkpt lat="14.466999992682766" lon="120.96329757612908"><ele>9.0</ele><time>2026-04-27T06:38:06Z</time></trkpt><trkpt lat="14.466930049437671" lon="120.96325525358965"><ele>9.0</ele><time>2026-04-27T06:38:07Z</time></trkpt><trkpt lat="14.466883413118511" lon="120.96320059362681"><ele>9.0</ele><time>2026-04-27T06:38:08Z</time></trkpt><trkpt lat="14.466831977415506" lon="120.96313210839222"><ele>9.0</ele><time>2026-04-27T06:38:09Z</time></trkpt><trkpt lat="14.46678499226619" lon="120.96305206212095"><ele>9.0</ele><time>2026-04-27T06:38:10Z</time></trkpt><trkpt lat="14.466741832918945" lon="120.96296499942305"><ele>9.0</ele><time>2026-04-27T06:38:11Z</time></trkpt><trkpt lat="14.466705222150036" lon="120.96288332847844"><ele>9.0</ele><time>2026-04-27T06:38:12Z</time></trkpt><trkpt lat="14.466666165476068" lon="120.96279394447524"><ele>9.0</ele><time>2026-04-27T06:38:13Z</time></trkpt><trkpt lat="14.466627023723245" lon="120.96271115875061"><ele>9.0</ele><time>2026-04-27T06:38:14Z</time></trkpt><trkpt lat="14.466595636731927" lon="120.96263574843789"><ele>9.0</ele><time>2026-04-27T06:38:15Z</time></trkpt><trkpt lat="14.46655974883663" lon="120.9625636182341"><ele>8.666666666666666</ele><time>2026-04-27T06:38:16Z</time></trkpt><trkpt lat="14.466520929574559" lon="120.96249219821752"><ele>8.333333333333334</ele><time>2026-04-27T06:38:17Z</time></trkpt><trkpt lat="14.466480289972436" lon="120.96241364083465"><ele>8.0</ele><time>2026-04-27T06:38:18Z</time></trkpt><trkpt lat="14.466443182268668" lon="120.96233934739199"><ele>7.666666666666667</ele><time>2026-04-27T06:38:19Z</time></trkpt><trkpt lat="14.466390282879685" lon="120.96226788314749"><ele>7.333333333333334</ele><time>2026-04-27T06:38:20Z</time></trkpt><trkpt lat="14.466332059328375" lon="120.96219954915445"><ele>7.0</ele><time>2026-04-27T06:38:21.001Z</time></trkpt><trkpt lat="14.466288106397453" lon="120.96214029269413"><ele>6.3999999999999995</ele><time>2026-04-27T06:38:22.001Z</time></trkpt><trkpt lat="14.466235528405388" lon="120.96208657880707"><ele>5.799999999999999</ele><time>2026-04-27T06:38:23.001Z</time></trkpt><trkpt lat="14.466186964076691" lon="120.96203785798416"><ele>5.2</ele><time>2026-04-27T06:38:24.001Z</time></trkpt><trkpt lat="14.466101955818985" lon="120.96197900778382"><ele>4.6</ele><time>2026-04-27T06:38:26.001Z</time></trkpt><trkpt lat="14.465997724514452" lon="120.96190423911294"><ele>4.0</ele><time>2026-04-27T06:38:28.001Z</time></trkpt><trkpt lat="14.465930311845904" lon="120.96184652820915"><ele>4.0</ele><time>2026-04-27T06:38:29.001Z</time></trkpt><trkpt lat="14.465856675723757" lon="120.96178129861678"><ele>4.0</ele><time>2026-04-27T06:38:30.001Z</time></trkpt><trkpt lat="14.465773282392124" lon="120.96171557088437"><ele>4.0</ele><time>2026-04-27T06:38:31.001Z</time></trkpt><trkpt lat="14.465687864323124" lon="120.96165010850834"><ele>4.0</ele><time>2026-04-27T06:38:32.001Z</time></trkpt><trkpt lat="14.465599067649048" lon="120.9615876835476"><ele>4.0</ele><time>2026-04-27T06:38:33.001Z</time></trkpt><trkpt lat="14.465503884345038" lon="120.96152042732923"><ele>4.4</ele><time>2026-04-27T06:38:34.001Z</time></trkpt><trkpt lat="14.465415804095953" lon="120.96145494736501"><ele>4.800000000000001</ele><time>2026-04-27T06:38:35.001Z</time></trkpt><trkpt lat="14.465327234817215" lon="120.96138909728221"><ele>5.199999999999999</ele><time>2026-04-27T06:38:36.001Z</time></trkpt><trkpt lat="14.465242018912987" lon="120.96132203172438"><ele>5.6</ele><time>2026-04-27T06:38:37.001Z</time></trkpt><trkpt lat="14.465154278940302" lon="120.96125327520689"><ele>6.0</ele><time>2026-04-27T06:38:38.001Z</time></trkpt><trkpt lat="14.465063144659956" lon="120.96118608565381"><ele>6.0</ele><time>2026-04-27T06:38:39.001Z</time></trkpt><trkpt lat="14.46497305419753" lon="120.96111914982056"><ele>6.0</ele><time>2026-04-27T06:38:40.001Z</time></trkpt><trkpt lat="14.464881672414691" lon="120.96105019008021"><ele>6.0</ele><time>2026-04-27T06:38:41.001Z</time></trkpt><trkpt lat="14.464791525965833" lon="120.96098386589463"><ele>6.0</ele><time>2026-04-27T06:38:42.001Z</time></trkpt><trkpt lat="14.46469905393508" lon="120.96091588070983"><ele>6.0</ele><time>2026-04-27T06:38:43.001Z</time></trkpt><trkpt lat="14.464610777505575" lon="120.96084909982561"><ele>6.0</ele><time>2026-04-27T06:38:44.001Z</time></trkpt><trkpt lat="14.464521932799586" lon="120.96078348358917"><ele>6.0</ele><time>2026-04-27T06:38:45.001Z</time></trkpt><trkpt lat="14.464429833961177" lon="120.96071497406399"><ele>6.0</ele><time>2026-04-27T06:38:46.001Z</time></trkpt><trkpt lat="14.46433346632367" lon="120.96064163316267"><ele>6.0</ele><time>2026-04-27T06:38:47.001Z</time></trkpt><trkpt lat="14.464242264487728" lon="120.96057215830169"><ele>6.0</ele><time>2026-04-27T06:38:48.001Z</time></trkpt><trkpt lat="14.464134567814776" lon="120.96049903428388"><ele>6.0</ele><time>2026-04-27T06:38:49.001Z</time></trkpt><trkpt lat="14.464044139702272" lon="120.96043536314625"><ele>6.0</ele><time>2026-04-27T06:38:50.001Z</time></trkpt><trkpt lat="14.463959936721405" lon="120.96037596345245"><ele>6.0</ele><time>2026-04-27T06:38:51.001Z</time></trkpt><trkpt lat="14.46386968739137" lon="120.96031372921681"><ele>6.0</ele><time>2026-04-27T06:38:52.001Z</time></trkpt><trkpt lat="14.463781444587356" lon="120.96024992202405"><ele>5.6</ele><time>2026-04-27T06:38:53.001Z</time></trkpt><trkpt lat="14.463697743644865" lon="120.96018633918624"><ele>5.199999999999999</ele><time>2026-04-27T06:38:54.001Z</time></trkpt><trkpt lat="14.463618949831579" lon="120.96013808411445"><ele>4.800000000000001</ele><time>2026-04-27T06:38:55.001Z</time></trkpt><trkpt lat="14.463533590693752" lon="120.96008272840125"><ele>4.4</ele><time>2026-04-27T06:38:56.001Z</time></trkpt><trkpt lat="14.463458306680746" lon="120.96002199748064"><ele>4.0</ele><time>2026-04-27T06:38:57.001Z</time></trkpt><trkpt lat="14.463385214643194" lon="120.95995980088837"><ele>4.0</ele><time>2026-04-27T06:38:58.001Z</time></trkpt><trkpt lat="14.463304769220962" lon="120.95989990820631"><ele>4.0</ele><time>2026-04-27T06:38:59.001Z</time></trkpt><trkpt lat="14.46322127040138" lon="120.9598361147445"><ele>4.0</ele><time>2026-04-27T06:39:00.001Z</time></trkpt><trkpt lat="14.463131838942445" lon="120.95977180532941"><ele>4.0</ele><time>2026-04-27T06:39:01.001Z</time></trkpt><trkpt lat="14.463034296563672" lon="120.9597094747602"><ele>4.0</ele><time>2026-04-27T06:39:02.001Z</time></trkpt><trkpt lat="14.462931139068331" lon="120.95966051065494"><ele>4.166666666666666</ele><time>2026-04-27T06:39:03.001Z</time></trkpt><trkpt lat="14.462824425122928" lon="120.95961382507693"><ele>4.333333333333333</ele><time>2026-04-27T06:39:04.001Z</time></trkpt><trkpt lat="14.462732115307547" lon="120.9595812800079"><ele>4.5</ele><time>2026-04-27T06:39:05.001Z</time></trkpt><trkpt lat="14.462650457757428" lon="120.95955306423764"><ele>4.666666666666667</ele><time>2026-04-27T06:39:06.001Z</time></trkpt><trkpt lat="14.462570035176588" lon="120.95952914701664"><ele>4.833333333333334</ele><time>2026-04-27T06:39:07.001Z</time></trkpt><trkpt lat="14.462508214021426" lon="120.95950945964232"><ele>5.0</ele><time>2026-04-27T06:39:08.001Z</time></trkpt><trkpt lat="14.462443555202883" lon="120.9594936367746"><ele>5.0</ele><time>2026-04-27T06:39:09.001Z</time></trkpt><trkpt lat="14.462329836406022" lon="120.9594550443111"><ele>5.0</ele><time>2026-04-27T06:39:11.001Z</time></trkpt><trkpt lat="14.462266858314452" lon="120.95942349948746"><ele>5.0</ele><time>2026-04-27T06:39:12.001Z</time></trkpt><trkpt lat="14.462198395844547" lon="120.9593793552463"><ele>5.0</ele><time>2026-04-27T06:39:14.001Z</time></trkpt><trkpt lat="14.46211278467363" lon="120.95929651340761"><ele>5.0</ele><time>2026-04-27T06:39:16.001Z</time></trkpt><trkpt lat="14.4620787410768" lon="120.95923795455198"><ele>5.5</ele><time>2026-04-27T06:39:17.001Z</time></trkpt><trkpt lat="14.462054989687395" lon="120.95916891910552"><ele>6.0</ele><time>2026-04-27T06:39:18.001Z</time></trkpt><trkpt lat="14.462037803084085" lon="120.95908832775383"><ele>6.5</ele><time>2026-04-27T06:39:19.001Z</time></trkpt><trkpt lat="14.462013797316178" lon="120.95899886777264"><ele>7.0</ele><time>2026-04-27T06:39:20.001Z</time></trkpt><trkpt lat="14.4619905976307" lon="120.95890865311954"><ele>7.499999999999999</ele><time>2026-04-27T06:39:21.001Z</time></trkpt><trkpt lat="14.461967622066732" lon="120.95882043718242"><ele>8.0</ele><time>2026-04-27T06:39:22.001Z</time></trkpt><trkpt lat="14.461943311883589" lon="120.95873497907678"><ele>8.0</ele><time>2026-04-27T06:39:23.001Z</time></trkpt><trkpt lat="14.461920560110553" lon="120.95864637310758"><ele>8.0</ele><time>2026-04-27T06:39:24.002Z</time></trkpt><trkpt lat="14.46189871523832" lon="120.95855191665719"><ele>8.0</ele><time>2026-04-27T06:39:25.002Z</time></trkpt><trkpt lat="14.46186843108918" lon="120.95844805616674"><ele>8.0</ele><time>2026-04-27T06:39:26.002Z</time></trkpt><trkpt lat="14.461844982830714" lon="120.958349862303"><ele>8.0</ele><time>2026-04-27T06:39:27.002Z</time></trkpt><trkpt lat="14.461817369217458" lon="120.95824193129918"><ele>7.800000000000001</ele><time>2026-04-27T06:39:28.002Z</time></trkpt><trkpt lat="14.461794113818854" lon="120.9581407292241"><ele>7.6000000000000005</ele><time>2026-04-27T06:39:29.002Z</time></trkpt><trkpt lat="14.461763435646057" lon="120.95802718257885"><ele>7.3999999999999995</ele><time>2026-04-27T06:39:30.002Z</time></trkpt><trkpt lat="14.46173135117843" lon="120.95791597547951"><ele>7.199999999999999</ele><time>2026-04-27T06:39:31.002Z</time></trkpt><trkpt lat="14.46169719861577" lon="120.9577971664654"><ele>7.0</ele><time>2026-04-27T06:39:32.002Z</time></trkpt><trkpt lat="14.461668830675716" lon="120.95768295714824"><ele>7.0</ele><time>2026-04-27T06:39:33.002Z</time></trkpt><trkpt lat="14.461633378922734" lon="120.95755892355093"><ele>7.0</ele><time>2026-04-27T06:39:34.002Z</time></trkpt><trkpt lat="14.46159740532093" lon="120.9574351287365"><ele>7.0</ele><time>2026-04-27T06:39:35.002Z</time></trkpt><trkpt lat="14.461565684158048" lon="120.95731803280067"><ele>7.0</ele><time>2026-04-27T06:39:36.002Z</time></trkpt><trkpt lat="14.461533407581896" lon="120.95720064797723"><ele>6.75</ele><time>2026-04-27T06:39:37.002Z</time></trkpt><trkpt lat="14.461499924729464" lon="120.95706734139809"><ele>6.5</ele><time>2026-04-27T06:39:38.002Z</time></trkpt><trkpt lat="14.461470020323922" lon="120.95694478340154"><ele>6.25</ele><time>2026-04-27T06:39:39.002Z</time></trkpt><trkpt lat="14.461438895505557" lon="120.95683293218505"><ele>6.0</ele><time>2026-04-27T06:39:40.002Z</time></trkpt><trkpt lat="14.461407937011773" lon="120.95671787964874"><ele>5.8</ele><time>2026-04-27T06:39:41.002Z</time></trkpt><trkpt lat="14.461374788896729" lon="120.95661115393298"><ele>5.6</ele><time>2026-04-27T06:39:42.002Z</time></trkpt><trkpt lat="14.461341476556923" lon="120.95650948092182"><ele>5.4</ele><time>2026-04-27T06:39:43.002Z</time></trkpt><trkpt lat="14.461335254168063" lon="120.9564431802864"><ele>5.2</ele><time>2026-04-27T06:39:44.002Z</time></trkpt><trkpt lat="14.461302704493317" lon="120.9563230603716"><ele>5.0</ele><time>2026-04-27T06:39:46.002Z</time></trkpt><trkpt lat="14.461290074849838" lon="120.95621140670222"><ele>5.2</ele><time>2026-04-27T06:39:48.002Z</time></trkpt><trkpt lat="14.461254177987488" lon="120.95607394958024"><ele>5.4</ele><time>2026-04-27T06:39:50.002Z</time></trkpt><trkpt lat="14.461231404917395" lon="120.95599306712066"><ele>5.6</ele><time>2026-04-27T06:39:51.002Z</time></trkpt><trkpt lat="14.461203104137384" lon="120.95591046452321"><ele>5.8</ele><time>2026-04-27T06:39:52.002Z</time></trkpt><trkpt lat="14.461173572660973" lon="120.95581256742153"><ele>6.0</ele><time>2026-04-27T06:39:53.002Z</time></trkpt><trkpt lat="14.461145942670932" lon="120.95570232335311"><ele>7.0</ele><time>2026-04-27T06:39:54.002Z</time></trkpt><trkpt lat="14.46111749431198" lon="120.9555793668074"><ele>8.0</ele><time>2026-04-27T06:39:55.002Z</time></trkpt><trkpt lat="14.461084491724868" lon="120.95545874021785"><ele>9.0</ele><time>2026-04-27T06:39:56.002Z</time></trkpt><trkpt lat="14.461033640379522" lon="120.9553126687025"><ele>10.0</ele><time>2026-04-27T06:39:57.002Z</time></trkpt><trkpt lat="14.4609936142344" lon="120.95518725840822"><ele>10.0</ele><time>2026-04-27T06:39:58.002Z</time></trkpt><trkpt lat="14.460958675708655" lon="120.95507390839424"><ele>10.0</ele><time>2026-04-27T06:39:59Z</time></trkpt><trkpt lat="14.46091175646663" lon="120.95489472328009"><ele>10.0</ele><time>2026-04-27T06:40:00Z</time></trkpt><trkpt lat="14.46087539866607" lon="120.95475001225132"><ele>10.0</ele><time>2026-04-27T06:40:01Z</time></trkpt><trkpt lat="14.460839555716117" lon="120.95461621488279"><ele>9.5</ele><time>2026-04-27T06:40:02Z</time></trkpt><trkpt lat="14.460803781170684" lon="120.95448358296206"><ele>9.0</ele><time>2026-04-27T06:40:03Z</time></trkpt><trkpt lat="14.460769954877874" lon="120.9543543295921"><ele>8.5</ele><time>2026-04-27T06:40:04Z</time></trkpt><trkpt lat="14.460735943573653" lon="120.95423394189532"><ele>8.0</ele><time>2026-04-27T06:40:05Z</time></trkpt><trkpt lat="14.460701625367422" lon="120.95411195291445"><ele>8.0</ele><time>2026-04-27T06:40:06Z</time></trkpt><trkpt lat="14.460671590363114" lon="120.9539937864012"><ele>8.0</ele><time>2026-04-27T06:40:07Z</time></trkpt><trkpt lat="14.460643303223764" lon="120.95387303477897"><ele>8.0</ele><time>2026-04-27T06:40:08Z</time></trkpt><trkpt lat="14.460610127757464" lon="120.95375275636907"><ele>8.0</ele><time>2026-04-27T06:40:09Z</time></trkpt><trkpt lat="14.460579686102738" lon="120.95364404289523"><ele>8.0</ele><time>2026-04-27T06:40:10Z</time></trkpt><trkpt lat="14.460553750101347" lon="120.95353954279716"><ele>8.0</ele><time>2026-04-27T06:40:11Z</time></trkpt><trkpt lat="14.460528547216601" lon="120.95343377974208"><ele>8.0</ele><time>2026-04-27T06:40:12Z</time></trkpt><trkpt lat="14.460503115022563" lon="120.95332840118249"><ele>8.0</ele><time>2026-04-27T06:40:13Z</time></trkpt><trkpt lat="14.460477445396752" lon="120.9532161465519"><ele>8.0</ele><time>2026-04-27T06:40:14Z</time></trkpt><trkpt lat="14.460451428061113" lon="120.9531100082179"><ele>8.0</ele><time>2026-04-27T06:40:15Z</time></trkpt><trkpt lat="14.460423357695946" lon="120.95298256672949"><ele>8.0</ele><time>2026-04-27T06:40:16Z</time></trkpt><trkpt lat="14.460403835732627" lon="120.95285918418365"><ele>8.0</ele><time>2026-04-27T06:40:17Z</time></trkpt><trkpt lat="14.460389905174225" lon="120.95273170069912"><ele>8.0</ele><time>2026-04-27T06:40:18Z</time></trkpt><trkpt lat="14.460376081035689" lon="120.95261277387006"><ele>7.800000000000001</ele><time>2026-04-27T06:40:19Z</time></trkpt><trkpt lat="14.460362475968488" lon="120.95249647526973"><ele>7.6000000000000005</ele><time>2026-04-27T06:40:20Z</time></trkpt><trkpt lat="14.460349928626526" lon="120.95237990889052"><ele>7.3999999999999995</ele><time>2026-04-27T06:40:21Z</time></trkpt><trkpt lat="14.460339662300496" lon="120.95227119491244"><ele>7.199999999999999</ele><time>2026-04-27T06:40:22Z</time></trkpt><trkpt lat="14.460325879813045" lon="120.95215925163171"><ele>7.0</ele><time>2026-04-27T06:40:23Z</time></trkpt><trkpt lat="14.460316426317888" lon="120.95205816932348"><ele>7.0</ele><time>2026-04-27T06:40:24Z</time></trkpt><trkpt lat="14.460303476995898" lon="120.95194822087876"><ele>6.999999999999999</ele><time>2026-04-27T06:40:25Z</time></trkpt><trkpt lat="14.460294778651486" lon="120.95183718977695"><ele>6.999999999999999</ele><time>2026-04-27T06:40:26Z</time></trkpt><trkpt lat="14.460279433605105" lon="120.95171848983703"><ele>7.0</ele><time>2026-04-27T06:40:27Z</time></trkpt><trkpt lat="14.460267696659162" lon="120.95160819223912"><ele>7.0</ele><time>2026-04-27T06:40:28Z</time></trkpt><trkpt lat="14.460255017535983" lon="120.9514960976958"><ele>7.199999999999999</ele><time>2026-04-27T06:40:29Z</time></trkpt><trkpt lat="14.460241817370727" lon="120.95138302820432"><ele>7.3999999999999995</ele><time>2026-04-27T06:40:30Z</time></trkpt><trkpt lat="14.460228387179228" lon="120.95127120444324"><ele>7.6000000000000005</ele><time>2026-04-27T06:40:31Z</time></trkpt><trkpt lat="14.460214125823276" lon="120.95116569918119"><ele>7.800000000000001</ele><time>2026-04-27T06:40:32Z</time></trkpt><trkpt lat="14.46019859109413" lon="120.9510573639735"><ele>8.0</ele><time>2026-04-27T06:40:33Z</time></trkpt><trkpt lat="14.460186175701129" lon="120.95094510805556"><ele>8.200000000000001</ele><time>2026-04-27T06:40:34Z</time></trkpt><trkpt lat="14.460175763592924" lon="120.95082635067223"><ele>8.4</ele><time>2026-04-27T06:40:35Z</time></trkpt><trkpt lat="14.46017995942575" lon="120.95071427142464"><ele>8.600000000000001</ele><time>2026-04-27T06:40:36Z</time></trkpt><trkpt lat="14.460165062394362" lon="120.95059915131365"><ele>8.8</ele><time>2026-04-27T06:40:37Z</time></trkpt><trkpt lat="14.460153233693356" lon="120.95049105787609"><ele>9.0</ele><time>2026-04-27T06:40:38Z</time></trkpt><trkpt lat="14.460136358220526" lon="120.9503971668534"><ele>9.0</ele><time>2026-04-27T06:40:39Z</time></trkpt><trkpt lat="14.460129108978737" lon="120.95032277523268"><ele>9.0</ele><time>2026-04-27T06:40:40Z</time></trkpt><trkpt lat="14.46012146380413" lon="120.9502090699876"><ele>9.0</ele><time>2026-04-27T06:40:42.001Z</time></trkpt><trkpt lat="14.460104231225952" lon="120.95010736381418"><ele>9.0</ele><time>2026-04-27T06:40:44.001Z</time></trkpt><trkpt lat="14.460090614692817" lon="120.94999431313289"><ele>9.0</ele><time>2026-04-27T06:40:46.001Z</time></trkpt><trkpt lat="14.460085609902062" lon="120.94992659599508"><ele>8.666666666666666</ele><time>2026-04-27T06:40:47.001Z</time></trkpt><trkpt lat="14.460079291879117" lon="120.9498561117454"><ele>8.333333333333334</ele><time>2026-04-27T06:40:48.001Z</time></trkpt><trkpt lat="14.46007241855956" lon="120.94978084786426"><ele>8.0</ele><time>2026-04-27T06:40:49.001Z</time></trkpt><trkpt lat="14.46006446789822" lon="120.94970313666649"><ele>7.666666666666667</ele><time>2026-04-27T06:40:50.001Z</time></trkpt><trkpt lat="14.460059248208486" lon="120.94963649167141"><ele>7.333333333333334</ele><time>2026-04-27T06:40:51.001Z</time></trkpt><trkpt lat="14.46005339604515" lon="120.94957071733697"><ele>7.0</ele><time>2026-04-27T06:40:52.001Z</time></trkpt><trkpt lat="14.460039345412728" lon="120.94943699869296"><ele>7.0</ele><time>2026-04-27T06:40:54.001Z</time></trkpt><trkpt lat="14.460032024501826" lon="120.94936786443782"><ele>7.0</ele><time>2026-04-27T06:40:55.001Z</time></trkpt><trkpt lat="14.460023769873462" lon="120.94930014104874"><ele>7.0</ele><time>2026-04-27T06:40:56.001Z</time></trkpt><trkpt lat="14.460020365043034" lon="120.94923131234553"><ele>7.0</ele><time>2026-04-27T06:40:57.001Z</time></trkpt><trkpt lat="14.460006836116673" lon="120.94915099355478"><ele>7.0</ele><time>2026-04-27T06:40:58.001Z</time></trkpt><trkpt lat="14.459997355618441" lon="120.94907551910086"><ele>7.0</ele><time>2026-04-27T06:40:59.001Z</time></trkpt><trkpt lat="14.45999325325575" lon="120.94900454902367"><ele>7.0</ele><time>2026-04-27T06:41:00.001Z</time></trkpt><trkpt lat="14.45998864096177" lon="120.94893416255483"><ele>7.0</ele><time>2026-04-27T06:41:01.001Z</time></trkpt><trkpt lat="14.459981433129965" lon="120.9488630690249"><ele>7.0</ele><time>2026-04-27T06:41:02.001Z</time></trkpt><trkpt lat="14.459970308556" lon="120.94877956722566"><ele>7.0</ele><time>2026-04-27T06:41:03.001Z</time></trkpt><trkpt lat="14.45996341254166" lon="120.94870765870537"><ele>7.0</ele><time>2026-04-27T06:41:04.001Z</time></trkpt><trkpt lat="14.459952470983769" lon="120.94862609191289"><ele>7.0</ele><time>2026-04-27T06:41:05.001Z</time></trkpt><trkpt lat="14.45994594339258" lon="120.9485561711427"><ele>7.0</ele><time>2026-04-27T06:41:06.001Z</time></trkpt><trkpt lat="14.459937883322745" lon="120.94849097283262"><ele>7.0</ele><time>2026-04-27T06:41:07.001Z</time></trkpt><trkpt lat="14.459930155153344" lon="120.94842154934265"><ele>7.000000000000001</ele><time>2026-04-27T06:41:08.001Z</time></trkpt><trkpt lat="14.459920954898331" lon="120.94834916987749"><ele>7.0</ele><time>2026-04-27T06:41:09.001Z</time></trkpt><trkpt lat="14.459912900892657" lon="120.9482706463604"><ele>7.0</ele><time>2026-04-27T06:41:10.001Z</time></trkpt><trkpt lat="14.45990399219067" lon="120.9481815110905"><ele>7.0</ele><time>2026-04-27T06:41:11.001Z</time></trkpt><trkpt lat="14.459895254030265" lon="120.94809613856778"><ele>7.000000000000001</ele><time>2026-04-27T06:41:12.001Z</time></trkpt><trkpt lat="14.459889289762785" lon="120.9480068690547"><ele>7.0</ele><time>2026-04-27T06:41:13.001Z</time></trkpt><trkpt lat="14.459875447397875" lon="120.9479288655339"><ele>7.000000000000001</ele><time>2026-04-27T06:41:14.001Z</time></trkpt><trkpt lat="14.459866530552816" lon="120.94783578234997"><ele>7.0</ele><time>2026-04-27T06:41:15.001Z</time></trkpt><trkpt lat="14.459858985607347" lon="120.94774902226035"><ele>7.0</ele><time>2026-04-27T06:41:16.001Z</time></trkpt><trkpt lat="14.459854140518104" lon="120.94766021364357"><ele>7.0</ele><time>2026-04-27T06:41:17.001Z</time></trkpt><trkpt lat="14.459844934105327" lon="120.94757565245963"><ele>7.000000000000001</ele><time>2026-04-27T06:41:18.001Z</time></trkpt><trkpt lat="14.459835632398672" lon="120.94749367325088"><ele>7.0</ele><time>2026-04-27T06:41:19.001Z</time></trkpt><trkpt lat="14.459832295264514" lon="120.94742157192866"><ele>7.166666666666667</ele><time>2026-04-27T06:41:20.001Z</time></trkpt><trkpt lat="14.459826912952328" lon="120.94735656222414"><ele>7.333333333333334</ele><time>2026-04-27T06:41:21.001Z</time></trkpt><trkpt lat="14.459821852555859" lon="120.94728528862085"><ele>7.5</ele><time>2026-04-27T06:41:22.001Z</time></trkpt><trkpt lat="14.459817608904926" lon="120.94720802816049"><ele>7.666666666666666</ele><time>2026-04-27T06:41:23.001Z</time></trkpt><trkpt lat="14.459808269973015" lon="120.94712772752071"><ele>7.833333333333333</ele><time>2026-04-27T06:41:24.001Z</time></trkpt><trkpt lat="14.459801522080493" lon="120.94704511315206"><ele>8.0</ele><time>2026-04-27T06:41:25.001Z</time></trkpt><trkpt lat="14.459795400847934" lon="120.94695107093979"><ele>8.0</ele><time>2026-04-27T06:41:26.001Z</time></trkpt><trkpt lat="14.459788399790341" lon="120.94685322875657"><ele>8.0</ele><time>2026-04-27T06:41:27.001Z</time></trkpt><trkpt lat="14.459781480571154" lon="120.94675727573197"><ele>8.0</ele><time>2026-04-27T06:41:28.001Z</time></trkpt><trkpt lat="14.459779450201115" lon="120.94666191464894"><ele>8.0</ele><time>2026-04-27T06:41:29.001Z</time></trkpt><trkpt lat="14.459771989380021" lon="120.94656660901019"><ele>8.0</ele><time>2026-04-27T06:41:30.001Z</time></trkpt><trkpt lat="14.45976058246056" lon="120.94646089014238"><ele>8.0</ele><time>2026-04-27T06:41:31.001Z</time></trkpt><trkpt lat="14.459750710486578" lon="120.94633492840119"><ele>8.0</ele><time>2026-04-27T06:41:32.001Z</time></trkpt><trkpt lat="14.459746192296057" lon="120.94620484370786"><ele>8.0</ele><time>2026-04-27T06:41:33.001Z</time></trkpt><trkpt lat="14.459751559539292" lon="120.94609962465896"><ele>8.0</ele><time>2026-04-27T06:41:34.001Z</time></trkpt><trkpt lat="14.459755289301182" lon="120.9460220049808"><ele>8.0</ele><time>2026-04-27T06:41:35.001Z</time></trkpt><trkpt lat="14.459754737578834" lon="120.94590974975074"><ele>7.833333333333333</ele><time>2026-04-27T06:41:37.001Z</time></trkpt><trkpt lat="14.459747694522719" lon="120.94581193697944"><ele>7.666666666666666</ele><time>2026-04-27T06:41:41.001Z</time></trkpt><trkpt lat="14.459741256502474" lon="120.9457424554885"><ele>7.5</ele><time>2026-04-27T06:41:42.001Z</time></trkpt><trkpt lat="14.459743530890096" lon="120.94565723799465"><ele>7.333333333333334</ele><time>2026-04-27T06:41:43.001Z</time></trkpt><trkpt lat="14.459751401415465" lon="120.94556255470185"><ele>7.166666666666667</ele><time>2026-04-27T06:41:44.002Z</time></trkpt><trkpt lat="14.459752868063992" lon="120.94546143886448"><ele>7.0</ele><time>2026-04-27T06:41:45.002Z</time></trkpt><trkpt lat="14.459744878026873" lon="120.94534632822047"><ele>7.0</ele><time>2026-04-27T06:41:46.002Z</time></trkpt><trkpt lat="14.459742489287338" lon="120.94523408494423"><ele>6.999999999999999</ele><time>2026-04-27T06:41:47.002Z</time></trkpt><trkpt lat="14.459738473598607" lon="120.94512459330565"><ele>6.999999999999999</ele><time>2026-04-27T06:41:48.002Z</time></trkpt><trkpt lat="14.459734773068186" lon="120.94502869084899"><ele>7.0</ele><time>2026-04-27T06:41:49.002Z</time></trkpt><trkpt lat="14.459728454311362" lon="120.94495606695331"><ele>7.0</ele><time>2026-04-27T06:41:50.002Z</time></trkpt><trkpt lat="14.459725046389497" lon="120.94485090738041"><ele>6.833333333333334</ele><time>2026-04-27T06:41:52.002Z</time></trkpt><trkpt lat="14.459711796898773" lon="120.94473491057576"><ele>6.666666666666667</ele><time>2026-04-27T06:41:54.002Z</time></trkpt><trkpt lat="14.459707462097104" lon="120.94466698670846"><ele>6.5</ele><time>2026-04-27T06:41:55.002Z</time></trkpt><trkpt lat="14.459710368271102" lon="120.94459696126755"><ele>6.333333333333334</ele><time>2026-04-27T06:41:56.002Z</time></trkpt><trkpt lat="14.459707742792503" lon="120.94452719247604"><ele>6.166666666666667</ele><time>2026-04-27T06:41:57.002Z</time></trkpt><trkpt lat="14.459710289652806" lon="120.94445600577919"><ele>6.0</ele><time>2026-04-27T06:41:58.002Z</time></trkpt><trkpt lat="14.459701455115129" lon="120.94437996559653"><ele>6.0</ele><time>2026-04-27T06:41:59.002Z</time></trkpt><trkpt lat="14.459696545131148" lon="120.94429038273319"><ele>6.0</ele><time>2026-04-27T06:42:00.002Z</time></trkpt><trkpt lat="14.45969148654831" lon="120.94419928856317"><ele>6.0</ele><time>2026-04-27T06:42:01.002Z</time></trkpt><trkpt lat="14.459683138728522" lon="120.94409331902041"><ele>6.0</ele><time>2026-04-27T06:42:02.002Z</time></trkpt><trkpt lat="14.459674756530156" lon="120.94399001240387"><ele>6.0</ele><time>2026-04-27T06:42:03.002Z</time></trkpt><trkpt lat="14.459664769551141" lon="120.94387780053803"><ele>6.4</ele><time>2026-04-27T06:42:04.002Z</time></trkpt><trkpt lat="14.459648299612155" lon="120.94377485619313"><ele>6.8</ele><time>2026-04-27T06:42:05Z</time></trkpt><trkpt lat="14.459643080996672" lon="120.94366865960488"><ele>7.200000000000001</ele><time>2026-04-27T06:42:06Z</time></trkpt><trkpt lat="14.4596340403971" lon="120.94357771390662"><ele>7.6000000000000005</ele><time>2026-04-27T06:42:07Z</time></trkpt><trkpt lat="14.459624677889725" lon="120.94348692877192"><ele>8.0</ele><time>2026-04-27T06:42:08Z</time></trkpt><trkpt lat="14.459613643943873" lon="120.94339023737426"><ele>7.999999999999999</ele><time>2026-04-27T06:42:09Z</time></trkpt><trkpt lat="14.459606262949652" lon="120.94330126004223"><ele>8.0</ele><time>2026-04-27T06:42:10Z</time></trkpt><trkpt lat="14.459600434292538" lon="120.94321871146317"><ele>8.0</ele><time>2026-04-27T06:42:11Z</time></trkpt><trkpt lat="14.459593338974269" lon="120.94314754744072"><ele>8.0</ele><time>2026-04-27T06:42:12Z</time></trkpt><trkpt lat="14.459581733885422" lon="120.94307244448213"><ele>7.999999999999999</ele><time>2026-04-27T06:42:13Z</time></trkpt><trkpt lat="14.459573299287955" lon="120.94298313409361"><ele>8.0</ele><time>2026-04-27T06:42:14Z</time></trkpt><trkpt lat="14.459560492505817" lon="120.94289873561542"><ele>8.0</ele><time>2026-04-27T06:42:15Z</time></trkpt><trkpt lat="14.459548754940085" lon="120.94280369873618"><ele>8.0</ele><time>2026-04-27T06:42:16Z</time></trkpt><trkpt lat="14.459544878061228" lon="120.94271053856063"><ele>8.0</ele><time>2026-04-27T06:42:17Z</time></trkpt><trkpt lat="14.459538239169788" lon="120.94261954719518"><ele>8.0</ele><time>2026-04-27T06:42:18Z</time></trkpt><trkpt lat="14.459534234469803" lon="120.94252853621765"><ele>8.0</ele><time>2026-04-27T06:42:19Z</time></trkpt><trkpt lat="14.459524775076764" lon="120.94243347165029"><ele>8.0</ele><time>2026-04-27T06:42:20Z</time></trkpt><trkpt lat="14.459517154257068" lon="120.94233764562615"><ele>8.0</ele><time>2026-04-27T06:42:21Z</time></trkpt><trkpt lat="14.459510644072056" lon="120.9422467663608"><ele>8.0</ele><time>2026-04-27T06:42:22Z</time></trkpt><trkpt lat="14.459502202675612" lon="120.94215452477104"><ele>8.0</ele><time>2026-04-27T06:42:23Z</time></trkpt><trkpt lat="14.459492140371044" lon="120.9420646124789"><ele>8.0</ele><time>2026-04-27T06:42:24Z</time></trkpt><trkpt lat="14.459484268117238" lon="120.94196552825208"><ele>8.0</ele><time>2026-04-27T06:42:25Z</time></trkpt><trkpt lat="14.459480236323873" lon="120.94186735426882"><ele>8.0</ele><time>2026-04-27T06:42:26Z</time></trkpt><trkpt lat="14.459469681019078" lon="120.94176703815882"><ele>8.0</ele><time>2026-04-27T06:42:27Z</time></trkpt><trkpt lat="14.459460745969187" lon="120.94167226420976"><ele>8.0</ele><time>2026-04-27T06:42:28Z</time></trkpt><trkpt lat="14.459450043572456" lon="120.94157252437148"><ele>8.0</ele><time>2026-04-27T06:42:29Z</time></trkpt><trkpt lat="14.459440201593788" lon="120.94148148382584"><ele>7.666666666666666</ele><time>2026-04-27T06:42:30Z</time></trkpt><trkpt lat="14.459431372587776" lon="120.94139647143561"><ele>7.333333333333333</ele><time>2026-04-27T06:42:31Z</time></trkpt><trkpt lat="14.45942783324254" lon="120.94130703776602"><ele>7.0</ele><time>2026-04-27T06:42:32Z</time></trkpt><trkpt lat="14.459423017647383" lon="120.94121624423475"><ele>6.666666666666666</ele><time>2026-04-27T06:42:33Z</time></trkpt><trkpt lat="14.459413864160322" lon="120.9411348539208"><ele>6.333333333333333</ele><time>2026-04-27T06:42:34Z</time></trkpt><trkpt lat="14.459396709678662" lon="120.94105799654388"><ele>6.0</ele><time>2026-04-27T06:42:35Z</time></trkpt><trkpt lat="14.459393531179455" lon="120.94096405110454"><ele>6.0</ele><time>2026-04-27T06:42:36Z</time></trkpt><trkpt lat="14.459389219599613" lon="120.94088886340458"><ele>6.0</ele><time>2026-04-27T06:42:37Z</time></trkpt><trkpt lat="14.459360750956192" lon="120.9407871709634"><ele>6.0</ele><time>2026-04-27T06:42:39Z</time></trkpt><trkpt lat="14.459351874613208" lon="120.94071977633348"><ele>6.0</ele><time>2026-04-27T06:42:40Z</time></trkpt><trkpt lat="14.459349719720489" lon="120.94061506778296"><ele>6.0</ele><time>2026-04-27T06:42:41Z</time></trkpt><trkpt lat="14.459348557208482" lon="120.94054346697064"><ele>6.0</ele><time>2026-04-27T06:42:42Z</time></trkpt><trkpt lat="14.459345822701598" lon="120.94047541938494"><ele>6.333333333333333</ele><time>2026-04-27T06:42:43Z</time></trkpt><trkpt lat="14.459341435717013" lon="120.9403967665812"><ele>6.666666666666666</ele><time>2026-04-27T06:42:44Z</time></trkpt><trkpt lat="14.45933926140883" lon="120.9403121335195"><ele>7.0</ele><time>2026-04-27T06:42:45Z</time></trkpt><trkpt lat="14.459330470818779" lon="120.94022606120775"><ele>7.333333333333333</ele><time>2026-04-27T06:42:46Z</time></trkpt><trkpt lat="14.459318561177898" lon="120.94013104482464"><ele>7.666666666666666</ele><time>2026-04-27T06:42:47Z</time></trkpt><trkpt lat="14.459307284764176" lon="120.94004750620245"><ele>8.0</ele><time>2026-04-27T06:42:48Z</time></trkpt><trkpt lat="14.459301088537572" lon="120.93995548919479"><ele>8.0</ele><time>2026-04-27T06:42:49Z</time></trkpt><trkpt lat="14.459290929224732" lon="120.93986127957619"><ele>8.0</ele><time>2026-04-27T06:42:50Z</time></trkpt><trkpt lat="14.459275074648321" lon="120.93976657447003"><ele>8.0</ele><time>2026-04-27T06:42:51Z</time></trkpt><trkpt lat="14.459254545669049" lon="120.93965921271484"><ele>8.0</ele><time>2026-04-27T06:42:52Z</time></trkpt><trkpt lat="14.459238700770682" lon="120.93955446718222"><ele>8.0</ele><time>2026-04-27T06:42:53Z</time></trkpt><trkpt lat="14.459206754324606" lon="120.93944348840755"><ele>8.0</ele><time>2026-04-27T06:42:54.001Z</time></trkpt><trkpt lat="14.459175784759744" lon="120.93932409937823"><ele>8.0</ele><time>2026-04-27T06:42:55.001Z</time></trkpt><trkpt lat="14.459147842702443" lon="120.93921130372603"><ele>8.0</ele><time>2026-04-27T06:42:56.001Z</time></trkpt><trkpt lat="14.459117347370537" lon="120.93910042724929"><ele>8.0</ele><time>2026-04-27T06:42:57.001Z</time></trkpt><trkpt lat="14.459090125718545" lon="120.93898993323302"><ele>8.0</ele><time>2026-04-27T06:42:58.001Z</time></trkpt><trkpt lat="14.459070433616695" lon="120.93889417201551"><ele>8.0</ele><time>2026-04-27T06:42:59.001Z</time></trkpt><trkpt lat="14.459050329295081" lon="120.93879044068272"><ele>8.0</ele><time>2026-04-27T06:43:00.001Z</time></trkpt><trkpt lat="14.459024122571211" lon="120.93868278941447"><ele>8.0</ele><time>2026-04-27T06:43:01.001Z</time></trkpt><trkpt lat="14.459002354186266" lon="120.93858350378409"><ele>8.0</ele><time>2026-04-27T06:43:02.001Z</time></trkpt><trkpt lat="14.458974848479837" lon="120.93848285377281"><ele>7.4</ele><time>2026-04-27T06:43:03.001Z</time></trkpt><trkpt lat="14.458950666242929" lon="120.93838315870569"><ele>6.800000000000001</ele><time>2026-04-27T06:43:04.001Z</time></trkpt><trkpt lat="14.458929814243994" lon="120.93827257323235"><ele>6.2</ele><time>2026-04-27T06:43:05.001Z</time></trkpt><trkpt lat="14.458911887600452" lon="120.93817909517612"><ele>5.6</ele><time>2026-04-27T06:43:06.001Z</time></trkpt><trkpt lat="14.458887936885985" lon="120.93807724631176"><ele>5.0</ele><time>2026-04-27T06:43:07.001Z</time></trkpt><trkpt lat="14.458863456053608" lon="120.93798414998048"><ele>5.0</ele><time>2026-04-27T06:43:08.001Z</time></trkpt><trkpt lat="14.458840440089395" lon="120.93788077831552"><ele>5.0</ele><time>2026-04-27T06:43:09.001Z</time></trkpt><trkpt lat="14.458818107601708" lon="120.93778024679906"><ele>5.0</ele><time>2026-04-27T06:43:10.001Z</time></trkpt><trkpt lat="14.458794898158246" lon="120.9376804589291"><ele>5.0</ele><time>2026-04-27T06:43:11.001Z</time></trkpt><trkpt lat="14.458771468184393" lon="120.93757925215071"><ele>5.0</ele><time>2026-04-27T06:43:12.001Z</time></trkpt><trkpt lat="14.45874873227588" lon="120.93748208055277"><ele>5.4</ele><time>2026-04-27T06:43:13.001Z</time></trkpt><trkpt lat="14.458725539635102" lon="120.93739214066805"><ele>5.8</ele><time>2026-04-27T06:43:14.001Z</time></trkpt><trkpt lat="14.458704590471509" lon="120.93731502868074"><ele>6.199999999999999</ele><time>2026-04-27T06:43:15.001Z</time></trkpt><trkpt lat="14.458679617674921" lon="120.93719844599987"><ele>6.6</ele><time>2026-04-27T06:43:17.001Z</time></trkpt><trkpt lat="14.4586510792749" lon="120.93707752243492"><ele>7.0</ele><time>2026-04-27T06:43:19.001Z</time></trkpt><trkpt lat="14.45863410474319" lon="120.9370053851443"><ele>7.0</ele><time>2026-04-27T06:43:20.001Z</time></trkpt><trkpt lat="14.458618376388218" lon="120.93693177422641"><ele>7.0</ele><time>2026-04-27T06:43:21.001Z</time></trkpt><trkpt lat="14.458604093080925" lon="120.93685640759986"><ele>7.0</ele><time>2026-04-27T06:43:22.001Z</time></trkpt><trkpt lat="14.458585085524794" lon="120.93678823882783"><ele>7.0</ele><time>2026-04-27T06:43:23.001Z</time></trkpt><trkpt lat="14.458568687021302" lon="120.9367148577656"><ele>7.0</ele><time>2026-04-27T06:43:24.001Z</time></trkpt><trkpt lat="14.458549042794202" lon="120.93664017935316"><ele>7.0</ele><time>2026-04-27T06:43:25.001Z</time></trkpt><trkpt lat="14.458533205423155" lon="120.93657205747834"><ele>7.0</ele><time>2026-04-27T06:43:26.001Z</time></trkpt><trkpt lat="14.45852348587056" lon="120.93650414947406"><ele>6.666666666666667</ele><time>2026-04-27T06:43:27.001Z</time></trkpt><trkpt lat="14.45850107573558" lon="120.9364257140779"><ele>6.333333333333334</ele><time>2026-04-27T06:43:28.001Z</time></trkpt><trkpt lat="14.45848422373287" lon="120.93634633235263"><ele>6.0</ele><time>2026-04-27T06:43:29.001Z</time></trkpt><trkpt lat="14.458459750499447" lon="120.93625177798255"><ele>5.666666666666667</ele><time>2026-04-27T06:43:30.001Z</time></trkpt><trkpt lat="14.458431754687211" lon="120.93616038503303"><ele>5.333333333333334</ele><time>2026-04-27T06:43:31.001Z</time></trkpt><trkpt lat="14.458405560511945" lon="120.93606155670682"><ele>5.0</ele><time>2026-04-27T06:43:32.001Z</time></trkpt><trkpt lat="14.458377932333292" lon="120.93595403452025"><ele>4.75</ele><time>2026-04-27T06:43:33.001Z</time></trkpt><trkpt lat="14.458345548698597" lon="120.93583485568753"><ele>4.5</ele><time>2026-04-27T06:43:34.001Z</time></trkpt><trkpt lat="14.458318791458181" lon="120.93571094512713"><ele>4.25</ele><time>2026-04-27T06:43:35.001Z</time></trkpt><trkpt lat="14.45828844918253" lon="120.9355745405453"><ele>4.0</ele><time>2026-04-27T06:43:36.001Z</time></trkpt><trkpt lat="14.458257878535154" lon="120.93543202700025"><ele>4.0</ele><time>2026-04-27T06:43:37.001Z</time></trkpt><trkpt lat="14.458229226037357" lon="120.93527408986695"><ele>4.0</ele><time>2026-04-27T06:43:38.001Z</time></trkpt><trkpt lat="14.458197797446473" lon="120.935127296134"><ele>4.0</ele><time>2026-04-27T06:43:39.001Z</time></trkpt><trkpt lat="14.458172712232098" lon="120.93500041509496"><ele>4.0</ele><time>2026-04-27T06:43:40.001Z</time></trkpt><trkpt lat="14.458150595836493" lon="120.9348991178027"><ele>4.5</ele><time>2026-04-27T06:43:41.001Z</time></trkpt><trkpt lat="14.458123766281554" lon="120.93479015657608"><ele>5.0</ele><time>2026-04-27T06:43:42.001Z</time></trkpt><trkpt lat="14.458096265164798" lon="120.93467129362487"><ele>5.5</ele><time>2026-04-27T06:43:43.001Z</time></trkpt><trkpt lat="14.458058815131379" lon="120.93453042671074"><ele>6.0</ele><time>2026-04-27T06:43:44.001Z</time></trkpt><trkpt lat="14.458034662538862" lon="120.93440104964098"><ele>6.0</ele><time>2026-04-27T06:43:45.001Z</time></trkpt><trkpt lat="14.458011793028113" lon="120.93424995892245"><ele>6.0</ele><time>2026-04-27T06:43:46.001Z</time></trkpt><trkpt lat="14.457986633838297" lon="120.93409060615274"><ele>6.0</ele><time>2026-04-27T06:43:47.001Z</time></trkpt><trkpt lat="14.457976115376072" lon="120.93394295553402"><ele>6.0</ele><time>2026-04-27T06:43:48.001Z</time></trkpt><trkpt lat="14.457973173202472" lon="120.93381565432394"><ele>6.0</ele><time>2026-04-27T06:43:49.001Z</time></trkpt><trkpt lat="14.457966217457" lon="120.93369803413889"><ele>6.0</ele><time>2026-04-27T06:43:50.001Z</time></trkpt><trkpt lat="14.457952436973457" lon="120.93356589390757"><ele>6.0</ele><time>2026-04-27T06:43:51.001Z</time></trkpt><trkpt lat="14.457928199977866" lon="120.93342034582547"><ele>6.0</ele><time>2026-04-27T06:43:52.001Z</time></trkpt><trkpt lat="14.457906767716093" lon="120.93327807487825"><ele>6.0</ele><time>2026-04-27T06:43:53.001Z</time></trkpt><trkpt lat="14.457892558518695" lon="120.93313471949514"><ele>6.0</ele><time>2026-04-27T06:43:54.002Z</time></trkpt><trkpt lat="14.457875286033547" lon="120.9329995239225"><ele>6.0</ele><time>2026-04-27T06:43:55.002Z</time></trkpt><trkpt lat="14.457861012115893" lon="120.93287130154187"><ele>6.0</ele><time>2026-04-27T06:43:56.002Z</time></trkpt><trkpt lat="14.457840912148194" lon="120.9327484235479"><ele>6.0</ele><time>2026-04-27T06:43:57.002Z</time></trkpt><trkpt lat="14.457822826290048" lon="120.93262929939864"><ele>6.0</ele><time>2026-04-27T06:43:58.002Z</time></trkpt><trkpt lat="14.457802908754205" lon="120.932504871584"><ele>6.0</ele><time>2026-04-27T06:43:59.002Z</time></trkpt><trkpt lat="14.457777134403873" lon="120.93238160369114"><ele>6.0</ele><time>2026-04-27T06:44:00.002Z</time></trkpt><trkpt lat="14.45773820717908" lon="120.93225056046518"><ele>6.0</ele><time>2026-04-27T06:44:01.002Z</time></trkpt><trkpt lat="14.457690922664932" lon="120.9321275997719"><ele>6.0</ele><time>2026-04-27T06:44:02.002Z</time></trkpt><trkpt lat="14.457629701078819" lon="120.93198239450459"><ele>6.0</ele><time>2026-04-27T06:44:03.002Z</time></trkpt><trkpt lat="14.457569402873613" lon="120.93182479768072"><ele>6.0</ele><time>2026-04-27T06:44:04.002Z</time></trkpt><trkpt lat="14.457519894859848" lon="120.93166760120869"><ele>6.333333333333334</ele><time>2026-04-27T06:44:05.002Z</time></trkpt><trkpt lat="14.457473620649486" lon="120.93151008604927"><ele>6.666666666666667</ele><time>2026-04-27T06:44:06.002Z</time></trkpt><trkpt lat="14.457425644929463" lon="120.93135494187966"><ele>7.0</ele><time>2026-04-27T06:44:07.002Z</time></trkpt><trkpt lat="14.457374032687673" lon="120.93121048013812"><ele>7.0</ele><time>2026-04-27T06:44:08.002Z</time></trkpt><trkpt lat="14.457325640693151" lon="120.93107071254116"><ele>7.0</ele><time>2026-04-27T06:44:09.002Z</time></trkpt><trkpt lat="14.457281096903934" lon="120.930938031719"><ele>7.0</ele><time>2026-04-27T06:44:10.002Z</time></trkpt><trkpt lat="14.457230720028807" lon="120.93080778305352"><ele>7.0</ele><time>2026-04-27T06:44:10.999Z</time></trkpt><trkpt lat="14.457191035872023" lon="120.93069064739775"><ele>7.0</ele><time>2026-04-27T06:44:11.999Z</time></trkpt><trkpt lat="14.457148749389631" lon="120.93059735126212"><ele>6.999999999999999</ele><time>2026-04-27T06:44:12.999Z</time></trkpt><trkpt lat="14.457091652098576" lon="120.93050665796932"><ele>6.999999999999999</ele><time>2026-04-27T06:44:13.999Z</time></trkpt><trkpt lat="14.457032669329186" lon="120.93043634272169"><ele>7.0</ele><time>2026-04-27T06:44:14.999Z</time></trkpt><trkpt lat="14.45696584959024" lon="120.93038167296577"><ele>7.0</ele><time>2026-04-27T06:44:15.999Z</time></trkpt><trkpt lat="14.456876566952216" lon="120.93033995793284"><ele>7.199999999999999</ele><time>2026-04-27T06:44:16.999Z</time></trkpt><trkpt lat="14.456780035680099" lon="120.93030844855492"><ele>7.3999999999999995</ele><time>2026-04-27T06:44:17.999Z</time></trkpt><trkpt lat="14.456670805428374" lon="120.93029027174241"><ele>7.6000000000000005</ele><time>2026-04-27T06:44:18.999Z</time></trkpt><trkpt lat="14.456558516173171" lon="120.93027457677611"><ele>7.800000000000001</ele><time>2026-04-27T06:44:19.999Z</time></trkpt><trkpt lat="14.456441921338739" lon="120.93025730877235"><ele>8.0</ele><time>2026-04-27T06:44:20.999Z</time></trkpt><trkpt lat="14.456323016708573" lon="120.93023647872211"><ele>8.0</ele><time>2026-04-27T06:44:21.999Z</time></trkpt><trkpt lat="14.456204333965188" lon="120.93021184397284"><ele>8.0</ele><time>2026-04-27T06:44:22.999Z</time></trkpt><trkpt lat="14.456060273253271" lon="120.93019892798134"><ele>8.0</ele><time>2026-04-27T06:44:23.999Z</time></trkpt><trkpt lat="14.455921579403146" lon="120.93016488954392"><ele>8.0</ele><time>2026-04-27T06:44:24.999Z</time></trkpt><trkpt lat="14.45576766398322" lon="120.93012997195251"><ele>8.0</ele><time>2026-04-27T06:44:25.999Z</time></trkpt><trkpt lat="14.455606311493108" lon="120.93009345203151"><ele>8.0</ele><time>2026-04-27T06:44:26.999Z</time></trkpt><trkpt lat="14.45545048279104" lon="120.93006700326085"><ele>8.0</ele><time>2026-04-27T06:44:27.999Z</time></trkpt><trkpt lat="14.455279967289195" lon="120.9300412376088"><ele>7.333333333333333</ele><time>2026-04-27T06:44:29Z</time></trkpt><trkpt lat="14.455115185003557" lon="120.9300064893169"><ele>6.666666666666666</ele><time>2026-04-27T06:44:30Z</time></trkpt><trkpt lat="14.45493964948485" lon="120.92997545142464"><ele>6.0</ele><time>2026-04-27T06:44:31Z</time></trkpt><trkpt lat="14.454777694285294" lon="120.92994336603407"><ele>6.0</ele><time>2026-04-27T06:44:32Z</time></trkpt><trkpt lat="14.454631371782567" lon="120.92991180321334"><ele>6.0</ele><time>2026-04-27T06:44:33Z</time></trkpt><trkpt lat="14.454490002666626" lon="120.92987553596073"><ele>6.0</ele><time>2026-04-27T06:44:34Z</time></trkpt><trkpt lat="14.454362259809853" lon="120.92982417892816"><ele>6.0</ele><time>2026-04-27T06:44:35Z</time></trkpt><trkpt lat="14.454232690742028" lon="120.92976811492885"><ele>5.75</ele><time>2026-04-27T06:44:36Z</time></trkpt><trkpt lat="14.454099244057634" lon="120.92969942964825"><ele>5.5</ele><time>2026-04-27T06:44:37Z</time></trkpt><trkpt lat="14.453984465744787" lon="120.92961778290277"><ele>5.25</ele><time>2026-04-27T06:44:38Z</time></trkpt><trkpt lat="14.453871575205246" lon="120.92952588443553"><ele>5.0</ele><time>2026-04-27T06:44:39Z</time></trkpt><trkpt lat="14.45377143422554" lon="120.92943365613678"><ele>5.0</ele><time>2026-04-27T06:44:40Z</time></trkpt><trkpt lat="14.453674395078535" lon="120.92934544536726"><ele>5.0</ele><time>2026-04-27T06:44:41Z</time></trkpt><trkpt lat="14.453589356642569" lon="120.92926571581141"><ele>5.0</ele><time>2026-04-27T06:44:42Z</time></trkpt><trkpt lat="14.453503472597326" lon="120.92918462770503"><ele>5.0</ele><time>2026-04-27T06:44:43Z</time></trkpt><trkpt lat="14.453419864449893" lon="120.92910353032923"><ele>5.0</ele><time>2026-04-27T06:44:44Z</time></trkpt><trkpt lat="14.45333700960515" lon="120.92902450375401"><ele>5.0</ele><time>2026-04-27T06:44:45Z</time></trkpt><trkpt lat="14.453260545176159" lon="120.92895321774354"><ele>5.0</ele><time>2026-04-27T06:44:46Z</time></trkpt><trkpt lat="14.453187258888034" lon="120.92888553108651"><ele>5.0</ele><time>2026-04-27T06:44:47Z</time></trkpt><trkpt lat="14.453116391033804" lon="120.9288192876714"><ele>5.0</ele><time>2026-04-27T06:44:48Z</time></trkpt><trkpt lat="14.453047025587068" lon="120.92875216357938"><ele>5.0</ele><time>2026-04-27T06:44:49Z</time></trkpt><trkpt lat="14.45295960317384" lon="120.92867889817401"><ele>5.0</ele><time>2026-04-27T06:44:50Z</time></trkpt><trkpt lat="14.452896000879555" lon="120.9286246430425"><ele>5.0</ele><time>2026-04-27T06:44:51Z</time></trkpt><trkpt lat="14.452829940284671" lon="120.92856787795557"><ele>5.0</ele><time>2026-04-27T06:44:52Z</time></trkpt><trkpt lat="14.452766997101145" lon="120.92851299648153"><ele>5.0</ele><time>2026-04-27T06:44:53Z</time></trkpt><trkpt lat="14.452705214157206" lon="120.92847537791889"><ele>5.0</ele><time>2026-04-27T06:44:54Z</time></trkpt><trkpt lat="14.452639406679236" lon="120.92844433178439"><ele>5.0</ele><time>2026-04-27T06:44:55Z</time></trkpt><trkpt lat="14.45256655799807" lon="120.9284106251668"><ele>5.0</ele><time>2026-04-27T06:44:56Z</time></trkpt><trkpt lat="14.452493253493019" lon="120.92837572979234"><ele>5.0</ele><time>2026-04-27T06:44:57Z</time></trkpt><trkpt lat="14.452424300737993" lon="120.92834486407219"><ele>5.0</ele><time>2026-04-27T06:44:58Z</time></trkpt><trkpt lat="14.452353484228384" lon="120.928322150763"><ele>5.0</ele><time>2026-04-27T06:44:59Z</time></trkpt><trkpt lat="14.452277149573122" lon="120.92830266314012"><ele>5.0</ele><time>2026-04-27T06:45:00Z</time></trkpt><trkpt lat="14.452194593476134" lon="120.92828924069164"><ele>5.333333333333334</ele><time>2026-04-27T06:45:01Z</time></trkpt><trkpt lat="14.45211317149364" lon="120.92828423609295"><ele>5.666666666666667</ele><time>2026-04-27T06:45:02Z</time></trkpt><trkpt lat="14.452031449642256" lon="120.92828319029447"><ele>6.0</ele><time>2026-04-27T06:45:03Z</time></trkpt><trkpt lat="14.45194848397645" lon="120.92829333188232"><ele>6.333333333333334</ele><time>2026-04-27T06:45:04Z</time></trkpt><trkpt lat="14.451874806098227" lon="120.92830324126749"><ele>6.666666666666667</ele><time>2026-04-27T06:45:05Z</time></trkpt><trkpt lat="14.451798928835174" lon="120.92830532915866"><ele>7.0</ele><time>2026-04-27T06:45:06Z</time></trkpt><trkpt lat="14.45171831429762" lon="120.92831301468635"><ele>7.000000000000001</ele><time>2026-04-27T06:45:07Z</time></trkpt><trkpt lat="14.451636475641152" lon="120.92832360690926"><ele>7.0</ele><time>2026-04-27T06:45:08Z</time></trkpt><trkpt lat="14.45154862765759" lon="120.92832986714397"><ele>7.0</ele><time>2026-04-27T06:45:09Z</time></trkpt><trkpt lat="14.451457670393149" lon="120.92833499050896"><ele>7.0</ele><time>2026-04-27T06:45:10Z</time></trkpt><trkpt lat="14.451380946119185" lon="120.92834022885606"><ele>7.000000000000001</ele><time>2026-04-27T06:45:11Z</time></trkpt><trkpt lat="14.451313965484228" lon="120.92834422529643"><ele>7.0</ele><time>2026-04-27T06:45:12Z</time></trkpt><trkpt lat="14.451217810870805" lon="120.92835074512269"><ele>7.166666666666667</ele><time>2026-04-27T06:45:14.001Z</time></trkpt><trkpt lat="14.451146077194903" lon="120.92835629406795"><ele>7.333333333333334</ele><time>2026-04-27T06:45:20.001Z</time></trkpt><trkpt lat="14.4510722316863" lon="120.92835209680423"><ele>7.5</ele><time>2026-04-27T06:45:26.001Z</time></trkpt><trkpt lat="14.451002700959734" lon="120.92836180149502"><ele>7.666666666666666</ele><time>2026-04-27T06:45:28.001Z</time></trkpt><trkpt lat="14.45093101807708" lon="120.92836881987246"><ele>7.833333333333333</ele><time>2026-04-27T06:45:30.001Z</time></trkpt><trkpt lat="14.45084464677344" lon="120.92838480219119"><ele>8.0</ele><time>2026-04-27T06:45:32.001Z</time></trkpt><trkpt lat="14.450759466798488" lon="120.92837967672423"><ele>8.0</ele><time>2026-04-27T06:45:34.001Z</time></trkpt><trkpt lat="14.450691556788206" lon="120.92836307771995"><ele>8.0</ele><time>2026-04-27T06:45:35.001Z</time></trkpt><trkpt lat="14.450615804447766" lon="120.92829900748329"><ele>8.0</ele><time>2026-04-27T06:45:37.001Z</time></trkpt><trkpt lat="14.450565316481828" lon="120.92819365278893"><ele>8.0</ele><time>2026-04-27T06:45:39.001Z</time></trkpt><trkpt lat="14.450548687231374" lon="120.92808029403399"><ele>8.0</ele><time>2026-04-27T06:45:41.001Z</time></trkpt><trkpt lat="14.450547770297087" lon="120.92795508410902"><ele>7.999999999999999</ele><time>2026-04-27T06:45:43.001Z</time></trkpt><trkpt lat="14.450565493577072" lon="120.92787925006147"><ele>8.0</ele><time>2026-04-27T06:45:44.001Z</time></trkpt><trkpt lat="14.450586471264025" lon="120.92779671414594"><ele>8.0</ele><time>2026-04-27T06:45:45.001Z</time></trkpt><trkpt lat="14.45060602120277" lon="120.92770458450686"><ele>8.0</ele><time>2026-04-27T06:45:46.001Z</time></trkpt><trkpt lat="14.450622932143629" lon="120.9276060144616"><ele>7.999999999999999</ele><time>2026-04-27T06:45:47.001Z</time></trkpt><trkpt lat="14.450640306529975" lon="120.92751972710013"><ele>8.0</ele><time>2026-04-27T06:45:48.001Z</time></trkpt><trkpt lat="14.450652929720706" lon="120.92744566146996"><ele>7.666666666666666</ele><time>2026-04-27T06:45:49.001Z</time></trkpt><trkpt lat="14.450679416634202" lon="120.92732725594261"><ele>7.333333333333333</ele><time>2026-04-27T06:45:51.001Z</time></trkpt><trkpt lat="14.450679282701063" lon="120.92725798505828"><ele>7.0</ele><time>2026-04-27T06:45:52.001Z</time></trkpt><trkpt lat="14.450679898786658" lon="120.92718597923452"><ele>6.666666666666666</ele><time>2026-04-27T06:45:53.001Z</time></trkpt><trkpt lat="14.450675624131486" lon="120.92710300973103"><ele>6.333333333333333</ele><time>2026-04-27T06:45:54.001Z</time></trkpt><trkpt lat="14.450660392618168" lon="120.92702529177969"><ele>6.0</ele><time>2026-04-27T06:45:55.001Z</time></trkpt><trkpt lat="14.45065134563295" lon="120.92694455588838"><ele>6.0</ele><time>2026-04-27T06:45:56.001Z</time></trkpt><trkpt lat="14.450629599042676" lon="120.92685695011771"><ele>6.0</ele><time>2026-04-27T06:45:57.001Z</time></trkpt><trkpt lat="14.450607475939396" lon="120.92677492953044"><ele>6.0</ele><time>2026-04-27T06:45:58.001Z</time></trkpt><trkpt lat="14.450597137705085" lon="120.92669967409087"><ele>6.0</ele><time>2026-04-27T06:45:59.001Z</time></trkpt><trkpt lat="14.450587105881143" lon="120.9266292027663"><ele>6.0</ele><time>2026-04-27T06:46:00.001Z</time></trkpt><trkpt lat="14.45057910896512" lon="120.92656450899347"><ele>6.0</ele><time>2026-04-27T06:46:01.001Z</time></trkpt><trkpt lat="14.450572599827456" lon="120.92648789802062"><ele>6.333333333333333</ele><time>2026-04-27T06:46:03.001Z</time></trkpt><trkpt lat="14.45057147089941" lon="120.92641981053686"><ele>6.666666666666666</ele><time>2026-04-27T06:46:05.001Z</time></trkpt><trkpt lat="14.450564413987767" lon="120.92635261524794"><ele>7.0</ele><time>2026-04-27T06:46:08.001Z</time></trkpt><trkpt lat="14.4505231995278" lon="120.9262469266909"><ele>7.333333333333333</ele><time>2026-04-27T06:46:10.002Z</time></trkpt><trkpt lat="14.450500964618083" lon="120.92618116790005"><ele>7.666666666666666</ele><time>2026-04-27T06:46:11.002Z</time></trkpt><trkpt lat="14.450481422903694" lon="120.92609018344515"><ele>8.0</ele><time>2026-04-27T06:46:12.002Z</time></trkpt><trkpt lat="14.450461475431847" lon="120.92599243200137"><ele>7.75</ele><time>2026-04-27T06:46:13.002Z</time></trkpt><trkpt lat="14.4504432143689" lon="120.92587826357828"><ele>7.5</ele><time>2026-04-27T06:46:14.002Z</time></trkpt><trkpt lat="14.450423580077572" lon="120.92575842928053"><ele>7.25</ele><time>2026-04-27T06:46:15.002Z</time></trkpt><trkpt lat="14.450401769086467" lon="120.92563873714606"><ele>7.0</ele><time>2026-04-27T06:46:16.002Z</time></trkpt><trkpt lat="14.450381569110414" lon="120.92552696570272"><ele>7.000000000000001</ele><time>2026-04-27T06:46:17Z</time></trkpt><trkpt lat="14.450359626371545" lon="120.92542484387916"><ele>7.0</ele><time>2026-04-27T06:46:18Z</time></trkpt><trkpt lat="14.450342160540933" lon="120.92533360247447"><ele>7.0</ele><time>2026-04-27T06:46:19Z</time></trkpt><trkpt lat="14.450318279897507" lon="120.92525084624897"><ele>7.0</ele><time>2026-04-27T06:46:20Z</time></trkpt><trkpt lat="14.450297366972313" lon="120.92516309787894"><ele>7.000000000000001</ele><time>2026-04-27T06:46:21Z</time></trkpt><trkpt lat="14.450284625456948" lon="120.92508086113372"><ele>7.0</ele><time>2026-04-27T06:46:22Z</time></trkpt><trkpt lat="14.45027239225629" lon="120.92501159505755"><ele>6.8</ele><time>2026-04-27T06:46:23Z</time></trkpt><trkpt lat="14.450240099513755" lon="120.9248882098331"><ele>6.6</ele><time>2026-04-27T06:46:25Z</time></trkpt><trkpt lat="14.450215105090544" lon="120.92479603612972"><ele>6.3999999999999995</ele><time>2026-04-27T06:46:26Z</time></trkpt><trkpt lat="14.45020137317444" lon="120.92471023163512"><ele>6.199999999999999</ele><time>2026-04-27T06:46:27Z</time></trkpt><trkpt lat="14.450191650560752" lon="120.92462693438418"><ele>6.0</ele><time>2026-04-27T06:46:28Z</time></trkpt><trkpt lat="14.450173825441324" lon="120.92453818277721"><ele>6.0</ele><time>2026-04-27T06:46:29Z</time></trkpt><trkpt lat="14.45015491473117" lon="120.9244669466174"><ele>6.0</ele><time>2026-04-27T06:46:30Z</time></trkpt><trkpt lat="14.450134222653693" lon="120.92438066321924"><ele>6.0</ele><time>2026-04-27T06:46:32Z</time></trkpt><trkpt lat="14.450117144200968" lon="120.9243103458472"><ele>6.0</ele><time>2026-04-27T06:46:34Z</time></trkpt><trkpt lat="14.450093689976422" lon="120.92421471361554"><ele>6.0</ele><time>2026-04-27T06:46:36Z</time></trkpt><trkpt lat="14.450081082170627" lon="120.924137155957"><ele>6.0</ele><time>2026-04-27T06:46:38Z</time></trkpt><trkpt lat="14.450066455052324" lon="120.92406915479593"><ele>5.8</ele><time>2026-04-27T06:46:40Z</time></trkpt><trkpt lat="14.45004537152698" lon="120.92397275729041"><ele>5.6</ele><time>2026-04-27T06:46:42Z</time></trkpt><trkpt lat="14.450022406715954" lon="120.92386515879726"><ele>5.4</ele><time>2026-04-27T06:46:44Z</time></trkpt><trkpt lat="14.450006150210381" lon="120.92377470348958"><ele>5.2</ele><time>2026-04-27T06:46:46Z</time></trkpt><trkpt lat="14.449983901936026" lon="120.9236639507713"><ele>5.0</ele><time>2026-04-27T06:46:48Z</time></trkpt><trkpt lat="14.449952282702295" lon="120.92352741019582"><ele>5.0</ele><time>2026-04-27T06:46:50Z</time></trkpt><trkpt lat="14.449925211905834" lon="120.92340600615732"><ele>5.0</ele><time>2026-04-27T06:46:52Z</time></trkpt><trkpt lat="14.449914764619802" lon="120.92334083779262"><ele>5.0</ele><time>2026-04-27T06:46:53Z</time></trkpt><trkpt lat="14.449888694108152" lon="120.92324033621213"><ele>5.0</ele><time>2026-04-27T06:46:55Z</time></trkpt><trkpt lat="14.449849236755327" lon="120.92317033067847"><ele>5.0</ele><time>2026-04-27T06:46:57Z</time></trkpt><trkpt lat="14.449787375462309" lon="120.92315386861496"><ele>5.0</ele><time>2026-04-27T06:46:59Z</time></trkpt><trkpt lat="14.449703065708887" lon="120.9231810413027"><ele>5.333333333333334</ele><time>2026-04-27T06:47:01Z</time></trkpt><trkpt lat="14.449619455304381" lon="120.92321806221028"><ele>5.666666666666667</ele><time>2026-04-27T06:47:03Z</time></trkpt><trkpt lat="14.44954952870565" lon="120.92325081026736"><ele>6.0</ele><time>2026-04-27T06:47:05Z</time></trkpt><trkpt lat="14.44947106944733" lon="120.92328790789435"><ele>6.333333333333334</ele><time>2026-04-27T06:47:07.001Z</time></trkpt><trkpt lat="14.449378853446454" lon="120.92332765832096"><ele>6.666666666666667</ele><time>2026-04-27T06:47:09.001Z</time></trkpt><trkpt lat="14.449309931958581" lon="120.9233520631534"><ele>7.0</ele><time>2026-04-27T06:47:10.001Z</time></trkpt><trkpt lat="14.44923875053419" lon="120.92336544321414"><ele>7.0</ele><time>2026-04-27T06:47:11.001Z</time></trkpt><trkpt lat="14.449109692438103" lon="120.92339058707726"><ele>6.999999999999999</ele><time>2026-04-27T06:47:13.001Z</time></trkpt><trkpt lat="14.448992996040532" lon="120.92340155160795"><ele>6.999999999999999</ele><time>2026-04-27T06:47:15.001Z</time></trkpt><trkpt lat="14.448928217659837" lon="120.92340428482598"><ele>7.0</ele><time>2026-04-27T06:47:16.001Z</time></trkpt><trkpt lat="14.448808065687425" lon="120.92340919889578"><ele>7.0</ele><time>2026-04-27T06:47:18.001Z</time></trkpt><trkpt lat="14.448741060586151" lon="120.92341909582835"><ele>7.000000000000001</ele><time>2026-04-27T06:47:19.001Z</time></trkpt><trkpt lat="14.448673504030024" lon="120.9234297560588"><ele>7.0</ele><time>2026-04-27T06:47:20.001Z</time></trkpt><trkpt lat="14.448599267033355" lon="120.92343676729139"><ele>7.0</ele><time>2026-04-27T06:47:21.001Z</time></trkpt><trkpt lat="14.448510861142905" lon="120.92344289510127"><ele>7.0</ele><time>2026-04-27T06:47:22.001Z</time></trkpt><trkpt lat="14.448412358671009" lon="120.92345821716272"><ele>7.000000000000001</ele><time>2026-04-27T06:47:23.001Z</time></trkpt><trkpt lat="14.44833188167672" lon="120.92345719521452"><ele>7.0</ele><time>2026-04-27T06:47:24.001Z</time></trkpt><trkpt lat="14.448248930012436" lon="120.9234507299525"><ele>7.0</ele><time>2026-04-27T06:47:25.001Z</time></trkpt><trkpt lat="14.44815694484557" lon="120.92344737065483"><ele>6.999999999999999</ele><time>2026-04-27T06:47:26.001Z</time></trkpt><trkpt lat="14.448059896572037" lon="120.92344997326481"><ele>6.999999999999999</ele><time>2026-04-27T06:47:27.001Z</time></trkpt><trkpt lat="14.447964045700084" lon="120.92345137491225"><ele>7.0</ele><time>2026-04-27T06:47:28.001Z</time></trkpt><trkpt lat="14.447866218511102" lon="120.92345246480465"><ele>7.0</ele><time>2026-04-27T06:47:29.001Z</time></trkpt><trkpt lat="14.447765169916998" lon="120.92345205238945"><ele>7.3999999999999995</ele><time>2026-04-27T06:47:30.001Z</time></trkpt><trkpt lat="14.447660208802926" lon="120.9234619555955"><ele>7.799999999999999</ele><time>2026-04-27T06:47:31.001Z</time></trkpt><trkpt lat="14.447556610772637" lon="120.92346698929103"><ele>8.2</ele><time>2026-04-27T06:47:32.001Z</time></trkpt><trkpt lat="14.447465845348598" lon="120.92347356674989"><ele>8.6</ele><time>2026-04-27T06:47:33.001Z</time></trkpt><trkpt lat="14.447383632157923" lon="120.92347752232358"><ele>9.0</ele><time>2026-04-27T06:47:34.001Z</time></trkpt><trkpt lat="14.44731235051647" lon="120.92348090330682"><ele>9.0</ele><time>2026-04-27T06:47:35.001Z</time></trkpt><trkpt lat="14.447195630271102" lon="120.92347446198333"><ele>9.0</ele><time>2026-04-27T06:47:37.001Z</time></trkpt><trkpt lat="14.447132553190139" lon="120.9234739076773"><ele>9.0</ele><time>2026-04-27T06:47:38.001Z</time></trkpt><trkpt lat="14.447060724546855" lon="120.9234746337269"><ele>9.0</ele><time>2026-04-27T06:47:39.001Z</time></trkpt><trkpt lat="14.446942648017075" lon="120.92346745447686"><ele>9.0</ele><time>2026-04-27T06:47:41.001Z</time></trkpt><trkpt lat="14.446882122205123" lon="120.92344920375987"><ele>9.0</ele><time>2026-04-27T06:47:42.001Z</time></trkpt><trkpt lat="14.446760945465144" lon="120.92344070519798"><ele>8.833333333333334</ele><time>2026-04-27T06:47:44.001Z</time></trkpt><trkpt lat="14.446694007665066" lon="120.92343118626411"><ele>8.666666666666666</ele><time>2026-04-27T06:47:45.001Z</time></trkpt><trkpt lat="14.446618958360608" lon="120.92343254641372"><ele>8.5</ele><time>2026-04-27T06:47:46.001Z</time></trkpt><trkpt lat="14.446530256994237" lon="120.92341552914313"><ele>8.333333333333332</ele><time>2026-04-27T06:47:47.001Z</time></trkpt><trkpt lat="14.446443213888319" lon="120.92338673058572"><ele>8.166666666666666</ele><time>2026-04-27T06:47:48.001Z</time></trkpt><trkpt lat="14.446345891732328" lon="120.92335568796769"><ele>8.0</ele><time>2026-04-27T06:47:49.001Z</time></trkpt><trkpt lat="14.446251284111545" lon="120.92333384920823"><ele>7.666666666666666</ele><time>2026-04-27T06:47:50.001Z</time></trkpt><trkpt lat="14.44616882039728" lon="120.92332095350845"><ele>7.333333333333333</ele><time>2026-04-27T06:47:51.001Z</time></trkpt><trkpt lat="14.446095997147358" lon="120.9233089089429"><ele>7.0</ele><time>2026-04-27T06:47:52.001Z</time></trkpt><trkpt lat="14.446028265434029" lon="120.92329787596066"><ele>6.666666666666666</ele><time>2026-04-27T06:47:53.001Z</time></trkpt><trkpt lat="14.445959309154" lon="120.92329567669903"><ele>6.333333333333333</ele><time>2026-04-27T06:47:54.001Z</time></trkpt><trkpt lat="14.445877940972688" lon="120.92330144462359"><ele>6.0</ele><time>2026-04-27T06:47:55.001Z</time></trkpt><trkpt lat="14.4457885889277" lon="120.92331325170808"><ele>6.0</ele><time>2026-04-27T06:47:56.001Z</time></trkpt><trkpt lat="14.445693856085219" lon="120.92332615610069"><ele>6.0</ele><time>2026-04-27T06:47:57.001Z</time></trkpt><trkpt lat="14.445598594773193" lon="120.92334186542217"><ele>6.0</ele><time>2026-04-27T06:47:58.001Z</time></trkpt><trkpt lat="14.445498712380534" lon="120.92335937068697"><ele>6.0</ele><time>2026-04-27T06:47:59.001Z</time></trkpt><trkpt lat="14.445402107255305" lon="120.92338019269827"><ele>6.0</ele><time>2026-04-27T06:48:00.002Z</time></trkpt><trkpt lat="14.445319051731047" lon="120.92339901038282"><ele>6.0</ele><time>2026-04-27T06:48:01.002Z</time></trkpt><trkpt lat="14.445229786494467" lon="120.92341871599518"><ele>6.0</ele><time>2026-04-27T06:48:02.002Z</time></trkpt><trkpt lat="14.445140177674325" lon="120.92343484319497"><ele>6.0</ele><time>2026-04-27T06:48:03.002Z</time></trkpt><trkpt lat="14.445046032106436" lon="120.92344918854168"><ele>6.0</ele><time>2026-04-27T06:48:04.002Z</time></trkpt><trkpt lat="14.444963435449381" lon="120.92346314862972"><ele>6.0</ele><time>2026-04-27T06:48:05.002Z</time></trkpt><trkpt lat="14.444885890292914" lon="120.92348263371458"><ele>6.0</ele><time>2026-04-27T06:48:06.002Z</time></trkpt><trkpt lat="14.444801043995735" lon="120.92350621879481"><ele>6.0</ele><time>2026-04-27T06:48:07.002Z</time></trkpt><trkpt lat="14.444708391295123" lon="120.92353501552762"><ele>6.0</ele><time>2026-04-27T06:48:08.002Z</time></trkpt><trkpt lat="14.444609478143935" lon="120.92354915599053"><ele>6.0</ele><time>2026-04-27T06:48:09.002Z</time></trkpt><trkpt lat="14.444506629249995" lon="120.92355692949988"><ele>6.0</ele><time>2026-04-27T06:48:10.002Z</time></trkpt><trkpt lat="14.444401077507866" lon="120.92357226956541"><ele>6.0</ele><time>2026-04-27T06:48:11.002Z</time></trkpt><trkpt lat="14.444294267648576" lon="120.92358882423741"><ele>6.166666666666667</ele><time>2026-04-27T06:48:12.002Z</time></trkpt><trkpt lat="14.444199783383251" lon="120.92360300639714"><ele>6.333333333333334</ele><time>2026-04-27T06:48:13.002Z</time></trkpt><trkpt lat="14.444109065967277" lon="120.92361658515259"><ele>6.5</ele><time>2026-04-27T06:48:14.002Z</time></trkpt><trkpt lat="14.444028436359403" lon="120.92362883062893"><ele>6.666666666666667</ele><time>2026-04-27T06:48:15.002Z</time></trkpt><trkpt lat="14.44395262886158" lon="120.9236415382062"><ele>6.833333333333334</ele><time>2026-04-27T06:48:16.002Z</time></trkpt><trkpt lat="14.443882068217267" lon="120.9236520925979"><ele>7.0</ele><time>2026-04-27T06:48:17.002Z</time></trkpt><trkpt lat="14.443777170043951" lon="120.92367303558677"><ele>7.166666666666667</ele><time>2026-04-27T06:48:19.002Z</time></trkpt><trkpt lat="14.443702544078505" lon="120.92369472845174"><ele>7.333333333333334</ele><time>2026-04-27T06:48:21.002Z</time></trkpt><trkpt lat="14.443622705522243" lon="120.92373253678596"><ele>7.5</ele><time>2026-04-27T06:48:24Z</time></trkpt><trkpt lat="14.443545818097821" lon="120.92376891124678"><ele>7.666666666666666</ele><time>2026-04-27T06:48:26Z</time></trkpt><trkpt lat="14.44345214339755" lon="120.92381313346101"><ele>7.833333333333333</ele><time>2026-04-27T06:48:28Z</time></trkpt><trkpt lat="14.443394182849268" lon="120.92384626725898"><ele>8.0</ele><time>2026-04-27T06:48:29Z</time></trkpt><trkpt lat="14.443332467694447" lon="120.92387802396286"><ele>7.999999999999999</ele><time>2026-04-27T06:48:30Z</time></trkpt><trkpt lat="14.443267007449572" lon="120.92391030391325"><ele>8.0</ele><time>2026-04-27T06:48:31Z</time></trkpt><trkpt lat="14.443198298160981" lon="120.92394964886222"><ele>8.0</ele><time>2026-04-27T06:48:32Z</time></trkpt><trkpt lat="14.443129248986605" lon="120.92398632778216"><ele>8.0</ele><time>2026-04-27T06:48:33Z</time></trkpt><trkpt lat="14.443052535680081" lon="120.92402447666977"><ele>7.999999999999999</ele><time>2026-04-27T06:48:34Z</time></trkpt><trkpt lat="14.442969793357653" lon="120.9240668109712"><ele>8.0</ele><time>2026-04-27T06:48:35Z</time></trkpt><trkpt lat="14.442886490243543" lon="120.92411178332884"><ele>8.0</ele><time>2026-04-27T06:48:36Z</time></trkpt><trkpt lat="14.442802538207566" lon="120.92415690916263"><ele>8.0</ele><time>2026-04-27T06:48:37Z</time></trkpt><trkpt lat="14.442715432863848" lon="120.9242062075658"><ele>8.0</ele><time>2026-04-27T06:48:38Z</time></trkpt><trkpt lat="14.442623805198245" lon="120.92425579328847"><ele>8.0</ele><time>2026-04-27T06:48:39Z</time></trkpt><trkpt lat="14.442530773271688" lon="120.92430645237877"><ele>8.0</ele><time>2026-04-27T06:48:40Z</time></trkpt><trkpt lat="14.442435852865776" lon="120.9243565021398"><ele>8.0</ele><time>2026-04-27T06:48:41Z</time></trkpt><trkpt lat="14.442346957440998" lon="120.92440297377522"><ele>8.0</ele><time>2026-04-27T06:48:42Z</time></trkpt><trkpt lat="14.442259584143462" lon="120.9244480841879"><ele>8.0</ele><time>2026-04-27T06:48:43Z</time></trkpt><trkpt lat="14.442173544542646" lon="120.92449708130643"><ele>8.0</ele><time>2026-04-27T06:48:44Z</time></trkpt><trkpt lat="14.442094438356637" lon="120.92454684115984"><ele>8.0</ele><time>2026-04-27T06:48:45Z</time></trkpt><trkpt lat="14.442007523731277" lon="120.92459543700171"><ele>7.999999999999999</ele><time>2026-04-27T06:48:46Z</time></trkpt><trkpt lat="14.441928032633758" lon="120.9246386233824"><ele>8.0</ele><time>2026-04-27T06:48:47Z</time></trkpt><trkpt lat="14.44185316439125" lon="120.9246791333197"><ele>8.0</ele><time>2026-04-27T06:48:48Z</time></trkpt><trkpt lat="14.441781476730116" lon="120.9247192003028"><ele>8.0</ele><time>2026-04-27T06:48:49Z</time></trkpt><trkpt lat="14.441710505882131" lon="120.92475939798891"><ele>7.999999999999999</ele><time>2026-04-27T06:48:50Z</time></trkpt><trkpt lat="14.441638965550563" lon="120.92480443978911"><ele>8.0</ele><time>2026-04-27T06:48:51Z</time></trkpt><trkpt lat="14.441562370874912" lon="120.92484615119585"><ele>7.999999999999999</ele><time>2026-04-27T06:48:52Z</time></trkpt><trkpt lat="14.441480987039617" lon="120.9248858826166"><ele>8.0</ele><time>2026-04-27T06:48:53Z</time></trkpt><trkpt lat="14.441401713777719" lon="120.92492491170592"><ele>8.0</ele><time>2026-04-27T06:48:54Z</time></trkpt><trkpt lat="14.441328531217978" lon="120.92496330493073"><ele>8.0</ele><time>2026-04-27T06:48:55Z</time></trkpt><trkpt lat="14.441268538683214" lon="120.92499593792404"><ele>7.999999999999999</ele><time>2026-04-27T06:48:56Z</time></trkpt><trkpt lat="14.44121189928406" lon="120.92502917327735"><ele>8.0</ele><time>2026-04-27T06:48:57Z</time></trkpt><trkpt lat="14.441152394769311" lon="120.92506196410518"><ele>8.0</ele><time>2026-04-27T06:48:58Z</time></trkpt><trkpt lat="14.441052228831" lon="120.92511384769156"><ele>8.0</ele><time>2026-04-27T06:49:00Z</time></trkpt><trkpt lat="14.440954594424442" lon="120.92516403223141"><ele>8.0</ele><time>2026-04-27T06:49:02.001Z</time></trkpt><trkpt lat="14.44083291764689" lon="120.92523401586574"><ele>8.0</ele><time>2026-04-27T06:49:04.001Z</time></trkpt><trkpt lat="14.440768041324713" lon="120.92527123479861"><ele>8.0</ele><time>2026-04-27T06:49:05.001Z</time></trkpt><trkpt lat="14.440696930132587" lon="120.92531273250714"><ele>8.0</ele><time>2026-04-27T06:49:06.001Z</time></trkpt><trkpt lat="14.440625893421466" lon="120.92534958951163"><ele>7.999999999999999</ele><time>2026-04-27T06:49:07.001Z</time></trkpt><trkpt lat="14.440561785157097" lon="120.92538558611633"><ele>8.0</ele><time>2026-04-27T06:49:08.001Z</time></trkpt><trkpt lat="14.440494267736883" lon="120.9254143605228"><ele>8.0</ele><time>2026-04-27T06:49:09.001Z</time></trkpt><trkpt lat="14.440417464283021" lon="120.92544717435062"><ele>7.999999999999999</ele><time>2026-04-27T06:49:11.001Z</time></trkpt><trkpt lat="14.440353861167127" lon="120.92547633737605"><ele>8.0</ele><time>2026-04-27T06:49:20.001Z</time></trkpt><trkpt lat="14.44028784083572" lon="120.92549013053794"><ele>8.0</ele><time>2026-04-27T06:49:27.001Z</time></trkpt><trkpt lat="14.440222496203429" lon="120.9254218907209"><ele>8.166666666666666</ele><time>2026-04-27T06:49:29.001Z</time></trkpt><trkpt lat="14.440187681332574" lon="120.92534065021067"><ele>8.333333333333332</ele><time>2026-04-27T06:49:30.001Z</time></trkpt><trkpt lat="14.440144643342911" lon="120.92526172566197"><ele>8.5</ele><time>2026-04-27T06:49:31.001Z</time></trkpt><trkpt lat="14.440114902289425" lon="120.92519607210434"><ele>8.666666666666666</ele><time>2026-04-27T06:49:32.001Z</time></trkpt><trkpt lat="14.440076667164211" lon="120.92512374287298"><ele>8.833333333333334</ele><time>2026-04-27T06:49:33.001Z</time></trkpt><trkpt lat="14.440052775379188" lon="120.92505865451099"><ele>9.0</ele><time>2026-04-27T06:49:34.001Z</time></trkpt><trkpt lat="14.439919123984945" lon="120.92494247057483"><ele>8.6</ele><time>2026-04-27T06:49:35.001Z</time></trkpt><trkpt lat="14.43985114062503" lon="120.92485448135862"><ele>8.2</ele><time>2026-04-27T06:49:36.001Z</time></trkpt><trkpt lat="14.439782718419794" lon="120.92476708186713"><ele>7.799999999999999</ele><time>2026-04-27T06:49:37.001Z</time></trkpt><trkpt lat="14.439711256221745" lon="120.92467774508837"><ele>7.3999999999999995</ele><time>2026-04-27T06:49:38.001Z</time></trkpt><trkpt lat="14.439638362173477" lon="120.92458400274342"><ele>7.0</ele><time>2026-04-27T06:49:39.001Z</time></trkpt><trkpt lat="14.43956815633068" lon="120.92448595338863"><ele>6.8</ele><time>2026-04-27T06:49:40.001Z</time></trkpt><trkpt lat="14.439500609314207" lon="120.92438970767179"><ele>6.6</ele><time>2026-04-27T06:49:41.001Z</time></trkpt><trkpt lat="14.439435587979823" lon="120.92430115304235"><ele>6.3999999999999995</ele><time>2026-04-27T06:49:42.001Z</time></trkpt><trkpt lat="14.4393731536698" lon="120.92421898305261"><ele>6.199999999999999</ele><time>2026-04-27T06:49:43.001Z</time></trkpt><trkpt lat="14.439311934323888" lon="120.92414018987206"><ele>6.0</ele><time>2026-04-27T06:49:44.001Z</time></trkpt><trkpt lat="14.439256298694072" lon="120.92406585802725"><ele>6.0</ele><time>2026-04-27T06:49:45.001Z</time></trkpt><trkpt lat="14.43920923704183" lon="120.92400032250741"><ele>6.0</ele><time>2026-04-27T06:49:46.001Z</time></trkpt><trkpt lat="14.43916285216378" lon="120.92394633602247"><ele>6.0</ele><time>2026-04-27T06:49:47.001Z</time></trkpt><trkpt lat="14.439097198207248" lon="120.9238644537683"><ele>6.0</ele><time>2026-04-27T06:49:49.001Z</time></trkpt><trkpt lat="14.439064662435747" lon="120.92379541355251"><ele>6.0</ele><time>2026-04-27T06:49:52.001Z</time></trkpt><trkpt lat="14.439080737982083" lon="120.92371652010661"><ele>6.0</ele><time>2026-04-27T06:49:57.002Z</time></trkpt><trkpt lat="14.439079712488763" lon="120.92364611383846"><ele>5.999999999999999</ele><time>2026-04-27T06:50:01.002Z</time></trkpt><trkpt lat="14.43907265868755" lon="120.92357499543077"><ele>6.0</ele><time>2026-04-27T06:50:05.002Z</time></trkpt><trkpt lat="14.43904585015854" lon="120.92350826368748"><ele>6.0</ele><time>2026-04-27T06:52:10.002Z</time></trkpt><trkpt lat="14.43898220137072" lon="120.92349709622455"><ele>6.0</ele><time>2026-04-27T06:56:08.001Z</time></trkpt><trkpt lat="14.438892822947768" lon="120.92350050715928"><ele>6.0</ele><time>2026-04-27T06:56:10.002Z</time></trkpt><trkpt lat="14.438819425232932" lon="120.9235113259205"><ele>5.999999999999999</ele><time>2026-04-27T06:56:13.002Z</time></trkpt><trkpt lat="14.438748677693617" lon="120.92351857771148"><ele>6.0</ele><time>2026-04-27T06:56:16.002Z</time></trkpt><trkpt lat="14.438628601865487" lon="120.92348447302308"><ele>6.0</ele><time>2026-04-27T06:56:18.002Z</time></trkpt><trkpt lat="14.438561623651943" lon="120.92347347456034"><ele>6.0</ele><time>2026-04-27T06:56:19.002Z</time></trkpt><trkpt lat="14.438483749564556" lon="120.92346662760326"><ele>6.0</ele><time>2026-04-27T06:56:20.002Z</time></trkpt><trkpt lat="14.438411674837667" lon="120.92345324879263"><ele>6.0</ele><time>2026-04-27T06:56:21.002Z</time></trkpt><trkpt lat="14.438342330979998" lon="120.92344697068091"><ele>6.0</ele><time>2026-04-27T06:56:22.002Z</time></trkpt><trkpt lat="14.438242926340282" lon="120.92343653401076"><ele>6.0</ele><time>2026-04-27T06:56:24.002Z</time></trkpt><trkpt lat="14.43817177696856" lon="120.9234250794234"><ele>6.0</ele><time>2026-04-27T06:56:26.002Z</time></trkpt><trkpt lat="14.438060838543214" lon="120.92340691277124"><ele>6.0</ele><time>2026-04-27T06:56:30.002Z</time></trkpt><trkpt lat="14.437995853258665" lon="120.92340201090497"><ele>6.0</ele><time>2026-04-27T06:56:31.002Z</time></trkpt><trkpt lat="14.437885201884542" lon="120.92339831141133"><ele>6.0</ele><time>2026-04-27T06:56:33.002Z</time></trkpt><trkpt lat="14.437806929936281" lon="120.92338915667588"><ele>6.0</ele><time>2026-04-27T06:56:34.002Z</time></trkpt><trkpt lat="14.437729464375538" lon="120.92337913046649"><ele>6.0</ele><time>2026-04-27T06:56:35.002Z</time></trkpt><trkpt lat="14.437649689751993" lon="120.92337171583551"><ele>5.8</ele><time>2026-04-27T06:56:36.002Z</time></trkpt><trkpt lat="14.437563207770335" lon="120.92336401441231"><ele>5.6</ele><time>2026-04-27T06:56:37.002Z</time></trkpt><trkpt lat="14.437475960899881" lon="120.92335604506253"><ele>5.4</ele><time>2026-04-27T06:56:38.002Z</time></trkpt><trkpt lat="14.437384724818774" lon="120.9233449165183"><ele>5.2</ele><time>2026-04-27T06:56:39.002Z</time></trkpt><trkpt lat="14.437290885851263" lon="120.92333442427214"><ele>5.0</ele><time>2026-04-27T06:56:40.002Z</time></trkpt><trkpt lat="14.437200355654804" lon="120.9233283565488"><ele>5.2</ele><time>2026-04-27T06:56:41.002Z</time></trkpt><trkpt lat="14.437103106676577" lon="120.92331755400464"><ele>5.4</ele><time>2026-04-27T06:56:42.002Z</time></trkpt><trkpt lat="14.437003460571972" lon="120.92330628720582"><ele>5.6</ele><time>2026-04-27T06:56:43.002Z</time></trkpt><trkpt lat="14.436901018040821" lon="120.92329153341085"><ele>5.8</ele><time>2026-04-27T06:56:44.002Z</time></trkpt><trkpt lat="14.436799136434665" lon="120.9232793022432"><ele>6.0</ele><time>2026-04-27T06:56:45.002Z</time></trkpt><trkpt lat="14.436699515077812" lon="120.92326901810365"><ele>6.0</ele><time>2026-04-27T06:56:46.002Z</time></trkpt><trkpt lat="14.43659880239633" lon="120.92324824720025"><ele>6.0</ele><time>2026-04-27T06:56:47.001Z</time></trkpt><trkpt lat="14.436504597767449" lon="120.92323418072537"><ele>6.0</ele><time>2026-04-27T06:56:48.001Z</time></trkpt><trkpt lat="14.436412128761118" lon="120.92321154815542"><ele>6.0</ele><time>2026-04-27T06:56:49.001Z</time></trkpt><trkpt lat="14.436315967888865" lon="120.923195508763"><ele>6.0</ele><time>2026-04-27T06:56:50.001Z</time></trkpt><trkpt lat="14.436220531198773" lon="120.92317193216162"><ele>6.4</ele><time>2026-04-27T06:56:51.001Z</time></trkpt><trkpt lat="14.436118082382615" lon="120.92314776341058"><ele>6.8</ele><time>2026-04-27T06:56:52.001Z</time></trkpt><trkpt lat="14.436016256357194" lon="120.92312519726097"><ele>7.200000000000001</ele><time>2026-04-27T06:56:53.001Z</time></trkpt><trkpt lat="14.435913712809548" lon="120.92309960925299"><ele>7.6000000000000005</ele><time>2026-04-27T06:56:54.001Z</time></trkpt><trkpt lat="14.435805879849603" lon="120.92307900561512"><ele>8.0</ele><time>2026-04-27T06:56:55.001Z</time></trkpt><trkpt lat="14.435700497864042" lon="120.92305803953509"><ele>8.0</ele><time>2026-04-27T06:56:56.001Z</time></trkpt><trkpt lat="14.435598871850326" lon="120.92303335880328"><ele>8.0</ele><time>2026-04-27T06:56:57.001Z</time></trkpt><trkpt lat="14.435494425195687" lon="120.92300619791557"><ele>8.0</ele><time>2026-04-27T06:56:58.001Z</time></trkpt><trkpt lat="14.435390204434963" lon="120.92298183371832"><ele>8.0</ele><time>2026-04-27T06:56:59.001Z</time></trkpt><trkpt lat="14.435291068549217" lon="120.92295646728701"><ele>8.0</ele><time>2026-04-27T06:57:00.001Z</time></trkpt><trkpt lat="14.435203702231401" lon="120.92293728112455"><ele>8.0</ele><time>2026-04-27T06:57:01.001Z</time></trkpt><trkpt lat="14.435126951793743" lon="120.92291386607181"><ele>8.0</ele><time>2026-04-27T06:57:02.001Z</time></trkpt><trkpt lat="14.43504078485299" lon="120.92289673773595"><ele>8.0</ele><time>2026-04-27T06:57:03.001Z</time></trkpt><trkpt lat="14.434948798394919" lon="120.92287129066895"><ele>8.0</ele><time>2026-04-27T06:57:04.001Z</time></trkpt><trkpt lat="14.434856667612637" lon="120.92285277452788"><ele>8.0</ele><time>2026-04-27T06:57:05.001Z</time></trkpt><trkpt lat="14.4347529885112" lon="120.92283692612361"><ele>8.0</ele><time>2026-04-27T06:57:06.001Z</time></trkpt><trkpt lat="14.434641709421467" lon="120.92281725539414"><ele>8.0</ele><time>2026-04-27T06:57:07.001Z</time></trkpt><trkpt lat="14.434533343424889" lon="120.92280483452289"><ele>8.0</ele><time>2026-04-27T06:57:08.001Z</time></trkpt><trkpt lat="14.434418700158329" lon="120.92279174144849"><ele>8.0</ele><time>2026-04-27T06:57:09.001Z</time></trkpt><trkpt lat="14.434300441221534" lon="120.92278587369957"><ele>7.5</ele><time>2026-04-27T06:57:10.001Z</time></trkpt><trkpt lat="14.434182533870473" lon="120.92278318173733"><ele>7.0</ele><time>2026-04-27T06:57:11.001Z</time></trkpt><trkpt lat="14.434064028992" lon="120.92278298096801"><ele>6.5</ele><time>2026-04-27T06:57:12.001Z</time></trkpt><trkpt lat="14.43394488518806" lon="120.9227846810462"><ele>6.0</ele><time>2026-04-27T06:57:13.001Z</time></trkpt><trkpt lat="14.43382305628999" lon="120.92276525864132"><ele>6.5</ele><time>2026-04-27T06:57:14.001Z</time></trkpt><trkpt lat="14.433700120304168" lon="120.92275965477816"><ele>7.0</ele><time>2026-04-27T06:57:15.001Z</time></trkpt><trkpt lat="14.433575270678269" lon="120.92275381098517"><ele>7.5</ele><time>2026-04-27T06:57:16.001Z</time></trkpt><trkpt lat="14.433448632061092" lon="120.92274788346604"><ele>8.0</ele><time>2026-04-27T06:57:17.001Z</time></trkpt><trkpt lat="14.433324652364197" lon="120.92274614172103"><ele>8.0</ele><time>2026-04-27T06:57:18.001Z</time></trkpt><trkpt lat="14.433194274097488" lon="120.92273219905066"><ele>8.0</ele><time>2026-04-27T06:57:19.001Z</time></trkpt><trkpt lat="14.433064511036376" lon="120.92270051433883"><ele>8.0</ele><time>2026-04-27T06:57:20.001Z</time></trkpt><trkpt lat="14.432935951889057" lon="120.9226844287967"><ele>8.0</ele><time>2026-04-27T06:57:21.001Z</time></trkpt><trkpt lat="14.432804912738433" lon="120.92266821966396"><ele>7.75</ele><time>2026-04-27T06:57:22.001Z</time></trkpt><trkpt lat="14.432675779708566" lon="120.92266753342581"><ele>7.5</ele><time>2026-04-27T06:57:23.001Z</time></trkpt><trkpt lat="14.43254635633679" lon="120.92264914726643"><ele>7.25</ele><time>2026-04-27T06:57:24.001Z</time></trkpt><trkpt lat="14.432425562951085" lon="120.92263700920515"><ele>7.0</ele><time>2026-04-27T06:57:25.001Z</time></trkpt><trkpt lat="14.432318202602378" lon="120.92262330027363"><ele>7.0</ele><time>2026-04-27T06:57:26.001Z</time></trkpt><trkpt lat="14.43221527276169" lon="120.9226109942937"><ele>6.999999999999999</ele><time>2026-04-27T06:57:27.001Z</time></trkpt><trkpt lat="14.43212274736313" lon="120.92259757983919"><ele>6.999999999999999</ele><time>2026-04-27T06:57:28.001Z</time></trkpt><trkpt lat="14.432025775787427" lon="120.92258791338682"><ele>7.0</ele><time>2026-04-27T06:57:29.001Z</time></trkpt><trkpt lat="14.431944217290193" lon="120.92256903935515"><ele>7.0</ele><time>2026-04-27T06:57:30.001Z</time></trkpt><trkpt lat="14.431863807600246" lon="120.92254414854105"><ele>7.333333333333334</ele><time>2026-04-27T06:57:31.001Z</time></trkpt><trkpt lat="14.43179091545949" lon="120.92251692638753"><ele>7.666666666666667</ele><time>2026-04-27T06:57:32.001Z</time></trkpt><trkpt lat="14.431712040265458" lon="120.92250593068546"><ele>8.0</ele><time>2026-04-27T06:57:33.001Z</time></trkpt><trkpt lat="14.431623975426678" lon="120.92251180831717"><ele>8.333333333333334</ele><time>2026-04-27T06:57:34.001Z</time></trkpt><trkpt lat="14.431533069632662" lon="120.92250498392917"><ele>8.666666666666666</ele><time>2026-04-27T06:57:35.001Z</time></trkpt><trkpt lat="14.431441924949414" lon="120.92250674351757"><ele>9.0</ele><time>2026-04-27T06:57:36.001Z</time></trkpt><trkpt lat="14.431358141417087" lon="120.9225097200381"><ele>9.2</ele><time>2026-04-27T06:57:37.001Z</time></trkpt><trkpt lat="14.43121879439792" lon="120.9225047608686"><ele>9.4</ele><time>2026-04-27T06:57:39.001Z</time></trkpt><trkpt lat="14.431139369104955" lon="120.92248779666488"><ele>9.6</ele><time>2026-04-27T06:57:40.001Z</time></trkpt><trkpt lat="14.43106224973705" lon="120.92248778612111"><ele>9.8</ele><time>2026-04-27T06:57:41.001Z</time></trkpt><trkpt lat="14.430971580642547" lon="120.9224564821946"><ele>10.0</ele><time>2026-04-27T06:57:42.001Z</time></trkpt><trkpt lat="14.430857715371769" lon="120.92248329673174"><ele>10.0</ele><time>2026-04-27T06:57:43.001Z</time></trkpt><trkpt lat="14.43075406821039" lon="120.9224636698722"><ele>10.0</ele><time>2026-04-27T06:57:44.001Z</time></trkpt><trkpt lat="14.43063956190935" lon="120.92245656397854"><ele>10.0</ele><time>2026-04-27T06:57:45.001Z</time></trkpt><trkpt lat="14.430536725408917" lon="120.92245002758838"><ele>10.0</ele><time>2026-04-27T06:57:46.001Z</time></trkpt><trkpt lat="14.43043506728289" lon="120.92244294165441"><ele>10.0</ele><time>2026-04-27T06:57:47.001Z</time></trkpt><trkpt lat="14.430331783976854" lon="120.92243485395979"><ele>9.8</ele><time>2026-04-27T06:57:48.001Z</time></trkpt><trkpt lat="14.430220739113945" lon="120.92242572698669"><ele>9.6</ele><time>2026-04-27T06:57:49.001Z</time></trkpt><trkpt lat="14.430102651199396" lon="120.92241602101062"><ele>9.4</ele><time>2026-04-27T06:57:50.001Z</time></trkpt><trkpt lat="14.429994289017314" lon="120.92241259964356"><ele>9.2</ele><time>2026-04-27T06:57:51.001Z</time></trkpt><trkpt lat="14.429887021651433" lon="120.92239198949363"><ele>9.0</ele><time>2026-04-27T06:57:52.001Z</time></trkpt><trkpt lat="14.429767751898838" lon="120.92237633793444"><ele>9.0</ele><time>2026-04-27T06:57:53.001Z</time></trkpt><trkpt lat="14.42965988240018" lon="120.92236201353286"><ele>9.0</ele><time>2026-04-27T06:57:54.001Z</time></trkpt><trkpt lat="14.429549003106471" lon="120.92235453847272"><ele>9.0</ele><time>2026-04-27T06:57:55.001Z</time></trkpt><trkpt lat="14.429444540427891" lon="120.92234370894062"><ele>9.0</ele><time>2026-04-27T06:57:56.001Z</time></trkpt><trkpt lat="14.429349749304281" lon="120.92233581723163"><ele>9.0</ele><time>2026-04-27T06:57:57.001Z</time></trkpt><trkpt lat="14.429259476273133" lon="120.92233122701262"><ele>9.0</ele><time>2026-04-27T06:57:58.001Z</time></trkpt><trkpt lat="14.429177916716947" lon="120.92232896237084"><ele>9.0</ele><time>2026-04-27T06:57:59.001Z</time></trkpt><trkpt lat="14.429092656944677" lon="120.92232467563998"><ele>9.0</ele><time>2026-04-27T06:58:00.001Z</time></trkpt><trkpt lat="14.428983256206784" lon="120.92230851341068"><ele>9.0</ele><time>2026-04-27T06:58:02.001Z</time></trkpt><trkpt lat="14.428892883475772" lon="120.92228695723463"><ele>9.0</ele><time>2026-04-27T06:58:04.001Z</time></trkpt><trkpt lat="14.428798780436606" lon="120.92228246127351"><ele>9.2</ele><time>2026-04-27T06:58:06.001Z</time></trkpt><trkpt lat="14.428698261939921" lon="120.92227241834789"><ele>9.4</ele><time>2026-04-27T06:58:08.001Z</time></trkpt><trkpt lat="14.428602067663238" lon="120.92226567313996"><ele>9.6</ele><time>2026-04-27T06:58:10.001Z</time></trkpt><trkpt lat="14.428512340141987" lon="120.92225952091708"><ele>9.8</ele><time>2026-04-27T06:58:12.001Z</time></trkpt><trkpt lat="14.428423208077318" lon="120.92225023944366"><ele>10.0</ele><time>2026-04-27T06:58:14.001Z</time></trkpt><trkpt lat="14.428315582610606" lon="120.92224812713411"><ele>10.0</ele><time>2026-04-27T06:58:16.001Z</time></trkpt><trkpt lat="14.428197242205236" lon="120.92226100786105"><ele>10.0</ele><time>2026-04-27T06:58:18.001Z</time></trkpt><trkpt lat="14.42812646000234" lon="120.92228479661908"><ele>10.0</ele><time>2026-04-27T06:58:19.001Z</time></trkpt><trkpt lat="14.428061580628144" lon="120.92227616890452"><ele>10.0</ele><time>2026-04-27T06:58:20.001Z</time></trkpt><trkpt lat="14.427957312943011" lon="120.92226631790705"><ele>10.0</ele><time>2026-04-27T06:58:22.001Z</time></trkpt><trkpt lat="14.42782515731994" lon="120.92226505374265"><ele>10.0</ele><time>2026-04-27T06:58:24.001Z</time></trkpt><trkpt lat="14.427754588836372" lon="120.92226808428217"><ele>10.0</ele><time>2026-04-27T06:58:25.001Z</time></trkpt><trkpt lat="14.427690207775546" lon="120.92227385271651"><ele>10.0</ele><time>2026-04-27T06:58:26.001Z</time></trkpt><trkpt lat="14.427585555430694" lon="120.92265430663338"><ele>10.166666666666668</ele><time>2026-04-27T06:58:27.002Z</time></trkpt><trkpt lat="14.427525877409664" lon="120.92268854810501"><ele>10.333333333333334</ele><time>2026-04-27T06:58:28.002Z</time></trkpt><trkpt lat="14.427461891359721" lon="120.92272609120415"><ele>10.5</ele><time>2026-04-27T06:58:29.002Z</time></trkpt><trkpt lat="14.427393226781707" lon="120.9227688402749"><ele>10.666666666666666</ele><time>2026-04-27T06:58:30.002Z</time></trkpt><trkpt lat="14.427321826403556" lon="120.92282591418885"><ele>10.833333333333332</ele><time>2026-04-27T06:58:31.002Z</time></trkpt><trkpt lat="14.427240845744649" lon="120.92288907763519"><ele>11.0</ele><time>2026-04-27T06:58:32.002Z</time></trkpt><trkpt lat="14.427148535877626" lon="120.9229517878691"><ele>10.8</ele><time>2026-04-27T06:58:33.002Z</time></trkpt><trkpt lat="14.427050314807442" lon="120.9230147894787"><ele>10.600000000000001</ele><time>2026-04-27T06:58:34.002Z</time></trkpt><trkpt lat="14.426957003338368" lon="120.92307320571001"><ele>10.4</ele><time>2026-04-27T06:58:35.002Z</time></trkpt><trkpt lat="14.42687360003846" lon="120.92312645479072"><ele>10.2</ele><time>2026-04-27T06:58:36.002Z</time></trkpt><trkpt lat="14.426782845622775" lon="120.92313243916712"><ele>10.0</ele><time>2026-04-27T06:58:37.002Z</time></trkpt><trkpt lat="14.42671622290762" lon="120.92316413664001"><ele>10.0</ele><time>2026-04-27T06:58:38.002Z</time></trkpt><trkpt lat="14.426647735682408" lon="120.92319672137731"><ele>10.0</ele><time>2026-04-27T06:58:39.002Z</time></trkpt><trkpt lat="14.42657593927606" lon="120.9232221174603"><ele>10.0</ele><time>2026-04-27T06:58:40.002Z</time></trkpt><trkpt lat="14.42649337704811" lon="120.9232206644385"><ele>10.0</ele><time>2026-04-27T06:58:41.002Z</time></trkpt><trkpt lat="14.426414453349892" lon="120.92321382924075"><ele>10.0</ele><time>2026-04-27T06:58:42.002Z</time></trkpt><trkpt lat="14.426349418611691" lon="120.92320635356108"><ele>10.0</ele><time>2026-04-27T06:58:43.002Z</time></trkpt><trkpt lat="14.426266092765571" lon="120.92321271896162"><ele>10.0</ele><time>2026-04-27T06:58:44.002Z</time></trkpt><trkpt lat="14.42619500652247" lon="120.92321030122037"><ele>10.0</ele><time>2026-04-27T06:58:45.002Z</time></trkpt><trkpt lat="14.426115807146127" lon="120.92321251864516"><ele>10.0</ele><time>2026-04-27T06:58:46.002Z</time></trkpt><trkpt lat="14.426009437318703" lon="120.92320733424962"><ele>10.0</ele><time>2026-04-27T06:58:48.002Z</time></trkpt><trkpt lat="14.425903780121613" lon="120.92321430025426"><ele>10.0</ele><time>2026-04-27T06:58:50.002Z</time></trkpt><trkpt lat="14.425836026424077" lon="120.9232152684911"><ele>10.0</ele><time>2026-04-27T06:58:51.002Z</time></trkpt><trkpt lat="14.425763656864216" lon="120.92321249415372"><ele>10.0</ele><time>2026-04-27T06:58:52.002Z</time></trkpt><trkpt lat="14.425681725051403" lon="120.92321156522674"><ele>10.0</ele><time>2026-04-27T06:58:53.001Z</time></trkpt><trkpt lat="14.425595635672169" lon="120.9232131393449"><ele>10.0</ele><time>2026-04-27T06:58:54.001Z</time></trkpt><trkpt lat="14.42550985509624" lon="120.92321057323224"><ele>10.0</ele><time>2026-04-27T06:58:55.001Z</time></trkpt><trkpt lat="14.425415542635578" lon="120.92321182478852"><ele>10.0</ele><time>2026-04-27T06:58:56.001Z</time></trkpt><trkpt lat="14.425322129718404" lon="120.92321337652989"><ele>10.0</ele><time>2026-04-27T06:58:57.001Z</time></trkpt><trkpt lat="14.425221109805959" lon="120.92321107616435"><ele>10.4</ele><time>2026-04-27T06:58:58.001Z</time></trkpt><trkpt lat="14.42512180069392" lon="120.9232095940909"><ele>10.8</ele><time>2026-04-27T06:58:59.001Z</time></trkpt><trkpt lat="14.42502107713537" lon="120.92321337074979"><ele>11.2</ele><time>2026-04-27T06:59:00.001Z</time></trkpt><trkpt lat="14.424925025583354" lon="120.92320762517524"><ele>11.6</ele><time>2026-04-27T06:59:01.001Z</time></trkpt><trkpt lat="14.424824743057146" lon="120.92321347101999"><ele>12.0</ele><time>2026-04-27T06:59:02.001Z</time></trkpt><trkpt lat="14.424724894942297" lon="120.92321357262138"><ele>12.0</ele><time>2026-04-27T06:59:03.001Z</time></trkpt><trkpt lat="14.424624522255073" lon="120.92321363412204"><ele>12.0</ele><time>2026-04-27T06:59:04.001Z</time></trkpt><trkpt lat="14.424520462629774" lon="120.92321329231363"><ele>12.0</ele><time>2026-04-27T06:59:05.001Z</time></trkpt><trkpt lat="14.424423577298741" lon="120.92321637521556"><ele>12.0</ele><time>2026-04-27T06:59:06.001Z</time></trkpt><trkpt lat="14.424318763710064" lon="120.92321917911245"><ele>12.0</ele><time>2026-04-27T06:59:07.001Z</time></trkpt><trkpt lat="14.424214654890699" lon="120.92322015307327"><ele>12.0</ele><time>2026-04-27T06:59:08.001Z</time></trkpt><trkpt lat="14.424114490121026" lon="120.92321512251534"><ele>12.0</ele><time>2026-04-27T06:59:09.001Z</time></trkpt><trkpt lat="14.424020749443768" lon="120.92322206576179"><ele>12.0</ele><time>2026-04-27T06:59:10.001Z</time></trkpt><trkpt lat="14.423930298922834" lon="120.9232294940309"><ele>12.0</ele><time>2026-04-27T06:59:11.001Z</time></trkpt><trkpt lat="14.423844486442102" lon="120.9232354266641"><ele>12.0</ele><time>2026-04-27T06:59:12.001Z</time></trkpt><trkpt lat="14.423753067067045" lon="120.92324623097163"><ele>11.833333333333334</ele><time>2026-04-27T06:59:13.001Z</time></trkpt><trkpt lat="14.423670566512532" lon="120.92325190868405"><ele>11.666666666666666</ele><time>2026-04-27T06:59:14.001Z</time></trkpt><trkpt lat="14.423582887976956" lon="120.92325699460658"><ele>11.5</ele><time>2026-04-27T06:59:15.001Z</time></trkpt><trkpt lat="14.423490288183864" lon="120.92326059107306"><ele>11.333333333333332</ele><time>2026-04-27T06:59:16.001Z</time></trkpt><trkpt lat="14.423397118225514" lon="120.9232737640491"><ele>11.166666666666666</ele><time>2026-04-27T06:59:17.001Z</time></trkpt><trkpt lat="14.423313494414781" lon="120.92328695439909"><ele>11.0</ele><time>2026-04-27T06:59:18.001Z</time></trkpt><trkpt lat="14.423241040097738" lon="120.92328431745119"><ele>11.0</ele><time>2026-04-27T06:59:19.001Z</time></trkpt><trkpt lat="14.42316709355398" lon="120.92329584450854"><ele>11.0</ele><time>2026-04-27T06:59:20.001Z</time></trkpt><trkpt lat="14.423156908254807" lon="120.92337703394688"><ele>11.0</ele><time>2026-04-27T08:48:50Z</time></trkpt><trkpt lat="14.423104420322113" lon="120.92341758498384"><ele>11.0</ele><time>2026-04-27T09:02:39.001Z</time></trkpt><trkpt lat="14.423040685341379" lon="120.9234268539702"><ele>11.0</ele><time>2026-04-27T09:03:23.999Z</time></trkpt><trkpt lat="14.423103426045145" lon="120.92342053433703"><ele>11.0</ele><time>2026-04-27T09:07:38.001Z</time></trkpt><trkpt lat="14.423159034764618" lon="120.92338157651758"><ele>11.0</ele><time>2026-04-27T09:43:47.001Z</time></trkpt><trkpt lat="14.423148480952651" lon="120.92331727738151"><ele>11.0</ele><time>2026-04-27T09:51:39Z</time></trkpt><trkpt lat="14.423048509877594" lon="120.92328942879517"><ele>11.0</ele><time>2026-04-27T09:51:42Z</time></trkpt><trkpt lat="14.422935455044657" lon="120.92332310961385"><ele>11.0</ele><time>2026-04-27T09:51:44Z</time></trkpt><trkpt lat="14.422867009951492" lon="120.92333736470029"><ele>11.0</ele><time>2026-04-27T09:51:45Z</time></trkpt><trkpt lat="14.422802996660238" lon="120.92334757210824"><ele>11.0</ele><time>2026-04-27T09:51:46Z</time></trkpt><trkpt lat="14.422729375566202" lon="120.92336424919733"><ele>11.0</ele><time>2026-04-27T09:51:47Z</time></trkpt><trkpt lat="14.422651196700132" lon="120.92337498786758"><ele>11.0</ele><time>2026-04-27T09:51:48Z</time></trkpt><trkpt lat="14.422572609419882" lon="120.92339021411993"><ele>11.0</ele><time>2026-04-27T09:51:49Z</time></trkpt><trkpt lat="14.422497330834396" lon="120.92340282059668"><ele>11.0</ele><time>2026-04-27T09:51:50Z</time></trkpt><trkpt lat="14.4224215909444" lon="120.92341267257818"><ele>11.0</ele><time>2026-04-27T09:51:51Z</time></trkpt><trkpt lat="14.422331362524055" lon="120.92342410219655"><ele>11.0</ele><time>2026-04-27T09:51:52Z</time></trkpt><trkpt lat="14.422246414260938" lon="120.92343659537765"><ele>11.0</ele><time>2026-04-27T09:51:53Z</time></trkpt><trkpt lat="14.4221627132789" lon="120.92344938256726"><ele>10.8</ele><time>2026-04-27T09:51:54Z</time></trkpt><trkpt lat="14.422088589258232" lon="120.92346332931194"><ele>10.600000000000001</ele><time>2026-04-27T09:51:55Z</time></trkpt><trkpt lat="14.421996382620172" lon="120.92347749480102"><ele>10.4</ele><time>2026-04-27T09:51:56Z</time></trkpt><trkpt lat="14.42190147731888" lon="120.92348946471104"><ele>10.2</ele><time>2026-04-27T09:51:57Z</time></trkpt><trkpt lat="14.421799445489446" lon="120.92350461213914"><ele>10.0</ele><time>2026-04-27T09:51:58Z</time></trkpt><trkpt lat="14.421695223678746" lon="120.92351310695913"><ele>10.0</ele><time>2026-04-27T09:51:59Z</time></trkpt><trkpt lat="14.421589300678653" lon="120.92351558362066"><ele>10.0</ele><time>2026-04-27T09:52:00Z</time></trkpt><trkpt lat="14.421483595661872" lon="120.92351954802929"><ele>10.0</ele><time>2026-04-27T09:52:01Z</time></trkpt><trkpt lat="14.421387119128447" lon="120.92351411301156"><ele>10.0</ele><time>2026-04-27T09:52:02Z</time></trkpt><trkpt lat="14.421282042806563" lon="120.92352097387237"><ele>10.0</ele><time>2026-04-27T09:52:03Z</time></trkpt><trkpt lat="14.421193209183514" lon="120.92351650123001"><ele>10.0</ele><time>2026-04-27T09:52:04Z</time></trkpt><trkpt lat="14.421109031957958" lon="120.92351595269385"><ele>10.0</ele><time>2026-04-27T09:52:05Z</time></trkpt><trkpt lat="14.4210229530682" lon="120.9235203929597"><ele>10.0</ele><time>2026-04-27T09:52:06Z</time></trkpt><trkpt lat="14.420938299388519" lon="120.92352701169"><ele>10.0</ele><time>2026-04-27T09:52:07Z</time></trkpt><trkpt lat="14.420848346223714" lon="120.92352830242011"><ele>10.0</ele><time>2026-04-27T09:52:08Z</time></trkpt><trkpt lat="14.420764563391923" lon="120.92352873867802"><ele>10.0</ele><time>2026-04-27T09:52:09Z</time></trkpt><trkpt lat="14.420679932800109" lon="120.92353077338126"><ele>10.0</ele><time>2026-04-27T09:52:10Z</time></trkpt><trkpt lat="14.420598445509277" lon="120.92353365862691"><ele>10.0</ele><time>2026-04-27T09:52:11Z</time></trkpt><trkpt lat="14.420524593201021" lon="120.92352924654048"><ele>10.0</ele><time>2026-04-27T09:52:12Z</time></trkpt><trkpt lat="14.420457624200761" lon="120.92352659780605"><ele>10.0</ele><time>2026-04-27T09:52:13Z</time></trkpt><trkpt lat="14.420380477240272" lon="120.92352838221325"><ele>10.0</ele><time>2026-04-27T09:52:14Z</time></trkpt><trkpt lat="14.420303234040743" lon="120.92352939021727"><ele>10.0</ele><time>2026-04-27T09:52:15Z</time></trkpt><trkpt lat="14.42021551315523" lon="120.92353399827707"><ele>10.2</ele><time>2026-04-27T09:52:16Z</time></trkpt><trkpt lat="14.42012545033039" lon="120.92354186023755"><ele>10.4</ele><time>2026-04-27T09:52:17Z</time></trkpt><trkpt lat="14.420030488857881" lon="120.9235587381633"><ele>10.600000000000001</ele><time>2026-04-27T09:52:18Z</time></trkpt><trkpt lat="14.419932679589627" lon="120.92357283624203"><ele>10.8</ele><time>2026-04-27T09:52:19Z</time></trkpt><trkpt lat="14.419830777231672" lon="120.92358219132139"><ele>11.0</ele><time>2026-04-27T09:52:20Z</time></trkpt><trkpt lat="14.419727074372187" lon="120.92358332763327"><ele>11.5</ele><time>2026-04-27T09:52:21Z</time></trkpt><trkpt lat="14.419616068185757" lon="120.92359019230848"><ele>12.0</ele><time>2026-04-27T09:52:22Z</time></trkpt><trkpt lat="14.419495142583058" lon="120.92361407727172"><ele>12.5</ele><time>2026-04-27T09:52:23Z</time></trkpt><trkpt lat="14.41938291807933" lon="120.92362624886415"><ele>13.0</ele><time>2026-04-27T09:52:24Z</time></trkpt><trkpt lat="14.419272847121052" lon="120.92363903262088"><ele>13.0</ele><time>2026-04-27T09:52:25Z</time></trkpt><trkpt lat="14.419161233609394" lon="120.92364556765727"><ele>13.0</ele><time>2026-04-27T09:52:26Z</time></trkpt><trkpt lat="14.419039451725283" lon="120.92365324226873"><ele>13.0</ele><time>2026-04-27T09:52:27Z</time></trkpt><trkpt lat="14.418911564411173" lon="120.92365574674328"><ele>13.0</ele><time>2026-04-27T09:52:28Z</time></trkpt><trkpt lat="14.418774736445085" lon="120.9236612825583"><ele>13.25</ele><time>2026-04-27T09:52:29Z</time></trkpt><trkpt lat="14.418656031830121" lon="120.92366242869929"><ele>13.5</ele><time>2026-04-27T09:52:30Z</time></trkpt><trkpt lat="14.418525658662276" lon="120.92366663302548"><ele>13.75</ele><time>2026-04-27T09:52:31.001Z</time></trkpt><trkpt lat="14.418371980321758" lon="120.9236836748496"><ele>14.0</ele><time>2026-04-27T09:52:32.001Z</time></trkpt><trkpt lat="14.418226883240763" lon="120.92369634875894"><ele>14.0</ele><time>2026-04-27T09:52:33.001Z</time></trkpt><trkpt lat="14.418080510168222" lon="120.92371286939974"><ele>14.0</ele><time>2026-04-27T09:52:34.001Z</time></trkpt><trkpt lat="14.417937229257449" lon="120.92373401435475"><ele>14.0</ele><time>2026-04-27T09:52:35.001Z</time></trkpt><trkpt lat="14.417807274642756" lon="120.92373283283852"><ele>14.0</ele><time>2026-04-27T09:52:36.001Z</time></trkpt><trkpt lat="14.417659696650164" lon="120.92374935611134"><ele>14.0</ele><time>2026-04-27T09:52:37.001Z</time></trkpt><trkpt lat="14.417519006613574" lon="120.92375815802534"><ele>14.0</ele><time>2026-04-27T09:52:38.001Z</time></trkpt><trkpt lat="14.41740031104978" lon="120.92376860441195"><ele>14.0</ele><time>2026-04-27T09:52:39.001Z</time></trkpt><trkpt lat="14.417288629919387" lon="120.92377651894282"><ele>14.0</ele><time>2026-04-27T09:52:40.001Z</time></trkpt><trkpt lat="14.41718069370036" lon="120.92378489977251"><ele>13.799999999999999</ele><time>2026-04-27T09:52:41.001Z</time></trkpt><trkpt lat="14.417075740877932" lon="120.92379950754767"><ele>13.599999999999998</ele><time>2026-04-27T09:52:42.001Z</time></trkpt><trkpt lat="14.416994183313232" lon="120.92380358045828"><ele>13.4</ele><time>2026-04-27T09:52:43.001Z</time></trkpt><trkpt lat="14.41690705931412" lon="120.92381531631266"><ele>13.2</ele><time>2026-04-27T09:52:44.001Z</time></trkpt><trkpt lat="14.416826882925275" lon="120.92382534498029"><ele>13.0</ele><time>2026-04-27T09:52:45.001Z</time></trkpt><trkpt lat="14.416722496106898" lon="120.92381955741567"><ele>13.0</ele><time>2026-04-27T09:52:46.001Z</time></trkpt><trkpt lat="14.416623569721803" lon="120.92382778604387"><ele>13.0</ele><time>2026-04-27T09:52:47.001Z</time></trkpt><trkpt lat="14.416508044217391" lon="120.92383739537532"><ele>13.0</ele><time>2026-04-27T09:52:48.001Z</time></trkpt><trkpt lat="14.416394019704427" lon="120.92384853572246"><ele>13.0</ele><time>2026-04-27T09:52:49.001Z</time></trkpt><trkpt lat="14.416281052713968" lon="120.92386257401883"><ele>13.0</ele><time>2026-04-27T09:52:50.001Z</time></trkpt><trkpt lat="14.416166993816814" lon="120.92388899902453"><ele>13.0</ele><time>2026-04-27T09:52:51.001Z</time></trkpt><trkpt lat="14.416056084463037" lon="120.92388468205118"><ele>13.0</ele><time>2026-04-27T09:52:52.001Z</time></trkpt><trkpt lat="14.415939100523152" lon="120.92389528956741"><ele>13.0</ele><time>2026-04-27T09:52:53.001Z</time></trkpt><trkpt lat="14.415837728126652" lon="120.92391705439202"><ele>13.0</ele><time>2026-04-27T09:52:54.001Z</time></trkpt><trkpt lat="14.41573436158096" lon="120.923920796259"><ele>13.0</ele><time>2026-04-27T09:52:55.001Z</time></trkpt><trkpt lat="14.415632760012334" lon="120.92393051565853"><ele>13.0</ele><time>2026-04-27T09:52:56.001Z</time></trkpt><trkpt lat="14.415525366291957" lon="120.92394356136872"><ele>13.0</ele><time>2026-04-27T09:52:57.001Z</time></trkpt><trkpt lat="14.41541989473135" lon="120.92394246261854"><ele>13.0</ele><time>2026-04-27T09:52:58.001Z</time></trkpt><trkpt lat="14.415308861533243" lon="120.92393848763179"><ele>13.0</ele><time>2026-04-27T09:52:59.001Z</time></trkpt><trkpt lat="14.415197543573706" lon="120.92393985870642"><ele>13.0</ele><time>2026-04-27T09:53:00.001Z</time></trkpt><trkpt lat="14.415080075646083" lon="120.92394861091442"><ele>13.25</ele><time>2026-04-27T09:53:01.001Z</time></trkpt><trkpt lat="14.414959886441636" lon="120.92396125123086"><ele>13.5</ele><time>2026-04-27T09:53:02.001Z</time></trkpt><trkpt lat="14.414842995889266" lon="120.92397282261176"><ele>13.75</ele><time>2026-04-27T09:53:03.001Z</time></trkpt><trkpt lat="14.414730043421633" lon="120.92398542220667"><ele>14.0</ele><time>2026-04-27T09:53:04.001Z</time></trkpt><trkpt lat="14.41461168937175" lon="120.92400101373912"><ele>14.75</ele><time>2026-04-27T09:53:04.999Z</time></trkpt><trkpt lat="14.414508535664748" lon="120.92403019263031"><ele>15.5</ele><time>2026-04-27T09:53:05.999Z</time></trkpt><trkpt lat="14.414388917568278" lon="120.92404603113107"><ele>16.25</ele><time>2026-04-27T09:53:06.999Z</time></trkpt><trkpt lat="14.414283491112284" lon="120.92407757566355"><ele>17.0</ele><time>2026-04-27T09:53:07.999Z</time></trkpt><trkpt lat="14.41416968765985" lon="120.92411701959128"><ele>17.0</ele><time>2026-04-27T09:53:08.999Z</time></trkpt><trkpt lat="14.414056292878374" lon="120.92414048504364"><ele>17.0</ele><time>2026-04-27T09:53:09.999Z</time></trkpt><trkpt lat="14.413944065600536" lon="120.92416951997203"><ele>17.0</ele><time>2026-04-27T09:53:10.999Z</time></trkpt><trkpt lat="14.413830799027256" lon="120.92419994609848"><ele>17.0</ele><time>2026-04-27T09:53:11.999Z</time></trkpt><trkpt lat="14.413712368587078" lon="120.92423366678574"><ele>16.5</ele><time>2026-04-27T09:53:12.999Z</time></trkpt><trkpt lat="14.413592534271288" lon="120.9242611500453"><ele>16.0</ele><time>2026-04-27T09:53:13.999Z</time></trkpt><trkpt lat="14.413469009999412" lon="120.92426933814374"><ele>15.5</ele><time>2026-04-27T09:53:14.999Z</time></trkpt><trkpt lat="14.413349246693176" lon="120.92426281059929"><ele>15.0</ele><time>2026-04-27T09:53:15.999Z</time></trkpt><trkpt lat="14.413236089759115" lon="120.92425151306433"><ele>15.0</ele><time>2026-04-27T09:53:16.999Z</time></trkpt><trkpt lat="14.413129452939774" lon="120.92423744886837"><ele>15.0</ele><time>2026-04-27T09:53:17.999Z</time></trkpt><trkpt lat="14.413021082161293" lon="120.92422263327535"><ele>15.0</ele><time>2026-04-27T09:53:18.999Z</time></trkpt><trkpt lat="14.412908657145678" lon="120.92420508034107"><ele>15.0</ele><time>2026-04-27T09:53:19.999Z</time></trkpt><trkpt lat="14.41280282439717" lon="120.9241748617014"><ele>15.0</ele><time>2026-04-27T09:53:20.999Z</time></trkpt><trkpt lat="14.412696978442856" lon="120.92413821525456"><ele>15.25</ele><time>2026-04-27T09:53:21.999Z</time></trkpt><trkpt lat="14.412586483194753" lon="120.92410456631674"><ele>15.5</ele><time>2026-04-27T09:53:23Z</time></trkpt><trkpt lat="14.412474646576223" lon="120.92407088009308"><ele>15.75</ele><time>2026-04-27T09:53:24Z</time></trkpt><trkpt lat="14.412348477005807" lon="120.92405014884382"><ele>16.0</ele><time>2026-04-27T09:53:25Z</time></trkpt><trkpt lat="14.412220174653374" lon="120.924047172966"><ele>16.75</ele><time>2026-04-27T09:53:26Z</time></trkpt><trkpt lat="14.41208747576836" lon="120.92404050651268"><ele>17.5</ele><time>2026-04-27T09:53:27Z</time></trkpt><trkpt lat="14.41197309110384" lon="120.92402979929705"><ele>18.25</ele><time>2026-04-27T09:53:28Z</time></trkpt><trkpt lat="14.41184157089108" lon="120.92401912883498"><ele>19.0</ele><time>2026-04-27T09:53:29Z</time></trkpt><trkpt lat="14.411714144109919" lon="120.92400711393844"><ele>19.0</ele><time>2026-04-27T09:53:30Z</time></trkpt><trkpt lat="14.411582539094438" lon="120.92399671851014"><ele>19.0</ele><time>2026-04-27T09:53:31Z</time></trkpt><trkpt lat="14.411453547725575" lon="120.92398904328576"><ele>19.0</ele><time>2026-04-27T09:53:32Z</time></trkpt><trkpt lat="14.411323027642302" lon="120.92400324134027"><ele>19.0</ele><time>2026-04-27T09:53:33Z</time></trkpt><trkpt lat="14.41119818076969" lon="120.92400636693586"><ele>19.5</ele><time>2026-04-27T09:53:34Z</time></trkpt><trkpt lat="14.411071835292084" lon="120.92401671226702"><ele>20.0</ele><time>2026-04-27T09:53:35Z</time></trkpt><trkpt lat="14.410957228097683" lon="120.92402481004473"><ele>20.5</ele><time>2026-04-27T09:53:36Z</time></trkpt><trkpt lat="14.410845479693212" lon="120.92406229243461"><ele>21.0</ele><time>2026-04-27T09:53:37Z</time></trkpt><trkpt lat="14.410753261355941" lon="120.92409958277084"><ele>21.0</ele><time>2026-04-27T09:53:38Z</time></trkpt><trkpt lat="14.410656868361718" lon="120.92414759209788"><ele>21.0</ele><time>2026-04-27T09:53:39Z</time></trkpt><trkpt lat="14.410563340881502" lon="120.92418334474529"><ele>21.0</ele><time>2026-04-27T09:53:40Z</time></trkpt><trkpt lat="14.410479622882661" lon="120.92421741540967"><ele>21.0</ele><time>2026-04-27T09:53:41Z</time></trkpt><trkpt lat="14.410394940971297" lon="120.92425708062032"><ele>21.0</ele><time>2026-04-27T09:53:42Z</time></trkpt><trkpt lat="14.410316879498295" lon="120.92429736241266"><ele>20.6</ele><time>2026-04-27T09:53:43Z</time></trkpt><trkpt lat="14.41024005668977" lon="120.92433364109255"><ele>20.200000000000003</ele><time>2026-04-27T09:53:44Z</time></trkpt><trkpt lat="14.41015143027792" lon="120.9243780295942"><ele>19.799999999999997</ele><time>2026-04-27T09:53:45Z</time></trkpt><trkpt lat="14.410066070119571" lon="120.92441292987361"><ele>19.4</ele><time>2026-04-27T09:53:46Z</time></trkpt><trkpt lat="14.409973000493213" lon="120.92444543495414"><ele>19.0</ele><time>2026-04-27T09:53:47Z</time></trkpt><trkpt lat="14.409877267450389" lon="120.92448874210461"><ele>19.0</ele><time>2026-04-27T09:53:48Z</time></trkpt><trkpt lat="14.409784266902946" lon="120.9245277837492"><ele>19.0</ele><time>2026-04-27T09:53:49Z</time></trkpt><trkpt lat="14.409690388101907" lon="120.92456854204202"><ele>19.0</ele><time>2026-04-27T09:53:50Z</time></trkpt><trkpt lat="14.409606700232716" lon="120.9245998080101"><ele>19.0</ele><time>2026-04-27T09:53:51Z</time></trkpt><trkpt lat="14.409528361255042" lon="120.92462638450378"><ele>19.0</ele><time>2026-04-27T09:53:52Z</time></trkpt><trkpt lat="14.409464701300077" lon="120.92464364791891"><ele>19.0</ele><time>2026-04-27T09:53:53Z</time></trkpt><trkpt lat="14.409377885681803" lon="120.92465985750852"><ele>18.599999999999998</ele><time>2026-04-27T09:53:55Z</time></trkpt><trkpt lat="14.409293493601846" lon="120.92462003963058"><ele>18.2</ele><time>2026-04-27T09:53:57Z</time></trkpt><trkpt lat="14.409253582175864" lon="120.92452745340516"><ele>17.799999999999997</ele><time>2026-04-27T09:53:59Z</time></trkpt><trkpt lat="14.409260540773108" lon="120.92441029393169"><ele>17.4</ele><time>2026-04-27T09:54:01Z</time></trkpt><trkpt lat="14.409256447802422" lon="120.92432681047046"><ele>17.0</ele><time>2026-04-27T09:54:02Z</time></trkpt><trkpt lat="14.409241744454256" lon="120.92424490373779"><ele>16.666666666666668</ele><time>2026-04-27T09:54:03Z</time></trkpt><trkpt lat="14.409222480133822" lon="120.9241533424779"><ele>16.333333333333336</ele><time>2026-04-27T09:54:04Z</time></trkpt><trkpt lat="14.40920092519522" lon="120.92406207172316"><ele>16.0</ele><time>2026-04-27T09:54:05Z</time></trkpt><trkpt lat="14.409185092273509" lon="120.92397602074386"><ele>15.666666666666668</ele><time>2026-04-27T09:54:06Z</time></trkpt><trkpt lat="14.409173577927058" lon="120.92390226679248"><ele>15.333333333333334</ele><time>2026-04-27T09:54:07Z</time></trkpt><trkpt lat="14.409159712428991" lon="120.92382245935958"><ele>15.0</ele><time>2026-04-27T09:54:08Z</time></trkpt><trkpt lat="14.409145893215719" lon="120.92374041986811"><ele>15.0</ele><time>2026-04-27T09:54:09Z</time></trkpt><trkpt lat="14.409138877741157" lon="120.92366143600147"><ele>15.0</ele><time>2026-04-27T09:54:10Z</time></trkpt><trkpt lat="14.409129111681226" lon="120.92357331854832"><ele>15.0</ele><time>2026-04-27T09:54:11Z</time></trkpt><trkpt lat="14.409112862725847" lon="120.9234786157146"><ele>15.0</ele><time>2026-04-27T09:54:12Z</time></trkpt><trkpt lat="14.409090844676136" lon="120.92337337545801"><ele>15.0</ele><time>2026-04-27T09:54:13Z</time></trkpt><trkpt lat="14.409076004108273" lon="120.92327577113055"><ele>15.166666666666666</ele><time>2026-04-27T09:54:14Z</time></trkpt><trkpt lat="14.409058558260716" lon="120.92319420994515"><ele>15.333333333333332</ele><time>2026-04-27T09:54:15Z</time></trkpt><trkpt lat="14.409047221669164" lon="120.92310914665946"><ele>15.5</ele><time>2026-04-27T09:54:17Z</time></trkpt><trkpt lat="14.409033539086503" lon="120.9230255445284"><ele>15.666666666666666</ele><time>2026-04-27T09:54:20Z</time></trkpt><trkpt lat="14.409018146516015" lon="120.92293588065678"><ele>15.833333333333332</ele><time>2026-04-27T09:54:22Z</time></trkpt><trkpt lat="14.409006398172941" lon="120.92284651849221"><ele>16.0</ele><time>2026-04-27T09:54:24Z</time></trkpt><trkpt lat="14.408992336708366" lon="120.92277688126501"><ele>15.999999999999998</ele><time>2026-04-27T09:54:26Z</time></trkpt><trkpt lat="14.408979785001726" lon="120.92268649107056"><ele>16.0</ele><time>2026-04-27T09:54:28Z</time></trkpt><trkpt lat="14.408952251038702" lon="120.92259734300333"><ele>16.0</ele><time>2026-04-27T09:54:30Z</time></trkpt><trkpt lat="14.408907583175516" lon="120.92252906236283"><ele>16.0</ele><time>2026-04-27T09:54:32Z</time></trkpt><trkpt lat="14.408850099613806" lon="120.92246246594443"><ele>15.999999999999998</ele><time>2026-04-27T09:54:34Z</time></trkpt><trkpt lat="14.40877467559728" lon="120.92243791465053"><ele>16.0</ele><time>2026-04-27T09:54:36Z</time></trkpt><trkpt lat="14.408709000575271" lon="120.92242362500345"><ele>15.999999999999998</ele><time>2026-04-27T09:54:38Z</time></trkpt><trkpt lat="14.408622813579594" lon="120.92240454506104"><ele>16.0</ele><time>2026-04-27T09:54:42.001Z</time></trkpt><trkpt lat="14.408550929087045" lon="120.92236326122188"><ele>16.0</ele><time>2026-04-27T09:54:45.001Z</time></trkpt><trkpt lat="14.408504834637192" lon="120.92229481056094"><ele>16.0</ele><time>2026-04-27T09:54:48.001Z</time></trkpt><trkpt lat="14.408480416106945" lon="120.92220016196416"><ele>15.999999999999998</ele><time>2026-04-27T09:54:51.001Z</time></trkpt><trkpt lat="14.408463521169498" lon="120.922120873001"><ele>16.0</ele><time>2026-04-27T09:54:54.001Z</time></trkpt><trkpt lat="14.408446457656375" lon="120.92204472184989"><ele>15.999999999999998</ele><time>2026-04-27T09:55:01.001Z</time></trkpt><trkpt lat="14.408414177204154" lon="120.9219620149905"><ele>16.0</ele><time>2026-04-27T09:55:04.001Z</time></trkpt><trkpt lat="14.408395320176153" lon="120.92185803074526"><ele>16.0</ele><time>2026-04-27T09:55:06.001Z</time></trkpt><trkpt lat="14.408375217464428" lon="120.92179294507226"><ele>16.0</ele><time>2026-04-27T09:55:07.001Z</time></trkpt><trkpt lat="14.408351882159849" lon="120.92171652301454"><ele>15.999999999999998</ele><time>2026-04-27T09:55:08.001Z</time></trkpt><trkpt lat="14.408330021084806" lon="120.92163496595899"><ele>16.0</ele><time>2026-04-27T09:55:09.001Z</time></trkpt><trkpt lat="14.408313781761883" lon="120.9215499837617"><ele>16.285714285714285</ele><time>2026-04-27T09:55:10.001Z</time></trkpt><trkpt lat="14.408304174250558" lon="120.92146788040881"><ele>16.57142857142857</ele><time>2026-04-27T09:55:11Z</time></trkpt><trkpt lat="14.408296662060136" lon="120.92139920549901"><ele>16.857142857142858</ele><time>2026-04-27T09:55:12Z</time></trkpt><trkpt lat="14.408280669398062" lon="120.92132404232548"><ele>17.142857142857142</ele><time>2026-04-27T09:55:13Z</time></trkpt><trkpt lat="14.408262560034805" lon="120.9212442747573"><ele>17.42857142857143</ele><time>2026-04-27T09:55:14Z</time></trkpt><trkpt lat="14.4082445206972" lon="120.92117491348019"><ele>17.714285714285715</ele><time>2026-04-27T09:55:15Z</time></trkpt><trkpt lat="14.408224744317844" lon="120.92111232667584"><ele>18.0</ele><time>2026-04-27T09:55:16Z</time></trkpt><trkpt lat="14.408205857330968" lon="120.9210282601288"><ele>18.0</ele><time>2026-04-27T09:55:18Z</time></trkpt><trkpt lat="14.408186534732197" lon="120.92095509409464"><ele>18.0</ele><time>2026-04-27T09:55:20Z</time></trkpt><trkpt lat="14.408154249968245" lon="120.92083461073685"><ele>18.0</ele><time>2026-04-27T09:55:22Z</time></trkpt><trkpt lat="14.408146546464122" lon="120.92076216330408"><ele>18.0</ele><time>2026-04-27T09:55:23Z</time></trkpt><trkpt lat="14.408134859179933" lon="120.92067717860147"><ele>18.0</ele><time>2026-04-27T09:55:24Z</time></trkpt><trkpt lat="14.408121694592273" lon="120.92058481694201"><ele>18.0</ele><time>2026-04-27T09:55:25Z</time></trkpt><trkpt lat="14.408100300425046" lon="120.92048027847983"><ele>17.75</ele><time>2026-04-27T09:55:26Z</time></trkpt><trkpt lat="14.408083606729571" lon="120.92036667127307"><ele>17.5</ele><time>2026-04-27T09:55:27Z</time></trkpt><trkpt lat="14.408072919565361" lon="120.92024324301029"><ele>17.25</ele><time>2026-04-27T09:55:28Z</time></trkpt><trkpt lat="14.408064724380685" lon="120.92011541329708"><ele>17.0</ele><time>2026-04-27T09:55:29Z</time></trkpt><trkpt lat="14.40805746415925" lon="120.91997737583276"><ele>16.75</ele><time>2026-04-27T09:55:30Z</time></trkpt><trkpt lat="14.408053616540569" lon="120.91983575824642"><ele>16.5</ele><time>2026-04-27T09:55:31Z</time></trkpt><trkpt lat="14.408049462688618" lon="120.9196917001737"><ele>16.25</ele><time>2026-04-27T09:55:32Z</time></trkpt><trkpt lat="14.408044459586346" lon="120.9195399546992"><ele>16.0</ele><time>2026-04-27T09:55:33Z</time></trkpt><trkpt lat="14.408037372346671" lon="120.919391016251"><ele>16.0</ele><time>2026-04-27T09:55:34Z</time></trkpt><trkpt lat="14.408031577718104" lon="120.91923933625064"><ele>16.0</ele><time>2026-04-27T09:55:35Z</time></trkpt><trkpt lat="14.408025445673786" lon="120.91908551446994"><ele>16.0</ele><time>2026-04-27T09:55:36Z</time></trkpt><trkpt lat="14.408020557236707" lon="120.91892887202877"><ele>16.0</ele><time>2026-04-27T09:55:37Z</time></trkpt><trkpt lat="14.408010135483629" lon="120.91877038836614"><ele>16.0</ele><time>2026-04-27T09:55:38Z</time></trkpt><trkpt lat="14.407998963777422" lon="120.91861990490732"><ele>16.0</ele><time>2026-04-27T09:55:39Z</time></trkpt><trkpt lat="14.407989354742934" lon="120.91847633127517"><ele>16.0</ele><time>2026-04-27T09:55:40Z</time></trkpt><trkpt lat="14.407981963310268" lon="120.91834357160185"><ele>16.0</ele><time>2026-04-27T09:55:41Z</time></trkpt><trkpt lat="14.407975112172103" lon="120.91820928748136"><ele>16.400000000000002</ele><time>2026-04-27T09:55:42Z</time></trkpt><trkpt lat="14.407971158928493" lon="120.91808724258406"><ele>16.8</ele><time>2026-04-27T09:55:43Z</time></trkpt><trkpt lat="14.407965425844502" lon="120.91796690040532"><ele>17.200000000000003</ele><time>2026-04-27T09:55:44Z</time></trkpt><trkpt lat="14.407943200138623" lon="120.91786372904384"><ele>17.6</ele><time>2026-04-27T09:55:45Z</time></trkpt><trkpt lat="14.40791157494787" lon="120.91777582453447"><ele>18.0</ele><time>2026-04-27T09:55:46Z</time></trkpt><trkpt lat="14.407857618561161" lon="120.91769598870383"><ele>18.0</ele><time>2026-04-27T09:55:47Z</time></trkpt><trkpt lat="14.407779409011308" lon="120.91764032515547"><ele>18.0</ele><time>2026-04-27T09:55:48Z</time></trkpt><trkpt lat="14.407700834236186" lon="120.91759934959872"><ele>18.0</ele><time>2026-04-27T09:55:49Z</time></trkpt><trkpt lat="14.407603772700401" lon="120.91756728225457"><ele>18.0</ele><time>2026-04-27T09:55:50Z</time></trkpt><trkpt lat="14.407503389674515" lon="120.91754597722306"><ele>18.0</ele><time>2026-04-27T09:55:51Z</time></trkpt><trkpt lat="14.407391828742778" lon="120.91754643573391"><ele>17.75</ele><time>2026-04-27T09:55:52Z</time></trkpt><trkpt lat="14.407278149597458" lon="120.91756312335256"><ele>17.5</ele><time>2026-04-27T09:55:53Z</time></trkpt><trkpt lat="14.407160014519883" lon="120.9175932829144"><ele>17.25</ele><time>2026-04-27T09:55:54Z</time></trkpt><trkpt lat="14.407042233746822" lon="120.91762876054983"><ele>17.0</ele><time>2026-04-27T09:55:55Z</time></trkpt><trkpt lat="14.406917659564908" lon="120.91765893197159"><ele>17.0</ele><time>2026-04-27T09:55:56Z</time></trkpt><trkpt lat="14.406782819750426" lon="120.91769013945911"><ele>17.0</ele><time>2026-04-27T09:55:57Z</time></trkpt><trkpt lat="14.406651201772677" lon="120.91771960042902"><ele>17.0</ele><time>2026-04-27T09:55:58Z</time></trkpt><trkpt lat="14.406522264724774" lon="120.91774649735102"><ele>17.0</ele><time>2026-04-27T09:55:59Z</time></trkpt><trkpt lat="14.406408319631" lon="120.91776811946501"><ele>17.4</ele><time>2026-04-27T09:56:00Z</time></trkpt><trkpt lat="14.406295470503888" lon="120.91779198384518"><ele>17.799999999999997</ele><time>2026-04-27T09:56:01Z</time></trkpt><trkpt lat="14.406191222514451" lon="120.9178022812751"><ele>18.2</ele><time>2026-04-27T09:56:02Z</time></trkpt><trkpt lat="14.40608751395998" lon="120.91779480712768"><ele>18.599999999999998</ele><time>2026-04-27T09:56:03Z</time></trkpt><trkpt lat="14.405995744415128" lon="120.91777721938341"><ele>19.0</ele><time>2026-04-27T09:56:04Z</time></trkpt><trkpt lat="14.405908052899848" lon="120.91776189569863"><ele>19.0</ele><time>2026-04-27T09:56:05Z</time></trkpt><trkpt lat="14.405825397488787" lon="120.91772885257237"><ele>19.0</ele><time>2026-04-27T09:56:06Z</time></trkpt><trkpt lat="14.405748564252974" lon="120.91767504663281"><ele>19.0</ele><time>2026-04-27T09:56:07Z</time></trkpt><trkpt lat="14.405686479858996" lon="120.91761209108542"><ele>19.0</ele><time>2026-04-27T09:56:08Z</time></trkpt><trkpt lat="14.405620071191576" lon="120.91755571777587"><ele>19.0</ele><time>2026-04-27T09:56:09Z</time></trkpt><trkpt lat="14.405551026971972" lon="120.91752957419"><ele>19.0</ele><time>2026-04-27T09:56:10Z</time></trkpt><trkpt lat="14.405481311552867" lon="120.91752680925255"><ele>18.833333333333332</ele><time>2026-04-27T09:56:11Z</time></trkpt><trkpt lat="14.405404873387651" lon="120.91754697999528"><ele>18.666666666666664</ele><time>2026-04-27T09:56:12Z</time></trkpt><trkpt lat="14.405330535994443" lon="120.91758766467917"><ele>18.5</ele><time>2026-04-27T09:56:13Z</time></trkpt><trkpt lat="14.40527018245745" lon="120.91764367833211"><ele>18.333333333333332</ele><time>2026-04-27T09:56:14Z</time></trkpt><trkpt lat="14.405205730141638" lon="120.91770427988148"><ele>18.166666666666668</ele><time>2026-04-27T09:56:15Z</time></trkpt><trkpt lat="14.405129787390285" lon="120.9177490109667"><ele>18.0</ele><time>2026-04-27T09:56:16Z</time></trkpt><trkpt lat="14.405034883702063" lon="120.91777162722956"><ele>17.8</ele><time>2026-04-27T09:56:17Z</time></trkpt><trkpt lat="14.404930636993821" lon="120.91777479487088"><ele>17.6</ele><time>2026-04-27T09:56:18Z</time></trkpt><trkpt lat="14.404817828773805" lon="120.91776361768241"><ele>17.4</ele><time>2026-04-27T09:56:19Z</time></trkpt><trkpt lat="14.404704375809736" lon="120.91774990417288"><ele>17.2</ele><time>2026-04-27T09:56:20Z</time></trkpt><trkpt lat="14.40458904202667" lon="120.91773959621362"><ele>17.0</ele><time>2026-04-27T09:56:21Z</time></trkpt><trkpt lat="14.404488536025257" lon="120.91773342888432"><ele>17.0</ele><time>2026-04-27T09:56:22Z</time></trkpt><trkpt lat="14.4043984517832" lon="120.91773153467014"><ele>17.0</ele><time>2026-04-27T09:56:23Z</time></trkpt><trkpt lat="14.404313921207375" lon="120.91772248679334"><ele>17.0</ele><time>2026-04-27T09:56:24Z</time></trkpt><trkpt lat="14.404237635005213" lon="120.91770827192632"><ele>17.0</ele><time>2026-04-27T09:56:25.001Z</time></trkpt><trkpt lat="14.404168523463845" lon="120.91769766591499"><ele>17.0</ele><time>2026-04-27T09:56:26.001Z</time></trkpt><trkpt lat="14.404103346256939" lon="120.91768576567505"><ele>17.0</ele><time>2026-04-27T09:56:27.001Z</time></trkpt><trkpt lat="14.40403439412427" lon="120.91767357204718"><ele>17.0</ele><time>2026-04-27T09:56:28.001Z</time></trkpt><trkpt lat="14.403966285219605" lon="120.91766702834425"><ele>17.0</ele><time>2026-04-27T09:56:29.001Z</time></trkpt><trkpt lat="14.403900153660246" lon="120.91766004462104"><ele>17.0</ele><time>2026-04-27T09:56:30.001Z</time></trkpt><trkpt lat="14.403789670408944" lon="120.91766056186356"><ele>17.0</ele><time>2026-04-27T09:56:32.001Z</time></trkpt><trkpt lat="14.40365882927535" lon="120.91766536372168"><ele>17.0</ele><time>2026-04-27T09:56:34.001Z</time></trkpt><trkpt lat="14.403570660326858" lon="120.91766989227851"><ele>17.25</ele><time>2026-04-27T09:56:35.001Z</time></trkpt><trkpt lat="14.403466640122879" lon="120.91767069892146"><ele>17.5</ele><time>2026-04-27T09:56:36.001Z</time></trkpt><trkpt lat="14.40335124040769" lon="120.91767098523417"><ele>17.75</ele><time>2026-04-27T09:56:37.001Z</time></trkpt><trkpt lat="14.403229070031045" lon="120.91767152032858"><ele>18.0</ele><time>2026-04-27T09:56:38.001Z</time></trkpt><trkpt lat="14.403099376349546" lon="120.91766875187659"><ele>17.75</ele><time>2026-04-27T09:56:39.001Z</time></trkpt><trkpt lat="14.40296765453359" lon="120.91765878715005"><ele>17.5</ele><time>2026-04-27T09:56:40.001Z</time></trkpt><trkpt lat="14.40282570600809" lon="120.91764999095888"><ele>17.25</ele><time>2026-04-27T09:56:41.001Z</time></trkpt><trkpt lat="14.402672882743554" lon="120.9176472770772"><ele>17.0</ele><time>2026-04-27T09:56:42.001Z</time></trkpt><trkpt lat="14.402528290606986" lon="120.91763967199854"><ele>17.0</ele><time>2026-04-27T09:56:43.001Z</time></trkpt><trkpt lat="14.402373810959533" lon="120.9176333219334"><ele>17.0</ele><time>2026-04-27T09:56:44.001Z</time></trkpt><trkpt lat="14.402216952259456" lon="120.917627390672"><ele>17.0</ele><time>2026-04-27T09:56:45.001Z</time></trkpt><trkpt lat="14.40205471328946" lon="120.91762053925993"><ele>17.5</ele><time>2026-04-27T09:56:46.001Z</time></trkpt><trkpt lat="14.401901643324262" lon="120.91761621283791"><ele>18.0</ele><time>2026-04-27T09:56:47.001Z</time></trkpt><trkpt lat="14.401749195040695" lon="120.91761398392462"><ele>18.5</ele><time>2026-04-27T09:56:48.001Z</time></trkpt><trkpt lat="14.401606182777426" lon="120.91760380213172"><ele>19.0</ele><time>2026-04-27T09:56:49.001Z</time></trkpt><trkpt lat="14.401478796952203" lon="120.91757765118264"><ele>19.25</ele><time>2026-04-27T09:56:50.001Z</time></trkpt><trkpt lat="14.401351061261895" lon="120.9175393187445"><ele>19.5</ele><time>2026-04-27T09:56:51.001Z</time></trkpt><trkpt lat="14.401226077789426" lon="120.91749569815268"><ele>19.75</ele><time>2026-04-27T09:56:52.001Z</time></trkpt><trkpt lat="14.40111153852124" lon="120.9174536185082"><ele>20.0</ele><time>2026-04-27T09:56:53.001Z</time></trkpt><trkpt lat="14.401005914789954" lon="120.9174300330155"><ele>20.0</ele><time>2026-04-27T09:56:54.001Z</time></trkpt><trkpt lat="14.400896037566394" lon="120.91742843860597"><ele>20.0</ele><time>2026-04-27T09:56:55.001Z</time></trkpt><trkpt lat="14.40078915384961" lon="120.91744977388501"><ele>20.0</ele><time>2026-04-27T09:56:56.001Z</time></trkpt><trkpt lat="14.400682286485017" lon="120.91748815645128"><ele>20.0</ele><time>2026-04-27T09:56:57.001Z</time></trkpt><trkpt lat="14.400570636594002" lon="120.91752294136188"><ele>20.0</ele><time>2026-04-27T09:56:58.001Z</time></trkpt><trkpt lat="14.4004520727883" lon="120.9175562326815"><ele>20.0</ele><time>2026-04-27T09:56:59.001Z</time></trkpt><trkpt lat="14.400330077629553" lon="120.91758686733336"><ele>20.0</ele><time>2026-04-27T09:57:00.001Z</time></trkpt><trkpt lat="14.400204688019253" lon="120.91760837910554"><ele>20.0</ele><time>2026-04-27T09:57:01.001Z</time></trkpt><trkpt lat="14.400071417352047" lon="120.91762209454916"><ele>20.0</ele><time>2026-04-27T09:57:02.001Z</time></trkpt><trkpt lat="14.399930959175506" lon="120.91763645847884"><ele>20.0</ele><time>2026-04-27T09:57:03.001Z</time></trkpt><trkpt lat="14.399788466793286" lon="120.91764663232259"><ele>20.0</ele><time>2026-04-27T09:57:04.001Z</time></trkpt><trkpt lat="14.399638674735781" lon="120.91766091372267"><ele>20.0</ele><time>2026-04-27T09:57:05.001Z</time></trkpt><trkpt lat="14.399483989374149" lon="120.91767472406183"><ele>20.0</ele><time>2026-04-27T09:57:06.001Z</time></trkpt><trkpt lat="14.399325265986922" lon="120.91768695393831"><ele>19.666666666666668</ele><time>2026-04-27T09:57:07.001Z</time></trkpt><trkpt lat="14.399160922783327" lon="120.9176972982666"><ele>19.333333333333332</ele><time>2026-04-27T09:57:08.001Z</time></trkpt><trkpt lat="14.398998558496652" lon="120.91770367348069"><ele>19.0</ele><time>2026-04-27T09:57:09.001Z</time></trkpt><trkpt lat="14.398832038518194" lon="120.91770680310866"><ele>19.666666666666664</ele><time>2026-04-27T09:57:10.001Z</time></trkpt><trkpt lat="14.398660245635165" lon="120.91770648909687"><ele>20.333333333333332</ele><time>2026-04-27T09:57:11.001Z</time></trkpt><trkpt lat="14.398495477346414" lon="120.91770180520345"><ele>21.0</ele><time>2026-04-27T09:57:12.001Z</time></trkpt><trkpt lat="14.398327936782184" lon="120.91769975126218"><ele>21.0</ele><time>2026-04-27T09:57:13.001Z</time></trkpt><trkpt lat="14.39817028857799" lon="120.91769753236085"><ele>21.0</ele><time>2026-04-27T09:57:14.001Z</time></trkpt><trkpt lat="14.398019739377785" lon="120.91770050168245"><ele>21.0</ele><time>2026-04-27T09:57:15.001Z</time></trkpt><trkpt lat="14.397872253504774" lon="120.91770518028432"><ele>21.0</ele><time>2026-04-27T09:57:16.001Z</time></trkpt><trkpt lat="14.397722193544187" lon="120.91770870460874"><ele>21.0</ele><time>2026-04-27T09:57:17Z</time></trkpt><trkpt lat="14.397580035928321" lon="120.91770577407874"><ele>21.0</ele><time>2026-04-27T09:57:18Z</time></trkpt><trkpt lat="14.397435175387736" lon="120.91770282207797"><ele>21.0</ele><time>2026-04-27T09:57:19Z</time></trkpt><trkpt lat="14.397277984245747" lon="120.91770620980584"><ele>21.0</ele><time>2026-04-27T09:57:20Z</time></trkpt><trkpt lat="14.397132243846665" lon="120.91770236534201"><ele>21.0</ele><time>2026-04-27T09:57:21Z</time></trkpt><trkpt lat="14.396979698579129" lon="120.91770211138456"><ele>21.0</ele><time>2026-04-27T09:57:22Z</time></trkpt><trkpt lat="14.396823396570609" lon="120.91770168244406"><ele>21.0</ele><time>2026-04-27T09:57:23Z</time></trkpt><trkpt lat="14.396666169781236" lon="120.91769983712778"><ele>21.0</ele><time>2026-04-27T09:57:24Z</time></trkpt><trkpt lat="14.396507392370799" lon="120.91769140013739"><ele>21.0</ele><time>2026-04-27T09:57:25Z</time></trkpt><trkpt lat="14.396353354280235" lon="120.91767476139715"><ele>21.0</ele><time>2026-04-27T09:57:26Z</time></trkpt><trkpt lat="14.396190878329634" lon="120.91766820391277"><ele>21.0</ele><time>2026-04-27T09:57:27Z</time></trkpt><trkpt lat="14.396028564226445" lon="120.91767115188976"><ele>21.0</ele><time>2026-04-27T09:57:28Z</time></trkpt><trkpt lat="14.395855951218039" lon="120.91768738656377"><ele>21.0</ele><time>2026-04-27T09:57:29Z</time></trkpt><trkpt lat="14.395701511249376" lon="120.9177023648527"><ele>21.0</ele><time>2026-04-27T09:57:30Z</time></trkpt><trkpt lat="14.395539906396886" lon="120.9177207615003"><ele>21.0</ele><time>2026-04-27T09:57:31Z</time></trkpt><trkpt lat="14.395372713774925" lon="120.91772937239156"><ele>21.333333333333332</ele><time>2026-04-27T09:57:32Z</time></trkpt><trkpt lat="14.395201491514573" lon="120.9177355370872"><ele>21.666666666666664</ele><time>2026-04-27T09:57:33Z</time></trkpt><trkpt lat="14.395028049418942" lon="120.9177405261768"><ele>22.0</ele><time>2026-04-27T09:57:34Z</time></trkpt><trkpt lat="14.39487036411072" lon="120.91774044472679"><ele>22.0</ele><time>2026-04-27T09:57:35Z</time></trkpt><trkpt lat="14.394710278131775" lon="120.91774446341157"><ele>22.0</ele><time>2026-04-27T09:57:36Z</time></trkpt><trkpt lat="14.394569392670345" lon="120.91774745597654"><ele>22.0</ele><time>2026-04-27T09:57:37Z</time></trkpt><trkpt lat="14.394421361964259" lon="120.91775050173791"><ele>22.0</ele><time>2026-04-27T09:57:38Z</time></trkpt><trkpt lat="14.394275445156874" lon="120.91774783908298"><ele>22.0</ele><time>2026-04-27T09:57:39Z</time></trkpt><trkpt lat="14.39413090500973" lon="120.91774974439627"><ele>22.0</ele><time>2026-04-27T09:57:40Z</time></trkpt><trkpt lat="14.393987462227821" lon="120.91775648693185"><ele>22.0</ele><time>2026-04-27T09:57:41Z</time></trkpt><trkpt lat="14.393853626905464" lon="120.9177663630678"><ele>22.0</ele><time>2026-04-27T09:57:42Z</time></trkpt><trkpt lat="14.39372603075247" lon="120.9177767708716"><ele>22.0</ele><time>2026-04-27T09:57:43Z</time></trkpt><trkpt lat="14.393599962339552" lon="120.91778267862105"><ele>22.0</ele><time>2026-04-27T09:57:44Z</time></trkpt><trkpt lat="14.393471763285506" lon="120.91778491939655"><ele>22.0</ele><time>2026-04-27T09:57:45Z</time></trkpt><trkpt lat="14.393346652681805" lon="120.91778194799177"><ele>22.0</ele><time>2026-04-27T09:57:46Z</time></trkpt><trkpt lat="14.393219202055752" lon="120.91777474431831"><ele>22.0</ele><time>2026-04-27T09:57:47Z</time></trkpt><trkpt lat="14.393086341190092" lon="120.9177705725778"><ele>22.0</ele><time>2026-04-27T09:57:48Z</time></trkpt><trkpt lat="14.392950791470676" lon="120.917770576083"><ele>22.0</ele><time>2026-04-27T09:57:49Z</time></trkpt><trkpt lat="14.392820276634408" lon="120.91777869088678"><ele>22.0</ele><time>2026-04-27T09:57:50Z</time></trkpt><trkpt lat="14.392687046971485" lon="120.9177952793736"><ele>22.25</ele><time>2026-04-27T09:57:51Z</time></trkpt><trkpt lat="14.392553487406632" lon="120.91781149440276"><ele>22.5</ele><time>2026-04-27T09:57:52Z</time></trkpt><trkpt lat="14.392434073278423" lon="120.91782119869856"><ele>22.75</ele><time>2026-04-27T09:57:53Z</time></trkpt><trkpt lat="14.392299733408871" lon="120.91783050122652"><ele>23.0</ele><time>2026-04-27T09:57:54Z</time></trkpt><trkpt lat="14.392164159500433" lon="120.91783345306533"><ele>23.0</ele><time>2026-04-27T09:57:55Z</time></trkpt><trkpt lat="14.392027675956012" lon="120.91783683275095"><ele>23.0</ele><time>2026-04-27T09:57:56Z</time></trkpt><trkpt lat="14.39189459808832" lon="120.91784115238111"><ele>23.0</ele><time>2026-04-27T09:57:57Z</time></trkpt><trkpt lat="14.39176338178549" lon="120.91784129678054"><ele>23.0</ele><time>2026-04-27T09:57:58Z</time></trkpt><trkpt lat="14.391626498118724" lon="120.91785136768847"><ele>23.0</ele><time>2026-04-27T09:57:59Z</time></trkpt><trkpt lat="14.391471388221076" lon="120.91787876770516"><ele>23.0</ele><time>2026-04-27T09:58:00Z</time></trkpt><trkpt lat="14.391326197384693" lon="120.91792165594822"><ele>23.0</ele><time>2026-04-27T09:58:01Z</time></trkpt><trkpt lat="14.391171815686015" lon="120.91798706142116"><ele>23.25</ele><time>2026-04-27T09:58:02.001Z</time></trkpt><trkpt lat="14.391036617515756" lon="120.91804493492101"><ele>23.5</ele><time>2026-04-27T09:58:03.001Z</time></trkpt><trkpt lat="14.390914529536373" lon="120.9180955293194"><ele>23.75</ele><time>2026-04-27T09:58:04.001Z</time></trkpt><trkpt lat="14.39080106559146" lon="120.91813806264085"><ele>24.0</ele><time>2026-04-27T09:58:05.001Z</time></trkpt><trkpt lat="14.390692574689089" lon="120.91818378891264"><ele>24.0</ele><time>2026-04-27T09:58:06.001Z</time></trkpt><trkpt lat="14.390593353813461" lon="120.91823125953124"><ele>24.0</ele><time>2026-04-27T09:58:07.001Z</time></trkpt><trkpt lat="14.390492150012323" lon="120.91829539171721"><ele>24.0</ele><time>2026-04-27T09:58:08.001Z</time></trkpt><trkpt lat="14.390399336749509" lon="120.91838580642789"><ele>24.0</ele><time>2026-04-27T09:58:09.001Z</time></trkpt><trkpt lat="14.390304315832198" lon="120.9184847875652"><ele>24.0</ele><time>2026-04-27T09:58:10.001Z</time></trkpt><trkpt lat="14.390195421322014" lon="120.91858319546094"><ele>24.0</ele><time>2026-04-27T09:58:11.001Z</time></trkpt><trkpt lat="14.390079581788337" lon="120.91867153594153"><ele>24.0</ele><time>2026-04-27T09:58:12.001Z</time></trkpt><trkpt lat="14.389965479034892" lon="120.91874203388362"><ele>24.0</ele><time>2026-04-27T09:58:13.001Z</time></trkpt><trkpt lat="14.389849440137036" lon="120.91878148299499"><ele>24.0</ele><time>2026-04-27T09:58:14.001Z</time></trkpt><trkpt lat="14.389727928191288" lon="120.91879637013606"><ele>24.0</ele><time>2026-04-27T09:58:15.001Z</time></trkpt><trkpt lat="14.389592978991814" lon="120.91880206267459"><ele>24.0</ele><time>2026-04-27T09:58:16.001Z</time></trkpt><trkpt lat="14.389450065053063" lon="120.91881045478583"><ele>24.0</ele><time>2026-04-27T09:58:17.001Z</time></trkpt><trkpt lat="14.389305051353508" lon="120.91882912180134"><ele>24.0</ele><time>2026-04-27T09:58:18.001Z</time></trkpt><trkpt lat="14.389161720478297" lon="120.91885058835052"><ele>24.0</ele><time>2026-04-27T09:58:19.001Z</time></trkpt><trkpt lat="14.389013800830678" lon="120.91886499927796"><ele>24.0</ele><time>2026-04-27T09:58:20.001Z</time></trkpt><trkpt lat="14.388871718610698" lon="120.91886506615894"><ele>24.0</ele><time>2026-04-27T09:58:21.001Z</time></trkpt><trkpt lat="14.388724221463939" lon="120.91886335323667"><ele>24.25</ele><time>2026-04-27T09:58:22.001Z</time></trkpt><trkpt lat="14.388583894858614" lon="120.91885443241144"><ele>24.5</ele><time>2026-04-27T09:58:23.001Z</time></trkpt><trkpt lat="14.388429710482754" lon="120.91883737851298"><ele>24.75</ele><time>2026-04-27T09:58:24.001Z</time></trkpt><trkpt lat="14.388283663098601" lon="120.91881007929973"><ele>25.0</ele><time>2026-04-27T09:58:25.001Z</time></trkpt><trkpt lat="14.388126291491325" lon="120.91878351067088"><ele>24.333333333333336</ele><time>2026-04-27T09:58:26.001Z</time></trkpt><trkpt lat="14.387975769963944" lon="120.9187688058705"><ele>23.666666666666668</ele><time>2026-04-27T09:58:27.001Z</time></trkpt><trkpt lat="14.387824660302504" lon="120.91876920297479"><ele>23.0</ele><time>2026-04-27T09:58:28.001Z</time></trkpt><trkpt lat="14.387671576634625" lon="120.91877375299491"><ele>23.0</ele><time>2026-04-27T09:58:29.001Z</time></trkpt><trkpt lat="14.38750568511318" lon="120.91877606135866"><ele>23.0</ele><time>2026-04-27T09:58:30.001Z</time></trkpt><trkpt lat="14.387339400861904" lon="120.91878114854165"><ele>23.0</ele><time>2026-04-27T09:58:31.001Z</time></trkpt><trkpt lat="14.387161856114831" lon="120.91880116851088"><ele>24.333333333333336</ele><time>2026-04-27T09:58:32.001Z</time></trkpt><trkpt lat="14.386989061009372" lon="120.91882776790933"><ele>25.666666666666668</ele><time>2026-04-27T09:58:33.001Z</time></trkpt><trkpt lat="14.386830692769918" lon="120.91884791410651"><ele>27.0</ele><time>2026-04-27T09:58:34.001Z</time></trkpt><trkpt lat="14.386682041268847" lon="120.91885500048012"><ele>27.0</ele><time>2026-04-27T09:58:35.001Z</time></trkpt><trkpt lat="14.38654400622297" lon="120.91884077576353"><ele>27.0</ele><time>2026-04-27T09:58:36.001Z</time></trkpt><trkpt lat="14.386431419306845" lon="120.91879254296317"><ele>27.0</ele><time>2026-04-27T09:58:37.001Z</time></trkpt><trkpt lat="14.3863269577803" lon="120.91871245013661"><ele>27.0</ele><time>2026-04-27T09:58:38.001Z</time></trkpt><trkpt lat="14.386240490328534" lon="120.91860960751919"><ele>27.0</ele><time>2026-04-27T09:58:39.001Z</time></trkpt><trkpt lat="14.386161050093682" lon="120.91850365000953"><ele>27.0</ele><time>2026-04-27T09:58:40.001Z</time></trkpt><trkpt lat="14.386068975225733" lon="120.9183966725347"><ele>27.0</ele><time>2026-04-27T09:58:41.001Z</time></trkpt><trkpt lat="14.3859730794711" lon="120.9182927338753"><ele>27.0</ele><time>2026-04-27T09:58:42.001Z</time></trkpt><trkpt lat="14.38587461134773" lon="120.91818515041808"><ele>27.0</ele><time>2026-04-27T09:58:43.001Z</time></trkpt><trkpt lat="14.385772669721723" lon="120.91807519754772"><ele>27.0</ele><time>2026-04-27T09:58:44.001Z</time></trkpt><trkpt lat="14.385677317572231" lon="120.91797784468581"><ele>27.0</ele><time>2026-04-27T09:58:45.001Z</time></trkpt><trkpt lat="14.385572314227725" lon="120.91787401065417"><ele>27.0</ele><time>2026-04-27T09:58:46.001Z</time></trkpt><trkpt lat="14.385478942686412" lon="120.91777236742077"><ele>27.0</ele><time>2026-04-27T09:58:47.001Z</time></trkpt><trkpt lat="14.385389374391243" lon="120.91766901711475"><ele>27.0</ele><time>2026-04-27T09:58:48.001Z</time></trkpt><trkpt lat="14.385294660760747" lon="120.91755552769301"><ele>27.0</ele><time>2026-04-27T09:58:49.001Z</time></trkpt><trkpt lat="14.385214025686142" lon="120.91744781466696"><ele>27.0</ele><time>2026-04-27T09:58:50.001Z</time></trkpt><trkpt lat="14.38512721442619" lon="120.91733243017543"><ele>27.25</ele><time>2026-04-27T09:58:51.001Z</time></trkpt><trkpt lat="14.385039924462884" lon="120.91721660882796"><ele>27.5</ele><time>2026-04-27T09:58:52.001Z</time></trkpt><trkpt lat="14.384944598992986" lon="120.91709732985673"><ele>27.75</ele><time>2026-04-27T09:58:53.001Z</time></trkpt><trkpt lat="14.384842374359492" lon="120.91698188470951"><ele>28.0</ele><time>2026-04-27T09:58:54.001Z</time></trkpt><trkpt lat="14.38474245461816" lon="120.91686799735336"><ele>28.0</ele><time>2026-04-27T09:58:55.001Z</time></trkpt><trkpt lat="14.384652068133533" lon="120.91675685361028"><ele>28.0</ele><time>2026-04-27T09:58:56.001Z</time></trkpt><trkpt lat="14.384573398514153" lon="120.9166458206792"><ele>28.0</ele><time>2026-04-27T09:58:57.001Z</time></trkpt><trkpt lat="14.38450495186948" lon="120.91653092559686"><ele>28.0</ele><time>2026-04-27T09:58:58.001Z</time></trkpt><trkpt lat="14.38444162858782" lon="120.91642267598523"><ele>28.599999999999998</ele><time>2026-04-27T09:58:59.001Z</time></trkpt><trkpt lat="14.384370209393289" lon="120.9163253077558"><ele>29.199999999999996</ele><time>2026-04-27T09:59:00.001Z</time></trkpt><trkpt lat="14.384294732386998" lon="120.91623813734665"><ele>29.8</ele><time>2026-04-27T09:59:01.001Z</time></trkpt><trkpt lat="14.384208166391282" lon="120.91616682037942"><ele>30.4</ele><time>2026-04-27T09:59:02.001Z</time></trkpt><trkpt lat="14.384118930838175" lon="120.91611847315995"><ele>31.0</ele><time>2026-04-27T09:59:03.001Z</time></trkpt><trkpt lat="14.384023277262164" lon="120.9161015300176"><ele>31.0</ele><time>2026-04-27T09:59:04.001Z</time></trkpt><trkpt lat="14.38392905714423" lon="120.9161077231063"><ele>31.0</ele><time>2026-04-27T09:59:05.001Z</time></trkpt><trkpt lat="14.38382638976177" lon="120.91613280683515"><ele>31.0</ele><time>2026-04-27T09:59:06.001Z</time></trkpt><trkpt lat="14.383711358627757" lon="120.91616070380708"><ele>31.0</ele><time>2026-04-27T09:59:07.001Z</time></trkpt><trkpt lat="14.383587210918064" lon="120.91617072479984"><ele>31.0</ele><time>2026-04-27T09:59:08.001Z</time></trkpt><trkpt lat="14.383456122810077" lon="120.91616880486409"><ele>30.75</ele><time>2026-04-27T09:59:09.001Z</time></trkpt><trkpt lat="14.383313920026188" lon="120.91616029799114"><ele>30.5</ele><time>2026-04-27T09:59:10.001Z</time></trkpt><trkpt lat="14.38316603398665" lon="120.91615814584478"><ele>30.25</ele><time>2026-04-27T09:59:11.001Z</time></trkpt><trkpt lat="14.383009971755143" lon="120.91615776052836"><ele>30.0</ele><time>2026-04-27T09:59:12.001Z</time></trkpt><trkpt lat="14.38284871493637" lon="120.91616155282459"><ele>30.0</ele><time>2026-04-27T09:59:13.001Z</time></trkpt><trkpt lat="14.38268632249827" lon="120.91616916712813"><ele>30.0</ele><time>2026-04-27T09:59:14.001Z</time></trkpt><trkpt lat="14.382514875244343" lon="120.91618355581046"><ele>30.0</ele><time>2026-04-27T09:59:15.001Z</time></trkpt><trkpt lat="14.382339634809286" lon="120.91619880922539"><ele>30.333333333333336</ele><time>2026-04-27T09:59:16.001Z</time></trkpt><trkpt lat="14.382165991654837" lon="120.91621413546295"><ele>30.666666666666668</ele><time>2026-04-27T09:59:17.001Z</time></trkpt><trkpt lat="14.381995383788908" lon="120.91622726288361"><ele>31.0</ele><time>2026-04-27T09:59:18.001Z</time></trkpt><trkpt lat="14.381830670918262" lon="120.91623609029484"><ele>31.0</ele><time>2026-04-27T09:59:19.001Z</time></trkpt><trkpt lat="14.38168517788707" lon="120.9162465348498"><ele>31.0</ele><time>2026-04-27T09:59:20.001Z</time></trkpt><trkpt lat="14.381548909904286" lon="120.91625661015144"><ele>31.0</ele><time>2026-04-27T09:59:21.001Z</time></trkpt><trkpt lat="14.381408999983293" lon="120.91626336763092"><ele>31.0</ele><time>2026-04-27T09:59:22.001Z</time></trkpt><trkpt lat="14.381267120808216" lon="120.91627488012661"><ele>31.0</ele><time>2026-04-27T09:59:23.001Z</time></trkpt><trkpt lat="14.381127082945207" lon="120.91628515371606"><ele>31.0</ele><time>2026-04-27T09:59:24.001Z</time></trkpt><trkpt lat="14.380981723039255" lon="120.91629358875765"><ele>31.0</ele><time>2026-04-27T09:59:25.001Z</time></trkpt><trkpt lat="14.380833257775231" lon="120.91629716860568"><ele>31.0</ele><time>2026-04-27T09:59:26.001Z</time></trkpt><trkpt lat="14.380680090776975" lon="120.91629982609807"><ele>31.0</ele><time>2026-04-27T09:59:27.001Z</time></trkpt><trkpt lat="14.380525898842613" lon="120.91630375258993"><ele>31.0</ele><time>2026-04-27T09:59:28.001Z</time></trkpt><trkpt lat="14.380376119786744" lon="120.91631922345519"><ele>31.0</ele><time>2026-04-27T09:59:29.001Z</time></trkpt><trkpt lat="14.380225890685566" lon="120.91632829124963"><ele>31.666666666666668</ele><time>2026-04-27T09:59:30.001Z</time></trkpt><trkpt lat="14.380069082821416" lon="120.91633534251243"><ele>32.333333333333336</ele><time>2026-04-27T09:59:31.001Z</time></trkpt><trkpt lat="14.379919211473405" lon="120.91634125395169"><ele>33.0</ele><time>2026-04-27T09:59:32.001Z</time></trkpt><trkpt lat="14.37976738727346" lon="120.91635089665442"><ele>34.0</ele><time>2026-04-27T09:59:33.001Z</time></trkpt><trkpt lat="14.379615086752587" lon="120.91636464360944"><ele>35.0</ele><time>2026-04-27T09:59:34.001Z</time></trkpt><trkpt lat="14.379462519830884" lon="120.91637345538233"><ele>36.0</ele><time>2026-04-27T09:59:35.001Z</time></trkpt><trkpt lat="14.379314706128328" lon="120.91638215465733"><ele>36.0</ele><time>2026-04-27T09:59:36.001Z</time></trkpt><trkpt lat="14.37915893910817" lon="120.91640231520597"><ele>36.0</ele><time>2026-04-27T09:59:37.001Z</time></trkpt><trkpt lat="14.379015688954594" lon="120.91641911840918"><ele>36.0</ele><time>2026-04-27T09:59:38.001Z</time></trkpt><trkpt lat="14.378862385424702" lon="120.91645161029959"><ele>35.0</ele><time>2026-04-27T09:59:39.001Z</time></trkpt><trkpt lat="14.37870916887197" lon="120.91648366251977"><ele>34.0</ele><time>2026-04-27T09:59:40.001Z</time></trkpt><trkpt lat="14.378554113298094" lon="120.9165261056925"><ele>33.0</ele><time>2026-04-27T09:59:41.001Z</time></trkpt><trkpt lat="14.37840241746652" lon="120.91657082121085"><ele>33.0</ele><time>2026-04-27T09:59:42.001Z</time></trkpt><trkpt lat="14.378253016581668" lon="120.91662306728982"><ele>33.0</ele><time>2026-04-27T09:59:43.001Z</time></trkpt><trkpt lat="14.378105958853572" lon="120.91668731993957"><ele>33.0</ele><time>2026-04-27T09:59:44.001Z</time></trkpt><trkpt lat="14.37795527695022" lon="120.91676193043807"><ele>33.0</ele><time>2026-04-27T09:59:45.001Z</time></trkpt><trkpt lat="14.377801774553186" lon="120.91683400299694"><ele>33.0</ele><time>2026-04-27T09:59:46.001Z</time></trkpt><trkpt lat="14.377659511716697" lon="120.91689259990675"><ele>33.0</ele><time>2026-04-27T09:59:47.001Z</time></trkpt><trkpt lat="14.377522852919446" lon="120.9169752510789"><ele>33.0</ele><time>2026-04-27T09:59:48.001Z</time></trkpt><trkpt lat="14.377397175477817" lon="120.91703218308372"><ele>33.0</ele><time>2026-04-27T09:59:49.001Z</time></trkpt><trkpt lat="14.377267923132766" lon="120.91711299311135"><ele>33.0</ele><time>2026-04-27T09:59:50.001Z</time></trkpt><trkpt lat="14.377143245890133" lon="120.91718141462893"><ele>33.0</ele><time>2026-04-27T09:59:51.001Z</time></trkpt><trkpt lat="14.37702728355795" lon="120.91726526848701"><ele>33.25</ele><time>2026-04-27T09:59:52.001Z</time></trkpt><trkpt lat="14.37691180235509" lon="120.91736210662118"><ele>33.5</ele><time>2026-04-27T09:59:53.001Z</time></trkpt><trkpt lat="14.376795608845166" lon="120.91745799646326"><ele>33.75</ele><time>2026-04-27T09:59:54.001Z</time></trkpt><trkpt lat="14.376680334891027" lon="120.91754558250992"><ele>34.0</ele><time>2026-04-27T09:59:55.001Z</time></trkpt><trkpt lat="14.376552618164911" lon="120.91761722526672"><ele>34.0</ele><time>2026-04-27T09:59:56.001Z</time></trkpt><trkpt lat="14.376417915882886" lon="120.917690788142"><ele>34.0</ele><time>2026-04-27T09:59:57.001Z</time></trkpt><trkpt lat="14.376275103091961" lon="120.91774575135406"><ele>34.0</ele><time>2026-04-27T09:59:58.001Z</time></trkpt><trkpt lat="14.37612838645152" lon="120.9177984560769"><ele>34.0</ele><time>2026-04-27T09:59:59.001Z</time></trkpt><trkpt lat="14.375979689130554" lon="120.91785325523497"><ele>34.0</ele><time>2026-04-27T10:00:00.001Z</time></trkpt><trkpt lat="14.37582904160139" lon="120.91791054802844"><ele>34.0</ele><time>2026-04-27T10:00:01.001Z</time></trkpt><trkpt lat="14.375678147486497" lon="120.91796368024373"><ele>34.0</ele><time>2026-04-27T10:00:02.001Z</time></trkpt><trkpt lat="14.375523529592167" lon="120.91800063005968"><ele>34.0</ele><time>2026-04-27T10:00:03.001Z</time></trkpt><trkpt lat="14.375363337295042" lon="120.91803636863027"><ele>34.0</ele><time>2026-04-27T10:00:04.001Z</time></trkpt><trkpt lat="14.37519990843167" lon="120.9180683195929"><ele>34.66666666666667</ele><time>2026-04-27T10:00:05.001Z</time></trkpt><trkpt lat="14.37503766594124" lon="120.9181122092121"><ele>35.333333333333336</ele><time>2026-04-27T10:00:06.001Z</time></trkpt><trkpt lat="14.374881812634905" lon="120.91814830973637"><ele>36.0</ele><time>2026-04-27T10:00:07.001Z</time></trkpt><trkpt lat="14.374732382554845" lon="120.91818236958096"><ele>35.75</ele><time>2026-04-27T10:00:08.001Z</time></trkpt><trkpt lat="14.374579724597663" lon="120.91821079193606"><ele>35.5</ele><time>2026-04-27T10:00:09.001Z</time></trkpt><trkpt lat="14.374434970969187" lon="120.91823908726238"><ele>35.25</ele><time>2026-04-27T10:00:10.001Z</time></trkpt><trkpt lat="14.374296767887213" lon="120.91826378485064"><ele>35.0</ele><time>2026-04-27T10:00:11.001Z</time></trkpt><trkpt lat="14.374151839501984" lon="120.91829224400435"><ele>35.0</ele><time>2026-04-27T10:00:12.001Z</time></trkpt><trkpt lat="14.37401780196421" lon="120.9183145554745"><ele>35.0</ele><time>2026-04-27T10:00:13.001Z</time></trkpt><trkpt lat="14.373870309448197" lon="120.91834199554984"><ele>35.0</ele><time>2026-04-27T10:00:14.001Z</time></trkpt><trkpt lat="14.373721194617037" lon="120.91836943393"><ele>35.0</ele><time>2026-04-27T10:00:15.001Z</time></trkpt><trkpt lat="14.373576409735938" lon="120.91839466841287"><ele>35.0</ele><time>2026-04-27T10:00:16.001Z</time></trkpt><trkpt lat="14.373424394702573" lon="120.91841812085777"><ele>35.0</ele><time>2026-04-27T10:00:17.001Z</time></trkpt><trkpt lat="14.373273957078908" lon="120.91842457428392"><ele>35.0</ele><time>2026-04-27T10:00:18.001Z</time></trkpt><trkpt lat="14.373122017765864" lon="120.91842744951833"><ele>35.0</ele><time>2026-04-27T10:00:19.001Z</time></trkpt><trkpt lat="14.372976600402133" lon="120.9184294778852"><ele>35.0</ele><time>2026-04-27T10:00:20.001Z</time></trkpt><trkpt lat="14.372821997588371" lon="120.91844266743207"><ele>35.0</ele><time>2026-04-27T10:00:21.001Z</time></trkpt><trkpt lat="14.37267618749544" lon="120.91845466074516"><ele>35.0</ele><time>2026-04-27T10:00:22.001Z</time></trkpt><trkpt lat="14.372525297207396" lon="120.91847348347358"><ele>35.0</ele><time>2026-04-27T10:00:23.001Z</time></trkpt><trkpt lat="14.372378596044927" lon="120.91849427220231"><ele>35.0</ele><time>2026-04-27T10:00:24.001Z</time></trkpt><trkpt lat="14.372235649026699" lon="120.9185153656791"><ele>35.0</ele><time>2026-04-27T10:00:25.001Z</time></trkpt><trkpt lat="14.372090038546839" lon="120.91852560615072"><ele>35.0</ele><time>2026-04-27T10:00:26.001Z</time></trkpt><trkpt lat="14.37194493986996" lon="120.91853255858248"><ele>35.0</ele><time>2026-04-27T10:00:27.001Z</time></trkpt><trkpt lat="14.371804797848588" lon="120.9185446202642"><ele>35.0</ele><time>2026-04-27T10:00:28.001Z</time></trkpt><trkpt lat="14.371657399739748" lon="120.91856374385117"><ele>35.0</ele><time>2026-04-27T10:00:29.001Z</time></trkpt><trkpt lat="14.371515039277234" lon="120.91857562769506"><ele>35.0</ele><time>2026-04-27T10:00:30.001Z</time></trkpt><trkpt lat="14.371362540137925" lon="120.91857579600055"><ele>35.75</ele><time>2026-04-27T10:00:31.001Z</time></trkpt><trkpt lat="14.371219056149272" lon="120.91856566877145"><ele>36.5</ele><time>2026-04-27T10:00:32.001Z</time></trkpt><trkpt lat="14.371074398773873" lon="120.91855398503112"><ele>37.25</ele><time>2026-04-27T10:00:33.001Z</time></trkpt><trkpt lat="14.370921081603484" lon="120.91855376918518"><ele>38.0</ele><time>2026-04-27T10:00:34.001Z</time></trkpt><trkpt lat="14.370774213930082" lon="120.918568783606"><ele>38.0</ele><time>2026-04-27T10:00:35.001Z</time></trkpt><trkpt lat="14.370616345635113" lon="120.91860304351243"><ele>38.0</ele><time>2026-04-27T10:00:36.001Z</time></trkpt><trkpt lat="14.370462626116117" lon="120.9186304201884"><ele>38.0</ele><time>2026-04-27T10:00:37.001Z</time></trkpt><trkpt lat="14.370302781401016" lon="120.91865260664348"><ele>37.666666666666664</ele><time>2026-04-27T10:00:38.001Z</time></trkpt><trkpt lat="14.370144261554826" lon="120.91867292164956"><ele>37.333333333333336</ele><time>2026-04-27T10:00:39.001Z</time></trkpt><trkpt lat="14.369984458147787" lon="120.9186992239924"><ele>37.0</ele><time>2026-04-27T10:00:40.001Z</time></trkpt><trkpt lat="14.369841820556939" lon="120.91872567829357"><ele>37.0</ele><time>2026-04-27T10:00:41.001Z</time></trkpt><trkpt lat="14.369697670095142" lon="120.91875261126107"><ele>37.0</ele><time>2026-04-27T10:00:42.001Z</time></trkpt><trkpt lat="14.369563369243318" lon="120.91877411172075"><ele>37.0</ele><time>2026-04-27T10:00:43.001Z</time></trkpt><trkpt lat="14.36942283783299" lon="120.91879296744654"><ele>37.0</ele><time>2026-04-27T10:00:44.001Z</time></trkpt><trkpt lat="14.369298003490195" lon="120.91881156550882"><ele>38.25</ele><time>2026-04-27T10:00:45.001Z</time></trkpt><trkpt lat="14.36916344556815" lon="120.91883659927134"><ele>39.5</ele><time>2026-04-27T10:00:46.001Z</time></trkpt><trkpt lat="14.369027269308495" lon="120.91886262436863"><ele>40.75</ele><time>2026-04-27T10:00:47.001Z</time></trkpt><trkpt lat="14.368896965235372" lon="120.91888339366048"><ele>42.0</ele><time>2026-04-27T10:00:48.001Z</time></trkpt><trkpt lat="14.368767818277295" lon="120.9189042967156"><ele>42.5</ele><time>2026-04-27T10:00:49.001Z</time></trkpt><trkpt lat="14.368643453008334" lon="120.9189216149662"><ele>43.0</ele><time>2026-04-27T10:00:50.001Z</time></trkpt><trkpt lat="14.368522348818857" lon="120.91893781193076"><ele>43.5</ele><time>2026-04-27T10:00:51.001Z</time></trkpt><trkpt lat="14.368406556452868" lon="120.91895588449701"><ele>44.0</ele><time>2026-04-27T10:00:52.001Z</time></trkpt><trkpt lat="14.368297970182049" lon="120.91897346070556"><ele>44.0</ele><time>2026-04-27T10:00:53.001Z</time></trkpt><trkpt lat="14.368202520841836" lon="120.91899508741834"><ele>44.0</ele><time>2026-04-27T10:00:54.001Z</time></trkpt><trkpt lat="14.368109094935791" lon="120.91902095172458"><ele>44.0</ele><time>2026-04-27T10:00:55.001Z</time></trkpt><trkpt lat="14.36801602251604" lon="120.91904882281203"><ele>44.0</ele><time>2026-04-27T10:00:56.001Z</time></trkpt><trkpt lat="14.367937775880986" lon="120.91907318589126"><ele>44.0</ele><time>2026-04-27T10:00:57.001Z</time></trkpt><trkpt lat="14.367868838623394" lon="120.9190941573815"><ele>44.0</ele><time>2026-04-27T10:00:58.001Z</time></trkpt><trkpt lat="14.36777485351434" lon="120.91912611781704"><ele>44.166666666666664</ele><time>2026-04-27T10:01:00.001Z</time></trkpt><trkpt lat="14.367709958704479" lon="120.91914697527663"><ele>44.33333333333333</ele><time>2026-04-27T10:01:03.001Z</time></trkpt><trkpt lat="14.367610795289647" lon="120.91917382257525"><ele>44.5</ele><time>2026-04-27T10:01:06.001Z</time></trkpt><trkpt lat="14.367529060814821" lon="120.91919978475548"><ele>44.666666666666664</ele><time>2026-04-27T10:01:07.001Z</time></trkpt><trkpt lat="14.36744111004315" lon="120.9192273426805"><ele>44.833333333333336</ele><time>2026-04-27T10:01:08.001Z</time></trkpt><trkpt lat="14.367370250778103" lon="120.9192362951301"><ele>45.0</ele><time>2026-04-27T10:01:10.001Z</time></trkpt><trkpt lat="14.367287142478183" lon="120.91926229730728"><ele>44.857142857142854</ele><time>2026-04-27T10:01:12.001Z</time></trkpt><trkpt lat="14.36722739436195" lon="120.9192835807702"><ele>44.714285714285715</ele><time>2026-04-27T10:01:14.001Z</time></trkpt><trkpt lat="14.36713871077185" lon="120.91930614527976"><ele>44.57142857142857</ele><time>2026-04-27T10:01:17.001Z</time></trkpt><trkpt lat="14.36707145868921" lon="120.91932738140807"><ele>44.42857142857143</ele><time>2026-04-27T10:01:19.001Z</time></trkpt><trkpt lat="14.367004058823065" lon="120.9193455287008"><ele>44.285714285714285</ele><time>2026-04-27T10:01:21.001Z</time></trkpt><trkpt lat="14.366936659373067" lon="120.91936326224015"><ele>44.142857142857146</ele><time>2026-04-27T10:01:23.001Z</time></trkpt><trkpt lat="14.366870141156976" lon="120.91938455433088"><ele>44.0</ele><time>2026-04-27T10:01:25.001Z</time></trkpt><trkpt lat="14.366780603132389" lon="120.91941350511287"><ele>44.0</ele><time>2026-04-27T10:01:27.001Z</time></trkpt><trkpt lat="14.36668966611181" lon="120.91941362229056"><ele>44.0</ele><time>2026-04-27T10:01:29.001Z</time></trkpt><trkpt lat="14.366624030278851" lon="120.91935271915686"><ele>44.0</ele><time>2026-04-27T10:01:31.001Z</time></trkpt><trkpt lat="14.366561661554371" lon="120.91924802808994"><ele>44.0</ele><time>2026-04-27T10:01:33.001Z</time></trkpt><trkpt lat="14.366517031481939" lon="120.91918216651912"><ele>44.0</ele><time>2026-04-27T10:01:34.001Z</time></trkpt><trkpt lat="14.366468007146889" lon="120.91911101162349"><ele>44.0</ele><time>2026-04-27T10:01:35.001Z</time></trkpt><trkpt lat="14.366419457841817" lon="120.91904272611582"><ele>44.0</ele><time>2026-04-27T10:01:36.001Z</time></trkpt><trkpt lat="14.366373049776072" lon="120.91896951549383"><ele>44.0</ele><time>2026-04-27T10:01:37.001Z</time></trkpt><trkpt lat="14.366325513980653" lon="120.91889363511416"><ele>44.0</ele><time>2026-04-27T10:01:38.001Z</time></trkpt><trkpt lat="14.366274508429393" lon="120.91881853495599"><ele>44.0</ele><time>2026-04-27T10:01:39.001Z</time></trkpt><trkpt lat="14.366231191972627" lon="120.91875651273027"><ele>44.0</ele><time>2026-04-27T10:01:40.001Z</time></trkpt><trkpt lat="14.36619841856786" lon="120.91869382517395"><ele>44.0</ele><time>2026-04-27T10:01:41.001Z</time></trkpt><trkpt lat="14.366153324267135" lon="120.9186031835863"><ele>44.0</ele><time>2026-04-27T10:01:43.001Z</time></trkpt><trkpt lat="14.366090320082865" lon="120.91861152233062"><ele>44.0</ele><time>2026-04-27T10:01:47.001Z</time></trkpt><trkpt lat="14.366076195475497" lon="120.91870578650298"><ele>44.0</ele><time>2026-04-27T10:01:50.001Z</time></trkpt><trkpt lat="14.366151576644459" lon="120.91881565884927"><ele>44.0</ele><time>2026-04-27T10:01:52.001Z</time></trkpt><trkpt lat="14.366204158848456" lon="120.9188871723135"><ele>44.0</ele><time>2026-04-27T10:01:53.001Z</time></trkpt><trkpt lat="14.366262549649882" lon="120.91896722951059"><ele>44.0</ele><time>2026-04-27T10:01:54.001Z</time></trkpt><trkpt lat="14.36632700874113" lon="120.91905455551291"><ele>44.0</ele><time>2026-04-27T10:01:55.001Z</time></trkpt><trkpt lat="14.36639064709074" lon="120.91914467183145"><ele>44.0</ele><time>2026-04-27T10:01:56.001Z</time></trkpt><trkpt lat="14.366451340738491" lon="120.91922498503438"><ele>44.0</ele><time>2026-04-27T10:01:57.001Z</time></trkpt><trkpt lat="14.366505257269848" lon="120.91930917980287"><ele>44.0</ele><time>2026-04-27T10:01:58.001Z</time></trkpt><trkpt lat="14.366554935396511" lon="120.9193817896929"><ele>44.0</ele><time>2026-04-27T10:01:59.001Z</time></trkpt><trkpt lat="14.366604655807517" lon="120.91946151135029"><ele>44.0</ele><time>2026-04-27T10:02:00.001Z</time></trkpt><trkpt lat="14.366645513828969" lon="120.91954733686532"><ele>44.0</ele><time>2026-04-27T10:02:01.001Z</time></trkpt><trkpt lat="14.366679399035057" lon="120.91964632404546"><ele>44.0</ele><time>2026-04-27T10:02:02.001Z</time></trkpt><trkpt lat="14.366713316238235" lon="120.91976041652536"><ele>44.0</ele><time>2026-04-27T10:02:03.001Z</time></trkpt><trkpt lat="14.366740383963501" lon="120.91987631356807"><ele>44.0</ele><time>2026-04-27T10:02:04.001Z</time></trkpt><trkpt lat="14.36675958923919" lon="120.92000331810017"><ele>44.0</ele><time>2026-04-27T10:02:05.001Z</time></trkpt><trkpt lat="14.366780445638186" lon="120.92013153401413"><ele>44.0</ele><time>2026-04-27T10:02:06.001Z</time></trkpt><trkpt lat="14.366801769898018" lon="120.9202619744816"><ele>43.25</ele><time>2026-04-27T10:02:07.001Z</time></trkpt><trkpt lat="14.366824869332664" lon="120.92039553102654"><ele>42.5</ele><time>2026-04-27T10:02:08.001Z</time></trkpt><trkpt lat="14.366855336688452" lon="120.92053916437766"><ele>41.75</ele><time>2026-04-27T10:02:09.001Z</time></trkpt><trkpt lat="14.366880695490941" lon="120.9206810607227"><ele>41.0</ele><time>2026-04-27T10:02:10.001Z</time></trkpt><trkpt lat="14.36690628021068" lon="120.92082261072544"><ele>40.5</ele><time>2026-04-27T10:02:11.001Z</time></trkpt><trkpt lat="14.366934422410823" lon="120.92097382196886"><ele>40.0</ele><time>2026-04-27T10:02:12.001Z</time></trkpt><trkpt lat="14.366957113900991" lon="120.92112716604832"><ele>39.5</ele><time>2026-04-27T10:02:13.001Z</time></trkpt><trkpt lat="14.36697887947361" lon="120.92127625991263"><ele>39.0</ele><time>2026-04-27T10:02:14.001Z</time></trkpt><trkpt lat="14.366999644219655" lon="120.9214309293012"><ele>39.0</ele><time>2026-04-27T10:02:15.001Z</time></trkpt><trkpt lat="14.367022902232959" lon="120.92158611769477"><ele>39.0</ele><time>2026-04-27T10:02:16.001Z</time></trkpt><trkpt lat="14.36704663534537" lon="120.92174635042475"><ele>39.0</ele><time>2026-04-27T10:02:17.001Z</time></trkpt><trkpt lat="14.367066615881786" lon="120.92189810762751"><ele>39.0</ele><time>2026-04-27T10:02:18.001Z</time></trkpt><trkpt lat="14.367086625660761" lon="120.92205912519621"><ele>39.0</ele><time>2026-04-27T10:02:19.001Z</time></trkpt><trkpt lat="14.367105605380766" lon="120.92221621908587"><ele>39.0</ele><time>2026-04-27T10:02:20.001Z</time></trkpt><trkpt lat="14.367114504111312" lon="120.9223626196589"><ele>39.0</ele><time>2026-04-27T10:02:21.001Z</time></trkpt><trkpt lat="14.367135640375993" lon="120.92251763860659"><ele>39.0</ele><time>2026-04-27T10:02:22.001Z</time></trkpt><trkpt lat="14.367157744248477" lon="120.92266829869877"><ele>39.0</ele><time>2026-04-27T10:02:23.001Z</time></trkpt><trkpt lat="14.367181378712118" lon="120.92282672152457"><ele>39.666666666666664</ele><time>2026-04-27T10:02:24.001Z</time></trkpt><trkpt lat="14.367208146989865" lon="120.92298798761433"><ele>40.33333333333333</ele><time>2026-04-27T10:02:25.001Z</time></trkpt><trkpt lat="14.367233745455477" lon="120.92314753183949"><ele>41.0</ele><time>2026-04-27T10:02:26.001Z</time></trkpt><trkpt lat="14.367254438618135" lon="120.92330751972587"><ele>40.666666666666664</ele><time>2026-04-27T10:02:27.001Z</time></trkpt><trkpt lat="14.367276647631805" lon="120.92346708405711"><ele>40.333333333333336</ele><time>2026-04-27T10:02:28.001Z</time></trkpt><trkpt lat="14.36729639884852" lon="120.9236239428802"><ele>40.0</ele><time>2026-04-27T10:02:29.001Z</time></trkpt><trkpt lat="14.36732386690726" lon="120.92377546858792"><ele>40.0</ele><time>2026-04-27T10:02:30.001Z</time></trkpt><trkpt lat="14.367344815813784" lon="120.92390927157356"><ele>40.0</ele><time>2026-04-27T10:02:31.001Z</time></trkpt><trkpt lat="14.367367532496656" lon="120.92404287092441"><ele>40.0</ele><time>2026-04-27T10:02:32.001Z</time></trkpt><trkpt lat="14.367394783753214" lon="120.92416979052183"><ele>40.0</ele><time>2026-04-27T10:02:33.001Z</time></trkpt><trkpt lat="14.367428575746608" lon="120.92428991955352"><ele>40.25</ele><time>2026-04-27T10:02:34.001Z</time></trkpt><trkpt lat="14.367462809787096" lon="120.92440356931996"><ele>40.5</ele><time>2026-04-27T10:02:35.001Z</time></trkpt><trkpt lat="14.367513202399318" lon="120.92452269274624"><ele>40.75</ele><time>2026-04-27T10:02:36.001Z</time></trkpt><trkpt lat="14.367557900128828" lon="120.9246333773371"><ele>41.0</ele><time>2026-04-27T10:02:37.001Z</time></trkpt><trkpt lat="14.367596297406902" lon="120.92474373780222"><ele>41.0</ele><time>2026-04-27T10:02:38.001Z</time></trkpt><trkpt lat="14.367625793864494" lon="120.92485342419057"><ele>41.0</ele><time>2026-04-27T10:02:39.001Z</time></trkpt><trkpt lat="14.36765044905565" lon="120.9249565364366"><ele>41.0</ele><time>2026-04-27T10:02:40.001Z</time></trkpt><trkpt lat="14.367670390029573" lon="120.925057174605"><ele>41.0</ele><time>2026-04-27T10:02:41.001Z</time></trkpt><trkpt lat="14.367687318273399" lon="120.92516465451848"><ele>41.0</ele><time>2026-04-27T10:02:42.001Z</time></trkpt><trkpt lat="14.367686171334773" lon="120.9252809694685"><ele>41.0</ele><time>2026-04-27T10:02:43.001Z</time></trkpt><trkpt lat="14.367677817944676" lon="120.9253978921318"><ele>41.0</ele><time>2026-04-27T10:02:44.001Z</time></trkpt><trkpt lat="14.36767270013552" lon="120.9255151959463"><ele>41.0</ele><time>2026-04-27T10:02:45.001Z</time></trkpt><trkpt lat="14.367670368284095" lon="120.92564100842554"><ele>41.0</ele><time>2026-04-27T10:02:46.001Z</time></trkpt><trkpt lat="14.36766222313428" lon="120.92577099867282"><ele>41.0</ele><time>2026-04-27T10:02:47.001Z</time></trkpt><trkpt lat="14.367650295571769" lon="120.92589307656631"><ele>41.0</ele><time>2026-04-27T10:02:48.001Z</time></trkpt><trkpt lat="14.367647412107193" lon="120.92602372848019"><ele>41.0</ele><time>2026-04-27T10:02:49.001Z</time></trkpt><trkpt lat="14.367648121352268" lon="120.926150358355"><ele>41.0</ele><time>2026-04-27T10:02:50.001Z</time></trkpt><trkpt lat="14.36766373170513" lon="120.926284559258"><ele>41.25</ele><time>2026-04-27T10:02:51.001Z</time></trkpt><trkpt lat="14.367677767816806" lon="120.9264123836502"><ele>41.5</ele><time>2026-04-27T10:02:52.001Z</time></trkpt><trkpt lat="14.367704562383512" lon="120.92653892111913"><ele>41.75</ele><time>2026-04-27T10:02:53.001Z</time></trkpt><trkpt lat="14.367730423185002" lon="120.92665470773302"><ele>42.0</ele><time>2026-04-27T10:02:54.001Z</time></trkpt><trkpt lat="14.367762654574552" lon="120.92678378800132"><ele>42.0</ele><time>2026-04-27T10:02:55.001Z</time></trkpt><trkpt lat="14.367780747728009" lon="120.92690251182603"><ele>42.0</ele><time>2026-04-27T10:02:56.001Z</time></trkpt><trkpt lat="14.367817964412902" lon="120.92704278480512"><ele>42.0</ele><time>2026-04-27T10:02:57.001Z</time></trkpt><trkpt lat="14.367842431795768" lon="120.92717709488906"><ele>42.0</ele><time>2026-04-27T10:02:58.001Z</time></trkpt><trkpt lat="14.367861996769523" lon="120.92730320076863"><ele>42.0</ele><time>2026-04-27T10:02:59.001Z</time></trkpt><trkpt lat="14.36787459794419" lon="120.92741630258482"><ele>42.0</ele><time>2026-04-27T10:03:00.001Z</time></trkpt><trkpt lat="14.367881462647693" lon="120.92752920733464"><ele>42.0</ele><time>2026-04-27T10:03:01.001Z</time></trkpt><trkpt lat="14.367859050657955" lon="120.92763980872202"><ele>42.0</ele><time>2026-04-27T10:03:02.001Z</time></trkpt><trkpt lat="14.367814665441037" lon="120.92773848514209"><ele>42.0</ele><time>2026-04-27T10:03:03.001Z</time></trkpt><trkpt lat="14.367755860492963" lon="120.92784609500175"><ele>41.2</ele><time>2026-04-27T10:03:04.001Z</time></trkpt><trkpt lat="14.367702580203163" lon="120.92795778149416"><ele>40.400000000000006</ele><time>2026-04-27T10:03:05.001Z</time></trkpt><trkpt lat="14.367658861773341" lon="120.92806924773598"><ele>39.599999999999994</ele><time>2026-04-27T10:03:06.001Z</time></trkpt><trkpt lat="14.367622963019217" lon="120.9281610987469"><ele>38.8</ele><time>2026-04-27T10:03:07.001Z</time></trkpt><trkpt lat="14.367588225322413" lon="120.92823930807842"><ele>38.0</ele><time>2026-04-27T10:03:08.001Z</time></trkpt><trkpt lat="14.367558481915776" lon="120.92830357840359"><ele>38.0</ele><time>2026-04-27T10:03:09.001Z</time></trkpt><trkpt lat="14.36751652147882" lon="120.92838007931236"><ele>38.0</ele><time>2026-04-27T10:03:11.001Z</time></trkpt><trkpt lat="14.367458080447241" lon="120.92844720328272"><ele>38.0</ele><time>2026-04-27T10:03:14.001Z</time></trkpt><trkpt lat="14.3674091535206" lon="120.92854854817422"><ele>38.0</ele><time>2026-04-27T10:03:16.001Z</time></trkpt><trkpt lat="14.36738559220687" lon="120.92861310735387"><ele>38.0</ele><time>2026-04-27T10:03:17.001Z</time></trkpt><trkpt lat="14.367368913639389" lon="120.92867836721115"><ele>38.0</ele><time>2026-04-27T10:03:18.001Z</time></trkpt><trkpt lat="14.367354960063835" lon="120.9287449280383"><ele>38.42857142857142</ele><time>2026-04-27T10:03:19.001Z</time></trkpt><trkpt lat="14.367350097589549" lon="120.92881503400288"><ele>38.85714285714286</ele><time>2026-04-27T10:03:20.001Z</time></trkpt><trkpt lat="14.367349278330996" lon="120.9288867449361"><ele>39.285714285714285</ele><time>2026-04-27T10:03:21.001Z</time></trkpt><trkpt lat="14.367347786034452" lon="120.92895189082056"><ele>39.71428571428571</ele><time>2026-04-27T10:03:22.001Z</time></trkpt><trkpt lat="14.36735349157216" lon="120.92902203399625"><ele>40.14285714285714</ele><time>2026-04-27T10:03:23.001Z</time></trkpt><trkpt lat="14.36735847190189" lon="120.92909973095554"><ele>40.57142857142857</ele><time>2026-04-27T10:03:24.001Z</time></trkpt><trkpt lat="14.36736192072353" lon="120.92917756011465"><ele>41.0</ele><time>2026-04-27T10:03:25.001Z</time></trkpt><trkpt lat="14.367369837628063" lon="120.92925666261182"><ele>41.14285714285714</ele><time>2026-04-27T10:03:26.001Z</time></trkpt><trkpt lat="14.367372193140916" lon="120.92932987501635"><ele>41.285714285714285</ele><time>2026-04-27T10:03:27.001Z</time></trkpt><trkpt lat="14.367378516006351" lon="120.92939705503089"><ele>41.42857142857143</ele><time>2026-04-27T10:03:28.001Z</time></trkpt><trkpt lat="14.36738373964335" lon="120.92946777982228"><ele>41.57142857142857</ele><time>2026-04-27T10:03:29.001Z</time></trkpt><trkpt lat="14.367388417155794" lon="120.92954462057283"><ele>41.714285714285715</ele><time>2026-04-27T10:03:30.001Z</time></trkpt><trkpt lat="14.36739044624134" lon="120.92962351438986"><ele>41.857142857142854</ele><time>2026-04-27T10:03:31.001Z</time></trkpt><trkpt lat="14.36739982832034" lon="120.92969410186777"><ele>42.0</ele><time>2026-04-27T10:03:32.001Z</time></trkpt><trkpt lat="14.367402866772904" lon="120.92978232853767"><ele>42.0</ele><time>2026-04-27T10:03:33.001Z</time></trkpt><trkpt lat="14.367409863969579" lon="120.92986046572622"><ele>42.0</ele><time>2026-04-27T10:03:34.001Z</time></trkpt><trkpt lat="14.367415768725323" lon="120.92993876297591"><ele>42.0</ele><time>2026-04-27T10:03:35.001Z</time></trkpt><trkpt lat="14.367423929711988" lon="120.93001085895604"><ele>42.0</ele><time>2026-04-27T10:03:36.001Z</time></trkpt><trkpt lat="14.367421163330818" lon="120.93008679281688"><ele>42.0</ele><time>2026-04-27T10:03:37.001Z</time></trkpt><trkpt lat="14.367434655565416" lon="120.93020677089896"><ele>42.0</ele><time>2026-04-27T10:03:39.001Z</time></trkpt><trkpt lat="14.36744140525725" lon="120.93027387285305"><ele>42.0</ele><time>2026-04-27T10:03:40.001Z</time></trkpt><trkpt lat="14.367453491403607" lon="120.9304173704974"><ele>42.0</ele><time>2026-04-27T10:03:42.001Z</time></trkpt><trkpt lat="14.367461019675282" lon="120.9304938461625"><ele>42.0</ele><time>2026-04-27T10:03:43.001Z</time></trkpt><trkpt lat="14.36746435318571" lon="120.93057080925641"><ele>42.0</ele><time>2026-04-27T10:03:44.001Z</time></trkpt><trkpt lat="14.367470190653712" lon="120.93065230995168"><ele>42.0</ele><time>2026-04-27T10:03:45.001Z</time></trkpt><trkpt lat="14.367476728580927" lon="120.9307322472505"><ele>42.0</ele><time>2026-04-27T10:03:46.001Z</time></trkpt><trkpt lat="14.367485626843793" lon="120.93080875952394"><ele>42.0</ele><time>2026-04-27T10:03:47.001Z</time></trkpt><trkpt lat="14.367489637433444" lon="120.93088466332655"><ele>42.0</ele><time>2026-04-27T10:03:48.001Z</time></trkpt><trkpt lat="14.367494363460827" lon="120.93096832952607"><ele>42.0</ele><time>2026-04-27T10:03:49.001Z</time></trkpt><trkpt lat="14.367502263197622" lon="120.93104387675506"><ele>42.0</ele><time>2026-04-27T10:03:50.001Z</time></trkpt><trkpt lat="14.367510445379466" lon="120.93112273334377"><ele>42.0</ele><time>2026-04-27T10:03:51.001Z</time></trkpt><trkpt lat="14.367519911147312" lon="120.93119947304692"><ele>42.0</ele><time>2026-04-27T10:03:52.001Z</time></trkpt><trkpt lat="14.36752629250019" lon="120.93127732322074"><ele>42.166666666666664</ele><time>2026-04-27T10:03:53.001Z</time></trkpt><trkpt lat="14.367534331189033" lon="120.93136396923877"><ele>42.333333333333336</ele><time>2026-04-27T10:03:54.001Z</time></trkpt><trkpt lat="14.367541907957973" lon="120.93144657787037"><ele>42.5</ele><time>2026-04-27T10:03:55.001Z</time></trkpt><trkpt lat="14.367546619224237" lon="120.93153716684043"><ele>42.66666666666667</ele><time>2026-04-27T10:03:56.001Z</time></trkpt><trkpt lat="14.367553371567432" lon="120.93162765691113"><ele>42.833333333333336</ele><time>2026-04-27T10:03:57.001Z</time></trkpt><trkpt lat="14.367560017756727" lon="120.93172107106267"><ele>43.0</ele><time>2026-04-27T10:03:58.001Z</time></trkpt><trkpt lat="14.36756610311968" lon="120.93181795726937"><ele>42.599999999999994</ele><time>2026-04-27T10:03:59.001Z</time></trkpt><trkpt lat="14.367573300062523" lon="120.93191404847809"><ele>42.199999999999996</ele><time>2026-04-27T10:04:00Z</time></trkpt><trkpt lat="14.36758319259438" lon="120.93200259666558"><ele>41.8</ele><time>2026-04-27T10:04:01Z</time></trkpt><trkpt lat="14.367591216261985" lon="120.93210127107302"><ele>41.4</ele><time>2026-04-27T10:04:02Z</time></trkpt><trkpt lat="14.367597516087377" lon="120.93219701609638"><ele>41.0</ele><time>2026-04-27T10:04:03Z</time></trkpt><trkpt lat="14.36760628311918" lon="120.93228489872823"><ele>41.0</ele><time>2026-04-27T10:04:04Z</time></trkpt><trkpt lat="14.3676157409694" lon="120.93238258641139"><ele>41.0</ele><time>2026-04-27T10:04:05Z</time></trkpt><trkpt lat="14.367622563310265" lon="120.93246959175869"><ele>41.0</ele><time>2026-04-27T10:04:06Z</time></trkpt><trkpt lat="14.36763396430828" lon="120.93255659359001"><ele>41.0</ele><time>2026-04-27T10:04:07Z</time></trkpt><trkpt lat="14.367635678843243" lon="120.93264229035518"><ele>41.0</ele><time>2026-04-27T10:04:08Z</time></trkpt><trkpt lat="14.367641052791717" lon="120.9327133297949"><ele>41.0</ele><time>2026-04-27T10:04:09Z</time></trkpt><trkpt lat="14.367648035180514" lon="120.93278598552018"><ele>41.199999999999996</ele><time>2026-04-27T10:04:10Z</time></trkpt><trkpt lat="14.367658220772569" lon="120.93287140741108"><ele>41.4</ele><time>2026-04-27T10:04:11Z</time></trkpt><trkpt lat="14.367685193829004" lon="120.93300669052222"><ele>41.6</ele><time>2026-04-27T10:04:13Z</time></trkpt><trkpt lat="14.36770921937304" lon="120.93308431716338"><ele>41.8</ele><time>2026-04-27T10:04:14Z</time></trkpt><trkpt lat="14.367772866349176" lon="120.93321118880348"><ele>42.0</ele><time>2026-04-27T10:04:16Z</time></trkpt><trkpt lat="14.367805251963473" lon="120.93327963246172"><ele>42.0</ele><time>2026-04-27T10:04:17Z</time></trkpt><trkpt lat="14.36785350665027" lon="120.93335925156465"><ele>42.0</ele><time>2026-04-27T10:04:18Z</time></trkpt><trkpt lat="14.367893042593236" lon="120.93343205654382"><ele>42.0</ele><time>2026-04-27T10:04:19Z</time></trkpt><trkpt lat="14.367914391055672" lon="120.93349390195934"><ele>42.0</ele><time>2026-04-27T10:04:20Z</time></trkpt><trkpt lat="14.367968830713059" lon="120.93361816821579"><ele>42.0</ele><time>2026-04-27T10:04:22Z</time></trkpt><trkpt lat="14.368005344166537" lon="120.9336891150234"><ele>42.0</ele><time>2026-04-27T10:04:23Z</time></trkpt><trkpt lat="14.36803942212488" lon="120.93375656461698"><ele>41.5</ele><time>2026-04-27T10:04:24Z</time></trkpt><trkpt lat="14.368078526307913" lon="120.93382207918373"><ele>41.0</ele><time>2026-04-27T10:04:25Z</time></trkpt><trkpt lat="14.368119029619287" lon="120.93389424536075"><ele>40.5</ele><time>2026-04-27T10:04:27Z</time></trkpt><trkpt lat="14.36817655542398" lon="120.93397770776426"><ele>40.0</ele><time>2026-04-27T10:04:30.001Z</time></trkpt><trkpt lat="14.368228407540766" lon="120.93403250392818"><ele>39.5</ele><time>2026-04-27T10:04:32.001Z</time></trkpt><trkpt lat="14.368299549326984" lon="120.93409642800945"><ele>39.0</ele><time>2026-04-27T10:04:34.001Z</time></trkpt><trkpt lat="14.368355524191536" lon="120.9342040652496"><ele>39.166666666666664</ele><time>2026-04-27T10:04:36.001Z</time></trkpt><trkpt lat="14.368392385131601" lon="120.93427102241569"><ele>39.333333333333336</ele><time>2026-04-27T10:04:37.001Z</time></trkpt><trkpt lat="14.36843031370613" lon="120.93433515662755"><ele>39.5</ele><time>2026-04-27T10:04:38.001Z</time></trkpt><trkpt lat="14.368470105351493" lon="120.93440475360386"><ele>39.66666666666667</ele><time>2026-04-27T10:04:39.001Z</time></trkpt><trkpt lat="14.368507628435081" lon="120.93447219641885"><ele>39.833333333333336</ele><time>2026-04-27T10:04:40.001Z</time></trkpt><trkpt lat="14.368544170071154" lon="120.93454333206873"><ele>40.0</ele><time>2026-04-27T10:04:41.001Z</time></trkpt><trkpt lat="14.368581724569893" lon="120.93461807318741"><ele>40.0</ele><time>2026-04-27T10:04:42.001Z</time></trkpt><trkpt lat="14.368622319929836" lon="120.93469700120467"><ele>40.0</ele><time>2026-04-27T10:04:43.001Z</time></trkpt><trkpt lat="14.368662309563376" lon="120.93477565909022"><ele>40.0</ele><time>2026-04-27T10:04:44.001Z</time></trkpt><trkpt lat="14.368708650629147" lon="120.93485557828323"><ele>40.0</ele><time>2026-04-27T10:04:45.001Z</time></trkpt><trkpt lat="14.368753321602327" lon="120.93493240034786"><ele>40.0</ele><time>2026-04-27T10:04:46.001Z</time></trkpt><trkpt lat="14.368797789031028" lon="120.93501647341044"><ele>40.0</ele><time>2026-04-27T10:04:47.001Z</time></trkpt><trkpt lat="14.368835251594195" lon="120.93509180930752"><ele>39.833333333333336</ele><time>2026-04-27T10:04:48.001Z</time></trkpt><trkpt lat="14.368878416776543" lon="120.93516952237202"><ele>39.66666666666667</ele><time>2026-04-27T10:04:49.001Z</time></trkpt><trkpt lat="14.368915409628215" lon="120.93524595038983"><ele>39.5</ele><time>2026-04-27T10:04:50.001Z</time></trkpt><trkpt lat="14.368955604339694" lon="120.93532763122762"><ele>39.333333333333336</ele><time>2026-04-27T10:04:51.001Z</time></trkpt><trkpt lat="14.368993045288354" lon="120.93541353977271"><ele>39.166666666666664</ele><time>2026-04-27T10:04:52.001Z</time></trkpt><trkpt lat="14.369027497259799" lon="120.9355001557315"><ele>39.0</ele><time>2026-04-27T10:04:53.001Z</time></trkpt><trkpt lat="14.369058163025652" lon="120.93557820214771"><ele>39.0</ele><time>2026-04-27T10:04:54.001Z</time></trkpt><trkpt lat="14.369085474070468" lon="120.93564088528474"><ele>39.0</ele><time>2026-04-27T10:04:55.001Z</time></trkpt><trkpt lat="14.3691112219676" lon="120.93570485483212"><ele>39.0</ele><time>2026-04-27T10:04:56.001Z</time></trkpt><trkpt lat="14.369140117826886" lon="120.93577565667232"><ele>39.0</ele><time>2026-04-27T10:04:57.001Z</time></trkpt><trkpt lat="14.369164738477215" lon="120.93584123181728"><ele>39.0</ele><time>2026-04-27T10:04:58.001Z</time></trkpt><trkpt lat="14.369190178483041" lon="120.93591299265107"><ele>39.0</ele><time>2026-04-27T10:04:59.001Z</time></trkpt><trkpt lat="14.369222896937513" lon="120.93599416614181"><ele>39.0</ele><time>2026-04-27T10:05:00.001Z</time></trkpt><trkpt lat="14.36925703229281" lon="120.93607765857499"><ele>39.166666666666664</ele><time>2026-04-27T10:05:01.001Z</time></trkpt><trkpt lat="14.369287310367907" lon="120.93615864233712"><ele>39.333333333333336</ele><time>2026-04-27T10:05:02.001Z</time></trkpt><trkpt lat="14.369319991223545" lon="120.93624393797029"><ele>39.5</ele><time>2026-04-27T10:05:03.001Z</time></trkpt><trkpt lat="14.369345736895335" lon="120.93631810135481"><ele>39.66666666666667</ele><time>2026-04-27T10:05:04.001Z</time></trkpt><trkpt lat="14.369382736285383" lon="120.93639509788605"><ele>39.833333333333336</ele><time>2026-04-27T10:05:05.001Z</time></trkpt><trkpt lat="14.369405364641311" lon="120.93646696121188"><ele>40.0</ele><time>2026-04-27T10:05:06.001Z</time></trkpt><trkpt lat="14.369432737723198" lon="120.93654055117989"><ele>40.0</ele><time>2026-04-27T10:05:07.001Z</time></trkpt><trkpt lat="14.369457148561018" lon="120.93660608984202"><ele>40.0</ele><time>2026-04-27T10:05:08.001Z</time></trkpt><trkpt lat="14.369501390228846" lon="120.93671604797348"><ele>40.0</ele><time>2026-04-27T10:05:10.001Z</time></trkpt><trkpt lat="14.369545459869125" lon="120.93682787002037"><ele>40.0</ele><time>2026-04-27T10:05:12.001Z</time></trkpt><trkpt lat="14.369586210451729" lon="120.93693778878057"><ele>40.0</ele><time>2026-04-27T10:05:14.001Z</time></trkpt><trkpt lat="14.369634554754825" lon="120.93705921269418"><ele>39.6</ele><time>2026-04-27T10:05:16.001Z</time></trkpt><trkpt lat="14.369661578567776" lon="120.93712025295638"><ele>39.2</ele><time>2026-04-27T10:05:17.001Z</time></trkpt><trkpt lat="14.369701072231399" lon="120.93721009215997"><ele>38.8</ele><time>2026-04-27T10:05:19.001Z</time></trkpt><trkpt lat="14.369765085041095" lon="120.93730119459018"><ele>38.4</ele><time>2026-04-27T10:05:21.001Z</time></trkpt><trkpt lat="14.36987250767769" lon="120.93737600388035"><ele>38.0</ele><time>2026-04-27T10:05:23.001Z</time></trkpt><trkpt lat="14.36993618053823" lon="120.93740926516213"><ele>38.8</ele><time>2026-04-27T10:05:24.001Z</time></trkpt><trkpt lat="14.370005353589713" lon="120.93744356789043"><ele>39.599999999999994</ele><time>2026-04-27T10:05:25.001Z</time></trkpt><trkpt lat="14.370087899542659" lon="120.93748427551945"><ele>40.400000000000006</ele><time>2026-04-27T10:05:26.001Z</time></trkpt><trkpt lat="14.370166012071843" lon="120.93753145558509"><ele>41.2</ele><time>2026-04-27T10:05:27.001Z</time></trkpt><trkpt lat="14.370257757275972" lon="120.9375863006383"><ele>42.0</ele><time>2026-04-27T10:05:28.001Z</time></trkpt><trkpt lat="14.37035389853237" lon="120.93764270869119"><ele>42.5</ele><time>2026-04-27T10:05:29.001Z</time></trkpt><trkpt lat="14.370451240666515" lon="120.93771118356024"><ele>43.0</ele><time>2026-04-27T10:05:30.001Z</time></trkpt><trkpt lat="14.370551196518761" lon="120.93778840634539"><ele>43.5</ele><time>2026-04-27T10:05:31.001Z</time></trkpt><trkpt lat="14.370653157433637" lon="120.93786846569957"><ele>44.0</ele><time>2026-04-27T10:05:32.001Z</time></trkpt><trkpt lat="14.370759474670859" lon="120.9379510761826"><ele>43.0</ele><time>2026-04-27T10:05:33.001Z</time></trkpt><trkpt lat="14.37087287798128" lon="120.93803741369345"><ele>42.0</ele><time>2026-04-27T10:05:34.001Z</time></trkpt><trkpt lat="14.370988494130753" lon="120.93812564006602"><ele>41.0</ele><time>2026-04-27T10:05:35.001Z</time></trkpt><trkpt lat="14.371106484605388" lon="120.93821477441065"><ele>40.0</ele><time>2026-04-27T10:05:36.001Z</time></trkpt><trkpt lat="14.371221827192153" lon="120.93830748311652"><ele>40.25</ele><time>2026-04-27T10:05:37.001Z</time></trkpt><trkpt lat="14.371331901806146" lon="120.93840354957769"><ele>40.5</ele><time>2026-04-27T10:05:38.001Z</time></trkpt><trkpt lat="14.371439625027355" lon="120.93850446862575"><ele>40.75</ele><time>2026-04-27T10:05:39.001Z</time></trkpt><trkpt lat="14.37154260878311" lon="120.93861287705113"><ele>41.0</ele><time>2026-04-27T10:05:40.001Z</time></trkpt><trkpt lat="14.371637085921652" lon="120.9387279071776"><ele>41.0</ele><time>2026-04-27T10:05:41.001Z</time></trkpt><trkpt lat="14.37172711365216" lon="120.93885099386718"><ele>41.0</ele><time>2026-04-27T10:05:42.001Z</time></trkpt><trkpt lat="14.371815614343314" lon="120.9389770548933"><ele>41.0</ele><time>2026-04-27T10:05:43.001Z</time></trkpt><trkpt lat="14.371909535507177" lon="120.93910746399735"><ele>41.666666666666664</ele><time>2026-04-27T10:05:44.001Z</time></trkpt><trkpt lat="14.371995909151089" lon="120.93924234909912"><ele>42.333333333333336</ele><time>2026-04-27T10:05:45.001Z</time></trkpt><trkpt lat="14.372086015131375" lon="120.93938236293623"><ele>43.0</ele><time>2026-04-27T10:05:46.001Z</time></trkpt><trkpt lat="14.37218235496929" lon="120.93952589279922"><ele>42.66666666666667</ele><time>2026-04-27T10:05:47.001Z</time></trkpt><trkpt lat="14.372279998516536" lon="120.93967381410334"><ele>42.333333333333336</ele><time>2026-04-27T10:05:48.001Z</time></trkpt><trkpt lat="14.372379666648119" lon="120.93982172464105"><ele>42.0</ele><time>2026-04-27T10:05:49.001Z</time></trkpt><trkpt lat="14.372476945274197" lon="120.93997216712702"><ele>42.0</ele><time>2026-04-27T10:05:50.001Z</time></trkpt><trkpt lat="14.372572343927246" lon="120.94012433490731"><ele>42.0</ele><time>2026-04-27T10:05:51.001Z</time></trkpt><trkpt lat="14.372659458774447" lon="120.94027272143946"><ele>42.0</ele><time>2026-04-27T10:05:52.001Z</time></trkpt><trkpt lat="14.372736634345396" lon="120.9404092934141"><ele>42.0</ele><time>2026-04-27T10:05:53.001Z</time></trkpt><trkpt lat="14.372805123931366" lon="120.94054432978146"><ele>42.0</ele><time>2026-04-27T10:05:54Z</time></trkpt><trkpt lat="14.372865490635409" lon="120.94066843954566"><ele>42.0</ele><time>2026-04-27T10:05:55Z</time></trkpt><trkpt lat="14.372914535183265" lon="120.94078030688995"><ele>42.0</ele><time>2026-04-27T10:05:56Z</time></trkpt><trkpt lat="14.3729603663832" lon="120.94088913255266"><ele>42.0</ele><time>2026-04-27T10:05:57Z</time></trkpt><trkpt lat="14.372994392410625" lon="120.94098845896113"><ele>42.0</ele><time>2026-04-27T10:05:58Z</time></trkpt><trkpt lat="14.373020615639545" lon="120.94108459787402"><ele>42.0</ele><time>2026-04-27T10:05:59Z</time></trkpt><trkpt lat="14.373049397952247" lon="120.9411820186475"><ele>42.0</ele><time>2026-04-27T10:06:00Z</time></trkpt><trkpt lat="14.373079587587856" lon="120.94128707102993"><ele>42.0</ele><time>2026-04-27T10:06:01Z</time></trkpt><trkpt lat="14.373104468765943" lon="120.94139190659483"><ele>42.0</ele><time>2026-04-27T10:06:02Z</time></trkpt><trkpt lat="14.373122154543681" lon="120.94151211404325"><ele>42.0</ele><time>2026-04-27T10:06:03Z</time></trkpt><trkpt lat="14.373129365915691" lon="120.94163510376197"><ele>42.0</ele><time>2026-04-27T10:06:04Z</time></trkpt><trkpt lat="14.37313219690972" lon="120.94176208306818"><ele>42.0</ele><time>2026-04-27T10:06:05Z</time></trkpt><trkpt lat="14.373125291667764" lon="120.94189600055192"><ele>41.0</ele><time>2026-04-27T10:06:06Z</time></trkpt><trkpt lat="14.373121340601424" lon="120.9420239697863"><ele>40.0</ele><time>2026-04-27T10:06:07Z</time></trkpt><trkpt lat="14.373118870742685" lon="120.9421509750065"><ele>39.0</ele><time>2026-04-27T10:06:08Z</time></trkpt><trkpt lat="14.37311848061905" lon="120.94227046427501"><ele>38.0</ele><time>2026-04-27T10:06:09Z</time></trkpt><trkpt lat="14.373121534263811" lon="120.94238191250707"><ele>38.0</ele><time>2026-04-27T10:06:10Z</time></trkpt><trkpt lat="14.373126101090586" lon="120.94250175139571"><ele>38.0</ele><time>2026-04-27T10:06:11Z</time></trkpt><trkpt lat="14.373128765732924" lon="120.94261694391497"><ele>38.0</ele><time>2026-04-27T10:06:12Z</time></trkpt><trkpt lat="14.373134159323078" lon="120.94273841072491"><ele>38.0</ele><time>2026-04-27T10:06:13Z</time></trkpt><trkpt lat="14.373142579784576" lon="120.94285818041273"><ele>38.5</ele><time>2026-04-27T10:06:14Z</time></trkpt><trkpt lat="14.373157063797699" lon="120.94298371186439"><ele>39.0</ele><time>2026-04-27T10:06:15Z</time></trkpt><trkpt lat="14.373177954503005" lon="120.94310927461177"><ele>39.5</ele><time>2026-04-27T10:06:16Z</time></trkpt><trkpt lat="14.373209960355943" lon="120.94323075861972"><ele>40.0</ele><time>2026-04-27T10:06:17Z</time></trkpt><trkpt lat="14.373250636782705" lon="120.94335059524163"><ele>40.25</ele><time>2026-04-27T10:06:18Z</time></trkpt><trkpt lat="14.373297854339505" lon="120.94346731829485"><ele>40.5</ele><time>2026-04-27T10:06:19Z</time></trkpt><trkpt lat="14.373353100890318" lon="120.9435826487987"><ele>40.75</ele><time>2026-04-27T10:06:20Z</time></trkpt><trkpt lat="14.373416773346056" lon="120.94369714350856"><ele>41.0</ele><time>2026-04-27T10:06:21Z</time></trkpt><trkpt lat="14.373488345843047" lon="120.94381160740288"><ele>41.0</ele><time>2026-04-27T10:06:22Z</time></trkpt><trkpt lat="14.373557900762796" lon="120.94391826527918"><ele>41.0</ele><time>2026-04-27T10:06:23Z</time></trkpt><trkpt lat="14.37363555232843" lon="120.94402215872117"><ele>41.0</ele><time>2026-04-27T10:06:24Z</time></trkpt><trkpt lat="14.373717099698423" lon="120.94412247802872"><ele>41.0</ele><time>2026-04-27T10:06:25Z</time></trkpt><trkpt lat="14.373804561938064" lon="120.94422448998188"><ele>41.0</ele><time>2026-04-27T10:06:26Z</time></trkpt><trkpt lat="14.373885237542744" lon="120.94432338125917"><ele>41.0</ele><time>2026-04-27T10:06:27Z</time></trkpt><trkpt lat="14.373978174387979" lon="120.9444259968312"><ele>41.0</ele><time>2026-04-27T10:06:28Z</time></trkpt><trkpt lat="14.37407279662088" lon="120.9445286296598"><ele>41.0</ele><time>2026-04-27T10:06:29Z</time></trkpt><trkpt lat="14.374180873003974" lon="120.94463260952448"><ele>41.0</ele><time>2026-04-27T10:06:30Z</time></trkpt><trkpt lat="14.374286025494975" lon="120.9447510494727"><ele>41.0</ele><time>2026-04-27T10:06:31Z</time></trkpt><trkpt lat="14.374387256409811" lon="120.94488307304397"><ele>41.0</ele><time>2026-04-27T10:06:32Z</time></trkpt><trkpt lat="14.374490164542845" lon="120.9450207908974"><ele>41.33333333333333</ele><time>2026-04-27T10:06:33Z</time></trkpt><trkpt lat="14.374595865735946" lon="120.9451619514644"><ele>41.666666666666664</ele><time>2026-04-27T10:06:34Z</time></trkpt><trkpt lat="14.374703595183224" lon="120.94530007816681"><ele>42.0</ele><time>2026-04-27T10:06:35Z</time></trkpt><trkpt lat="14.374807913053305" lon="120.94543284359985"><ele>42.0</ele><time>2026-04-27T10:06:36Z</time></trkpt><trkpt lat="14.374921476918324" lon="120.94557076267154"><ele>42.0</ele><time>2026-04-27T10:06:37Z</time></trkpt><trkpt lat="14.375024661398383" lon="120.94570451066929"><ele>42.0</ele><time>2026-04-27T10:06:38Z</time></trkpt><trkpt lat="14.375110596315155" lon="120.94582747267395"><ele>41.5</ele><time>2026-04-27T10:06:39Z</time></trkpt><trkpt lat="14.375178820823402" lon="120.94593584550671"><ele>41.0</ele><time>2026-04-27T10:06:40Z</time></trkpt><trkpt lat="14.3752348400276" lon="120.94603781555378"><ele>40.5</ele><time>2026-04-27T10:06:41Z</time></trkpt><trkpt lat="14.375281921274361" lon="120.94613962073689"><ele>40.0</ele><time>2026-04-27T10:06:42Z</time></trkpt><trkpt lat="14.375332616131196" lon="120.94624894531788"><ele>40.0</ele><time>2026-04-27T10:06:43Z</time></trkpt><trkpt lat="14.375391076907864" lon="120.94636131466127"><ele>40.0</ele><time>2026-04-27T10:06:44Z</time></trkpt><trkpt lat="14.375450837126397" lon="120.94647375899753"><ele>40.0</ele><time>2026-04-27T10:06:45Z</time></trkpt><trkpt lat="14.375505297757206" lon="120.94659282449584"><ele>40.0</ele><time>2026-04-27T10:06:46Z</time></trkpt><trkpt lat="14.375555906690089" lon="120.94671157357386"><ele>39.6</ele><time>2026-04-27T10:06:47Z</time></trkpt><trkpt lat="14.375600708253797" lon="120.94682277667337"><ele>39.2</ele><time>2026-04-27T10:06:48Z</time></trkpt><trkpt lat="14.375644895946111" lon="120.94692994282305"><ele>38.8</ele><time>2026-04-27T10:06:49Z</time></trkpt><trkpt lat="14.37568191521893" lon="120.94702661547947"><ele>38.4</ele><time>2026-04-27T10:06:50Z</time></trkpt><trkpt lat="14.375713269729784" lon="120.94712040644092"><ele>38.0</ele><time>2026-04-27T10:06:51Z</time></trkpt><trkpt lat="14.375738944046812" lon="120.94721724683643"><ele>38.0</ele><time>2026-04-27T10:06:52Z</time></trkpt><trkpt lat="14.37576470591995" lon="120.94730656816395"><ele>38.0</ele><time>2026-04-27T10:06:53Z</time></trkpt><trkpt lat="14.375791541706288" lon="120.9473982748923"><ele>38.0</ele><time>2026-04-27T10:06:54Z</time></trkpt><trkpt lat="14.375827956130356" lon="120.94749327168203"><ele>38.0</ele><time>2026-04-27T10:06:55Z</time></trkpt><trkpt lat="14.37586594581616" lon="120.94759157164857"><ele>38.0</ele><time>2026-04-27T10:06:56Z</time></trkpt><trkpt lat="14.375906611794633" lon="120.94769216323535"><ele>37.5</ele><time>2026-04-27T10:06:57Z</time></trkpt><trkpt lat="14.375950334100988" lon="120.94780226593136"><ele>37.0</ele><time>2026-04-27T10:06:58Z</time></trkpt><trkpt lat="14.375994235750479" lon="120.9479186979371"><ele>36.5</ele><time>2026-04-27T10:06:59Z</time></trkpt><trkpt lat="14.376034786826947" lon="120.94803301583327"><ele>36.0</ele><time>2026-04-27T10:07:00Z</time></trkpt><trkpt lat="14.376079213187305" lon="120.94815518663384"><ele>36.0</ele><time>2026-04-27T10:07:01Z</time></trkpt><trkpt lat="14.376124870066786" lon="120.94827784354288"><ele>36.0</ele><time>2026-04-27T10:07:02Z</time></trkpt><trkpt lat="14.37616725194044" lon="120.94840650846926"><ele>36.0</ele><time>2026-04-27T10:07:03Z</time></trkpt><trkpt lat="14.376210516490456" lon="120.94854190684785"><ele>36.0</ele><time>2026-04-27T10:07:04Z</time></trkpt><trkpt lat="14.376258260307587" lon="120.94867882189482"><ele>36.75</ele><time>2026-04-27T10:07:05Z</time></trkpt><trkpt lat="14.376308893980246" lon="120.94881720240156"><ele>37.5</ele><time>2026-04-27T10:07:06Z</time></trkpt><trkpt lat="14.376360873144668" lon="120.948961568809"><ele>38.25</ele><time>2026-04-27T10:07:07Z</time></trkpt><trkpt lat="14.376412709424342" lon="120.94910698758338"><ele>39.0</ele><time>2026-04-27T10:07:08Z</time></trkpt><trkpt lat="14.376464054170457" lon="120.94925584509629"><ele>39.0</ele><time>2026-04-27T10:07:09Z</time></trkpt><trkpt lat="14.376518373349679" lon="120.94941061327684"><ele>39.0</ele><time>2026-04-27T10:07:10Z</time></trkpt><trkpt lat="14.376573909717601" lon="120.94956719510206"><ele>39.0</ele><time>2026-04-27T10:07:11Z</time></trkpt><trkpt lat="14.376627386463289" lon="120.94972050913589"><ele>39.0</ele><time>2026-04-27T10:07:12Z</time></trkpt><trkpt lat="14.376685679849027" lon="120.9498742070291"><ele>39.0</ele><time>2026-04-27T10:07:13Z</time></trkpt><trkpt lat="14.376741530447584" lon="120.95002664306489"><ele>39.0</ele><time>2026-04-27T10:07:14Z</time></trkpt><trkpt lat="14.376798857929115" lon="120.95017716773592"><ele>40.0</ele><time>2026-04-27T10:07:15Z</time></trkpt><trkpt lat="14.376852234399028" lon="120.95032792874123"><ele>41.0</ele><time>2026-04-27T10:07:16Z</time></trkpt><trkpt lat="14.376908452910316" lon="120.95047735490999"><ele>42.0</ele><time>2026-04-27T10:07:17Z</time></trkpt><trkpt lat="14.376960602773607" lon="120.9506195038289"><ele>42.0</ele><time>2026-04-27T10:07:18.001Z</time></trkpt><trkpt lat="14.377015408509084" lon="120.95076198170759"><ele>42.0</ele><time>2026-04-27T10:07:19.001Z</time></trkpt><trkpt lat="14.37707364042458" lon="120.95090748038244"><ele>42.0</ele><time>2026-04-27T10:07:20.001Z</time></trkpt><trkpt lat="14.377132381359633" lon="120.9510605213407"><ele>42.333333333333336</ele><time>2026-04-27T10:07:21.001Z</time></trkpt><trkpt lat="14.377195394421532" lon="120.95121208620078"><ele>42.66666666666667</ele><time>2026-04-27T10:07:22.001Z</time></trkpt><trkpt lat="14.377258587815454" lon="120.95136829531455"><ele>43.0</ele><time>2026-04-27T10:07:23.001Z</time></trkpt><trkpt lat="14.377320801938502" lon="120.95152236432448"><ele>43.0</ele><time>2026-04-27T10:07:24.001Z</time></trkpt><trkpt lat="14.377383300090383" lon="120.95169084051116"><ele>43.0</ele><time>2026-04-27T10:07:25.001Z</time></trkpt><trkpt lat="14.37744709800475" lon="120.95185165021927"><ele>43.0</ele><time>2026-04-27T10:07:26.001Z</time></trkpt><trkpt lat="14.377509099665872" lon="120.95201958856505"><ele>42.0</ele><time>2026-04-27T10:07:27.001Z</time></trkpt><trkpt lat="14.377570139243634" lon="120.95219200094628"><ele>41.0</ele><time>2026-04-27T10:07:28.001Z</time></trkpt><trkpt lat="14.3776323952017" lon="120.9523605615662"><ele>40.0</ele><time>2026-04-27T10:07:29.001Z</time></trkpt><trkpt lat="14.377693367704234" lon="120.9525238888168"><ele>41.66666666666667</ele><time>2026-04-27T10:07:30.001Z</time></trkpt><trkpt lat="14.37774858868811" lon="120.95267462089457"><ele>43.333333333333336</ele><time>2026-04-27T10:07:31.001Z</time></trkpt><trkpt lat="14.377807183055513" lon="120.95281890942613"><ele>45.0</ele><time>2026-04-27T10:07:32.001Z</time></trkpt><trkpt lat="14.377868697212389" lon="120.95295666368598"><ele>45.0</ele><time>2026-04-27T10:07:33.001Z</time></trkpt><trkpt lat="14.37794135704508" lon="120.95309061958703"><ele>45.0</ele><time>2026-04-27T10:07:34.001Z</time></trkpt><trkpt lat="14.378012557354726" lon="120.95321879982984"><ele>45.0</ele><time>2026-04-27T10:07:35.001Z</time></trkpt><trkpt lat="14.378086798988628" lon="120.95333816405252"><ele>45.0</ele><time>2026-04-27T10:07:36.001Z</time></trkpt><trkpt lat="14.378169413693128" lon="120.95346619606926"><ele>44.75</ele><time>2026-04-27T10:07:37.001Z</time></trkpt><trkpt lat="14.378248263361357" lon="120.95359055179276"><ele>44.5</ele><time>2026-04-27T10:07:38.001Z</time></trkpt><trkpt lat="14.378335275072446" lon="120.95371275318125"><ele>44.25</ele><time>2026-04-27T10:07:39.001Z</time></trkpt><trkpt lat="14.378423789698259" lon="120.95383654267263"><ele>44.0</ele><time>2026-04-27T10:07:40.001Z</time></trkpt><trkpt lat="14.378516259275576" lon="120.95396000143137"><ele>44.0</ele><time>2026-04-27T10:07:41.001Z</time></trkpt><trkpt lat="14.3786101867185" lon="120.95407685740314"><ele>44.0</ele><time>2026-04-27T10:07:42.001Z</time></trkpt><trkpt lat="14.378703598176916" lon="120.95419033343094"><ele>44.0</ele><time>2026-04-27T10:07:43.001Z</time></trkpt><trkpt lat="14.378799432347577" lon="120.95429851210872"><ele>44.0</ele><time>2026-04-27T10:07:44.001Z</time></trkpt><trkpt lat="14.378900250662932" lon="120.95440899035299"><ele>43.666666666666664</ele><time>2026-04-27T10:07:45.001Z</time></trkpt><trkpt lat="14.379010210680352" lon="120.95452407810369"><ele>43.333333333333336</ele><time>2026-04-27T10:07:46Z</time></trkpt><trkpt lat="14.379127867731187" lon="120.95464102842386"><ele>43.0</ele><time>2026-04-27T10:07:47Z</time></trkpt><trkpt lat="14.379245209487772" lon="120.9547664002336"><ele>43.0</ele><time>2026-04-27T10:07:48Z</time></trkpt><trkpt lat="14.37936386936308" lon="120.95489876368553"><ele>43.0</ele><time>2026-04-27T10:07:49Z</time></trkpt><trkpt lat="14.37948278229031" lon="120.9550359956594"><ele>43.0</ele><time>2026-04-27T10:07:50Z</time></trkpt><trkpt lat="14.379604128241645" lon="120.95518116394335"><ele>42.333333333333336</ele><time>2026-04-27T10:07:51Z</time></trkpt><trkpt lat="14.379721635849501" lon="120.95532897454243"><ele>41.666666666666664</ele><time>2026-04-27T10:07:52Z</time></trkpt><trkpt lat="14.37984832818997" lon="120.9554782042351"><ele>41.0</ele><time>2026-04-27T10:07:53Z</time></trkpt><trkpt lat="14.379974898845482" lon="120.95562394015215"><ele>41.0</ele><time>2026-04-27T10:07:54Z</time></trkpt><trkpt lat="14.380095041701283" lon="120.95576649881727"><ele>41.0</ele><time>2026-04-27T10:07:55Z</time></trkpt><trkpt lat="14.380218734446846" lon="120.95590168540593"><ele>41.0</ele><time>2026-04-27T10:07:56Z</time></trkpt><trkpt lat="14.380322040814182" lon="120.9560259789291"><ele>41.0</ele><time>2026-04-27T10:07:57Z</time></trkpt><trkpt lat="14.380427099434115" lon="120.95614266291462"><ele>41.0</ele><time>2026-04-27T10:07:58Z</time></trkpt><trkpt lat="14.380528854964808" lon="120.95625675533984"><ele>41.0</ele><time>2026-04-27T10:07:59Z</time></trkpt><trkpt lat="14.38063054840266" lon="120.95636692365103"><ele>41.5</ele><time>2026-04-27T10:08:00Z</time></trkpt><trkpt lat="14.380721045055122" lon="120.95646494356522"><ele>42.0</ele><time>2026-04-27T10:08:01Z</time></trkpt><trkpt lat="14.380801770663117" lon="120.95655690336129"><ele>42.5</ele><time>2026-04-27T10:08:02Z</time></trkpt><trkpt lat="14.380882464431831" lon="120.95664154518889"><ele>43.0</ele><time>2026-04-27T10:08:03Z</time></trkpt><trkpt lat="14.38095338438393" lon="120.95672183895687"><ele>43.2</ele><time>2026-04-27T10:08:04Z</time></trkpt><trkpt lat="14.381023847829306" lon="120.95679741031455"><ele>43.4</ele><time>2026-04-27T10:08:05Z</time></trkpt><trkpt lat="14.381089548900832" lon="120.95687378718883"><ele>43.6</ele><time>2026-04-27T10:08:06Z</time></trkpt><trkpt lat="14.38116041045137" lon="120.95695561550899"><ele>43.800000000000004</ele><time>2026-04-27T10:08:07Z</time></trkpt><trkpt lat="14.381240645277808" lon="120.95704499619217"><ele>44.0</ele><time>2026-04-27T10:08:08Z</time></trkpt><trkpt lat="14.38131450866449" lon="120.95713038240449"><ele>43.75</ele><time>2026-04-27T10:08:09Z</time></trkpt><trkpt lat="14.381399482756304" lon="120.95721422169386"><ele>43.5</ele><time>2026-04-27T10:08:10Z</time></trkpt><trkpt lat="14.381489316516518" lon="120.95730481905375"><ele>43.25</ele><time>2026-04-27T10:08:11Z</time></trkpt><trkpt lat="14.381580591293229" lon="120.95739408061587"><ele>43.0</ele><time>2026-04-27T10:08:12Z</time></trkpt><trkpt lat="14.381677816818943" lon="120.95748293447564"><ele>42.75</ele><time>2026-04-27T10:08:13Z</time></trkpt><trkpt lat="14.381778379777131" lon="120.95756967701864"><ele>42.5</ele><time>2026-04-27T10:08:14Z</time></trkpt><trkpt lat="14.381877531955093" lon="120.95765875974348"><ele>42.25</ele><time>2026-04-27T10:08:15Z</time></trkpt><trkpt lat="14.381984902646069" lon="120.95774767153608"><ele>42.0</ele><time>2026-04-27T10:08:16Z</time></trkpt><trkpt lat="14.382092949476421" lon="120.95783095993514"><ele>41.75</ele><time>2026-04-27T10:08:17Z</time></trkpt><trkpt lat="14.382209268152938" lon="120.95791226953725"><ele>41.5</ele><time>2026-04-27T10:08:18Z</time></trkpt><trkpt lat="14.382315298961442" lon="120.95798946388311"><ele>41.25</ele><time>2026-04-27T10:08:19Z</time></trkpt><trkpt lat="14.38241606069339" lon="120.95805911203811"><ele>41.0</ele><time>2026-04-27T10:08:20Z</time></trkpt><trkpt lat="14.382509014312502" lon="120.95811908479509"><ele>41.0</ele><time>2026-04-27T10:08:21Z</time></trkpt><trkpt lat="14.38259094125144" lon="120.95817668912561"><ele>41.0</ele><time>2026-04-27T10:08:22Z</time></trkpt><trkpt lat="14.382672338475215" lon="120.95823498605378"><ele>41.0</ele><time>2026-04-27T10:08:23Z</time></trkpt><trkpt lat="14.382751879105612" lon="120.95829110955557"><ele>41.0</ele><time>2026-04-27T10:08:24Z</time></trkpt><trkpt lat="14.382828351227243" lon="120.95834162931433"><ele>41.0</ele><time>2026-04-27T10:08:25Z</time></trkpt><trkpt lat="14.382900904009547" lon="120.95839450534453"><ele>40.8</ele><time>2026-04-27T10:08:26Z</time></trkpt><trkpt lat="14.38297637575176" lon="120.95844899365966"><ele>40.599999999999994</ele><time>2026-04-27T10:08:27Z</time></trkpt><trkpt lat="14.383052396134536" lon="120.95850301354527"><ele>40.4</ele><time>2026-04-27T10:08:28Z</time></trkpt><trkpt lat="14.383126965325765" lon="120.9585600688546"><ele>40.2</ele><time>2026-04-27T10:08:29Z</time></trkpt><trkpt lat="14.38320592379733" lon="120.9586156218936"><ele>40.0</ele><time>2026-04-27T10:08:30Z</time></trkpt><trkpt lat="14.383289084790015" lon="120.95866444509102"><ele>40.5</ele><time>2026-04-27T10:08:31Z</time></trkpt><trkpt lat="14.383367075794434" lon="120.95870802482425"><ele>41.0</ele><time>2026-04-27T10:08:32Z</time></trkpt><trkpt lat="14.383437502080277" lon="120.95875676664541"><ele>41.5</ele><time>2026-04-27T10:08:33Z</time></trkpt><trkpt lat="14.383504464990256" lon="120.95880973792605"><ele>42.0</ele><time>2026-04-27T10:08:34Z</time></trkpt><trkpt lat="14.383578806364136" lon="120.95886385446155"><ele>42.5</ele><time>2026-04-27T10:08:35Z</time></trkpt><trkpt lat="14.383654398094544" lon="120.95891835201657"><ele>43.0</ele><time>2026-04-27T10:08:36Z</time></trkpt><trkpt lat="14.383731689480014" lon="120.95897772973983"><ele>43.0</ele><time>2026-04-27T10:08:37Z</time></trkpt><trkpt lat="14.383814475305092" lon="120.95903907634828"><ele>43.0</ele><time>2026-04-27T10:08:38Z</time></trkpt><trkpt lat="14.383900261064586" lon="120.95909934384036"><ele>43.0</ele><time>2026-04-27T10:08:39Z</time></trkpt><trkpt lat="14.383992125796613" lon="120.9591611585592"><ele>43.0</ele><time>2026-04-27T10:08:40Z</time></trkpt><trkpt lat="14.384087129573278" lon="120.95922710097406"><ele>43.0</ele><time>2026-04-27T10:08:41Z</time></trkpt><trkpt lat="14.384187283809663" lon="120.95929683106166"><ele>42.75</ele><time>2026-04-27T10:08:42Z</time></trkpt><trkpt lat="14.384293230048794" lon="120.95936901547992"><ele>42.5</ele><time>2026-04-27T10:08:43Z</time></trkpt><trkpt lat="14.384402319563526" lon="120.95944049087153"><ele>42.25</ele><time>2026-04-27T10:08:44Z</time></trkpt><trkpt lat="14.38451449618526" lon="120.95951582398648"><ele>42.0</ele><time>2026-04-27T10:08:45Z</time></trkpt><trkpt lat="14.38462873177152" lon="120.9595907850088"><ele>42.25</ele><time>2026-04-27T10:08:46Z</time></trkpt><trkpt lat="14.384744688106709" lon="120.95966079655314"><ele>42.5</ele><time>2026-04-27T10:08:47Z</time></trkpt><trkpt lat="14.384857336564194" lon="120.9597347024008"><ele>42.75</ele><time>2026-04-27T10:08:48Z</time></trkpt><trkpt lat="14.384967877136047" lon="120.95981081439002"><ele>43.0</ele><time>2026-04-27T10:08:49Z</time></trkpt><trkpt lat="14.385079169876803" lon="120.95988726641224"><ele>43.0</ele><time>2026-04-27T10:08:50Z</time></trkpt><trkpt lat="14.385191685990424" lon="120.95996016480719"><ele>43.0</ele><time>2026-04-27T10:08:51Z</time></trkpt><trkpt lat="14.385312250928344" lon="120.96003503247763"><ele>43.0</ele><time>2026-04-27T10:08:52Z</time></trkpt><trkpt lat="14.385432493982165" lon="120.96011398507206"><ele>43.0</ele><time>2026-04-27T10:08:53Z</time></trkpt><trkpt lat="14.385549524680217" lon="120.96020017013"><ele>42.75</ele><time>2026-04-27T10:08:54Z</time></trkpt><trkpt lat="14.385663231383813" lon="120.96029269771748"><ele>42.5</ele><time>2026-04-27T10:08:55Z</time></trkpt><trkpt lat="14.385762989987379" lon="120.96038016173908"><ele>42.25</ele><time>2026-04-27T10:08:56Z</time></trkpt><trkpt lat="14.385849659540735" lon="120.96046274008035"><ele>42.0</ele><time>2026-04-27T10:08:57Z</time></trkpt><trkpt lat="14.385925957136886" lon="120.96053850166004"><ele>42.0</ele><time>2026-04-27T10:08:58Z</time></trkpt><trkpt lat="14.385993872758473" lon="120.96061336304666"><ele>42.0</ele><time>2026-04-27T10:08:59Z</time></trkpt><trkpt lat="14.386061878770617" lon="120.96069120071054"><ele>42.0</ele><time>2026-04-27T10:09:00Z</time></trkpt><trkpt lat="14.386133611164682" lon="120.96077466665896"><ele>42.0</ele><time>2026-04-27T10:09:01Z</time></trkpt><trkpt lat="14.386208049478068" lon="120.96085964542958"><ele>42.0</ele><time>2026-04-27T10:09:02Z</time></trkpt><trkpt lat="14.38628243514594" lon="120.96094902213869"><ele>41.2</ele><time>2026-04-27T10:09:03Z</time></trkpt><trkpt lat="14.386355706076957" lon="120.96104793543807"><ele>40.400000000000006</ele><time>2026-04-27T10:09:04Z</time></trkpt><trkpt lat="14.386416941755696" lon="120.96115176867455"><ele>39.599999999999994</ele><time>2026-04-27T10:09:05Z</time></trkpt><trkpt lat="14.386470746580097" lon="120.96124934323572"><ele>38.8</ele><time>2026-04-27T10:09:06Z</time></trkpt><trkpt lat="14.386516729059174" lon="120.96133743313392"><ele>38.0</ele><time>2026-04-27T10:09:07Z</time></trkpt><trkpt lat="14.386555995622036" lon="120.9614231282183"><ele>38.0</ele><time>2026-04-27T10:09:08Z</time></trkpt><trkpt lat="14.386595674688834" lon="120.96150872642468"><ele>38.0</ele><time>2026-04-27T10:09:09Z</time></trkpt><trkpt lat="14.386645621428423" lon="120.96159876658102"><ele>38.0</ele><time>2026-04-27T10:09:10Z</time></trkpt><trkpt lat="14.386689635744585" lon="120.96168515161415"><ele>38.0</ele><time>2026-04-27T10:09:11Z</time></trkpt><trkpt lat="14.386729043109067" lon="120.96176517910502"><ele>38.0</ele><time>2026-04-27T10:09:12Z</time></trkpt><trkpt lat="14.386762429058026" lon="120.96183936680818"><ele>38.42857142857142</ele><time>2026-04-27T10:09:13Z</time></trkpt><trkpt lat="14.386793916355963" lon="120.96190354234383"><ele>38.85714285714286</ele><time>2026-04-27T10:09:14Z</time></trkpt><trkpt lat="14.386823958272428" lon="120.96196346161123"><ele>39.285714285714285</ele><time>2026-04-27T10:09:15Z</time></trkpt><trkpt lat="14.386855180150322" lon="120.9620215304394"><ele>39.71428571428571</ele><time>2026-04-27T10:09:16Z</time></trkpt><trkpt lat="14.386887646642387" lon="120.96207886136578"><ele>40.14285714285714</ele><time>2026-04-27T10:09:17Z</time></trkpt><trkpt lat="14.38691736431116" lon="120.96213642700245"><ele>40.57142857142857</ele><time>2026-04-27T10:09:18Z</time></trkpt><trkpt lat="14.386945034826692" lon="120.96219530397806"><ele>41.0</ele><time>2026-04-27T10:09:19Z</time></trkpt><trkpt lat="14.386992258462776" lon="120.96230646598013"><ele>41.0</ele><time>2026-04-27T10:09:21Z</time></trkpt><trkpt lat="14.387019325209998" lon="120.96236793818234"><ele>41.0</ele><time>2026-04-27T10:09:22Z</time></trkpt><trkpt lat="14.387049005018028" lon="120.96243126930004"><ele>41.0</ele><time>2026-04-27T10:09:23Z</time></trkpt><trkpt lat="14.38707850324798" lon="120.96249809175413"><ele>41.0</ele><time>2026-04-27T10:09:24Z</time></trkpt><trkpt lat="14.387110911694682" lon="120.9625632073008"><ele>41.0</ele><time>2026-04-27T10:09:25Z</time></trkpt><trkpt lat="14.387162079544316" lon="120.96267393786101"><ele>41.0</ele><time>2026-04-27T10:09:27Z</time></trkpt><trkpt lat="14.387189965229407" lon="120.96273312744658"><ele>41.0</ele><time>2026-04-27T10:09:28Z</time></trkpt><trkpt lat="14.387236547877663" lon="120.96281963968627"><ele>41.0</ele><time>2026-04-27T10:09:29Z</time></trkpt><trkpt lat="14.387282560617486" lon="120.96291088316732"><ele>41.0</ele><time>2026-04-27T10:09:30Z</time></trkpt><trkpt lat="14.38733567887738" lon="120.96301880371539"><ele>41.0</ele><time>2026-04-27T10:09:32Z</time></trkpt><trkpt lat="14.38737873792138" lon="120.96311034540297"><ele>41.0</ele><time>2026-04-27T10:09:33Z</time></trkpt><trkpt lat="14.38742683699729" lon="120.96320615722972"><ele>41.0</ele><time>2026-04-27T10:09:34Z</time></trkpt><trkpt lat="14.387475346444054" lon="120.96329976871098"><ele>41.0</ele><time>2026-04-27T10:09:35Z</time></trkpt><trkpt lat="14.387526218986803" lon="120.96339936154614"><ele>41.0</ele><time>2026-04-27T10:09:36Z</time></trkpt><trkpt lat="14.38757657109824" lon="120.9634940659084"><ele>41.0</ele><time>2026-04-27T10:09:37Z</time></trkpt><trkpt lat="14.387628698250012" lon="120.96359064760483"><ele>41.0</ele><time>2026-04-27T10:09:38Z</time></trkpt><trkpt lat="14.387674734261434" lon="120.96369421000531"><ele>41.25</ele><time>2026-04-27T10:09:39Z</time></trkpt><trkpt lat="14.387720082536845" lon="120.96380659551562"><ele>41.5</ele><time>2026-04-27T10:09:40Z</time></trkpt><trkpt lat="14.387772893759907" lon="120.96391977757433"><ele>41.75</ele><time>2026-04-27T10:09:41Z</time></trkpt><trkpt lat="14.387824285398453" lon="120.96402735411426"><ele>42.0</ele><time>2026-04-27T10:09:42Z</time></trkpt><trkpt lat="14.387870782957727" lon="120.96412424534155"><ele>42.166666666666664</ele><time>2026-04-27T10:09:43Z</time></trkpt><trkpt lat="14.387916251792753" lon="120.96421744293335"><ele>42.333333333333336</ele><time>2026-04-27T10:09:44Z</time></trkpt><trkpt lat="14.387955345734191" lon="120.96430629998733"><ele>42.5</ele><time>2026-04-27T10:09:45Z</time></trkpt><trkpt lat="14.387987632478215" lon="120.96438334503317"><ele>42.66666666666667</ele><time>2026-04-27T10:09:46Z</time></trkpt><trkpt lat="14.388017519586864" lon="120.96444219581473"><ele>42.833333333333336</ele><time>2026-04-27T10:09:47Z</time></trkpt><trkpt lat="14.388061054295902" lon="120.96453501420253"><ele>43.0</ele><time>2026-04-27T10:09:49Z</time></trkpt><trkpt lat="14.388092357635339" lon="120.96461789698876"><ele>43.0</ele><time>2026-04-27T10:09:51Z</time></trkpt><trkpt lat="14.388135220735542" lon="120.96471048029028"><ele>43.0</ele><time>2026-04-27T10:09:53Z</time></trkpt><trkpt lat="14.388176223485683" lon="120.9648132032603"><ele>43.0</ele><time>2026-04-27T10:09:55Z</time></trkpt><trkpt lat="14.388205435241174" lon="120.96488819450414"><ele>43.0</ele><time>2026-04-27T10:09:56Z</time></trkpt><trkpt lat="14.388236174646439" lon="120.96497136530067"><ele>43.0</ele><time>2026-04-27T10:09:57Z</time></trkpt><trkpt lat="14.388261409360856" lon="120.96505947841162"><ele>43.2</ele><time>2026-04-27T10:09:58Z</time></trkpt><trkpt lat="14.388285132993179" lon="120.96515703230153"><ele>43.4</ele><time>2026-04-27T10:09:59Z</time></trkpt><trkpt lat="14.388315329621065" lon="120.96525079142035"><ele>43.6</ele><time>2026-04-27T10:10:00Z</time></trkpt><trkpt lat="14.388347928540789" lon="120.96535279173337"><ele>43.800000000000004</ele><time>2026-04-27T10:10:01Z</time></trkpt><trkpt lat="14.388376263084627" lon="120.96546203909816"><ele>44.0</ele><time>2026-04-27T10:10:02Z</time></trkpt><trkpt lat="14.3884046848243" lon="120.96557851202442"><ele>44.0</ele><time>2026-04-27T10:10:03Z</time></trkpt><trkpt lat="14.388429157370235" lon="120.96569905866762"><ele>44.0</ele><time>2026-04-27T10:10:04Z</time></trkpt><trkpt lat="14.388454940670139" lon="120.96581521129131"><ele>44.0</ele><time>2026-04-27T10:10:05Z</time></trkpt><trkpt lat="14.388478415504071" lon="120.96593163227213"><ele>44.0</ele><time>2026-04-27T10:10:06Z</time></trkpt><trkpt lat="14.388503742913404" lon="120.96604035200072"><ele>44.166666666666664</ele><time>2026-04-27T10:10:07Z</time></trkpt><trkpt lat="14.388527532914647" lon="120.96613279908165"><ele>44.33333333333333</ele><time>2026-04-27T10:10:08Z</time></trkpt><trkpt lat="14.388548013130142" lon="120.96622014471781"><ele>44.5</ele><time>2026-04-27T10:10:09Z</time></trkpt><trkpt lat="14.38857090942027" lon="120.96629990649907"><ele>44.666666666666664</ele><time>2026-04-27T10:10:10Z</time></trkpt><trkpt lat="14.38859315087536" lon="120.96637070049185"><ele>44.833333333333336</ele><time>2026-04-27T10:10:11Z</time></trkpt><trkpt lat="14.388614823795823" lon="120.96643521323567"><ele>45.0</ele><time>2026-04-27T10:10:12Z</time></trkpt><trkpt lat="14.38862933953023" lon="120.96649996273622"><ele>45.0</ele><time>2026-04-27T10:10:14Z</time></trkpt><trkpt lat="14.388626170476991" lon="120.96657462693132"><ele>45.0</ele><time>2026-04-27T10:10:19Z</time></trkpt><trkpt lat="14.388638101945451" lon="120.96664384207571"><ele>45.0</ele><time>2026-04-27T10:10:23Z</time></trkpt><trkpt lat="14.388652958705828" lon="120.96674105616552"><ele>45.0</ele><time>2026-04-27T10:10:30Z</time></trkpt><trkpt lat="14.388678638671413" lon="120.96680736529824"><ele>45.0</ele><time>2026-04-27T10:10:41Z</time></trkpt><trkpt lat="14.388686578930901" lon="120.96687986069136"><ele>45.0</ele><time>2026-04-27T10:10:44Z</time></trkpt><trkpt lat="14.38867347158615" lon="120.96696246357287"><ele>45.166666666666664</ele><time>2026-04-27T10:10:48Z</time></trkpt><trkpt lat="14.388705476651676" lon="120.9670544087768"><ele>45.333333333333336</ele><time>2026-04-27T10:10:50Z</time></trkpt><trkpt lat="14.388719760944337" lon="120.96714527451918"><ele>45.5</ele><time>2026-04-27T10:10:53Z</time></trkpt><trkpt lat="14.388730699966597" lon="120.96724327448626"><ele>45.66666666666667</ele><time>2026-04-27T10:10:56Z</time></trkpt><trkpt lat="14.388738195659577" lon="120.96731461401218"><ele>45.833333333333336</ele><time>2026-04-27T10:10:58Z</time></trkpt><trkpt lat="14.388752650972918" lon="120.96740994246572"><ele>46.0</ele><time>2026-04-27T10:11:00Z</time></trkpt><trkpt lat="14.388761528865118" lon="120.96749145257726"><ele>45.8</ele><time>2026-04-27T10:11:02Z</time></trkpt><trkpt lat="14.38876136411346" lon="120.96761214406857"><ele>45.599999999999994</ele><time>2026-04-27T10:11:05Z</time></trkpt><trkpt lat="14.388756987429632" lon="120.96769810191842"><ele>45.4</ele><time>2026-04-27T10:11:06Z</time></trkpt><trkpt lat="14.388755357616063" lon="120.96779871027371"><ele>45.2</ele><time>2026-04-27T10:11:07Z</time></trkpt><trkpt lat="14.38875402726225" lon="120.96790544029135"><ele>45.0</ele><time>2026-04-27T10:11:08Z</time></trkpt><trkpt lat="14.388751881828819" lon="120.96801876320191"><ele>45.0</ele><time>2026-04-27T10:11:09Z</time></trkpt><trkpt lat="14.388751336368902" lon="120.96814397369381"><ele>45.0</ele><time>2026-04-27T10:11:10Z</time></trkpt><trkpt lat="14.388746222036941" lon="120.968275145722"><ele>45.0</ele><time>2026-04-27T10:11:11Z</time></trkpt><trkpt lat="14.388734289205763" lon="120.96841041878005"><ele>45.0</ele><time>2026-04-27T10:11:12Z</time></trkpt><trkpt lat="14.388712875832864" lon="120.96854991372199"><ele>44.5</ele><time>2026-04-27T10:11:13Z</time></trkpt><trkpt lat="14.388685111529501" lon="120.96868244768417"><ele>44.0</ele><time>2026-04-27T10:11:14Z</time></trkpt><trkpt lat="14.38865458910269" lon="120.96881712932144"><ele>43.5</ele><time>2026-04-27T10:11:15Z</time></trkpt><trkpt lat="14.388622111216426" lon="120.96894209046589"><ele>43.0</ele><time>2026-04-27T10:11:16Z</time></trkpt><trkpt lat="14.38859301654365" lon="120.96905940475764"><ele>43.0</ele><time>2026-04-27T10:11:17Z</time></trkpt><trkpt lat="14.388566373628361" lon="120.96916960185523"><ele>43.0</ele><time>2026-04-27T10:11:18Z</time></trkpt><trkpt lat="14.388536049027906" lon="120.96928283413322"><ele>43.0</ele><time>2026-04-27T10:11:19Z</time></trkpt><trkpt lat="14.388498343274142" lon="120.96940281870414"><ele>43.0</ele><time>2026-04-27T10:11:20Z</time></trkpt><trkpt lat="14.38846326659515" lon="120.96952533939685"><ele>43.5</ele><time>2026-04-27T10:11:21Z</time></trkpt><trkpt lat="14.38842850662227" lon="120.96964739752895"><ele>44.0</ele><time>2026-04-27T10:11:22Z</time></trkpt><trkpt lat="14.38838667651412" lon="120.96977361295657"><ele>44.5</ele><time>2026-04-27T10:11:23Z</time></trkpt><trkpt lat="14.388335487288622" lon="120.96989609511846"><ele>45.0</ele><time>2026-04-27T10:11:24Z</time></trkpt><trkpt lat="14.388275905352994" lon="120.97001260100451"><ele>45.0</ele><time>2026-04-27T10:11:25Z</time></trkpt><trkpt lat="14.388207914472092" lon="120.97012799270414"><ele>45.0</ele><time>2026-04-27T10:11:26Z</time></trkpt><trkpt lat="14.388129749988368" lon="120.97023323871832"><ele>45.0</ele><time>2026-04-27T10:11:27Z</time></trkpt><trkpt lat="14.38805746323117" lon="120.97032459029094"><ele>45.0</ele><time>2026-04-27T10:11:28Z</time></trkpt><trkpt lat="14.38799355499497" lon="120.97041357939501"><ele>45.0</ele><time>2026-04-27T10:11:29Z</time></trkpt><trkpt lat="14.387939261165847" lon="120.97049975850267"><ele>45.0</ele><time>2026-04-27T10:11:30Z</time></trkpt><trkpt lat="14.387893477953774" lon="120.97057697742903"><ele>45.0</ele><time>2026-04-27T10:11:31Z</time></trkpt><trkpt lat="14.387854278172965" lon="120.97065039262559"><ele>45.0</ele><time>2026-04-27T10:11:32Z</time></trkpt><trkpt lat="14.38782413528384" lon="120.97071214846942"><ele>45.0</ele><time>2026-04-27T10:11:33Z</time></trkpt><trkpt lat="14.387799754087562" lon="120.97078053024822"><ele>45.0</ele><time>2026-04-27T10:11:37Z</time></trkpt><trkpt lat="14.38776254571333" lon="120.97086160691563"><ele>44.5</ele><time>2026-04-27T10:11:39Z</time></trkpt><trkpt lat="14.387738222882243" lon="120.9709330817784"><ele>44.0</ele><time>2026-04-27T10:11:40Z</time></trkpt><trkpt lat="14.387716833883285" lon="120.97101249237281"><ele>43.5</ele><time>2026-04-27T10:11:41Z</time></trkpt><trkpt lat="14.387689927514542" lon="120.97109963716332"><ele>43.0</ele><time>2026-04-27T10:11:42Z</time></trkpt><trkpt lat="14.387664208597947" lon="120.97119193875217"><ele>42.5</ele><time>2026-04-27T10:11:43Z</time></trkpt><trkpt lat="14.387636801575594" lon="120.97129566302468"><ele>42.0</ele><time>2026-04-27T10:11:44Z</time></trkpt><trkpt lat="14.387606052153558" lon="120.97139795993357"><ele>42.0</ele><time>2026-04-27T10:11:45Z</time></trkpt><trkpt lat="14.387577049978947" lon="120.97149926750842"><ele>42.0</ele><time>2026-04-27T10:11:46Z</time></trkpt><trkpt lat="14.387552384421088" lon="120.97158960399288"><ele>42.0</ele><time>2026-04-27T10:11:47Z</time></trkpt><trkpt lat="14.387535137424157" lon="120.97167089272702"><ele>42.0</ele><time>2026-04-27T10:11:48Z</time></trkpt><trkpt lat="14.387520366849532" lon="120.97173715459142"><ele>42.0</ele><time>2026-04-27T10:11:49Z</time></trkpt><trkpt lat="14.387490319915639" lon="120.97188385467837"><ele>42.0</ele><time>2026-04-27T10:11:51Z</time></trkpt><trkpt lat="14.387468272717227" lon="120.97197052534423"><ele>42.0</ele><time>2026-04-27T10:11:52Z</time></trkpt><trkpt lat="14.387448111633496" lon="120.97204231347081"><ele>42.0</ele><time>2026-04-27T10:11:53Z</time></trkpt><trkpt lat="14.387411231484272" lon="120.97216941050331"><ele>42.0</ele><time>2026-04-27T10:11:55Z</time></trkpt><trkpt lat="14.387393718047466" lon="120.97223339319801"><ele>42.0</ele><time>2026-04-27T10:11:56Z</time></trkpt><trkpt lat="14.387360397264507" lon="120.97234135809163"><ele>42.0</ele><time>2026-04-27T10:11:58Z</time></trkpt><trkpt lat="14.387342156786547" lon="120.97240673266036"><ele>42.0</ele><time>2026-04-27T10:11:59Z</time></trkpt><trkpt lat="14.387322081612604" lon="120.97248541446865"><ele>42.0</ele><time>2026-04-27T10:12:00Z</time></trkpt><trkpt lat="14.387301485594886" lon="120.97256780931332"><ele>42.0</ele><time>2026-04-27T10:12:01Z</time></trkpt><trkpt lat="14.387283625417567" lon="120.97264878443742"><ele>42.0</ele><time>2026-04-27T10:12:02Z</time></trkpt><trkpt lat="14.387258715206672" lon="120.97273853497664"><ele>42.0</ele><time>2026-04-27T10:12:03Z</time></trkpt><trkpt lat="14.38722348118933" lon="120.97283481520391"><ele>42.0</ele><time>2026-04-27T10:12:04Z</time></trkpt><trkpt lat="14.387182148374986" lon="120.9729462910367"><ele>42.0</ele><time>2026-04-27T10:12:05Z</time></trkpt><trkpt lat="14.387143985867386" lon="120.97306335095053"><ele>42.0</ele><time>2026-04-27T10:12:06Z</time></trkpt><trkpt lat="14.387105251810574" lon="120.97317976636786"><ele>42.0</ele><time>2026-04-27T10:12:07Z</time></trkpt><trkpt lat="14.387067260705615" lon="120.9733147951165"><ele>42.75</ele><time>2026-04-27T10:12:08Z</time></trkpt><trkpt lat="14.387038540872929" lon="120.97345640473664"><ele>43.5</ele><time>2026-04-27T10:12:09Z</time></trkpt><trkpt lat="14.387000454767277" lon="120.97358967111518"><ele>44.25</ele><time>2026-04-27T10:12:10Z</time></trkpt><trkpt lat="14.386964644174022" lon="120.97373370291766"><ele>45.0</ele><time>2026-04-27T10:12:11Z</time></trkpt><trkpt lat="14.386931454896992" lon="120.97387084153509"><ele>45.0</ele><time>2026-04-27T10:12:12Z</time></trkpt><trkpt lat="14.386903277025846" lon="120.97399397342475"><ele>45.0</ele><time>2026-04-27T10:12:13Z</time></trkpt><trkpt lat="14.386880842893913" lon="120.97412108140871"><ele>45.0</ele><time>2026-04-27T10:12:14Z</time></trkpt><trkpt lat="14.38686095567545" lon="120.97422806755921"><ele>45.0</ele><time>2026-04-27T10:12:15Z</time></trkpt><trkpt lat="14.386843267532802" lon="120.97432809903084"><ele>45.333333333333336</ele><time>2026-04-27T10:12:16Z</time></trkpt><trkpt lat="14.386831478489418" lon="120.97442132814315"><ele>45.666666666666664</ele><time>2026-04-27T10:12:17Z</time></trkpt><trkpt lat="14.386819495110615" lon="120.97451136942935"><ele>46.0</ele><time>2026-04-27T10:12:18Z</time></trkpt><trkpt lat="14.38680336220621" lon="120.9745916760022"><ele>46.33333333333333</ele><time>2026-04-27T10:12:19Z</time></trkpt><trkpt lat="14.386785942291914" lon="120.97466222281612"><ele>46.666666666666664</ele><time>2026-04-27T10:12:20Z</time></trkpt><trkpt lat="14.386768306541882" lon="120.97473798689921"><ele>47.0</ele><time>2026-04-27T10:12:21Z</time></trkpt><trkpt lat="14.386746552844304" lon="120.97481407568182"><ele>47.0</ele><time>2026-04-27T10:12:22Z</time></trkpt><trkpt lat="14.386722536542399" lon="120.97487941274973"><ele>47.0</ele><time>2026-04-27T10:12:23Z</time></trkpt><trkpt lat="14.386702830643653" lon="120.97495754780635"><ele>47.0</ele><time>2026-04-27T10:12:24Z</time></trkpt><trkpt lat="14.386684509832715" lon="120.97502140563905"><ele>47.0</ele><time>2026-04-27T10:12:25Z</time></trkpt><trkpt lat="14.386664601603233" lon="120.97509053645966"><ele>47.0</ele><time>2026-04-27T10:12:26Z</time></trkpt><trkpt lat="14.386641123440612" lon="120.9751683096657"><ele>47.0</ele><time>2026-04-27T10:12:27Z</time></trkpt><trkpt lat="14.386615668743161" lon="120.97524454227899"><ele>47.0</ele><time>2026-04-27T10:12:28Z</time></trkpt><trkpt lat="14.386592613628297" lon="120.97532512386103"><ele>46.2</ele><time>2026-04-27T10:12:29Z</time></trkpt><trkpt lat="14.386568083600432" lon="120.97541125777862"><ele>45.400000000000006</ele><time>2026-04-27T10:12:30Z</time></trkpt><trkpt lat="14.3865460911591" lon="120.97550258034877"><ele>44.599999999999994</ele><time>2026-04-27T10:12:31Z</time></trkpt><trkpt lat="14.386528567849554" lon="120.9756017573604"><ele>43.8</ele><time>2026-04-27T10:12:32Z</time></trkpt><trkpt lat="14.386518601799713" lon="120.9757111539637"><ele>43.0</ele><time>2026-04-27T10:12:33Z</time></trkpt><trkpt lat="14.386505127482444" lon="120.97582222626265"><ele>44.0</ele><time>2026-04-27T10:12:34Z</time></trkpt><trkpt lat="14.386480362089944" lon="120.97593882479154"><ele>45.0</ele><time>2026-04-27T10:12:35Z</time></trkpt><trkpt lat="14.38644437591878" lon="120.97604487822495"><ele>46.0</ele><time>2026-04-27T10:12:36Z</time></trkpt><trkpt lat="14.386409520530114" lon="120.97616980965823"><ele>47.0</ele><time>2026-04-27T10:12:37Z</time></trkpt><trkpt lat="14.38636907229518" lon="120.97629216532539"><ele>46.75</ele><time>2026-04-27T10:12:38Z</time></trkpt><trkpt lat="14.386327511583616" lon="120.97641084951663"><ele>46.5</ele><time>2026-04-27T10:12:39Z</time></trkpt><trkpt lat="14.386291562675659" lon="120.97654805067478"><ele>46.25</ele><time>2026-04-27T10:12:40Z</time></trkpt><trkpt lat="14.386260766252304" lon="120.97667195809689"><ele>46.0</ele><time>2026-04-27T10:12:41Z</time></trkpt><trkpt lat="14.38622754643478" lon="120.97677949583368"><ele>46.0</ele><time>2026-04-27T10:12:42Z</time></trkpt><trkpt lat="14.386192982509417" lon="120.97688552339788"><ele>46.0</ele><time>2026-04-27T10:12:43Z</time></trkpt><trkpt lat="14.386153767523682" lon="120.97698160006237"><ele>46.0</ele><time>2026-04-27T10:12:44Z</time></trkpt><trkpt lat="14.386125048655332" lon="120.97707290932823"><ele>46.0</ele><time>2026-04-27T10:12:45Z</time></trkpt><trkpt lat="14.386093882974219" lon="120.97717550175848"><ele>46.0</ele><time>2026-04-27T10:12:46Z</time></trkpt><trkpt lat="14.386069311383451" lon="120.97727058453535"><ele>46.0</ele><time>2026-04-27T10:12:47Z</time></trkpt><trkpt lat="14.38604330331433" lon="120.97736567629363"><ele>46.0</ele><time>2026-04-27T10:12:48Z</time></trkpt><trkpt lat="14.386022930960594" lon="120.97744431487232"><ele>46.0</ele><time>2026-04-27T10:12:49Z</time></trkpt><trkpt lat="14.386000890749102" lon="120.97754916843397"><ele>46.0</ele><time>2026-04-27T10:12:51Z</time></trkpt><trkpt lat="14.385997921943616" lon="120.97762035598736"><ele>46.0</ele><time>2026-04-27T10:14:41Z</time></trkpt><trkpt lat="14.385985813590656" lon="120.97770863524313"><ele>46.0</ele><time>2026-04-27T10:14:43Z</time></trkpt><trkpt lat="14.385982144219604" lon="120.97778657457219"><ele>46.333333333333336</ele><time>2026-04-27T10:14:45Z</time></trkpt><trkpt lat="14.385966671940183" lon="120.97785537384641"><ele>46.66666666666667</ele><time>2026-04-27T10:14:47Z</time></trkpt><trkpt lat="14.385946020755968" lon="120.97795476840408"><ele>47.0</ele><time>2026-04-27T10:14:50Z</time></trkpt><trkpt lat="14.385930287163246" lon="120.97806537338836"><ele>47.333333333333336</ele><time>2026-04-27T10:14:52Z</time></trkpt><trkpt lat="14.38592701383944" lon="120.97814173291373"><ele>47.666666666666664</ele><time>2026-04-27T10:14:53Z</time></trkpt><trkpt lat="14.385920830835168" lon="120.9782332584737"><ele>48.0</ele><time>2026-04-27T10:14:54Z</time></trkpt><trkpt lat="14.385908428799846" lon="120.97832527498137"><ele>47.333333333333336</ele><time>2026-04-27T10:14:55Z</time></trkpt><trkpt lat="14.385895009500754" lon="120.97841895069259"><ele>46.666666666666664</ele><time>2026-04-27T10:14:56Z</time></trkpt><trkpt lat="14.385882539637857" lon="120.9785118261047"><ele>46.0</ele><time>2026-04-27T10:14:57Z</time></trkpt><trkpt lat="14.385873625940636" lon="120.97859489195689"><ele>45.33333333333333</ele><time>2026-04-27T10:14:58Z</time></trkpt><trkpt lat="14.385866937597545" lon="120.97867884663958"><ele>44.666666666666664</ele><time>2026-04-27T10:14:59Z</time></trkpt><trkpt lat="14.385859804939981" lon="120.9787622200648"><ele>44.0</ele><time>2026-04-27T10:15:00Z</time></trkpt><trkpt lat="14.38585008762489" lon="120.97884765512404"><ele>44.0</ele><time>2026-04-27T10:15:01Z</time></trkpt><trkpt lat="14.385834714016504" lon="120.9789379235239"><ele>44.0</ele><time>2026-04-27T10:15:02Z</time></trkpt><trkpt lat="14.385817542715632" lon="120.97903440750498"><ele>44.0</ele><time>2026-04-27T10:15:03Z</time></trkpt><trkpt lat="14.385796059839269" lon="120.97912600101338"><ele>44.0</ele><time>2026-04-27T10:15:04Z</time></trkpt><trkpt lat="14.385766327068877" lon="120.97921737659466"><ele>44.0</ele><time>2026-04-27T10:15:05Z</time></trkpt><trkpt lat="14.385724142810021" lon="120.97931659163848"><ele>43.75</ele><time>2026-04-27T10:15:06Z</time></trkpt><trkpt lat="14.385668070865977" lon="120.97940967261331"><ele>43.5</ele><time>2026-04-27T10:15:07Z</time></trkpt><trkpt lat="14.38560024523667" lon="120.97950605880969"><ele>43.25</ele><time>2026-04-27T10:15:08Z</time></trkpt><trkpt lat="14.385517792461373" lon="120.97959415741647"><ele>43.0</ele><time>2026-04-27T10:15:09Z</time></trkpt><trkpt lat="14.385419405865807" lon="120.97966981593758"><ele>43.0</ele><time>2026-04-27T10:15:10Z</time></trkpt><trkpt lat="14.385314171777665" lon="120.97972730490069"><ele>43.0</ele><time>2026-04-27T10:15:11Z</time></trkpt><trkpt lat="14.385213071486929" lon="120.97976973445795"><ele>43.0</ele><time>2026-04-27T10:15:12Z</time></trkpt><trkpt lat="14.385118722169159" lon="120.97980517445976"><ele>43.0</ele><time>2026-04-27T10:15:13Z</time></trkpt><trkpt lat="14.385020680056329" lon="120.97984414556427"><ele>43.0</ele><time>2026-04-27T10:15:14Z</time></trkpt><trkpt lat="14.384921997210027" lon="120.97988299144905"><ele>43.0</ele><time>2026-04-27T10:15:15Z</time></trkpt><trkpt lat="14.384827627568837" lon="120.97992277178045"><ele>43.0</ele><time>2026-04-27T10:15:16Z</time></trkpt><trkpt lat="14.38473005139164" lon="120.979961978091"><ele>43.0</ele><time>2026-04-27T10:15:17Z</time></trkpt><trkpt lat="14.38462573429637" lon="120.98000596330775"><ele>43.0</ele><time>2026-04-27T10:15:18Z</time></trkpt><trkpt lat="14.384523040339067" lon="120.98004816538636"><ele>43.0</ele><time>2026-04-27T10:15:19Z</time></trkpt><trkpt lat="14.384423635908247" lon="120.9800870676939"><ele>43.0</ele><time>2026-04-27T10:15:20Z</time></trkpt><trkpt lat="14.384329295632266" lon="120.98012277990624"><ele>43.0</ele><time>2026-04-27T10:15:21Z</time></trkpt><trkpt lat="14.384236518392479" lon="120.98015833313926"><ele>43.0</ele><time>2026-04-27T10:15:22Z</time></trkpt><trkpt lat="14.38414684935069" lon="120.98019458419178"><ele>43.0</ele><time>2026-04-27T10:15:23Z</time></trkpt><trkpt lat="14.38405717185184" lon="120.98022990128825"><ele>43.0</ele><time>2026-04-27T10:15:24Z</time></trkpt><trkpt lat="14.38396697388906" lon="120.98026322173433"><ele>43.0</ele><time>2026-04-27T10:15:25Z</time></trkpt><trkpt lat="14.38387647898479" lon="120.98029473129257"><ele>43.0</ele><time>2026-04-27T10:15:26Z</time></trkpt><trkpt lat="14.383789070541383" lon="120.98032284761936"><ele>43.0</ele><time>2026-04-27T10:15:27Z</time></trkpt><trkpt lat="14.383700235009012" lon="120.98035145893925"><ele>43.0</ele><time>2026-04-27T10:15:28Z</time></trkpt><trkpt lat="14.383619902845332" lon="120.98037493908407"><ele>43.0</ele><time>2026-04-27T10:15:29Z</time></trkpt><trkpt lat="14.383548825919199" lon="120.98039677895822"><ele>43.0</ele><time>2026-04-27T10:15:30Z</time></trkpt><trkpt lat="14.383489530288418" lon="120.98041903973652"><ele>43.2</ele><time>2026-04-27T10:15:31Z</time></trkpt><trkpt lat="14.383405286587458" lon="120.98048780570235"><ele>43.4</ele><time>2026-04-27T10:15:33Z</time></trkpt><trkpt lat="14.383370546294792" lon="120.98057994658626"><ele>43.6</ele><time>2026-04-27T10:15:35Z</time></trkpt><trkpt lat="14.383375302657285" lon="120.98069194510519"><ele>43.800000000000004</ele><time>2026-04-27T10:15:37Z</time></trkpt><trkpt lat="14.383384467608876" lon="120.98076076350445"><ele>44.0</ele><time>2026-04-27T10:15:38Z</time></trkpt><trkpt lat="14.383387700265182" lon="120.9808390158678"><ele>43.800000000000004</ele><time>2026-04-27T10:15:39Z</time></trkpt><trkpt lat="14.383387916649124" lon="120.98092900926686"><ele>43.6</ele><time>2026-04-27T10:15:40Z</time></trkpt><trkpt lat="14.383386965331619" lon="120.9810308788161"><ele>43.4</ele><time>2026-04-27T10:15:41Z</time></trkpt><trkpt lat="14.383385578318693" lon="120.9811423596463"><ele>43.2</ele><time>2026-04-27T10:15:42Z</time></trkpt><trkpt lat="14.38338025221717" lon="120.9812551154893"><ele>43.0</ele><time>2026-04-27T10:15:43Z</time></trkpt><trkpt lat="14.383373975693315" lon="120.98138024085704"><ele>43.0</ele><time>2026-04-27T10:15:44Z</time></trkpt><trkpt lat="14.383397786883785" lon="120.98152778113416"><ele>43.0</ele><time>2026-04-27T10:15:45Z</time></trkpt><trkpt lat="14.383410864870859" lon="120.98169160036547"><ele>43.0</ele><time>2026-04-27T10:15:46Z</time></trkpt><trkpt lat="14.383413147697713" lon="120.981811474983"><ele>43.0</ele><time>2026-04-27T10:15:47Z</time></trkpt><trkpt lat="14.383416161504107" lon="120.9819453479116"><ele>43.5</ele><time>2026-04-27T10:15:48Z</time></trkpt><trkpt lat="14.383424342005705" lon="120.98211582291877"><ele>44.0</ele><time>2026-04-27T10:15:49Z</time></trkpt><trkpt lat="14.383428340181046" lon="120.98226393796998"><ele>44.5</ele><time>2026-04-27T10:15:50Z</time></trkpt><trkpt lat="14.383433113158985" lon="120.98239338402055"><ele>45.0</ele><time>2026-04-27T10:15:51Z</time></trkpt><trkpt lat="14.383440006470732" lon="120.9825209878798"><ele>45.2</ele><time>2026-04-27T10:15:52Z</time></trkpt><trkpt lat="14.383442018635021" lon="120.98262855559979"><ele>45.4</ele><time>2026-04-27T10:15:53Z</time></trkpt><trkpt lat="14.383445400796106" lon="120.98272791377967"><ele>45.599999999999994</ele><time>2026-04-27T10:15:54Z</time></trkpt><trkpt lat="14.383450191844245" lon="120.98281960594547"><ele>45.8</ele><time>2026-04-27T10:15:55Z</time></trkpt><trkpt lat="14.383451710193535" lon="120.98290771446369"><ele>46.0</ele><time>2026-04-27T10:15:56Z</time></trkpt><trkpt lat="14.383453378314913" lon="120.98300687518808"><ele>46.0</ele><time>2026-04-27T10:15:57Z</time></trkpt><trkpt lat="14.383456149912863" lon="120.9831161041716"><ele>46.0</ele><time>2026-04-27T10:15:58Z</time></trkpt><trkpt lat="14.383457481600205" lon="120.98322869526628"><ele>46.0</ele><time>2026-04-27T10:15:59Z</time></trkpt><trkpt lat="14.383457460278514" lon="120.98334234133777"><ele>46.0</ele><time>2026-04-27T10:16:00Z</time></trkpt><trkpt lat="14.38346535848492" lon="120.98347968822328"><ele>46.25</ele><time>2026-04-27T10:16:01Z</time></trkpt><trkpt lat="14.383470659069117" lon="120.98360744445526"><ele>46.5</ele><time>2026-04-27T10:16:02Z</time></trkpt><trkpt lat="14.383470906913084" lon="120.98372595137388"><ele>46.75</ele><time>2026-04-27T10:16:03Z</time></trkpt><trkpt lat="14.383465124478107" lon="120.98385233381704"><ele>47.0</ele><time>2026-04-27T10:16:04Z</time></trkpt><trkpt lat="14.383456745661661" lon="120.98398389211913"><ele>47.0</ele><time>2026-04-27T10:16:05Z</time></trkpt><trkpt lat="14.383441332331271" lon="120.9841176587401"><ele>47.0</ele><time>2026-04-27T10:16:06Z</time></trkpt><trkpt lat="14.383421021419686" lon="120.98425355399978"><ele>47.0</ele><time>2026-04-27T10:16:07Z</time></trkpt><trkpt lat="14.383397333249029" lon="120.98439275135803"><ele>47.0</ele><time>2026-04-27T10:16:08Z</time></trkpt><trkpt lat="14.383368478677518" lon="120.9845357919065"><ele>45.33333333333333</ele><time>2026-04-27T10:16:09Z</time></trkpt><trkpt lat="14.383328003803511" lon="120.98467892141416"><ele>43.666666666666664</ele><time>2026-04-27T10:16:10Z</time></trkpt><trkpt lat="14.383278125727365" lon="120.98483217926861"><ele>42.0</ele><time>2026-04-27T10:16:11Z</time></trkpt><trkpt lat="14.383218257365947" lon="120.9849828131027"><ele>43.666666666666664</ele><time>2026-04-27T10:16:12Z</time></trkpt><trkpt lat="14.383154227135863" lon="120.9851379682581"><ele>45.33333333333333</ele><time>2026-04-27T10:16:13Z</time></trkpt><trkpt lat="14.383079581639219" lon="120.98529149600145"><ele>47.0</ele><time>2026-04-27T10:16:14Z</time></trkpt><trkpt lat="14.383003833694728" lon="120.98545645614516"><ele>47.0</ele><time>2026-04-27T10:16:15Z</time></trkpt><trkpt lat="14.382937719757832" lon="120.98559883406864"><ele>47.0</ele><time>2026-04-27T10:16:16Z</time></trkpt><trkpt lat="14.382876969596621" lon="120.98573314503055"><ele>47.0</ele><time>2026-04-27T10:16:17Z</time></trkpt><trkpt lat="14.382818095125232" lon="120.98585773221902"><ele>47.0</ele><time>2026-04-27T10:16:18Z</time></trkpt><trkpt lat="14.382770082101036" lon="120.98599437054581"><ele>46.5</ele><time>2026-04-27T10:16:19Z</time></trkpt><trkpt lat="14.38270165187364" lon="120.98611870205808"><ele>46.0</ele><time>2026-04-27T10:16:20Z</time></trkpt><trkpt lat="14.38264520150125" lon="120.98624434937759"><ele>45.5</ele><time>2026-04-27T10:16:21Z</time></trkpt><trkpt lat="14.382588499357839" lon="120.98637482114225"><ele>45.0</ele><time>2026-04-27T10:16:22Z</time></trkpt><trkpt lat="14.382532788136016" lon="120.98649855251581"><ele>45.0</ele><time>2026-04-27T10:16:23Z</time></trkpt><trkpt lat="14.38247342824246" lon="120.98661949018054"><ele>45.0</ele><time>2026-04-27T10:16:24Z</time></trkpt><trkpt lat="14.382420221662548" lon="120.9867404385956"><ele>45.0</ele><time>2026-04-27T10:16:25Z</time></trkpt><trkpt lat="14.382373837237811" lon="120.98686024513246"><ele>45.0</ele><time>2026-04-27T10:16:26Z</time></trkpt><trkpt lat="14.382315418553823" lon="120.98697062621899"><ele>45.2</ele><time>2026-04-27T10:16:27Z</time></trkpt><trkpt lat="14.382273296160404" lon="120.98707246048137"><ele>45.4</ele><time>2026-04-27T10:16:28Z</time></trkpt><trkpt lat="14.382230794667395" lon="120.9871697990227"><ele>45.599999999999994</ele><time>2026-04-27T10:16:29Z</time></trkpt><trkpt lat="14.382187545884133" lon="120.98726673061415"><ele>45.8</ele><time>2026-04-27T10:16:30Z</time></trkpt><trkpt lat="14.382143600864566" lon="120.987374433518"><ele>46.0</ele><time>2026-04-27T10:16:31Z</time></trkpt><trkpt lat="14.382089788051118" lon="120.9874798040295"><ele>45.4</ele><time>2026-04-27T10:16:32Z</time></trkpt><trkpt lat="14.382041673566242" lon="120.98758026474978"><ele>44.8</ele><time>2026-04-27T10:16:33Z</time></trkpt><trkpt lat="14.382000862603519" lon="120.98766845292259"><ele>44.199999999999996</ele><time>2026-04-27T10:16:34Z</time></trkpt><trkpt lat="14.381964931574313" lon="120.98775707906505"><ele>43.599999999999994</ele><time>2026-04-27T10:16:35Z</time></trkpt><trkpt lat="14.381928356557854" lon="120.98783720232035"><ele>43.0</ele><time>2026-04-27T10:16:36Z</time></trkpt><trkpt lat="14.381894316875528" lon="120.98792755607707"><ele>43.0</ele><time>2026-04-27T10:16:37Z</time></trkpt><trkpt lat="14.381864962504585" lon="120.98802078526312"><ele>43.0</ele><time>2026-04-27T10:16:38Z</time></trkpt><trkpt lat="14.38183923175882" lon="120.98810751032855"><ele>43.0</ele><time>2026-04-27T10:16:39Z</time></trkpt><trkpt lat="14.381822828867842" lon="120.98820455777218"><ele>43.0</ele><time>2026-04-27T10:16:40Z</time></trkpt><trkpt lat="14.381817232174948" lon="120.9883078515267"><ele>43.0</ele><time>2026-04-27T10:16:41Z</time></trkpt><trkpt lat="14.381815999647882" lon="120.98839143019227"><ele>43.0</ele><time>2026-04-27T10:16:42Z</time></trkpt><trkpt lat="14.381815398430954" lon="120.98849286878118"><ele>43.0</ele><time>2026-04-27T10:16:43Z</time></trkpt><trkpt lat="14.381816389990043" lon="120.9885762817434"><ele>43.0</ele><time>2026-04-27T10:16:44Z</time></trkpt><trkpt lat="14.381814853093934" lon="120.98866427754804"><ele>43.0</ele><time>2026-04-27T10:16:45Z</time></trkpt><trkpt lat="14.38182122176996" lon="120.98876546278873"><ele>43.0</ele><time>2026-04-27T10:16:46Z</time></trkpt><trkpt lat="14.381828187508377" lon="120.98887971239509"><ele>43.0</ele><time>2026-04-27T10:16:47Z</time></trkpt><trkpt lat="14.381826327031291" lon="120.98900515797158"><ele>43.0</ele><time>2026-04-27T10:16:48Z</time></trkpt><trkpt lat="14.381817124844623" lon="120.98913982434372"><ele>43.0</ele><time>2026-04-27T10:16:49Z</time></trkpt><trkpt lat="14.3818104306136" lon="120.98927719534942"><ele>43.0</ele><time>2026-04-27T10:16:50Z</time></trkpt><trkpt lat="14.3817990310131" lon="120.9894187386265"><ele>45.25</ele><time>2026-04-27T10:16:51Z</time></trkpt><trkpt lat="14.381772869220562" lon="120.98955851137671"><ele>47.5</ele><time>2026-04-27T10:16:52Z</time></trkpt><trkpt lat="14.381734950773797" lon="120.98969258929975"><ele>49.75</ele><time>2026-04-27T10:16:53Z</time></trkpt><trkpt lat="14.381684523484871" lon="120.98983106991963"><ele>52.0</ele><time>2026-04-27T10:16:54Z</time></trkpt><trkpt lat="14.381628654398842" lon="120.98995742062526"><ele>53.0</ele><time>2026-04-27T10:16:55Z</time></trkpt><trkpt lat="14.381571900246781" lon="120.9900667575933"><ele>54.0</ele><time>2026-04-27T10:16:56Z</time></trkpt><trkpt lat="14.381512906140536" lon="120.99015481900021"><ele>55.0</ele><time>2026-04-27T10:16:57Z</time></trkpt><trkpt lat="14.381455329559168" lon="120.99022556390877"><ele>56.0</ele><time>2026-04-27T10:16:58Z</time></trkpt><trkpt lat="14.381403960290006" lon="120.99028621713047"><ele>57.0</ele><time>2026-04-27T10:16:59Z</time></trkpt><trkpt lat="14.381355737441119" lon="120.99034480824733"><ele>57.166666666666664</ele><time>2026-04-27T10:17:00Z</time></trkpt><trkpt lat="14.381308258210915" lon="120.99040740577114"><ele>57.33333333333333</ele><time>2026-04-27T10:17:01Z</time></trkpt><trkpt lat="14.381259907698952" lon="120.99047048987393"><ele>57.5</ele><time>2026-04-27T10:17:02Z</time></trkpt><trkpt lat="14.38122072334646" lon="120.99053197241601"><ele>57.666666666666664</ele><time>2026-04-27T10:17:03Z</time></trkpt><trkpt lat="14.381148024427006" lon="120.9906089086466"><ele>57.83333333333333</ele><time>2026-04-27T10:17:05Z</time></trkpt><trkpt lat="14.381101777482115" lon="120.9906864910879"><ele>58.0</ele><time>2026-04-27T10:17:07Z</time></trkpt><trkpt lat="14.381047774461926" lon="120.99074762841421"><ele>57.99999999999999</ele><time>2026-04-27T10:17:11Z</time></trkpt><trkpt lat="14.380980692625513" lon="120.99074055201588"><ele>58.0</ele><time>2026-04-27T10:17:14Z</time></trkpt><trkpt lat="14.380931895955912" lon="120.99069145281088"><ele>58.0</ele><time>2026-04-27T10:17:17Z</time></trkpt><trkpt lat="14.380865687941686" lon="120.99066237379182"><ele>58.0</ele><time>2026-04-27T10:17:19Z</time></trkpt><trkpt lat="14.380772113935434" lon="120.9906593906771"><ele>57.99999999999999</ele><time>2026-04-27T10:17:21Z</time></trkpt><trkpt lat="14.38067972358576" lon="120.99066105917849"><ele>58.0</ele><time>2026-04-27T10:17:23Z</time></trkpt><trkpt lat="14.38058334012624" lon="120.99066084321497"><ele>57.49999999999999</ele><time>2026-04-27T10:17:25Z</time></trkpt><trkpt lat="14.38047573000327" lon="120.99065652641984"><ele>57.0</ele><time>2026-04-27T10:17:27Z</time></trkpt><trkpt lat="14.380412082311485" lon="120.99066063954326"><ele>56.5</ele><time>2026-04-27T10:17:28Z</time></trkpt><trkpt lat="14.380330864740849" lon="120.99066050312894"><ele>56.0</ele><time>2026-04-27T10:17:30Z</time></trkpt><trkpt lat="14.380267670161944" lon="120.99065841413345"><ele>55.49999999999999</ele><time>2026-04-27T10:17:34Z</time></trkpt><trkpt lat="14.380204579164722" lon="120.99065492561479"><ele>55.0</ele><time>2026-04-27T10:17:36Z</time></trkpt><trkpt lat="14.380116197188325" lon="120.99065662684843"><ele>55.0</ele><time>2026-04-27T10:17:38Z</time></trkpt><trkpt lat="14.380021933306542" lon="120.99065501509807"><ele>55.0</ele><time>2026-04-27T10:17:40Z</time></trkpt><trkpt lat="14.3799302977768" lon="120.9906553998161"><ele>55.0</ele><time>2026-04-27T10:17:42Z</time></trkpt><trkpt lat="14.3798256855593" lon="120.99065580384817"><ele>55.0</ele><time>2026-04-27T10:17:44Z</time></trkpt><trkpt lat="14.379715284152338" lon="120.99066142735975"><ele>55.0</ele><time>2026-04-27T10:17:46Z</time></trkpt><trkpt lat="14.379603468793215" lon="120.99066251090629"><ele>53.83333333333333</ele><time>2026-04-27T10:17:48Z</time></trkpt><trkpt lat="14.379501673462952" lon="120.99065694637379"><ele>52.666666666666664</ele><time>2026-04-27T10:17:50Z</time></trkpt><trkpt lat="14.379426696491105" lon="120.99064880633165"><ele>51.5</ele><time>2026-04-27T10:17:52Z</time></trkpt><trkpt lat="14.37935975828172" lon="120.99065038379749"><ele>50.33333333333333</ele><time>2026-04-27T10:17:55Z</time></trkpt><trkpt lat="14.379296231494534" lon="120.99065752012638"><ele>49.166666666666664</ele><time>2026-04-27T10:17:58Z</time></trkpt><trkpt lat="14.379205591439268" lon="120.99065925266972"><ele>48.0</ele><time>2026-04-27T10:18:00Z</time></trkpt><trkpt lat="14.379100560248558" lon="120.99065716509003"><ele>48.0</ele><time>2026-04-27T10:18:02Z</time></trkpt><trkpt lat="14.379022351017674" lon="120.99066717028936"><ele>48.0</ele><time>2026-04-27T10:18:04Z</time></trkpt><trkpt lat="14.378979188840216" lon="120.99073259316197"><ele>48.0</ele><time>2026-04-27T10:18:07Z</time></trkpt><trkpt lat="14.378985537000313" lon="120.99081604250175"><ele>48.0</ele><time>2026-04-27T10:18:11Z</time></trkpt><trkpt lat="14.378982315652136" lon="120.99089841200782"><ele>48.0</ele><time>2026-04-27T10:18:14Z</time></trkpt><trkpt lat="14.37898681131372" lon="120.99097717876145"><ele>48.0</ele><time>2026-04-27T10:18:18Z</time></trkpt><trkpt lat="14.37892933019412" lon="120.99104533980972"><ele>49.8</ele><time>2026-04-27T10:19:44Z</time></trkpt><trkpt lat="14.378963685214252" lon="120.9911459540216"><ele>51.599999999999994</ele><time>2026-04-27T10:19:47Z</time></trkpt><trkpt lat="14.379009513622862" lon="120.99123229748731"><ele>53.400000000000006</ele><time>2026-04-27T10:19:49Z</time></trkpt><trkpt lat="14.379088582109421" lon="120.99132036895469"><ele>55.2</ele><time>2026-04-27T10:19:52.07Z</time></trkpt><trkpt lat="14.379055255170028" lon="120.99141262097581"><ele>57.0</ele><time>2026-04-27T10:19:54.037Z</time></trkpt><trkpt lat="14.379068620716925" lon="120.99148752015994"><ele>57.0</ele><time>2026-04-27T10:19:55.036Z</time></trkpt><trkpt lat="14.379082238081631" lon="120.99155325011535"><ele>57.0</ele><time>2026-04-27T10:19:56.037Z</time></trkpt><trkpt lat="14.379010187025196" lon="120.9912074943102"><ele>57.0</ele><time>2026-04-27T10:19:57.038Z</time></trkpt><trkpt lat="14.378913576949182" lon="120.99111653938031"><ele>57.0</ele><time>2026-04-27T10:20:46.035Z</time></trkpt><trkpt lat="14.378920858428545" lon="120.99102840959532"><ele>57.0</ele><time>2026-04-27T10:20:48Z</time></trkpt><trkpt lat="14.378981268844933" lon="120.99106701725663"><ele>57.0</ele><time>2026-04-27T10:23:55Z</time></trkpt><trkpt lat="14.37919033009095" lon="120.99105636264117"><ele>57.0</ele><time>2026-04-27T10:28:17.251Z</time></trkpt><trkpt lat="14.379016510707055" lon="120.99110000602255"><ele>57.0</ele><time>2026-04-27T14:33:26.948Z</time></trkpt><trkpt lat="14.379021068238098" lon="120.99098525958655"><ele>57.0</ele><time>2026-04-27T14:33:31Z</time></trkpt><trkpt lat="14.378957436319576" lon="120.99103958000022"><ele>57.0</ele><time>2026-04-27T14:34:42.001Z</time></trkpt><trkpt lat="14.378983159878823" lon="120.99110360144583"><ele>57.0</ele><time>2026-04-27T14:35:38.001Z</time></trkpt><trkpt lat="14.378989108057503" lon="120.9911803910012"><ele>57.0</ele><time>2026-04-27T14:35:41.001Z</time></trkpt><trkpt lat="14.379058660911053" lon="120.99121820859992"><ele>57.0</ele><time>2026-04-27T14:35:44.001Z</time></trkpt><trkpt lat="14.379140570704624" lon="120.99121799390402"><ele>57.0</ele><time>2026-04-27T14:36:19.001Z</time></trkpt><trkpt lat="14.379229269101767" lon="120.99121012928434"><ele>57.0</ele><time>2026-04-27T14:36:23.001Z</time></trkpt><trkpt lat="14.379294914478702" lon="120.99122515818021"><ele>57.0</ele><time>2026-04-27T14:36:25.001Z</time></trkpt><trkpt lat="14.37938445033216" lon="120.99122768623984"><ele>57.0</ele><time>2026-04-27T14:36:28.001Z</time></trkpt><trkpt lat="14.379466104007928" lon="120.99121318842353"><ele>57.0</ele><time>2026-04-27T14:36:30.001Z</time></trkpt><trkpt lat="14.379549086938036" lon="120.99121781904785"><ele>57.0</ele><time>2026-04-27T14:36:32.001Z</time></trkpt><trkpt lat="14.379626695196228" lon="120.99122588119874"><ele>57.0</ele><time>2026-04-27T14:36:34.001Z</time></trkpt><trkpt lat="14.3797058236994" lon="120.99123015437574"><ele>57.0</ele><time>2026-04-27T14:36:36.001Z</time></trkpt><trkpt lat="14.379798539015255" lon="120.99122898712723"><ele>57.0</ele><time>2026-04-27T14:36:38.001Z</time></trkpt><trkpt lat="14.379891622499501" lon="120.99123007685056"><ele>57.0</ele><time>2026-04-27T14:36:40.001Z</time></trkpt><trkpt lat="14.379993376233774" lon="120.99122575099825"><ele>57.0</ele><time>2026-04-27T14:36:42.001Z</time></trkpt><trkpt lat="14.38009348070789" lon="120.99120777254191"><ele>57.0</ele><time>2026-04-27T14:36:44.001Z</time></trkpt><trkpt lat="14.380188882467216" lon="120.99121494185565"><ele>57.0</ele><time>2026-04-27T14:36:46.001Z</time></trkpt><trkpt lat="14.380286237195776" lon="120.99121436684739"><ele>57.0</ele><time>2026-04-27T14:36:48.001Z</time></trkpt><trkpt lat="14.380382368945538" lon="120.99121608952704"><ele>57.0</ele><time>2026-04-27T14:36:50.001Z</time></trkpt><trkpt lat="14.380449592737197" lon="120.99121557751396"><ele>57.0</ele><time>2026-04-27T14:36:52.001Z</time></trkpt><trkpt lat="14.380502716766415" lon="120.99117954036392"><ele>57.0</ele><time>2026-04-27T14:36:57.001Z</time></trkpt><trkpt lat="14.380548046771615" lon="120.99111471575114"><ele>57.0</ele><time>2026-04-27T14:36:59.001Z</time></trkpt><trkpt lat="14.380583749298184" lon="120.9910503225636"><ele>57.0</ele><time>2026-04-27T14:37:01.001Z</time></trkpt><trkpt lat="14.380628316787183" lon="120.99098770227155"><ele>57.0</ele><time>2026-04-27T14:37:16.001Z</time></trkpt><trkpt lat="14.380689351885357" lon="120.99090886661538"><ele>57.0</ele><time>2026-04-27T14:37:19.001Z</time></trkpt><trkpt lat="14.38072727463002" lon="120.99084574962978"><ele>57.0</ele><time>2026-04-27T14:37:21.001Z</time></trkpt><trkpt lat="14.380756283204201" lon="120.99078047639296"><ele>57.0</ele><time>2026-04-27T14:37:23.001Z</time></trkpt><trkpt lat="14.380764047127988" lon="120.99070564747038"><ele>57.166666666666664</ele><time>2026-04-27T14:37:25.001Z</time></trkpt><trkpt lat="14.38083782561397" lon="120.99065700385383"><ele>57.33333333333333</ele><time>2026-04-27T14:37:28.001Z</time></trkpt><trkpt lat="14.380911624854017" lon="120.99068248979033"><ele>57.5</ele><time>2026-04-27T14:37:30.001Z</time></trkpt><trkpt lat="14.380967297745867" lon="120.9907196936348"><ele>57.666666666666664</ele><time>2026-04-27T14:37:33.001Z</time></trkpt><trkpt lat="14.381033788704249" lon="120.99074312470987"><ele>57.83333333333333</ele><time>2026-04-27T14:37:37.001Z</time></trkpt><trkpt lat="14.38109001087486" lon="120.99078027947009"><ele>58.0</ele><time>2026-04-27T14:37:39.001Z</time></trkpt><trkpt lat="14.381180418583586" lon="120.99077519214228"><ele>57.99999999999999</ele><time>2026-04-27T14:37:42.001Z</time></trkpt><trkpt lat="14.381239952267798" lon="120.99067102089414"><ele>58.0</ele><time>2026-04-27T14:37:44.001Z</time></trkpt><trkpt lat="14.381276788768973" lon="120.99061083734489"><ele>58.0</ele><time>2026-04-27T14:37:45.001Z</time></trkpt><trkpt lat="14.381319984361877" lon="120.99056254667286"><ele>58.0</ele><time>2026-04-27T14:37:46.001Z</time></trkpt><trkpt lat="14.381374074046846" lon="120.99049336337578"><ele>57.99999999999999</ele><time>2026-04-27T14:37:47.001Z</time></trkpt><trkpt lat="14.381430103511246" lon="120.99042254123191"><ele>58.0</ele><time>2026-04-27T14:37:48.001Z</time></trkpt><trkpt lat="14.381487647208058" lon="120.99034480452815"><ele>57.8</ele><time>2026-04-27T14:37:49.001Z</time></trkpt><trkpt lat="14.381546182766083" lon="120.99026203452485"><ele>57.599999999999994</ele><time>2026-04-27T14:37:50.001Z</time></trkpt><trkpt lat="14.381609223428114" lon="120.99017439440537"><ele>57.400000000000006</ele><time>2026-04-27T14:37:51.001Z</time></trkpt><trkpt lat="14.381666573851671" lon="120.99007892996806"><ele>57.2</ele><time>2026-04-27T14:37:52.001Z</time></trkpt><trkpt lat="14.381717074341713" lon="120.98997353550361"><ele>57.0</ele><time>2026-04-27T14:37:53.001Z</time></trkpt><trkpt lat="14.38178319592169" lon="120.98987018402147"><ele>55.75</ele><time>2026-04-27T14:37:54.001Z</time></trkpt><trkpt lat="14.381827742163567" lon="120.98974939962513"><ele>54.5</ele><time>2026-04-27T14:37:55.001Z</time></trkpt><trkpt lat="14.381861266322277" lon="120.989621628018"><ele>53.25</ele><time>2026-04-27T14:37:56.001Z</time></trkpt><trkpt lat="14.381868869348413" lon="120.98948506086185"><ele>52.0</ele><time>2026-04-27T14:37:57.001Z</time></trkpt><trkpt lat="14.38188696162231" lon="120.98935589432551"><ele>52.0</ele><time>2026-04-27T14:37:58Z</time></trkpt><trkpt lat="14.381903323303467" lon="120.98921355231296"><ele>52.0</ele><time>2026-04-27T14:37:59Z</time></trkpt><trkpt lat="14.381930495026534" lon="120.98908202754535"><ele>52.0</ele><time>2026-04-27T14:38:00Z</time></trkpt><trkpt lat="14.381906571249443" lon="120.98894622065595"><ele>52.0</ele><time>2026-04-27T14:38:01Z</time></trkpt><trkpt lat="14.381919069061421" lon="120.98880245892018"><ele>49.75</ele><time>2026-04-27T14:38:02Z</time></trkpt><trkpt lat="14.38191985413557" lon="120.98867050196078"><ele>47.5</ele><time>2026-04-27T14:38:03Z</time></trkpt><trkpt lat="14.381926259317774" lon="120.9885394963548"><ele>45.25</ele><time>2026-04-27T14:38:04Z</time></trkpt><trkpt lat="14.381923512323706" lon="120.98841434259245"><ele>43.0</ele><time>2026-04-27T14:38:05Z</time></trkpt><trkpt lat="14.381927479130091" lon="120.98830085524095"><ele>43.0</ele><time>2026-04-27T14:38:06Z</time></trkpt><trkpt lat="14.381942454511233" lon="120.98818661816676"><ele>43.0</ele><time>2026-04-27T14:38:07Z</time></trkpt><trkpt lat="14.381949486964643" lon="120.98809717282568"><ele>43.0</ele><time>2026-04-27T14:38:08Z</time></trkpt><trkpt lat="14.381975589582549" lon="120.98799793831495"><ele>43.0</ele><time>2026-04-27T14:38:09Z</time></trkpt><trkpt lat="14.382005316551222" lon="120.98790765291226"><ele>43.0</ele><time>2026-04-27T14:38:10Z</time></trkpt><trkpt lat="14.38204540044908" lon="120.98781000575728"><ele>43.0</ele><time>2026-04-27T14:38:11Z</time></trkpt><trkpt lat="14.382092935905852" lon="120.98771280233572"><ele>43.0</ele><time>2026-04-27T14:38:12Z</time></trkpt><trkpt lat="14.38214527119612" lon="120.98760694274158"><ele>43.0</ele><time>2026-04-27T14:38:13Z</time></trkpt><trkpt lat="14.382190729099712" lon="120.98750231197555"><ele>43.0</ele><time>2026-04-27T14:38:14Z</time></trkpt><trkpt lat="14.382246686412467" lon="120.98738428025008"><ele>43.75</ele><time>2026-04-27T14:38:15Z</time></trkpt><trkpt lat="14.382298923186182" lon="120.98726968701548"><ele>44.5</ele><time>2026-04-27T14:38:16Z</time></trkpt><trkpt lat="14.382350402491442" lon="120.98715113998142"><ele>45.25</ele><time>2026-04-27T14:38:17Z</time></trkpt><trkpt lat="14.382404778483293" lon="120.98702858629262"><ele>46.0</ele><time>2026-04-27T14:38:18Z</time></trkpt><trkpt lat="14.382462346843042" lon="120.98690475070634"><ele>46.0</ele><time>2026-04-27T14:38:19Z</time></trkpt><trkpt lat="14.382522330833773" lon="120.98677427211587"><ele>46.0</ele><time>2026-04-27T14:38:20Z</time></trkpt><trkpt lat="14.382580422839903" lon="120.98665508577125"><ele>46.0</ele><time>2026-04-27T14:38:21Z</time></trkpt><trkpt lat="14.382641377985376" lon="120.9865188006349"><ele>46.0</ele><time>2026-04-27T14:38:22Z</time></trkpt><trkpt lat="14.382698813651432" lon="120.98638799625193"><ele>45.75</ele><time>2026-04-27T14:38:23Z</time></trkpt><trkpt lat="14.382760429381342" lon="120.98625334223209"><ele>45.5</ele><time>2026-04-27T14:38:24Z</time></trkpt><trkpt lat="14.382821872866108" lon="120.98612715885905"><ele>45.25</ele><time>2026-04-27T14:38:25Z</time></trkpt><trkpt lat="14.382887182656379" lon="120.98598797732653"><ele>45.0</ele><time>2026-04-27T14:38:26Z</time></trkpt><trkpt lat="14.382941618853268" lon="120.98585998175794"><ele>45.5</ele><time>2026-04-27T14:38:27Z</time></trkpt><trkpt lat="14.38299985212869" lon="120.9857277391311"><ele>46.0</ele><time>2026-04-27T14:38:28Z</time></trkpt><trkpt lat="14.38306824041752" lon="120.98558912969236"><ele>46.5</ele><time>2026-04-27T14:38:29Z</time></trkpt><trkpt lat="14.383117908414249" lon="120.98546699749359"><ele>47.0</ele><time>2026-04-27T14:38:30Z</time></trkpt><trkpt lat="14.383178120263631" lon="120.98532759598565"><ele>47.0</ele><time>2026-04-27T14:38:31Z</time></trkpt><trkpt lat="14.383241090753655" lon="120.98519610730132"><ele>47.0</ele><time>2026-04-27T14:38:32Z</time></trkpt><trkpt lat="14.383289931885132" lon="120.98507034419879"><ele>47.0</ele><time>2026-04-27T14:38:33Z</time></trkpt><trkpt lat="14.38334791573121" lon="120.98493102931047"><ele>47.0</ele><time>2026-04-27T14:38:34Z</time></trkpt><trkpt lat="14.38339248926821" lon="120.98479843039533"><ele>45.75</ele><time>2026-04-27T14:38:35Z</time></trkpt><trkpt lat="14.383431928502628" lon="120.98465838300372"><ele>44.5</ele><time>2026-04-27T14:38:36Z</time></trkpt><trkpt lat="14.383475061947069" lon="120.98451274208225"><ele>43.25</ele><time>2026-04-27T14:38:37Z</time></trkpt><trkpt lat="14.383504457866694" lon="120.98437877346147"><ele>42.0</ele><time>2026-04-27T14:38:38Z</time></trkpt><trkpt lat="14.38352378430437" lon="120.9842266912799"><ele>43.666666666666664</ele><time>2026-04-27T14:38:39Z</time></trkpt><trkpt lat="14.383560670930734" lon="120.98407329724117"><ele>45.33333333333333</ele><time>2026-04-27T14:38:40Z</time></trkpt><trkpt lat="14.383580532706768" lon="120.98392209484473"><ele>47.0</ele><time>2026-04-27T14:38:41Z</time></trkpt><trkpt lat="14.383572391386876" lon="120.9837631216405"><ele>47.0</ele><time>2026-04-27T14:38:42Z</time></trkpt><trkpt lat="14.383588755477334" lon="120.98361831747073"><ele>47.0</ele><time>2026-04-27T14:38:43Z</time></trkpt><trkpt lat="14.383579135681257" lon="120.98346177432217"><ele>47.0</ele><time>2026-04-27T14:38:44Z</time></trkpt><trkpt lat="14.383567033147026" lon="120.98329696691869"><ele>46.666666666666664</ele><time>2026-04-27T14:38:45Z</time></trkpt><trkpt lat="14.383561601400826" lon="120.98314088821"><ele>46.333333333333336</ele><time>2026-04-27T14:38:46Z</time></trkpt><trkpt lat="14.38356076840075" lon="120.98296993575892"><ele>46.0</ele><time>2026-04-27T14:38:47Z</time></trkpt><trkpt lat="14.383545879346979" lon="120.98282128992012"><ele>46.0</ele><time>2026-04-27T14:38:48Z</time></trkpt><trkpt lat="14.383547781969712" lon="120.98265677646029"><ele>46.0</ele><time>2026-04-27T14:38:49Z</time></trkpt><trkpt lat="14.383546266181165" lon="120.98249473505102"><ele>46.0</ele><time>2026-04-27T14:38:50Z</time></trkpt><trkpt lat="14.383536582884963" lon="120.98233973218763"><ele>45.66666666666667</ele><time>2026-04-27T14:38:51Z</time></trkpt><trkpt lat="14.383540042368038" lon="120.98218038145284"><ele>45.333333333333336</ele><time>2026-04-27T14:38:52Z</time></trkpt><trkpt lat="14.383530026979765" lon="120.98202743774262"><ele>45.0</ele><time>2026-04-27T14:38:53Z</time></trkpt><trkpt lat="14.383542591557093" lon="120.98187405559302"><ele>45.0</ele><time>2026-04-27T14:38:54Z</time></trkpt><trkpt lat="14.383542789864503" lon="120.98172828742437"><ele>45.0</ele><time>2026-04-27T14:38:55Z</time></trkpt><trkpt lat="14.38354044371931" lon="120.98158891019828"><ele>45.0</ele><time>2026-04-27T14:38:56Z</time></trkpt><trkpt lat="14.383544916272546" lon="120.98144766447619"><ele>45.0</ele><time>2026-04-27T14:38:57Z</time></trkpt><trkpt lat="14.383549181527966" lon="120.9813227282302"><ele>44.8</ele><time>2026-04-27T14:38:58Z</time></trkpt><trkpt lat="14.383549439048739" lon="120.9812069847571"><ele>44.6</ele><time>2026-04-27T14:38:59Z</time></trkpt><trkpt lat="14.383543316100706" lon="120.98109496614036"><ele>44.400000000000006</ele><time>2026-04-27T14:39:00Z</time></trkpt><trkpt lat="14.383543011434423" lon="120.98098640012817"><ele>44.2</ele><time>2026-04-27T14:39:01Z</time></trkpt><trkpt lat="14.383544777050428" lon="120.98089370309592"><ele>44.0</ele><time>2026-04-27T14:39:02Z</time></trkpt><trkpt lat="14.383551712355573" lon="120.98080890247651"><ele>44.0</ele><time>2026-04-27T14:39:03Z</time></trkpt><trkpt lat="14.383561927937292" lon="120.98071664470237"><ele>44.0</ele><time>2026-04-27T14:39:04Z</time></trkpt><trkpt lat="14.383551149778699" lon="120.98062613929065"><ele>44.0</ele><time>2026-04-27T14:39:05Z</time></trkpt><trkpt lat="14.383670941207019" lon="120.98052971867916"><ele>44.0</ele><time>2026-04-27T14:39:06Z</time></trkpt><trkpt lat="14.38373908336002" lon="120.98047804415924"><ele>44.0</ele><time>2026-04-27T14:39:07Z</time></trkpt><trkpt lat="14.383836378997977" lon="120.9804334260979"><ele>43.75</ele><time>2026-04-27T14:39:08Z</time></trkpt><trkpt lat="14.383944156583356" lon="120.98039685407502"><ele>43.5</ele><time>2026-04-27T14:39:09Z</time></trkpt><trkpt lat="14.384056261979715" lon="120.980352879301"><ele>43.25</ele><time>2026-04-27T14:39:10Z</time></trkpt><trkpt lat="14.384164777881523" lon="120.98031771216964"><ele>43.0</ele><time>2026-04-27T14:39:11Z</time></trkpt><trkpt lat="14.384279964823678" lon="120.9802708909208"><ele>43.0</ele><time>2026-04-27T14:39:12Z</time></trkpt><trkpt lat="14.384399296717342" lon="120.98022484587113"><ele>43.0</ele><time>2026-04-27T14:39:13Z</time></trkpt><trkpt lat="14.384526831857537" lon="120.9801785641435"><ele>43.0</ele><time>2026-04-27T14:39:14Z</time></trkpt><trkpt lat="14.38464186299913" lon="120.98013302575836"><ele>43.0</ele><time>2026-04-27T14:39:15Z</time></trkpt><trkpt lat="14.384755805864067" lon="120.9800925248251"><ele>43.0</ele><time>2026-04-27T14:39:16Z</time></trkpt><trkpt lat="14.38485337153807" lon="120.98005369071271"><ele>43.0</ele><time>2026-04-27T14:39:17Z</time></trkpt><trkpt lat="14.38494988533126" lon="120.98001072641293"><ele>43.0</ele><time>2026-04-27T14:39:18Z</time></trkpt><trkpt lat="14.38505108859841" lon="120.97996918753773"><ele>43.0</ele><time>2026-04-27T14:39:19Z</time></trkpt><trkpt lat="14.38515707940667" lon="120.97993538889185"><ele>43.0</ele><time>2026-04-27T14:39:20Z</time></trkpt><trkpt lat="14.385263664659485" lon="120.97989771227925"><ele>43.0</ele><time>2026-04-27T14:39:21Z</time></trkpt><trkpt lat="14.385371000765689" lon="120.97985362108051"><ele>43.0</ele><time>2026-04-27T14:39:22Z</time></trkpt><trkpt lat="14.385482650600407" lon="120.97980865016882"><ele>43.0</ele><time>2026-04-27T14:39:23Z</time></trkpt><trkpt lat="14.385588990235572" lon="120.97974497508312"><ele>43.0</ele><time>2026-04-27T14:39:24Z</time></trkpt><trkpt lat="14.38568243633505" lon="120.97966126326055"><ele>42.5</ele><time>2026-04-27T14:39:25Z</time></trkpt><trkpt lat="14.385764242856299" lon="120.97956255303289"><ele>42.0</ele><time>2026-04-27T14:39:26Z</time></trkpt><trkpt lat="14.385829866477895" lon="120.97944998475259"><ele>41.5</ele><time>2026-04-27T14:39:27Z</time></trkpt><trkpt lat="14.385886516562909" lon="120.97932949976101"><ele>41.0</ele><time>2026-04-27T14:39:28Z</time></trkpt><trkpt lat="14.385928075514878" lon="120.97919650196447"><ele>41.599999999999994</ele><time>2026-04-27T14:39:29Z</time></trkpt><trkpt lat="14.385955610817781" lon="120.97905909307349"><ele>42.2</ele><time>2026-04-27T14:39:30Z</time></trkpt><trkpt lat="14.385976653642023" lon="120.97893560110839"><ele>42.8</ele><time>2026-04-27T14:39:31Z</time></trkpt><trkpt lat="14.385988407807172" lon="120.97883482670787"><ele>43.400000000000006</ele><time>2026-04-27T14:39:32Z</time></trkpt><trkpt lat="14.385998842904314" lon="120.97875565134702"><ele>44.0</ele><time>2026-04-27T14:39:33Z</time></trkpt><trkpt lat="14.386006150708399" lon="120.9786522179311"><ele>44.0</ele><time>2026-04-27T14:39:35Z</time></trkpt><trkpt lat="14.386002356956041" lon="120.97858258233684"><ele>44.0</ele><time>2026-04-27T14:39:37Z</time></trkpt><trkpt lat="14.386028742744546" lon="120.97849528447236"><ele>44.0</ele><time>2026-04-27T14:39:40Z</time></trkpt><trkpt lat="14.386039161118962" lon="120.97839122157875"><ele>44.0</ele><time>2026-04-27T14:39:42Z</time></trkpt><trkpt lat="14.386061561325494" lon="120.97827106573149"><ele>44.0</ele><time>2026-04-27T14:39:44Z</time></trkpt><trkpt lat="14.386068273232132" lon="120.97820550633487"><ele>44.0</ele><time>2026-04-27T14:39:45Z</time></trkpt><trkpt lat="14.38608761558882" lon="120.97809002037701"><ele>44.6</ele><time>2026-04-27T14:39:47Z</time></trkpt><trkpt lat="14.386106005364129" lon="120.97800874912043"><ele>45.2</ele><time>2026-04-27T14:39:49.001Z</time></trkpt><trkpt lat="14.386187994234827" lon="120.97798605625132"><ele>45.800000000000004</ele><time>2026-04-27T14:39:50.001Z</time></trkpt><trkpt lat="14.386323803682513" lon="120.9779577485724"><ele>46.400000000000006</ele><time>2026-04-27T14:39:52.001Z</time></trkpt><trkpt lat="14.386406084315686" lon="120.97793920391264"><ele>47.0</ele><time>2026-04-27T14:39:53.001Z</time></trkpt><trkpt lat="14.386500290904312" lon="120.977924530102"><ele>47.0</ele><time>2026-04-27T14:39:54.001Z</time></trkpt><trkpt lat="14.38659301526235" lon="120.97790963335424"><ele>47.0</ele><time>2026-04-27T14:39:55.001Z</time></trkpt><trkpt lat="14.386699117368437" lon="120.97788746142797"><ele>47.0</ele><time>2026-04-27T14:39:56.001Z</time></trkpt><trkpt lat="14.386808028902307" lon="120.9778689897789"><ele>47.0</ele><time>2026-04-27T14:39:57.001Z</time></trkpt><trkpt lat="14.386915771012085" lon="120.97784698938798"><ele>47.0</ele><time>2026-04-27T14:39:58.001Z</time></trkpt><trkpt lat="14.387027058839964" lon="120.97783039435659"><ele>47.0</ele><time>2026-04-27T14:39:59Z</time></trkpt><trkpt lat="14.387144703052888" lon="120.97781312830554"><ele>47.0</ele><time>2026-04-27T14:40:00Z</time></trkpt><trkpt lat="14.387266949854217" lon="120.97779280038483"><ele>47.0</ele><time>2026-04-27T14:40:01Z</time></trkpt><trkpt lat="14.387388679027753" lon="120.97777358095674"><ele>47.0</ele><time>2026-04-27T14:40:02Z</time></trkpt><trkpt lat="14.387513010509156" lon="120.97775288986388"><ele>46.5</ele><time>2026-04-27T14:40:03Z</time></trkpt><trkpt lat="14.387634962616449" lon="120.97773281737977"><ele>46.0</ele><time>2026-04-27T14:40:04Z</time></trkpt><trkpt lat="14.387754998241455" lon="120.97771124873657"><ele>45.5</ele><time>2026-04-27T14:40:05Z</time></trkpt><trkpt lat="14.387873507976412" lon="120.97768922634687"><ele>45.0</ele><time>2026-04-27T14:40:06Z</time></trkpt><trkpt lat="14.387992247088786" lon="120.97767186445454"><ele>45.25</ele><time>2026-04-27T14:40:07Z</time></trkpt><trkpt lat="14.388113063577869" lon="120.97765764615282"><ele>45.5</ele><time>2026-04-27T14:40:08Z</time></trkpt><trkpt lat="14.38823534314224" lon="120.9776507711267"><ele>45.75</ele><time>2026-04-27T14:40:09Z</time></trkpt><trkpt lat="14.388361102864033" lon="120.97765346584056"><ele>46.0</ele><time>2026-04-27T14:40:10Z</time></trkpt><trkpt lat="14.388480431398476" lon="120.97766161031589"><ele>46.0</ele><time>2026-04-27T14:40:11Z</time></trkpt><trkpt lat="14.38858996120902" lon="120.97766446125453"><ele>46.0</ele><time>2026-04-27T14:40:12Z</time></trkpt><trkpt lat="14.388695627528712" lon="120.97766117467575"><ele>46.0</ele><time>2026-04-27T14:40:13Z</time></trkpt><trkpt lat="14.388789815288543" lon="120.97763772265507"><ele>46.0</ele><time>2026-04-27T14:40:14Z</time></trkpt><trkpt lat="14.388890194360194" lon="120.97765990841661"><ele>46.0</ele><time>2026-04-27T14:40:15Z</time></trkpt><trkpt lat="14.38899463347921" lon="120.97766289236169"><ele>45.599999999999994</ele><time>2026-04-27T14:40:16Z</time></trkpt><trkpt lat="14.389097564434755" lon="120.97766637731321"><ele>45.2</ele><time>2026-04-27T14:40:17Z</time></trkpt><trkpt lat="14.389202282379738" lon="120.97767178578701"><ele>44.8</ele><time>2026-04-27T14:40:18Z</time></trkpt><trkpt lat="14.389313127805526" lon="120.9776770298333"><ele>44.400000000000006</ele><time>2026-04-27T14:40:19Z</time></trkpt><trkpt lat="14.389424339774747" lon="120.97768295320998"><ele>44.0</ele><time>2026-04-27T14:40:20Z</time></trkpt><trkpt lat="14.38953486511848" lon="120.97768591225233"><ele>44.0</ele><time>2026-04-27T14:40:21Z</time></trkpt><trkpt lat="14.389647194597863" lon="120.9776895800968"><ele>44.0</ele><time>2026-04-27T14:40:22Z</time></trkpt><trkpt lat="14.389758048472737" lon="120.97769257692157"><ele>44.0</ele><time>2026-04-27T14:40:23Z</time></trkpt><trkpt lat="14.389879946881813" lon="120.97768392743222"><ele>44.0</ele><time>2026-04-27T14:40:24Z</time></trkpt><trkpt lat="14.389998423847711" lon="120.97768280721728"><ele>43.5</ele><time>2026-04-27T14:40:25Z</time></trkpt><trkpt lat="14.390124889660884" lon="120.97768435401206"><ele>43.0</ele><time>2026-04-27T14:40:26Z</time></trkpt><trkpt lat="14.390252457585444" lon="120.97768629749586"><ele>42.5</ele><time>2026-04-27T14:40:27Z</time></trkpt><trkpt lat="14.390382094088153" lon="120.9776829856623"><ele>42.0</ele><time>2026-04-27T14:40:28Z</time></trkpt><trkpt lat="14.390514342309286" lon="120.9776830492774"><ele>41.5</ele><time>2026-04-27T14:40:29Z</time></trkpt><trkpt lat="14.390644782862369" lon="120.97768328445635"><ele>41.0</ele><time>2026-04-27T14:40:30Z</time></trkpt><trkpt lat="14.390782927880045" lon="120.97768535004963"><ele>40.5</ele><time>2026-04-27T14:40:31Z</time></trkpt><trkpt lat="14.390917720425064" lon="120.9776874437719"><ele>40.0</ele><time>2026-04-27T14:40:32Z</time></trkpt><trkpt lat="14.391053346142758" lon="120.97769013349033"><ele>40.0</ele><time>2026-04-27T14:40:33Z</time></trkpt><trkpt lat="14.391194032458785" lon="120.97769372957258"><ele>40.0</ele><time>2026-04-27T14:40:34Z</time></trkpt><trkpt lat="14.391335372732716" lon="120.97770109472557"><ele>40.0</ele><time>2026-04-27T14:40:35Z</time></trkpt><trkpt lat="14.3914776848027" lon="120.9777035951225"><ele>40.0</ele><time>2026-04-27T14:40:36Z</time></trkpt><trkpt lat="14.391613368309503" lon="120.97770886808301"><ele>40.25</ele><time>2026-04-27T14:40:37Z</time></trkpt><trkpt lat="14.391738306020425" lon="120.97771365139495"><ele>40.5</ele><time>2026-04-27T14:40:38Z</time></trkpt><trkpt lat="14.391858171704504" lon="120.97772145817981"><ele>40.75</ele><time>2026-04-27T14:40:39Z</time></trkpt><trkpt lat="14.391980838358522" lon="120.97772717956607"><ele>41.0</ele><time>2026-04-27T14:40:40Z</time></trkpt><trkpt lat="14.392099999737907" lon="120.97772041100278"><ele>41.199999999999996</ele><time>2026-04-27T14:40:41Z</time></trkpt><trkpt lat="14.392213807786822" lon="120.97771742482176"><ele>41.4</ele><time>2026-04-27T14:40:42Z</time></trkpt><trkpt lat="14.392328045928908" lon="120.9777096083189"><ele>41.6</ele><time>2026-04-27T14:40:43Z</time></trkpt><trkpt lat="14.3924325642146" lon="120.97770431571558"><ele>41.8</ele><time>2026-04-27T14:40:44Z</time></trkpt><trkpt lat="14.392531048864662" lon="120.97770770406771"><ele>42.0</ele><time>2026-04-27T14:40:45Z</time></trkpt><trkpt lat="14.392627058666493" lon="120.97771073912894"><ele>42.0</ele><time>2026-04-27T14:40:46Z</time></trkpt><trkpt lat="14.392710023032103" lon="120.97771757537238"><ele>42.0</ele><time>2026-04-27T14:40:47Z</time></trkpt><trkpt lat="14.392807758956678" lon="120.97771743016749"><ele>42.0</ele><time>2026-04-27T14:40:48Z</time></trkpt><trkpt lat="14.392907927600918" lon="120.97771818886973"><ele>42.0</ele><time>2026-04-27T14:40:49Z</time></trkpt><trkpt lat="14.39301205890378" lon="120.97771555882375"><ele>42.0</ele><time>2026-04-27T14:40:50Z</time></trkpt><trkpt lat="14.393117190786436" lon="120.97771279985948"><ele>41.4</ele><time>2026-04-27T14:40:51Z</time></trkpt><trkpt lat="14.393222184319908" lon="120.97771423993413"><ele>40.800000000000004</ele><time>2026-04-27T14:40:52Z</time></trkpt><trkpt lat="14.393320234142324" lon="120.97771489544482"><ele>40.2</ele><time>2026-04-27T14:40:53Z</time></trkpt><trkpt lat="14.3934208982599" lon="120.97771516165187"><ele>39.6</ele><time>2026-04-27T14:40:54Z</time></trkpt><trkpt lat="14.393518748216238" lon="120.97772375901658"><ele>39.0</ele><time>2026-04-27T14:40:55Z</time></trkpt><trkpt lat="14.393616814237847" lon="120.97772515702621"><ele>39.0</ele><time>2026-04-27T14:40:56Z</time></trkpt><trkpt lat="14.393713782030064" lon="120.97772574859356"><ele>39.0</ele><time>2026-04-27T14:40:57Z</time></trkpt><trkpt lat="14.393809329905174" lon="120.97772585551915"><ele>39.0</ele><time>2026-04-27T14:40:58Z</time></trkpt><trkpt lat="14.393901284969724" lon="120.97773035421415"><ele>39.0</ele><time>2026-04-27T14:40:59Z</time></trkpt><trkpt lat="14.393986606046136" lon="120.97772740481062"><ele>39.0</ele><time>2026-04-27T14:41:00Z</time></trkpt><trkpt lat="14.394066152867884" lon="120.97772321891267"><ele>39.0</ele><time>2026-04-27T14:41:01Z</time></trkpt><trkpt lat="14.394148680771341" lon="120.97771737547582"><ele>39.0</ele><time>2026-04-27T14:41:02Z</time></trkpt><trkpt lat="14.394226722169211" lon="120.97772215467641"><ele>39.0</ele><time>2026-04-27T14:41:03Z</time></trkpt><trkpt lat="14.39432479565059" lon="120.9777225869587"><ele>39.0</ele><time>2026-04-27T14:41:04Z</time></trkpt><trkpt lat="14.39442080054202" lon="120.97772643932538"><ele>39.0</ele><time>2026-04-27T14:41:05Z</time></trkpt><trkpt lat="14.394521425741582" lon="120.97773038918352"><ele>39.0</ele><time>2026-04-27T14:41:06Z</time></trkpt><trkpt lat="14.394629468829603" lon="120.97773443971242"><ele>39.0</ele><time>2026-04-27T14:41:07Z</time></trkpt><trkpt lat="14.394743399331668" lon="120.97773712733884"><ele>39.0</ele><time>2026-04-27T14:41:08Z</time></trkpt><trkpt lat="14.394862099705517" lon="120.97774131137908"><ele>39.0</ele><time>2026-04-27T14:41:09Z</time></trkpt><trkpt lat="14.394982648039514" lon="120.97774483326148"><ele>39.0</ele><time>2026-04-27T14:41:10Z</time></trkpt><trkpt lat="14.39509860492172" lon="120.97775234986084"><ele>39.0</ele><time>2026-04-27T14:41:11Z</time></trkpt><trkpt lat="14.395205196759848" lon="120.97775509369276"><ele>39.0</ele><time>2026-04-27T14:41:12Z</time></trkpt><trkpt lat="14.395313321164808" lon="120.97776005145892"><ele>39.0</ele><time>2026-04-27T14:41:13Z</time></trkpt><trkpt lat="14.395423248932063" lon="120.9777644431495"><ele>39.0</ele><time>2026-04-27T14:41:14Z</time></trkpt><trkpt lat="14.395538924472948" lon="120.97776449455179"><ele>39.75</ele><time>2026-04-27T14:41:15Z</time></trkpt><trkpt lat="14.395654256247013" lon="120.9777663994536"><ele>40.5</ele><time>2026-04-27T14:41:16Z</time></trkpt><trkpt lat="14.395777475680774" lon="120.97776967144198"><ele>41.25</ele><time>2026-04-27T14:41:17Z</time></trkpt><trkpt lat="14.395898640799258" lon="120.9777712824158"><ele>42.0</ele><time>2026-04-27T14:41:18Z</time></trkpt><trkpt lat="14.396031043581274" lon="120.97776981716179"><ele>42.0</ele><time>2026-04-27T14:41:19Z</time></trkpt><trkpt lat="14.396146331866534" lon="120.97777244595372"><ele>42.0</ele><time>2026-04-27T14:41:20Z</time></trkpt><trkpt lat="14.396262202041518" lon="120.97777610488636"><ele>42.0</ele><time>2026-04-27T14:41:21Z</time></trkpt><trkpt lat="14.396376236355556" lon="120.97777871159964"><ele>42.0</ele><time>2026-04-27T14:41:22Z</time></trkpt><trkpt lat="14.396491699814705" lon="120.97778221421869"><ele>41.25</ele><time>2026-04-27T14:41:23Z</time></trkpt><trkpt lat="14.396610505249852" lon="120.97778263024168"><ele>40.5</ele><time>2026-04-27T14:41:24Z</time></trkpt><trkpt lat="14.396725514244208" lon="120.97778352228913"><ele>39.75</ele><time>2026-04-27T14:41:25Z</time></trkpt><trkpt lat="14.396841030793265" lon="120.9777906578871"><ele>39.0</ele><time>2026-04-27T14:41:26Z</time></trkpt><trkpt lat="14.396954050820243" lon="120.97779462147146"><ele>39.0</ele><time>2026-04-27T14:41:27Z</time></trkpt><trkpt lat="14.397068683902582" lon="120.97779705842"><ele>39.0</ele><time>2026-04-27T14:41:28Z</time></trkpt><trkpt lat="14.397184099262496" lon="120.97779595925459"><ele>39.0</ele><time>2026-04-27T14:41:29Z</time></trkpt><trkpt lat="14.397287965685017" lon="120.97779686742471"><ele>39.0</ele><time>2026-04-27T14:41:30Z</time></trkpt><trkpt lat="14.397383061806115" lon="120.97779857220235"><ele>39.0</ele><time>2026-04-27T14:41:31Z</time></trkpt><trkpt lat="14.39748241505858" lon="120.97779941589401"><ele>39.0</ele><time>2026-04-27T14:41:32Z</time></trkpt><trkpt lat="14.397583292389612" lon="120.97780382922554"><ele>39.0</ele><time>2026-04-27T14:41:33Z</time></trkpt><trkpt lat="14.397687148323866" lon="120.97780670730123"><ele>39.0</ele><time>2026-04-27T14:41:34Z</time></trkpt><trkpt lat="14.397795405746708" lon="120.97780934664209"><ele>39.0</ele><time>2026-04-27T14:41:35Z</time></trkpt><trkpt lat="14.397903604316726" lon="120.97781508037157"><ele>39.0</ele><time>2026-04-27T14:41:36Z</time></trkpt><trkpt lat="14.39801637606877" lon="120.9778190866986"><ele>38.6</ele><time>2026-04-27T14:41:37Z</time></trkpt><trkpt lat="14.398120117839468" lon="120.9778190883224"><ele>38.2</ele><time>2026-04-27T14:41:38Z</time></trkpt><trkpt lat="14.39821544105131" lon="120.97781832414957"><ele>37.800000000000004</ele><time>2026-04-27T14:41:39Z</time></trkpt><trkpt lat="14.398310777067774" lon="120.9778163206951"><ele>37.4</ele><time>2026-04-27T14:41:40Z</time></trkpt><trkpt lat="14.398397669149958" lon="120.97781196386923"><ele>37.0</ele><time>2026-04-27T14:41:41Z</time></trkpt><trkpt lat="14.39847101288801" lon="120.97780692519156"><ele>37.0</ele><time>2026-04-27T14:41:42Z</time></trkpt><trkpt lat="14.39858250777197" lon="120.97779189516523"><ele>37.0</ele><time>2026-04-27T14:41:44Z</time></trkpt><trkpt lat="14.398652306859427" lon="120.97777786927706"><ele>37.0</ele><time>2026-04-27T14:41:45Z</time></trkpt><trkpt lat="14.398727140538588" lon="120.9777602086688"><ele>37.0</ele><time>2026-04-27T14:41:46Z</time></trkpt><trkpt lat="14.39880346427851" lon="120.97774525798039"><ele>37.0</ele><time>2026-04-27T14:41:47Z</time></trkpt><trkpt lat="14.398889168201688" lon="120.97772789759574"><ele>37.0</ele><time>2026-04-27T14:41:48Z</time></trkpt><trkpt lat="14.398976846847837" lon="120.9777098913205"><ele>37.0</ele><time>2026-04-27T14:41:49Z</time></trkpt><trkpt lat="14.39906759601138" lon="120.97769331708302"><ele>37.0</ele><time>2026-04-27T14:41:50Z</time></trkpt><trkpt lat="14.39916352368501" lon="120.97767430775004"><ele>37.0</ele><time>2026-04-27T14:41:51Z</time></trkpt><trkpt lat="14.399261704261644" lon="120.97765261880501"><ele>37.0</ele><time>2026-04-27T14:41:52Z</time></trkpt><trkpt lat="14.399351359672993" lon="120.9776315277557"><ele>37.0</ele><time>2026-04-27T14:41:53Z</time></trkpt><trkpt lat="14.399445385698883" lon="120.97760434226427"><ele>37.0</ele><time>2026-04-27T14:41:54.001Z</time></trkpt><trkpt lat="14.39953658112039" lon="120.97758362419876"><ele>37.0</ele><time>2026-04-27T14:41:55.001Z</time></trkpt><trkpt lat="14.399615881237914" lon="120.97757168728631"><ele>37.0</ele><time>2026-04-27T14:41:56.001Z</time></trkpt><trkpt lat="14.399679549467571" lon="120.97756641163265"><ele>37.0</ele><time>2026-04-27T14:41:57.001Z</time></trkpt><trkpt lat="14.399767102459084" lon="120.97755421269494"><ele>37.0</ele><time>2026-04-27T14:41:59.001Z</time></trkpt><trkpt lat="14.399830732764551" lon="120.97754748971728"><ele>37.0</ele><time>2026-04-27T14:42:01.001Z</time></trkpt><trkpt lat="14.399903820541534" lon="120.9775366811474"><ele>37.0</ele><time>2026-04-27T14:42:04.001Z</time></trkpt><trkpt lat="14.399976081540862" lon="120.97752495516923"><ele>37.0</ele><time>2026-04-27T14:42:06Z</time></trkpt><trkpt lat="14.400042563520334" lon="120.97750543763978"><ele>37.0</ele><time>2026-04-27T14:42:08Z</time></trkpt><trkpt lat="14.400122337585463" lon="120.97747854119058"><ele>37.0</ele><time>2026-04-27T14:42:11Z</time></trkpt><trkpt lat="14.40024115701916" lon="120.97742889932246"><ele>37.0</ele><time>2026-04-27T14:42:13Z</time></trkpt><trkpt lat="14.400308826936442" lon="120.97740922523052"><ele>37.0</ele><time>2026-04-27T14:42:14Z</time></trkpt><trkpt lat="14.40039882618119" lon="120.9773904347389"><ele>37.0</ele><time>2026-04-27T14:42:15Z</time></trkpt><trkpt lat="14.400491935663284" lon="120.97737538543439"><ele>37.0</ele><time>2026-04-27T14:42:16Z</time></trkpt><trkpt lat="14.400590533547135" lon="120.97735660464707"><ele>37.0</ele><time>2026-04-27T14:42:17Z</time></trkpt><trkpt lat="14.40069287890464" lon="120.97733246758295"><ele>37.0</ele><time>2026-04-27T14:42:18Z</time></trkpt><trkpt lat="14.40079795282519" lon="120.97730598471256"><ele>37.0</ele><time>2026-04-27T14:42:19Z</time></trkpt><trkpt lat="14.400907880553365" lon="120.97728068847113"><ele>36.75</ele><time>2026-04-27T14:42:20Z</time></trkpt><trkpt lat="14.401017939065326" lon="120.977257871366"><ele>36.5</ele><time>2026-04-27T14:42:21Z</time></trkpt><trkpt lat="14.401128638382977" lon="120.9772330590588"><ele>36.25</ele><time>2026-04-27T14:42:22Z</time></trkpt><trkpt lat="14.40124392966966" lon="120.9772073249818"><ele>36.0</ele><time>2026-04-27T14:42:23Z</time></trkpt><trkpt lat="14.401355163054419" lon="120.97718106323498"><ele>36.0</ele><time>2026-04-27T14:42:24Z</time></trkpt><trkpt lat="14.401469600146546" lon="120.97715921969628"><ele>36.0</ele><time>2026-04-27T14:42:25Z</time></trkpt><trkpt lat="14.401586658829457" lon="120.97713860522133"><ele>36.0</ele><time>2026-04-27T14:42:26Z</time></trkpt><trkpt lat="14.401710890207578" lon="120.9771256930031"><ele>36.0</ele><time>2026-04-27T14:42:27Z</time></trkpt><trkpt lat="14.401836352223528" lon="120.97711739257582"><ele>36.0</ele><time>2026-04-27T14:42:28Z</time></trkpt><trkpt lat="14.401964525820572" lon="120.97711347405838"><ele>36.0</ele><time>2026-04-27T14:42:29Z</time></trkpt><trkpt lat="14.402097562428946" lon="120.9771146891437"><ele>36.0</ele><time>2026-04-27T14:42:30Z</time></trkpt><trkpt lat="14.402230820720895" lon="120.97711703482682"><ele>36.0</ele><time>2026-04-27T14:42:31Z</time></trkpt><trkpt lat="14.402363794008203" lon="120.97711558825257"><ele>35.75</ele><time>2026-04-27T14:42:32Z</time></trkpt><trkpt lat="14.402498849963532" lon="120.97711725658299"><ele>35.5</ele><time>2026-04-27T14:42:33Z</time></trkpt><trkpt lat="14.402635978170604" lon="120.97712320314018"><ele>35.25</ele><time>2026-04-27T14:42:34Z</time></trkpt><trkpt lat="14.402771074086642" lon="120.97712135883455"><ele>35.0</ele><time>2026-04-27T14:42:35Z</time></trkpt><trkpt lat="14.402904469891915" lon="120.9771148939304"><ele>34.5</ele><time>2026-04-27T14:42:36Z</time></trkpt><trkpt lat="14.403041319060947" lon="120.977102410087"><ele>34.0</ele><time>2026-04-27T14:42:37Z</time></trkpt><trkpt lat="14.403175386541575" lon="120.97708359057465"><ele>33.5</ele><time>2026-04-27T14:42:38Z</time></trkpt><trkpt lat="14.403306890657731" lon="120.97706374154973"><ele>33.0</ele><time>2026-04-27T14:42:39Z</time></trkpt><trkpt lat="14.403438072343569" lon="120.97704696430604"><ele>33.0</ele><time>2026-04-27T14:42:40Z</time></trkpt><trkpt lat="14.403560285784653" lon="120.97703502410793"><ele>33.0</ele><time>2026-04-27T14:42:41Z</time></trkpt><trkpt lat="14.403690923499088" lon="120.97701794917583"><ele>33.0</ele><time>2026-04-27T14:42:42Z</time></trkpt><trkpt lat="14.403811895174082" lon="120.97700405394251"><ele>33.0</ele><time>2026-04-27T14:42:43Z</time></trkpt><trkpt lat="14.40393357974316" lon="120.97699312514641"><ele>34.5</ele><time>2026-04-27T14:42:44Z</time></trkpt><trkpt lat="14.404052912116326" lon="120.97699023880756"><ele>36.0</ele><time>2026-04-27T14:42:45Z</time></trkpt><trkpt lat="14.40417133224071" lon="120.97699681018784"><ele>37.5</ele><time>2026-04-27T14:42:46Z</time></trkpt><trkpt lat="14.404286044771588" lon="120.97701266579114"><ele>39.0</ele><time>2026-04-27T14:42:47Z</time></trkpt><trkpt lat="14.404388432699047" lon="120.97702796677098"><ele>39.0</ele><time>2026-04-27T14:42:48Z</time></trkpt><trkpt lat="14.404479345453627" lon="120.97704420626681"><ele>39.0</ele><time>2026-04-27T14:42:49Z</time></trkpt><trkpt lat="14.40456394270561" lon="120.9770561578234"><ele>39.0</ele><time>2026-04-27T14:42:50Z</time></trkpt><trkpt lat="14.404641295971865" lon="120.97707227366872"><ele>39.0</ele><time>2026-04-27T14:42:51Z</time></trkpt><trkpt lat="14.40471062512259" lon="120.97708750424526"><ele>39.0</ele><time>2026-04-27T14:42:52Z</time></trkpt><trkpt lat="14.404778975649029" lon="120.97710584282703"><ele>39.0</ele><time>2026-04-27T14:42:53Z</time></trkpt><trkpt lat="14.404853361238825" lon="120.97713260978949"><ele>38.833333333333336</ele><time>2026-04-27T14:42:54Z</time></trkpt><trkpt lat="14.40492155070147" lon="120.97716351539854"><ele>38.666666666666664</ele><time>2026-04-27T14:42:55Z</time></trkpt><trkpt lat="14.404985069069951" lon="120.97719145143523"><ele>38.5</ele><time>2026-04-27T14:42:56Z</time></trkpt><trkpt lat="14.405047383362543" lon="120.97721879398206"><ele>38.33333333333333</ele><time>2026-04-27T14:42:57Z</time></trkpt><trkpt lat="14.40510733257472" lon="120.97724652661056"><ele>38.166666666666664</ele><time>2026-04-27T14:42:58Z</time></trkpt><trkpt lat="14.405210031635223" lon="120.97729270359275"><ele>38.0</ele><time>2026-04-27T14:43:00Z</time></trkpt><trkpt lat="14.405302834966285" lon="120.97733330108522"><ele>38.0</ele><time>2026-04-27T14:43:02Z</time></trkpt><trkpt lat="14.405392723232424" lon="120.97737559315078"><ele>38.0</ele><time>2026-04-27T14:43:04Z</time></trkpt><trkpt lat="14.405498449986402" lon="120.97742230989225"><ele>38.0</ele><time>2026-04-27T14:43:06Z</time></trkpt><trkpt lat="14.405560599531162" lon="120.97744795500422"><ele>38.0</ele><time>2026-04-27T14:43:07Z</time></trkpt><trkpt lat="14.40562580310424" lon="120.9774772778523"><ele>38.0</ele><time>2026-04-27T14:43:08Z</time></trkpt><trkpt lat="14.40569605325629" lon="120.97751003481204"><ele>38.0</ele><time>2026-04-27T14:43:09Z</time></trkpt><trkpt lat="14.405767161799428" lon="120.97753745571585"><ele>37.666666666666664</ele><time>2026-04-27T14:43:10Z</time></trkpt><trkpt lat="14.405849203365312" lon="120.97757185428904"><ele>37.33333333333333</ele><time>2026-04-27T14:43:11Z</time></trkpt><trkpt lat="14.405929399044934" lon="120.97760389192622"><ele>37.0</ele><time>2026-04-27T14:43:12Z</time></trkpt><trkpt lat="14.40601555982936" lon="120.97763004775771"><ele>36.666666666666664</ele><time>2026-04-27T14:43:13Z</time></trkpt><trkpt lat="14.406092733851315" lon="120.97764810924953"><ele>36.333333333333336</ele><time>2026-04-27T14:43:14Z</time></trkpt><trkpt lat="14.406161014661253" lon="120.97765670387912"><ele>36.0</ele><time>2026-04-27T14:43:15Z</time></trkpt><trkpt lat="14.406224604879187" lon="120.97766162500584"><ele>36.0</ele><time>2026-04-27T14:43:16Z</time></trkpt><trkpt lat="14.406299247830827" lon="120.97768225330773"><ele>36.0</ele><time>2026-04-27T14:43:18Z</time></trkpt><trkpt lat="14.406373156118528" lon="120.97768367563387"><ele>36.0</ele><time>2026-04-27T14:43:23Z</time></trkpt><trkpt lat="14.406450326269319" lon="120.97768149432608"><ele>36.0</ele><time>2026-04-27T14:43:25Z</time></trkpt><trkpt lat="14.40651602708831" lon="120.97767811413982"><ele>36.0</ele><time>2026-04-27T14:43:28Z</time></trkpt><trkpt lat="14.406603712073727" lon="120.977673602906"><ele>36.0</ele><time>2026-04-27T14:44:00Z</time></trkpt><trkpt lat="14.40670964373673" lon="120.9776681529306"><ele>36.0</ele><time>2026-04-27T14:44:02Z</time></trkpt><trkpt lat="14.406751476970047" lon="120.97745771986268"><ele>36.0</ele><time>2026-04-27T14:44:04Z</time></trkpt><trkpt lat="14.406751717678112" lon="120.97738633761155"><ele>36.0</ele><time>2026-04-27T14:44:05Z</time></trkpt><trkpt lat="14.406746660919294" lon="120.97729965337024"><ele>36.0</ele><time>2026-04-27T14:44:06Z</time></trkpt><trkpt lat="14.406757636786464" lon="120.97720755975466"><ele>36.0</ele><time>2026-04-27T14:44:07Z</time></trkpt><trkpt lat="14.406761700396327" lon="120.97709995691984"><ele>36.0</ele><time>2026-04-27T14:44:08Z</time></trkpt><trkpt lat="14.406749691656037" lon="120.97698346336205"><ele>36.0</ele><time>2026-04-27T14:44:09Z</time></trkpt><trkpt lat="14.406770274089384" lon="120.97686271145513"><ele>36.0</ele><time>2026-04-27T14:44:10Z</time></trkpt><trkpt lat="14.406774802517635" lon="120.97673740385774"><ele>36.0</ele><time>2026-04-27T14:44:11Z</time></trkpt><trkpt lat="14.406779789256454" lon="120.97660168845742"><ele>36.0</ele><time>2026-04-27T14:44:12Z</time></trkpt><trkpt lat="14.406784896938339" lon="120.97646292955427"><ele>36.0</ele><time>2026-04-27T14:44:13Z</time></trkpt><trkpt lat="14.406785900889549" lon="120.97631722182136"><ele>36.0</ele><time>2026-04-27T14:44:14Z</time></trkpt><trkpt lat="14.406772610004623" lon="120.97616897884524"><ele>36.0</ele><time>2026-04-27T14:44:15Z</time></trkpt><trkpt lat="14.406778015517066" lon="120.97601648783032"><ele>36.0</ele><time>2026-04-27T14:44:16Z</time></trkpt><trkpt lat="14.406784595657811" lon="120.97586356881023"><ele>36.0</ele><time>2026-04-27T14:44:17Z</time></trkpt><trkpt lat="14.40679057163079" lon="120.97570600990356"><ele>36.0</ele><time>2026-04-27T14:44:18Z</time></trkpt><trkpt lat="14.406795964051797" lon="120.97554976086788"><ele>35.333333333333336</ele><time>2026-04-27T14:44:19Z</time></trkpt><trkpt lat="14.40680311949833" lon="120.97539459644818"><ele>34.66666666666667</ele><time>2026-04-27T14:44:20Z</time></trkpt><trkpt lat="14.406811518955678" lon="120.97524157839962"><ele>34.0</ele><time>2026-04-27T14:44:21Z</time></trkpt><trkpt lat="14.406821112843902" lon="120.97508145529368"><ele>34.0</ele><time>2026-04-27T14:44:22Z</time></trkpt><trkpt lat="14.406837849352945" lon="120.97492187781299"><ele>34.0</ele><time>2026-04-27T14:44:23Z</time></trkpt><trkpt lat="14.406867504407604" lon="120.97475986904585"><ele>34.0</ele><time>2026-04-27T14:44:24Z</time></trkpt><trkpt lat="14.406909884477567" lon="120.97459705147897"><ele>34.0</ele><time>2026-04-27T14:44:25Z</time></trkpt><trkpt lat="14.40695791205487" lon="120.97443284328278"><ele>34.0</ele><time>2026-04-27T14:44:26Z</time></trkpt><trkpt lat="14.407013604382467" lon="120.97427354630061"><ele>34.0</ele><time>2026-04-27T14:44:27Z</time></trkpt><trkpt lat="14.407076126649665" lon="120.97411522216757"><ele>34.0</ele><time>2026-04-27T14:44:28Z</time></trkpt><trkpt lat="14.40713488649401" lon="120.9739633674592"><ele>34.0</ele><time>2026-04-27T14:44:29Z</time></trkpt><trkpt lat="14.407187527417138" lon="120.9738053480743"><ele>34.0</ele><time>2026-04-27T14:44:30Z</time></trkpt><trkpt lat="14.407238213258932" lon="120.97364989240788"><ele>33.66666666666667</ele><time>2026-04-27T14:44:31Z</time></trkpt><trkpt lat="14.40729120663431" lon="120.97348899861963"><ele>33.333333333333336</ele><time>2026-04-27T14:44:32Z</time></trkpt><trkpt lat="14.407347110285237" lon="120.97333126877247"><ele>33.0</ele><time>2026-04-27T14:44:33Z</time></trkpt><trkpt lat="14.40740478258787" lon="120.97317175645055"><ele>32.333333333333336</ele><time>2026-04-27T14:44:34Z</time></trkpt><trkpt lat="14.407462464228212" lon="120.9730118741056"><ele>31.666666666666668</ele><time>2026-04-27T14:44:35Z</time></trkpt><trkpt lat="14.407517306817644" lon="120.97285309833623"><ele>31.0</ele><time>2026-04-27T14:44:36Z</time></trkpt><trkpt lat="14.407570318696749" lon="120.97269514852951"><ele>31.0</ele><time>2026-04-27T14:44:37Z</time></trkpt><trkpt lat="14.407626002294478" lon="120.97252770381772"><ele>31.0</ele><time>2026-04-27T14:44:38Z</time></trkpt><trkpt lat="14.407682113806692" lon="120.97236716185813"><ele>31.0</ele><time>2026-04-27T14:44:39Z</time></trkpt><trkpt lat="14.407740914042103" lon="120.9722061057041"><ele>30.333333333333336</ele><time>2026-04-27T14:44:40Z</time></trkpt><trkpt lat="14.407798853320674" lon="120.97204762590121"><ele>29.666666666666664</ele><time>2026-04-27T14:44:41Z</time></trkpt><trkpt lat="14.40785477245762" lon="120.97188923120589"><ele>29.0</ele><time>2026-04-27T14:44:42Z</time></trkpt><trkpt lat="14.40790794299749" lon="120.97173735334907"><ele>29.75</ele><time>2026-04-27T14:44:43Z</time></trkpt><trkpt lat="14.40795880337692" lon="120.97159321176308"><ele>30.5</ele><time>2026-04-27T14:44:44Z</time></trkpt><trkpt lat="14.408013793227314" lon="120.97145490629374"><ele>31.25</ele><time>2026-04-27T14:44:45Z</time></trkpt><trkpt lat="14.408075743973832" lon="120.97132190190752"><ele>32.0</ele><time>2026-04-27T14:44:46Z</time></trkpt><trkpt lat="14.408150615034973" lon="120.97118936576847"><ele>32.0</ele><time>2026-04-27T14:44:47Z</time></trkpt><trkpt lat="14.408236232920089" lon="120.971064445003"><ele>32.0</ele><time>2026-04-27T14:44:48Z</time></trkpt><trkpt lat="14.408332407229194" lon="120.9709421042729"><ele>32.0</ele><time>2026-04-27T14:44:49Z</time></trkpt><trkpt lat="14.408436123709066" lon="120.97082564044969"><ele>31.0</ele><time>2026-04-27T14:44:50Z</time></trkpt><trkpt lat="14.408538475593836" lon="120.97070711120105"><ele>30.0</ele><time>2026-04-27T14:44:51Z</time></trkpt><trkpt lat="14.408636852370565" lon="120.97058750206655"><ele>29.0</ele><time>2026-04-27T14:44:52Z</time></trkpt><trkpt lat="14.40873531125435" lon="120.97046899756714"><ele>29.0</ele><time>2026-04-27T14:44:53Z</time></trkpt><trkpt lat="14.408826922730164" lon="120.9703574754074"><ele>29.0</ele><time>2026-04-27T14:44:54Z</time></trkpt><trkpt lat="14.408921078069866" lon="120.97024769724766"><ele>29.0</ele><time>2026-04-27T14:44:55Z</time></trkpt><trkpt lat="14.409022094878445" lon="120.97013716781395"><ele>29.0</ele><time>2026-04-27T14:44:56Z</time></trkpt><trkpt lat="14.409117893280822" lon="120.97002213044009"><ele>29.0</ele><time>2026-04-27T14:44:57Z</time></trkpt><trkpt lat="14.409212521525292" lon="120.96989615416472"><ele>29.0</ele><time>2026-04-27T14:44:58Z</time></trkpt><trkpt lat="14.409313289897437" lon="120.96977215492133"><ele>29.0</ele><time>2026-04-27T14:44:59Z</time></trkpt><trkpt lat="14.40942583029074" lon="120.9696561356862"><ele>29.0</ele><time>2026-04-27T14:45:00Z</time></trkpt><trkpt lat="14.40954645517493" lon="120.96954834581584"><ele>29.0</ele><time>2026-04-27T14:45:01Z</time></trkpt><trkpt lat="14.40967814126095" lon="120.96945022394112"><ele>29.0</ele><time>2026-04-27T14:45:02Z</time></trkpt><trkpt lat="14.409813849956915" lon="120.96936622718317"><ele>28.666666666666664</ele><time>2026-04-27T14:45:03Z</time></trkpt><trkpt lat="14.40996000266592" lon="120.96928244628579"><ele>28.333333333333336</ele><time>2026-04-27T14:45:04Z</time></trkpt><trkpt lat="14.410107260489694" lon="120.96921013967965"><ele>28.0</ele><time>2026-04-27T14:45:05Z</time></trkpt><trkpt lat="14.410260920170485" lon="120.96914058397132"><ele>28.666666666666668</ele><time>2026-04-27T14:45:06Z</time></trkpt><trkpt lat="14.410415655014098" lon="120.9690773940453"><ele>29.333333333333336</ele><time>2026-04-27T14:45:07Z</time></trkpt><trkpt lat="14.410577736360688" lon="120.96901030228955"><ele>30.0</ele><time>2026-04-27T14:45:08Z</time></trkpt><trkpt lat="14.410733564846081" lon="120.96893918648675"><ele>30.0</ele><time>2026-04-27T14:45:09Z</time></trkpt><trkpt lat="14.410891344490327" lon="120.96886722441565"><ele>30.0</ele><time>2026-04-27T14:45:10Z</time></trkpt><trkpt lat="14.411051125002793" lon="120.9687975344679"><ele>30.0</ele><time>2026-04-27T14:45:11Z</time></trkpt><trkpt lat="14.411207303695369" lon="120.96872650532325"><ele>29.333333333333336</ele><time>2026-04-27T14:45:12Z</time></trkpt><trkpt lat="14.411364889668123" lon="120.9686609792792"><ele>28.666666666666668</ele><time>2026-04-27T14:45:13Z</time></trkpt><trkpt lat="14.41151834275207" lon="120.96859210334966"><ele>28.0</ele><time>2026-04-27T14:45:14Z</time></trkpt><trkpt lat="14.411666591500731" lon="120.96852376824744"><ele>28.0</ele><time>2026-04-27T14:45:15Z</time></trkpt><trkpt lat="14.411807529000534" lon="120.96845865746614"><ele>28.0</ele><time>2026-04-27T14:45:16Z</time></trkpt><trkpt lat="14.411936643212425" lon="120.96840382984458"><ele>28.0</ele><time>2026-04-27T14:45:17Z</time></trkpt><trkpt lat="14.41204896449129" lon="120.96835920071005"><ele>28.0</ele><time>2026-04-27T14:45:18Z</time></trkpt><trkpt lat="14.41214628953851" lon="120.96831912688936"><ele>28.333333333333336</ele><time>2026-04-27T14:45:19Z</time></trkpt><trkpt lat="14.412218303524348" lon="120.96828894790326"><ele>28.666666666666668</ele><time>2026-04-27T14:45:20Z</time></trkpt><trkpt lat="14.41228816567375" lon="120.96826121551355"><ele>29.0</ele><time>2026-04-27T14:45:22Z</time></trkpt><trkpt lat="14.412359372171887" lon="120.96822426490797"><ele>29.333333333333336</ele><time>2026-04-27T14:46:22Z</time></trkpt><trkpt lat="14.412420904641243" lon="120.9681972999206"><ele>29.666666666666668</ele><time>2026-04-27T14:46:23Z</time></trkpt><trkpt lat="14.412494957245299" lon="120.96816341538039"><ele>30.0</ele><time>2026-04-27T14:46:24Z</time></trkpt><trkpt lat="14.412582453887046" lon="120.96812061573658"><ele>30.0</ele><time>2026-04-27T14:46:25Z</time></trkpt><trkpt lat="14.412680894435377" lon="120.96807494516047"><ele>30.0</ele><time>2026-04-27T14:46:26Z</time></trkpt><trkpt lat="14.412787159694005" lon="120.96802856586294"><ele>30.0</ele><time>2026-04-27T14:46:27Z</time></trkpt><trkpt lat="14.412898097943584" lon="120.96797908021125"><ele>30.0</ele><time>2026-04-27T14:46:28Z</time></trkpt><trkpt lat="14.413021713673949" lon="120.96792488450522"><ele>28.75</ele><time>2026-04-27T14:46:29Z</time></trkpt><trkpt lat="14.413150164920841" lon="120.96787098373125"><ele>27.5</ele><time>2026-04-27T14:46:30Z</time></trkpt><trkpt lat="14.413288159822633" lon="120.96782048714374"><ele>26.25</ele><time>2026-04-27T14:46:31Z</time></trkpt><trkpt lat="14.413433002758842" lon="120.96776983109875"><ele>25.0</ele><time>2026-04-27T14:46:32Z</time></trkpt><trkpt lat="14.413587012654558" lon="120.967726734699"><ele>25.0</ele><time>2026-04-27T14:46:33Z</time></trkpt><trkpt lat="14.41375041915188" lon="120.96768729585138"><ele>25.0</ele><time>2026-04-27T14:46:34Z</time></trkpt><trkpt lat="14.413920203061402" lon="120.967649445468"><ele>25.0</ele><time>2026-04-27T14:46:35Z</time></trkpt><trkpt lat="14.414077325198992" lon="120.96760528085171"><ele>25.0</ele><time>2026-04-27T14:46:36Z</time></trkpt><trkpt lat="14.414250630098005" lon="120.96755935201664"><ele>25.0</ele><time>2026-04-27T14:46:37Z</time></trkpt><trkpt lat="14.414431241784172" lon="120.96750902447918"><ele>25.0</ele><time>2026-04-27T14:46:38Z</time></trkpt><trkpt lat="14.414609747584826" lon="120.96745443254095"><ele>25.333333333333336</ele><time>2026-04-27T14:46:39Z</time></trkpt><trkpt lat="14.414791921501838" lon="120.96740449144824"><ele>25.666666666666664</ele><time>2026-04-27T14:46:40Z</time></trkpt><trkpt lat="14.414975294836267" lon="120.96735640886095"><ele>26.0</ele><time>2026-04-27T14:46:41Z</time></trkpt><trkpt lat="14.415159444070637" lon="120.96730539237603"><ele>26.0</ele><time>2026-04-27T14:46:42Z</time></trkpt><trkpt lat="14.415345311700918" lon="120.96725531948677"><ele>26.0</ele><time>2026-04-27T14:46:43Z</time></trkpt><trkpt lat="14.415525653962343" lon="120.9672069327107"><ele>26.0</ele><time>2026-04-27T14:46:44Z</time></trkpt><trkpt lat="14.415700606401895" lon="120.96717496703445"><ele>26.333333333333332</ele><time>2026-04-27T14:46:45Z</time></trkpt><trkpt lat="14.415879569030235" lon="120.96715705994934"><ele>26.666666666666664</ele><time>2026-04-27T14:46:46Z</time></trkpt><trkpt lat="14.416057155150941" lon="120.9671544916721"><ele>27.0</ele><time>2026-04-27T14:46:47Z</time></trkpt><trkpt lat="14.416238298986714" lon="120.96715716068937"><ele>26.333333333333336</ele><time>2026-04-27T14:46:48Z</time></trkpt><trkpt lat="14.41642207759659" lon="120.96717366936991"><ele>25.666666666666668</ele><time>2026-04-27T14:46:49Z</time></trkpt><trkpt lat="14.416608196873078" lon="120.9671975480502"><ele>25.0</ele><time>2026-04-27T14:46:50Z</time></trkpt><trkpt lat="14.416796245778514" lon="120.96722333288356"><ele>25.0</ele><time>2026-04-27T14:46:51Z</time></trkpt><trkpt lat="14.41698607755905" lon="120.96724750425139"><ele>25.0</ele><time>2026-04-27T14:46:52Z</time></trkpt><trkpt lat="14.417175615291029" lon="120.96726901275629"><ele>25.0</ele><time>2026-04-27T14:46:53Z</time></trkpt><trkpt lat="14.41736281047882" lon="120.96729412770286"><ele>24.666666666666668</ele><time>2026-04-27T14:46:54Z</time></trkpt><trkpt lat="14.417553556751578" lon="120.96731887040256"><ele>24.333333333333336</ele><time>2026-04-27T14:46:55Z</time></trkpt><trkpt lat="14.417744159841508" lon="120.96734082741288"><ele>24.0</ele><time>2026-04-27T14:46:56Z</time></trkpt><trkpt lat="14.417931885253411" lon="120.96735456674149"><ele>23.333333333333332</ele><time>2026-04-27T14:46:57Z</time></trkpt><trkpt lat="14.41812308207638" lon="120.967359873334"><ele>22.666666666666664</ele><time>2026-04-27T14:46:58Z</time></trkpt><trkpt lat="14.418318831079253" lon="120.96735966317168"><ele>22.0</ele><time>2026-04-27T14:46:59Z</time></trkpt><trkpt lat="14.418513858357413" lon="120.9673508290222"><ele>22.0</ele><time>2026-04-27T14:47:00Z</time></trkpt><trkpt lat="14.418712846891097" lon="120.96734149386343"><ele>22.0</ele><time>2026-04-27T14:47:01Z</time></trkpt><trkpt lat="14.418911306605692" lon="120.96732970410986"><ele>22.0</ele><time>2026-04-27T14:47:02Z</time></trkpt><trkpt lat="14.419110539979163" lon="120.967320086555"><ele>21.666666666666664</ele><time>2026-04-27T14:47:03Z</time></trkpt><trkpt lat="14.419302453091042" lon="120.96731117969837"><ele>21.333333333333332</ele><time>2026-04-27T14:47:04Z</time></trkpt><trkpt lat="14.419481958425507" lon="120.96730090001233"><ele>21.0</ele><time>2026-04-27T14:47:05Z</time></trkpt><trkpt lat="14.41965633118691" lon="120.96727947918428"><ele>21.666666666666668</ele><time>2026-04-27T14:47:06Z</time></trkpt><trkpt lat="14.41983515637593" lon="120.9672457148739"><ele>22.333333333333336</ele><time>2026-04-27T14:47:07Z</time></trkpt><trkpt lat="14.420007762929613" lon="120.96719299035918"><ele>23.0</ele><time>2026-04-27T14:47:08Z</time></trkpt><trkpt lat="14.420184955015541" lon="120.96713031019195"><ele>23.0</ele><time>2026-04-27T14:47:09Z</time></trkpt><trkpt lat="14.420358363087855" lon="120.96706382181176"><ele>23.0</ele><time>2026-04-27T14:47:10Z</time></trkpt><trkpt lat="14.420534368892598" lon="120.96699090072256"><ele>23.0</ele><time>2026-04-27T14:47:11Z</time></trkpt><trkpt lat="14.420716957664677" lon="120.96691164313629"><ele>22.666666666666668</ele><time>2026-04-27T14:47:12Z</time></trkpt><trkpt lat="14.420896911302115" lon="120.96682835427924"><ele>22.333333333333332</ele><time>2026-04-27T14:47:13Z</time></trkpt><trkpt lat="14.42107862690985" lon="120.9667429354083"><ele>22.0</ele><time>2026-04-27T14:47:14Z</time></trkpt><trkpt lat="14.421266328206443" lon="120.96666286153302"><ele>22.333333333333332</ele><time>2026-04-27T14:47:15Z</time></trkpt><trkpt lat="14.421456566626999" lon="120.96658216042258"><ele>22.666666666666668</ele><time>2026-04-27T14:47:16Z</time></trkpt><trkpt lat="14.421645379542648" lon="120.9664999111021"><ele>23.0</ele><time>2026-04-27T14:47:17Z</time></trkpt><trkpt lat="14.42184119070316" lon="120.96641713438272"><ele>23.0</ele><time>2026-04-27T14:47:18Z</time></trkpt><trkpt lat="14.422031291044158" lon="120.96633298525742"><ele>23.0</ele><time>2026-04-27T14:47:19Z</time></trkpt><trkpt lat="14.422226917003558" lon="120.96624259575727"><ele>23.0</ele><time>2026-04-27T14:47:20Z</time></trkpt><trkpt lat="14.422422374283133" lon="120.96615685359846"><ele>22.333333333333336</ele><time>2026-04-27T14:47:21Z</time></trkpt><trkpt lat="14.422599670791149" lon="120.96608402370177"><ele>21.666666666666668</ele><time>2026-04-27T14:47:22Z</time></trkpt><trkpt lat="14.422765759797521" lon="120.96601770962741"><ele>21.0</ele><time>2026-04-27T14:47:23Z</time></trkpt><trkpt lat="14.422931463214463" lon="120.96596585811572"><ele>21.5</ele><time>2026-04-27T14:47:24Z</time></trkpt><trkpt lat="14.423084237596683" lon="120.96593326862731"><ele>22.0</ele><time>2026-04-27T14:47:25Z</time></trkpt><trkpt lat="14.423221443579958" lon="120.96591406947698"><ele>22.5</ele><time>2026-04-27T14:47:26Z</time></trkpt><trkpt lat="14.423338200925413" lon="120.96589929533015"><ele>23.0</ele><time>2026-04-27T14:47:27Z</time></trkpt><trkpt lat="14.423435260343213" lon="120.96588976114356"><ele>23.0</ele><time>2026-04-27T14:47:28Z</time></trkpt><trkpt lat="14.423518473192868" lon="120.96588961569377"><ele>23.0</ele><time>2026-04-27T14:47:29Z</time></trkpt><trkpt lat="14.423587420859699" lon="120.96589494022581"><ele>23.0</ele><time>2026-04-27T14:47:30Z</time></trkpt><trkpt lat="14.423661266033493" lon="120.96589932706982"><ele>23.0</ele><time>2026-04-27T14:47:32Z</time></trkpt><trkpt lat="14.423771612584629" lon="120.96588441234158"><ele>23.0</ele><time>2026-04-27T14:49:00Z</time></trkpt><trkpt lat="14.423849663167568" lon="120.96587602906084"><ele>23.0</ele><time>2026-04-27T14:49:01Z</time></trkpt><trkpt lat="14.42394288135447" lon="120.96586739665794"><ele>22.799999999999997</ele><time>2026-04-27T14:49:02Z</time></trkpt><trkpt lat="14.42404499110366" lon="120.96585355416539"><ele>22.6</ele><time>2026-04-27T14:49:03Z</time></trkpt><trkpt lat="14.424152028983663" lon="120.96584313119453"><ele>22.4</ele><time>2026-04-27T14:49:04Z</time></trkpt><trkpt lat="14.424269096551546" lon="120.96582758677079"><ele>22.200000000000003</ele><time>2026-04-27T14:49:05Z</time></trkpt><trkpt lat="14.424387638043246" lon="120.96580413913819"><ele>22.0</ele><time>2026-04-27T14:49:06Z</time></trkpt><trkpt lat="14.424515034066552" lon="120.96576793023765"><ele>22.0</ele><time>2026-04-27T14:49:07Z</time></trkpt><trkpt lat="14.424644022193963" lon="120.9657199986632"><ele>22.0</ele><time>2026-04-27T14:49:08Z</time></trkpt><trkpt lat="14.424773513774184" lon="120.96565320670923"><ele>22.0</ele><time>2026-04-27T14:49:09Z</time></trkpt><trkpt lat="14.424900146990923" lon="120.96556675240815"><ele>22.0</ele><time>2026-04-27T14:49:10Z</time></trkpt><trkpt lat="14.42502363193261" lon="120.96546353598772"><ele>21.666666666666664</ele><time>2026-04-27T14:49:11Z</time></trkpt><trkpt lat="14.425148796384843" lon="120.96535660555705"><ele>21.333333333333332</ele><time>2026-04-27T14:49:12Z</time></trkpt><trkpt lat="14.425284964935457" lon="120.96524414736824"><ele>21.0</ele><time>2026-04-27T14:49:13Z</time></trkpt><trkpt lat="14.425415922262136" lon="120.965127733564"><ele>20.666666666666668</ele><time>2026-04-27T14:49:14Z</time></trkpt><trkpt lat="14.425560781511434" lon="120.9650157473866"><ele>20.333333333333336</ele><time>2026-04-27T14:49:15Z</time></trkpt><trkpt lat="14.425709783273433" lon="120.96490260862751"><ele>20.0</ele><time>2026-04-27T14:49:16Z</time></trkpt><trkpt lat="14.42587544182027" lon="120.9648145325672"><ele>20.0</ele><time>2026-04-27T14:49:17Z</time></trkpt><trkpt lat="14.426039791611943" lon="120.96471935024738"><ele>20.0</ele><time>2026-04-27T14:49:18Z</time></trkpt><trkpt lat="14.426202883214293" lon="120.96464394245389"><ele>20.0</ele><time>2026-04-27T14:49:19Z</time></trkpt><trkpt lat="14.426369335224862" lon="120.96458035382595"><ele>18.666666666666668</ele><time>2026-04-27T14:49:20Z</time></trkpt><trkpt lat="14.426528951714847" lon="120.96453233636977"><ele>17.333333333333332</ele><time>2026-04-27T14:49:21Z</time></trkpt><trkpt lat="14.426685046867323" lon="120.96450445483724"><ele>16.0</ele><time>2026-04-27T14:49:22Z</time></trkpt><trkpt lat="14.426838808860353" lon="120.96446654029613"><ele>16.0</ele><time>2026-04-27T14:49:23Z</time></trkpt><trkpt lat="14.426995671978137" lon="120.9644126749294"><ele>16.0</ele><time>2026-04-27T14:49:24Z</time></trkpt><trkpt lat="14.42715021446663" lon="120.9643795029939"><ele>16.0</ele><time>2026-04-27T14:49:25Z</time></trkpt><trkpt lat="14.427308992794874" lon="120.96435821001296"><ele>16.333333333333332</ele><time>2026-04-27T14:49:26Z</time></trkpt><trkpt lat="14.427475254617294" lon="120.96434284996947"><ele>16.666666666666668</ele><time>2026-04-27T14:49:27Z</time></trkpt><trkpt lat="14.427648419989367" lon="120.96433450072304"><ele>17.0</ele><time>2026-04-27T14:49:28Z</time></trkpt><trkpt lat="14.427817541682758" lon="120.9643332795197"><ele>18.0</ele><time>2026-04-27T14:49:29Z</time></trkpt><trkpt lat="14.427993427825506" lon="120.96434262341121"><ele>19.0</ele><time>2026-04-27T14:49:30Z</time></trkpt><trkpt lat="14.42817588802137" lon="120.9643538747725"><ele>20.0</ele><time>2026-04-27T14:49:31Z</time></trkpt><trkpt lat="14.428359993167811" lon="120.96437139856857"><ele>20.0</ele><time>2026-04-27T14:49:32Z</time></trkpt><trkpt lat="14.428544075253901" lon="120.96440090356286"><ele>20.0</ele><time>2026-04-27T14:49:33Z</time></trkpt><trkpt lat="14.428731841727474" lon="120.96443352305818"><ele>20.0</ele><time>2026-04-27T14:49:34Z</time></trkpt><trkpt lat="14.428919103473055" lon="120.96447223276168"><ele>19.333333333333336</ele><time>2026-04-27T14:49:35Z</time></trkpt><trkpt lat="14.429108835187582" lon="120.96453037470772"><ele>18.666666666666668</ele><time>2026-04-27T14:49:36Z</time></trkpt><trkpt lat="14.429294917151612" lon="120.96459573677306"><ele>18.0</ele><time>2026-04-27T14:49:37Z</time></trkpt><trkpt lat="14.429476914057371" lon="120.96467944304597"><ele>18.0</ele><time>2026-04-27T14:49:38Z</time></trkpt><trkpt lat="14.429645826082327" lon="120.9647636347145"><ele>18.0</ele><time>2026-04-27T14:49:39Z</time></trkpt><trkpt lat="14.429804883620914" lon="120.96484741747932"><ele>18.0</ele><time>2026-04-27T14:49:40Z</time></trkpt><trkpt lat="14.42994726319002" lon="120.96492738067815"><ele>18.0</ele><time>2026-04-27T14:49:41Z</time></trkpt><trkpt lat="14.43006462622008" lon="120.96499826119646"><ele>18.0</ele><time>2026-04-27T14:49:42Z</time></trkpt><trkpt lat="14.430160880049804" lon="120.96505688500743"><ele>18.0</ele><time>2026-04-27T14:49:43Z</time></trkpt><trkpt lat="14.430235421970309" lon="120.9651000832629"><ele>18.0</ele><time>2026-04-27T14:49:44Z</time></trkpt><trkpt lat="14.430289259004432" lon="120.96513630106638"><ele>18.0</ele><time>2026-04-27T14:49:45Z</time></trkpt><trkpt lat="14.430347555782378" lon="120.96519053563289"><ele>17.6</ele><time>2026-04-27T14:49:47Z</time></trkpt><trkpt lat="14.430400383846797" lon="120.96523137114616"><ele>17.200000000000003</ele><time>2026-04-27T14:49:50Z</time></trkpt><trkpt lat="14.430478303033102" lon="120.9652686978215"><ele>16.8</ele><time>2026-04-27T14:50:52Z</time></trkpt><trkpt lat="14.430590625592295" lon="120.96532633826102"><ele>16.400000000000002</ele><time>2026-04-27T14:50:54Z</time></trkpt><trkpt lat="14.430664766021158" lon="120.96536790979681"><ele>16.0</ele><time>2026-04-27T14:50:55Z</time></trkpt><trkpt lat="14.43074923810742" lon="120.96541647332488"><ele>15.75</ele><time>2026-04-27T14:50:56Z</time></trkpt><trkpt lat="14.430844180381403" lon="120.96546937787977"><ele>15.5</ele><time>2026-04-27T14:50:57Z</time></trkpt><trkpt lat="14.430940524816352" lon="120.96552633284482"><ele>15.25</ele><time>2026-04-27T14:50:58Z</time></trkpt><trkpt lat="14.431046431746486" lon="120.9655816796913"><ele>15.0</ele><time>2026-04-27T14:50:59Z</time></trkpt><trkpt lat="14.431159881885486" lon="120.96564282082534"><ele>15.0</ele><time>2026-04-27T14:51:00Z</time></trkpt><trkpt lat="14.431285213101576" lon="120.96571162460491"><ele>15.0</ele><time>2026-04-27T14:51:01Z</time></trkpt><trkpt lat="14.431411397104137" lon="120.96577501200092"><ele>15.0</ele><time>2026-04-27T14:51:02Z</time></trkpt><trkpt lat="14.431544163300625" lon="120.96585488241307"><ele>15.0</ele><time>2026-04-27T14:51:03Z</time></trkpt><trkpt lat="14.431681984746222" lon="120.9659295974494"><ele>15.333333333333332</ele><time>2026-04-27T14:51:04Z</time></trkpt><trkpt lat="14.431825997546934" lon="120.96600702699061"><ele>15.666666666666666</ele><time>2026-04-27T14:51:05Z</time></trkpt><trkpt lat="14.431974507396896" lon="120.96608696716355"><ele>16.0</ele><time>2026-04-27T14:51:06Z</time></trkpt><trkpt lat="14.43212751712243" lon="120.96616844368933"><ele>15.666666666666666</ele><time>2026-04-27T14:51:07Z</time></trkpt><trkpt lat="14.43228211529078" lon="120.96625303626901"><ele>15.333333333333332</ele><time>2026-04-27T14:51:08Z</time></trkpt><trkpt lat="14.4324394813043" lon="120.9663373740187"><ele>15.0</ele><time>2026-04-27T14:51:09Z</time></trkpt><trkpt lat="14.432601864265635" lon="120.96642557680178"><ele>15.0</ele><time>2026-04-27T14:51:10Z</time></trkpt><trkpt lat="14.43276729031305" lon="120.96651612335329"><ele>15.0</ele><time>2026-04-27T14:51:11Z</time></trkpt><trkpt lat="14.43293674215685" lon="120.96660815645741"><ele>15.0</ele><time>2026-04-27T14:51:12Z</time></trkpt><trkpt lat="14.433110680897627" lon="120.96669890560626"><ele>14.0</ele><time>2026-04-27T14:51:13Z</time></trkpt><trkpt lat="14.43328197674997" lon="120.9667929999073"><ele>13.0</ele><time>2026-04-27T14:51:14Z</time></trkpt><trkpt lat="14.433461287928997" lon="120.96688537415919"><ele>12.0</ele><time>2026-04-27T14:51:15Z</time></trkpt><trkpt lat="14.433640250473822" lon="120.96697783540273"><ele>11.666666666666666</ele><time>2026-04-27T14:51:16Z</time></trkpt><trkpt lat="14.433820248662348" lon="120.9670699719425"><ele>11.333333333333332</ele><time>2026-04-27T14:51:17Z</time></trkpt><trkpt lat="14.434003274028624" lon="120.96716394762672"><ele>11.0</ele><time>2026-04-27T14:51:18Z</time></trkpt><trkpt lat="14.434185834919997" lon="120.96726063261552"><ele>11.0</ele><time>2026-04-27T14:51:19Z</time></trkpt><trkpt lat="14.434369684526947" lon="120.96736179970239"><ele>11.0</ele><time>2026-04-27T14:51:20Z</time></trkpt><trkpt lat="14.434552502591421" lon="120.9674620267494"><ele>11.0</ele><time>2026-04-27T14:51:21Z</time></trkpt><trkpt lat="14.43474015095865" lon="120.96756387193916"><ele>10.0</ele><time>2026-04-27T14:51:22Z</time></trkpt><trkpt lat="14.434921870547171" lon="120.9676640854539"><ele>9.0</ele><time>2026-04-27T14:51:23Z</time></trkpt><trkpt lat="14.435104827906132" lon="120.96776252058872"><ele>8.0</ele><time>2026-04-27T14:51:24Z</time></trkpt><trkpt lat="14.435279108146155" lon="120.96785761731903"><ele>8.0</ele><time>2026-04-27T14:51:25Z</time></trkpt><trkpt lat="14.435444846219129" lon="120.96795095939508"><ele>8.0</ele><time>2026-04-27T14:51:26Z</time></trkpt><trkpt lat="14.435607987811455" lon="120.9680387585852"><ele>8.0</ele><time>2026-04-27T14:51:27Z</time></trkpt><trkpt lat="14.435762185169269" lon="120.9681223215664"><ele>9.333333333333332</ele><time>2026-04-27T14:51:28Z</time></trkpt><trkpt lat="14.435915359681017" lon="120.9681974243688"><ele>10.666666666666666</ele><time>2026-04-27T14:51:29Z</time></trkpt><trkpt lat="14.436059106486795" lon="120.96825731855564"><ele>12.0</ele><time>2026-04-27T14:51:30Z</time></trkpt><trkpt lat="14.43621496429316" lon="120.96830700279928"><ele>11.6</ele><time>2026-04-27T14:51:31Z</time></trkpt><trkpt lat="14.436368477207806" lon="120.96835630397125"><ele>11.2</ele><time>2026-04-27T14:51:32Z</time></trkpt><trkpt lat="14.436432950009438" lon="120.96836172960519"><ele>10.8</ele><time>2026-04-27T14:51:33Z</time></trkpt><trkpt lat="14.436531271944773" lon="120.96837382893236"><ele>10.4</ele><time>2026-04-27T14:52:16Z</time></trkpt><trkpt lat="14.43661189091379" lon="120.96837346831144"><ele>10.0</ele><time>2026-04-27T14:52:17Z</time></trkpt><trkpt lat="14.43669441285106" lon="120.96836455129328"><ele>10.0</ele><time>2026-04-27T14:52:18Z</time></trkpt><trkpt lat="14.436789927986585" lon="120.96835203375772"><ele>10.0</ele><time>2026-04-27T14:52:19Z</time></trkpt><trkpt lat="14.43689054332724" lon="120.96833724301209"><ele>10.0</ele><time>2026-04-27T14:52:20Z</time></trkpt><trkpt lat="14.43699612162717" lon="120.9683128374476"><ele>10.0</ele><time>2026-04-27T14:52:21Z</time></trkpt><trkpt lat="14.437128576591885" lon="120.96827819102222"><ele>10.0</ele><time>2026-04-27T14:52:22Z</time></trkpt><trkpt lat="14.437262493979004" lon="120.9682434228164"><ele>9.666666666666668</ele><time>2026-04-27T14:52:23Z</time></trkpt><trkpt lat="14.437410084615673" lon="120.96820407519378"><ele>9.333333333333334</ele><time>2026-04-27T14:52:24Z</time></trkpt><trkpt lat="14.437566158496526" lon="120.96816686650872"><ele>9.0</ele><time>2026-04-27T14:52:25Z</time></trkpt><trkpt lat="14.437730785224359" lon="120.9681269781926"><ele>9.0</ele><time>2026-04-27T14:52:26Z</time></trkpt><trkpt lat="14.437893957837487" lon="120.96808975292096"><ele>9.0</ele><time>2026-04-27T14:52:27Z</time></trkpt><trkpt lat="14.438063837214886" lon="120.96805037703732"><ele>9.0</ele><time>2026-04-27T14:52:28Z</time></trkpt><trkpt lat="14.438240904600047" lon="120.96801017271238"><ele>9.333333333333334</ele><time>2026-04-27T14:52:29Z</time></trkpt><trkpt lat="14.438418501416898" lon="120.9679661225894"><ele>9.666666666666668</ele><time>2026-04-27T14:52:30Z</time></trkpt><trkpt lat="14.43860014402808" lon="120.96791427435379"><ele>10.0</ele><time>2026-04-27T14:52:31Z</time></trkpt><trkpt lat="14.438779381671608" lon="120.96786156212556"><ele>10.0</ele><time>2026-04-27T14:52:32Z</time></trkpt><trkpt lat="14.438965940131663" lon="120.96780298110386"><ele>10.0</ele><time>2026-04-27T14:52:33Z</time></trkpt><trkpt lat="14.439159408177852" lon="120.96774940934365"><ele>10.0</ele><time>2026-04-27T14:52:34Z</time></trkpt><trkpt lat="14.43934971591013" lon="120.96769089023968"><ele>10.0</ele><time>2026-04-27T14:52:35Z</time></trkpt><trkpt lat="14.439537771873434" lon="120.96761748617254"><ele>10.0</ele><time>2026-04-27T14:52:36Z</time></trkpt><trkpt lat="14.43972353233928" lon="120.96753842531588"><ele>10.0</ele><time>2026-04-27T14:52:37Z</time></trkpt><trkpt lat="14.439912097047404" lon="120.96745612632357"><ele>10.0</ele><time>2026-04-27T14:52:38Z</time></trkpt><trkpt lat="14.440101483133754" lon="120.96737547420885"><ele>10.0</ele><time>2026-04-27T14:52:39Z</time></trkpt><trkpt lat="14.440288403481711" lon="120.96729522403193"><ele>10.0</ele><time>2026-04-27T14:52:40Z</time></trkpt><trkpt lat="14.440471416139525" lon="120.96721912343811"><ele>9.333333333333334</ele><time>2026-04-27T14:52:41Z</time></trkpt><trkpt lat="14.440655246859954" lon="120.96714018161755"><ele>8.666666666666666</ele><time>2026-04-27T14:52:42Z</time></trkpt><trkpt lat="14.440841138545325" lon="120.96706131419927"><ele>8.0</ele><time>2026-04-27T14:52:43Z</time></trkpt><trkpt lat="14.441017428229781" lon="120.96698352649898"><ele>8.0</ele><time>2026-04-27T14:52:44Z</time></trkpt><trkpt lat="14.441183022317661" lon="120.96691073122149"><ele>8.0</ele><time>2026-04-27T14:52:45Z</time></trkpt><trkpt lat="14.44134463476022" lon="120.96683717021232"><ele>8.0</ele><time>2026-04-27T14:52:46Z</time></trkpt><trkpt lat="14.441507101215972" lon="120.96676511567185"><ele>8.0</ele><time>2026-04-27T14:52:47Z</time></trkpt><trkpt lat="14.441665723077824" lon="120.96669774079345"><ele>8.0</ele><time>2026-04-27T14:52:48Z</time></trkpt><trkpt lat="14.441825912215378" lon="120.9666319829521"><ele>8.0</ele><time>2026-04-27T14:52:49Z</time></trkpt><trkpt lat="14.441985770538198" lon="120.96656490647212"><ele>8.666666666666666</ele><time>2026-04-27T14:52:50Z</time></trkpt><trkpt lat="14.44214805157798" lon="120.96649655519441"><ele>9.333333333333334</ele><time>2026-04-27T14:52:51Z</time></trkpt><trkpt lat="14.442312177391187" lon="120.96642727408295"><ele>10.0</ele><time>2026-04-27T14:52:52Z</time></trkpt><trkpt lat="14.442483391242403" lon="120.96638230372784"><ele>10.0</ele><time>2026-04-27T14:52:53Z</time></trkpt><trkpt lat="14.442640692827528" lon="120.96634052721383"><ele>10.0</ele><time>2026-04-27T14:52:54Z</time></trkpt><trkpt lat="14.44280095284881" lon="120.9663123842434"><ele>10.0</ele><time>2026-04-27T14:52:55Z</time></trkpt><trkpt lat="14.4429663152777" lon="120.96630428479072"><ele>10.333333333333334</ele><time>2026-04-27T14:52:56Z</time></trkpt><trkpt lat="14.44313519738797" lon="120.96631164398669"><ele>10.666666666666666</ele><time>2026-04-27T14:52:57Z</time></trkpt><trkpt lat="14.443305634949896" lon="120.96632861028432"><ele>11.0</ele><time>2026-04-27T14:52:58Z</time></trkpt><trkpt lat="14.44348141783409" lon="120.96633572331886"><ele>11.0</ele><time>2026-04-27T14:52:59Z</time></trkpt><trkpt lat="14.443653351987482" lon="120.96636647703052"><ele>11.0</ele><time>2026-04-27T14:53:00Z</time></trkpt><trkpt lat="14.443830405824407" lon="120.96638925105894"><ele>11.0</ele><time>2026-04-27T14:53:01Z</time></trkpt><trkpt lat="14.444001286685811" lon="120.96640648875812"><ele>10.666666666666666</ele><time>2026-04-27T14:53:02Z</time></trkpt><trkpt lat="14.444146712937846" lon="120.96640501291395"><ele>10.333333333333334</ele><time>2026-04-27T14:53:03Z</time></trkpt><trkpt lat="14.444302862450247" lon="120.96639296799351"><ele>10.0</ele><time>2026-04-27T14:53:04Z</time></trkpt><trkpt lat="14.444452738271714" lon="120.96636630774194"><ele>10.0</ele><time>2026-04-27T14:53:05Z</time></trkpt><trkpt lat="14.444599620443224" lon="120.96631285024068"><ele>10.0</ele><time>2026-04-27T14:53:06Z</time></trkpt><trkpt lat="14.444753527584572" lon="120.96624127920556"><ele>10.0</ele><time>2026-04-27T14:53:07Z</time></trkpt><trkpt lat="14.444890381523493" lon="120.96617332258747"><ele>10.0</ele><time>2026-04-27T14:53:08Z</time></trkpt><trkpt lat="14.445041417842583" lon="120.96610452796747"><ele>10.0</ele><time>2026-04-27T14:53:09Z</time></trkpt><trkpt lat="14.445198771965034" lon="120.96602184801574"><ele>10.0</ele><time>2026-04-27T14:53:10Z</time></trkpt><trkpt lat="14.445353030098788" lon="120.96593023601558"><ele>10.333333333333334</ele><time>2026-04-27T14:53:11Z</time></trkpt><trkpt lat="14.445512620733984" lon="120.9658452623029"><ele>10.666666666666666</ele><time>2026-04-27T14:53:12Z</time></trkpt><trkpt lat="14.445669722263649" lon="120.96575822727779"><ele>11.0</ele><time>2026-04-27T14:53:13Z</time></trkpt><trkpt lat="14.445836986042343" lon="120.9656903354238"><ele>11.0</ele><time>2026-04-27T14:53:14Z</time></trkpt><trkpt lat="14.445991643346993" lon="120.96559209497404"><ele>11.0</ele><time>2026-04-27T14:53:15Z</time></trkpt><trkpt lat="14.44613601087285" lon="120.96550641305886"><ele>11.0</ele><time>2026-04-27T14:53:16Z</time></trkpt><trkpt lat="14.446258143706856" lon="120.96541310507911"><ele>9.666666666666666</ele><time>2026-04-27T14:53:17Z</time></trkpt><trkpt lat="14.446368784715498" lon="120.96531114532353"><ele>8.333333333333334</ele><time>2026-04-27T14:53:18Z</time></trkpt><trkpt lat="14.446459393247157" lon="120.96518941922916"><ele>7.0</ele><time>2026-04-27T14:53:19Z</time></trkpt><trkpt lat="14.446544799492834" lon="120.96505398274088"><ele>9.0</ele><time>2026-04-27T14:53:20Z</time></trkpt><trkpt lat="14.446625589474612" lon="120.96491513024748"><ele>11.0</ele><time>2026-04-27T14:53:21Z</time></trkpt><trkpt lat="14.446700778229413" lon="120.96476854331246"><ele>13.0</ele><time>2026-04-27T14:53:22Z</time></trkpt><trkpt lat="14.44676349875818" lon="120.96461631243028"><ele>13.0</ele><time>2026-04-27T14:53:23Z</time></trkpt><trkpt lat="14.446830169202698" lon="120.96445924380507"><ele>13.0</ele><time>2026-04-27T14:53:24Z</time></trkpt><trkpt lat="14.446893556374732" lon="120.96429398947973"><ele>13.0</ele><time>2026-04-27T14:53:25Z</time></trkpt><trkpt lat="14.446965023677956" lon="120.96412675728222"><ele>13.333333333333332</ele><time>2026-04-27T14:53:26Z</time></trkpt><trkpt lat="14.447033179294934" lon="120.96395730747463"><ele>13.666666666666668</ele><time>2026-04-27T14:53:27Z</time></trkpt><trkpt lat="14.447118546096748" lon="120.9637928479257"><ele>14.0</ele><time>2026-04-27T14:53:28Z</time></trkpt><trkpt lat="14.447204159488674" lon="120.96363396300846"><ele>12.666666666666668</ele><time>2026-04-27T14:53:29Z</time></trkpt><trkpt lat="14.4472974302483" lon="120.96347356167657"><ele>11.333333333333334</ele><time>2026-04-27T14:53:30Z</time></trkpt><trkpt lat="14.447397187398526" lon="120.96332004768256"><ele>10.0</ele><time>2026-04-27T14:53:31Z</time></trkpt><trkpt lat="14.447515455853857" lon="120.96316723095713"><ele>9.333333333333334</ele><time>2026-04-27T14:53:32Z</time></trkpt><trkpt lat="14.44763479220781" lon="120.9630176284158"><ele>8.666666666666666</ele><time>2026-04-27T14:53:33Z</time></trkpt><trkpt lat="14.447765003555155" lon="120.96287521502218"><ele>8.0</ele><time>2026-04-27T14:53:34Z</time></trkpt><trkpt lat="14.4479019381527" lon="120.962739530378"><ele>8.666666666666666</ele><time>2026-04-27T14:53:35Z</time></trkpt><trkpt lat="14.448053325196005" lon="120.9626078553999"><ele>9.333333333333334</ele><time>2026-04-27T14:53:36Z</time></trkpt><trkpt lat="14.448213655433419" lon="120.9624826858989"><ele>10.0</ele><time>2026-04-27T14:53:37Z</time></trkpt><trkpt lat="14.448377248317664" lon="120.96236315112351"><ele>10.666666666666668</ele><time>2026-04-27T14:53:38Z</time></trkpt><trkpt lat="14.448538375184935" lon="120.96222713662998"><ele>11.333333333333334</ele><time>2026-04-27T14:53:39Z</time></trkpt><trkpt lat="14.448719314338728" lon="120.96211787888146"><ele>12.0</ele><time>2026-04-27T14:53:40Z</time></trkpt><trkpt lat="14.448909848791757" lon="120.96202677960588"><ele>12.0</ele><time>2026-04-27T14:53:41Z</time></trkpt><trkpt lat="14.449098034742242" lon="120.96192189794719"><ele>12.0</ele><time>2026-04-27T14:53:42Z</time></trkpt><trkpt lat="14.449286298282674" lon="120.96181697301797"><ele>12.0</ele><time>2026-04-27T14:53:43Z</time></trkpt><trkpt lat="14.449467505483119" lon="120.96170088566501"><ele>11.0</ele><time>2026-04-27T14:53:44Z</time></trkpt><trkpt lat="14.449664779841404" lon="120.96161139447054"><ele>10.0</ele><time>2026-04-27T14:53:45Z</time></trkpt><trkpt lat="14.449854735204733" lon="120.96150921762347"><ele>9.0</ele><time>2026-04-27T14:53:46Z</time></trkpt><trkpt lat="14.450044698136294" lon="120.96140703666912"><ele>9.0</ele><time>2026-04-27T14:53:47Z</time></trkpt><trkpt lat="14.450226204839087" lon="120.9613093064258"><ele>9.0</ele><time>2026-04-27T14:53:48Z</time></trkpt><trkpt lat="14.450395864279658" lon="120.96121822223802"><ele>9.0</ele><time>2026-04-27T14:53:49Z</time></trkpt><trkpt lat="14.450559800346845" lon="120.96113024639244"><ele>9.0</ele><time>2026-04-27T14:53:50Z</time></trkpt><trkpt lat="14.450718591169672" lon="120.96104719747227"><ele>9.0</ele><time>2026-04-27T14:53:51Z</time></trkpt><trkpt lat="14.450874283399639" lon="120.96097221486576"><ele>9.0</ele><time>2026-04-27T14:53:52Z</time></trkpt><trkpt lat="14.451033956568592" lon="120.96091367638932"><ele>9.25</ele><time>2026-04-27T14:53:53Z</time></trkpt><trkpt lat="14.45118071369567" lon="120.96084862948474"><ele>9.5</ele><time>2026-04-27T14:53:54Z</time></trkpt><trkpt lat="14.451329204324335" lon="120.96082187904918"><ele>9.75</ele><time>2026-04-27T14:53:55Z</time></trkpt><trkpt lat="14.451449364696954" lon="120.96080403979308"><ele>10.0</ele><time>2026-04-27T14:53:56Z</time></trkpt><trkpt lat="14.451547133866063" lon="120.96079401000227"><ele>9.666666666666668</ele><time>2026-04-27T14:53:57Z</time></trkpt><trkpt lat="14.451614881573878" lon="120.96079023680721"><ele>9.333333333333334</ele><time>2026-04-27T14:53:58Z</time></trkpt><trkpt lat="14.451680587786804" lon="120.96078822162455"><ele>9.0</ele><time>2026-04-27T14:53:59Z</time></trkpt><trkpt lat="14.45178695038654" lon="120.96079947126184"><ele>8.666666666666666</ele><time>2026-04-27T14:54:01Z</time></trkpt><trkpt lat="14.451860141758784" lon="120.96080964945433"><ele>8.333333333333332</ele><time>2026-04-27T14:54:03Z</time></trkpt><trkpt lat="14.451928305792997" lon="120.96080648290078"><ele>8.0</ele><time>2026-04-27T14:54:29Z</time></trkpt><trkpt lat="14.452012115429199" lon="120.96081465767318"><ele>7.6000000000000005</ele><time>2026-04-27T14:54:33Z</time></trkpt><trkpt lat="14.452143606629937" lon="120.96082017003611"><ele>7.200000000000001</ele><time>2026-04-27T14:54:35Z</time></trkpt><trkpt lat="14.452239024104502" lon="120.96081418607517"><ele>6.8</ele><time>2026-04-27T14:54:36Z</time></trkpt><trkpt lat="14.452327104837435" lon="120.96081832998622"><ele>6.4</ele><time>2026-04-27T14:54:37Z</time></trkpt><trkpt lat="14.452438145374794" lon="120.96082331523365"><ele>6.0</ele><time>2026-04-27T14:54:38Z</time></trkpt><trkpt lat="14.452560111118412" lon="120.96082006547267"><ele>6.0</ele><time>2026-04-27T14:54:39Z</time></trkpt><trkpt lat="14.452692465008774" lon="120.9608093503753"><ele>6.0</ele><time>2026-04-27T14:54:40Z</time></trkpt><trkpt lat="14.452829236807421" lon="120.96079435438381"><ele>6.0</ele><time>2026-04-27T14:54:41Z</time></trkpt><trkpt lat="14.452980093288135" lon="120.96077793641645"><ele>6.0</ele><time>2026-04-27T14:54:42Z</time></trkpt><trkpt lat="14.453141118343218" lon="120.96075644538736"><ele>6.333333333333334</ele><time>2026-04-27T14:54:43Z</time></trkpt><trkpt lat="14.453308912130648" lon="120.96073455546546"><ele>6.666666666666667</ele><time>2026-04-27T14:54:44Z</time></trkpt><trkpt lat="14.45347921235107" lon="120.96071530796979"><ele>7.0</ele><time>2026-04-27T14:54:45Z</time></trkpt><trkpt lat="14.45365241096643" lon="120.96069932210105"><ele>6.666666666666667</ele><time>2026-04-27T14:54:46Z</time></trkpt><trkpt lat="14.453835320220279" lon="120.96067657938146"><ele>6.333333333333334</ele><time>2026-04-27T14:54:47Z</time></trkpt><trkpt lat="14.454017087968085" lon="120.96064907023512"><ele>6.0</ele><time>2026-04-27T14:54:48Z</time></trkpt><trkpt lat="14.454200926485461" lon="120.96062538208503"><ele>6.0</ele><time>2026-04-27T14:54:49Z</time></trkpt><trkpt lat="14.454385687201018" lon="120.96060400279183"><ele>6.0</ele><time>2026-04-27T14:54:50Z</time></trkpt><trkpt lat="14.454578671218922" lon="120.96058941294648"><ele>6.0</ele><time>2026-04-27T14:54:51Z</time></trkpt><trkpt lat="14.454762270898033" lon="120.96057805210592"><ele>6.666666666666666</ele><time>2026-04-27T14:54:52Z</time></trkpt><trkpt lat="14.454953792961678" lon="120.96057451360934"><ele>7.333333333333333</ele><time>2026-04-27T14:54:53Z</time></trkpt><trkpt lat="14.455152089359384" lon="120.96056808044268"><ele>8.0</ele><time>2026-04-27T14:54:54Z</time></trkpt><trkpt lat="14.455345844934701" lon="120.96055897566757"><ele>7.666666666666666</ele><time>2026-04-27T14:54:55Z</time></trkpt><trkpt lat="14.455545946487225" lon="120.96054984512637"><ele>7.333333333333334</ele><time>2026-04-27T14:54:56Z</time></trkpt><trkpt lat="14.455734692879698" lon="120.96054567116147"><ele>7.0</ele><time>2026-04-27T14:54:57Z</time></trkpt><trkpt lat="14.455923621910642" lon="120.96053897279742"><ele>7.0</ele><time>2026-04-27T14:54:58Z</time></trkpt><trkpt lat="14.456099664404471" lon="120.96052253484858"><ele>7.0</ele><time>2026-04-27T14:54:59Z</time></trkpt><trkpt lat="14.45629016782249" lon="120.96050142770021"><ele>7.0</ele><time>2026-04-27T14:55:00Z</time></trkpt><trkpt lat="14.4564709369611" lon="120.96046450743184"><ele>7.0</ele><time>2026-04-27T14:55:01Z</time></trkpt><trkpt lat="14.45665076136885" lon="120.96041838202383"><ele>7.0</ele><time>2026-04-27T14:55:02Z</time></trkpt><trkpt lat="14.45682820504114" lon="120.96036774538908"><ele>7.0</ele><time>2026-04-27T14:55:03Z</time></trkpt><trkpt lat="14.457010640033308" lon="120.96031032508184"><ele>6.666666666666667</ele><time>2026-04-27T14:55:04Z</time></trkpt><trkpt lat="14.457185686715727" lon="120.96025814886798"><ele>6.333333333333334</ele><time>2026-04-27T14:55:05Z</time></trkpt><trkpt lat="14.457361640811438" lon="120.96021261320851"><ele>6.0</ele><time>2026-04-27T14:55:06Z</time></trkpt><trkpt lat="14.457545193747315" lon="120.96017330191408"><ele>6.0</ele><time>2026-04-27T14:55:07Z</time></trkpt><trkpt lat="14.45772717851953" lon="120.96013900806092"><ele>6.0</ele><time>2026-04-27T14:55:08Z</time></trkpt><trkpt lat="14.457907624545708" lon="120.96011419900965"><ele>6.0</ele><time>2026-04-27T14:55:09Z</time></trkpt><trkpt lat="14.458085027184266" lon="120.9600877652338"><ele>6.333333333333334</ele><time>2026-04-27T14:55:10Z</time></trkpt><trkpt lat="14.458256886489853" lon="120.96006136608075"><ele>6.666666666666667</ele><time>2026-04-27T14:55:11Z</time></trkpt><trkpt lat="14.45841711240245" lon="120.96004170560356"><ele>7.0</ele><time>2026-04-27T14:55:12Z</time></trkpt><trkpt lat="14.45855933065007" lon="120.96001656065349"><ele>6.6</ele><time>2026-04-27T14:55:13Z</time></trkpt><trkpt lat="14.458689211676447" lon="120.95999698615229"><ele>6.199999999999999</ele><time>2026-04-27T14:55:14Z</time></trkpt><trkpt lat="14.458797243810233" lon="120.95998017037265"><ele>5.8</ele><time>2026-04-27T14:55:15Z</time></trkpt><trkpt lat="14.458898884016273" lon="120.95997185721026"><ele>5.4</ele><time>2026-04-27T14:55:16Z</time></trkpt><trkpt lat="14.458991785631635" lon="120.95996537548615"><ele>5.0</ele><time>2026-04-27T14:55:17Z</time></trkpt><trkpt lat="14.459081904141042" lon="120.95995447799564"><ele>5.833333333333334</ele><time>2026-04-27T14:55:18Z</time></trkpt><trkpt lat="14.459164894468561" lon="120.95993661025082"><ele>6.666666666666667</ele><time>2026-04-27T14:55:19Z</time></trkpt><trkpt lat="14.459243726962308" lon="120.9599253983109"><ele>7.5</ele><time>2026-04-27T14:55:20Z</time></trkpt><trkpt lat="14.459327468663494" lon="120.95991259400708"><ele>8.333333333333334</ele><time>2026-04-27T14:55:21Z</time></trkpt><trkpt lat="14.45940607173719" lon="120.95990108111626"><ele>9.166666666666668</ele><time>2026-04-27T14:55:22Z</time></trkpt><trkpt lat="14.459481356161426" lon="120.95988761300278"><ele>10.0</ele><time>2026-04-27T14:55:23Z</time></trkpt><trkpt lat="14.459547612580792" lon="120.95988595142748"><ele>10.0</ele><time>2026-04-27T14:55:24Z</time></trkpt><trkpt lat="14.459619378833885" lon="120.95989763093264"><ele>10.0</ele><time>2026-04-27T14:55:25Z</time></trkpt><trkpt lat="14.459685018249028" lon="120.95987446145162"><ele>10.0</ele><time>2026-04-27T14:55:26Z</time></trkpt><trkpt lat="14.459761828827192" lon="120.96001250363685"><ele>10.0</ele><time>2026-04-27T14:55:27Z</time></trkpt><trkpt lat="14.459827048849148" lon="120.9600849623635"><ele>10.0</ele><time>2026-04-27T14:55:28Z</time></trkpt><trkpt lat="14.459896438522339" lon="120.96015935153282"><ele>10.0</ele><time>2026-04-27T14:55:29Z</time></trkpt><trkpt lat="14.459970527840895" lon="120.9602329602586"><ele>10.0</ele><time>2026-04-27T14:55:30Z</time></trkpt><trkpt lat="14.46004735630963" lon="120.96031207324224"><ele>10.0</ele><time>2026-04-27T14:55:31Z</time></trkpt><trkpt lat="14.460124184421248" lon="120.96039622796867"><ele>10.0</ele><time>2026-04-27T14:55:32Z</time></trkpt><trkpt lat="14.460204457447803" lon="120.9604837248873"><ele>10.0</ele><time>2026-04-27T14:55:33Z</time></trkpt><trkpt lat="14.460291546762614" lon="120.96058423664253"><ele>10.0</ele><time>2026-04-27T14:55:34Z</time></trkpt><trkpt lat="14.460364569356512" lon="120.96067094693261"><ele>10.0</ele><time>2026-04-27T14:55:35Z</time></trkpt><trkpt lat="14.46044261452226" lon="120.96077179606078"><ele>10.0</ele><time>2026-04-27T14:55:36Z</time></trkpt><trkpt lat="14.460515920685829" lon="120.96087625291848"><ele>10.0</ele><time>2026-04-27T14:55:37Z</time></trkpt><trkpt lat="14.460586349535987" lon="120.96097640699678"><ele>9.6</ele><time>2026-04-27T14:55:38Z</time></trkpt><trkpt lat="14.460652840093081" lon="120.96106122519814"><ele>9.2</ele><time>2026-04-27T14:55:39Z</time></trkpt><trkpt lat="14.460715769060396" lon="120.96115835391109"><ele>8.8</ele><time>2026-04-27T14:55:40Z</time></trkpt><trkpt lat="14.460777236343127" lon="120.96124418565861"><ele>8.4</ele><time>2026-04-27T14:55:41Z</time></trkpt><trkpt lat="14.460834116860367" lon="120.961326911471"><ele>8.0</ele><time>2026-04-27T14:55:42Z</time></trkpt><trkpt lat="14.46088646710515" lon="120.96140911878436"><ele>7.999999999999999</ele><time>2026-04-27T14:55:43Z</time></trkpt><trkpt lat="14.460929866738663" lon="120.96148387798033"><ele>8.0</ele><time>2026-04-27T14:55:44Z</time></trkpt><trkpt lat="14.460968259555639" lon="120.96155020878867"><ele>8.0</ele><time>2026-04-27T14:55:45Z</time></trkpt><trkpt lat="14.461010635954462" lon="120.96161499420641"><ele>8.0</ele><time>2026-04-27T14:55:46Z</time></trkpt><trkpt lat="14.461048434216147" lon="120.96167089049615"><ele>7.999999999999999</ele><time>2026-04-27T14:55:47Z</time></trkpt><trkpt lat="14.461122144512615" lon="120.9617785992526"><ele>8.0</ele><time>2026-04-27T14:55:49Z</time></trkpt><trkpt lat="14.461185169070413" lon="120.96187752639312"><ele>8.0</ele><time>2026-04-27T14:55:51Z</time></trkpt><trkpt lat="14.461240824757821" lon="120.96197372920155"><ele>8.0</ele><time>2026-04-27T14:55:53Z</time></trkpt><trkpt lat="14.46130899298983" lon="120.9620681956611"><ele>8.0</ele><time>2026-04-27T14:55:55Z</time></trkpt><trkpt lat="14.461366392102137" lon="120.96215601379501"><ele>8.0</ele><time>2026-04-27T14:55:57Z</time></trkpt><trkpt lat="14.461416322067787" lon="120.96223338295233"><ele>8.0</ele><time>2026-04-27T14:55:59Z</time></trkpt><trkpt lat="14.461453941987159" lon="120.96229054094884"><ele>8.0</ele><time>2026-04-27T14:56:01Z</time></trkpt><trkpt lat="14.461502339497367" lon="120.96235949752851"><ele>8.0</ele><time>2026-04-27T14:56:03Z</time></trkpt><trkpt lat="14.461565521206664" lon="120.96244909508759"><ele>8.0</ele><time>2026-04-27T14:56:05Z</time></trkpt><trkpt lat="14.461635803725159" lon="120.96254820025305"><ele>8.0</ele><time>2026-04-27T14:56:07Z</time></trkpt><trkpt lat="14.461680928121618" lon="120.96263292110525"><ele>8.0</ele><time>2026-04-27T14:56:09Z</time></trkpt><trkpt lat="14.46172230626269" lon="120.96268601745088"><ele>8.0</ele><time>2026-04-27T14:56:11Z</time></trkpt><trkpt lat="14.46178555979528" lon="120.96276914155892"><ele>8.0</ele><time>2026-04-27T14:56:13Z</time></trkpt><trkpt lat="14.461853302040035" lon="120.96288607926023"><ele>8.0</ele><time>2026-04-27T14:56:15Z</time></trkpt><trkpt lat="14.461890686307473" lon="120.96295172537796"><ele>8.0</ele><time>2026-04-27T14:56:16Z</time></trkpt><trkpt lat="14.46192558195305" lon="120.96302599431476"><ele>8.0</ele><time>2026-04-27T14:56:17Z</time></trkpt><trkpt lat="14.461962520205246" lon="120.96308304399916"><ele>8.0</ele><time>2026-04-27T14:56:18Z</time></trkpt><trkpt lat="14.462011258960134" lon="120.96315670608051"><ele>8.0</ele><time>2026-04-27T14:56:20Z</time></trkpt><trkpt lat="14.462069263423663" lon="120.96322866950447"><ele>8.0</ele><time>2026-04-27T14:56:26Z</time></trkpt><trkpt lat="14.462113725755607" lon="120.96329570849879"><ele>8.0</ele><time>2026-04-27T14:56:29Z</time></trkpt><trkpt lat="14.462151537712982" lon="120.96337004547397"><ele>8.0</ele><time>2026-04-27T14:56:31Z</time></trkpt><trkpt lat="14.462214593862129" lon="120.9634895509214"><ele>8.166666666666666</ele><time>2026-04-27T14:56:33Z</time></trkpt><trkpt lat="14.462253612802053" lon="120.96354339663995"><ele>8.333333333333332</ele><time>2026-04-27T14:56:34Z</time></trkpt><trkpt lat="14.462299852871391" lon="120.9636057849384"><ele>8.5</ele><time>2026-04-27T14:56:35Z</time></trkpt><trkpt lat="14.462351002044448" lon="120.9636726750955"><ele>8.666666666666666</ele><time>2026-04-27T14:56:36Z</time></trkpt><trkpt lat="14.462389118483099" lon="120.96375292388375"><ele>8.833333333333334</ele><time>2026-04-27T14:56:37Z</time></trkpt><trkpt lat="14.462429597376245" lon="120.96381775045302"><ele>9.0</ele><time>2026-04-27T14:56:38Z</time></trkpt><trkpt lat="14.462467638676138" lon="120.96387648087621"><ele>9.0</ele><time>2026-04-27T14:56:39Z</time></trkpt><trkpt lat="14.462506214118886" lon="120.96393603594494"><ele>9.0</ele><time>2026-04-27T14:56:40Z</time></trkpt><trkpt lat="14.462544004055786" lon="120.96399437830776"><ele>9.0</ele><time>2026-04-27T14:56:41Z</time></trkpt><trkpt lat="14.462604925329693" lon="120.96408843220084"><ele>9.0</ele><time>2026-04-27T14:56:43Z</time></trkpt><trkpt lat="14.4626565993478" lon="120.96416820963412"><ele>9.0</ele><time>2026-04-27T14:56:45Z</time></trkpt><trkpt lat="14.462720362399686" lon="120.96426881055169"><ele>8.833333333333334</ele><time>2026-04-27T14:56:47Z</time></trkpt><trkpt lat="14.462792594255996" lon="120.96438303769425"><ele>8.666666666666666</ele><time>2026-04-27T14:56:49Z</time></trkpt><trkpt lat="14.462832374267267" lon="120.96444594561238"><ele>8.5</ele><time>2026-04-27T14:56:50Z</time></trkpt><trkpt lat="14.46287630432247" lon="120.96451541640188"><ele>8.333333333333332</ele><time>2026-04-27T14:56:51Z</time></trkpt><trkpt lat="14.462921538853786" lon="120.96458695018828"><ele>8.166666666666666</ele><time>2026-04-27T14:56:52Z</time></trkpt><trkpt lat="14.462960186993156" lon="120.96464476874903"><ele>8.0</ele><time>2026-04-27T14:56:53Z</time></trkpt><trkpt lat="14.462999668081672" lon="120.96470511522399"><ele>8.0</ele><time>2026-04-27T14:56:54Z</time></trkpt><trkpt lat="14.463074394954209" lon="120.9648193345693"><ele>8.0</ele><time>2026-04-27T14:56:56Z</time></trkpt><trkpt lat="14.463110533535302" lon="120.96487457049373"><ele>8.0</ele><time>2026-04-27T14:56:57Z</time></trkpt><trkpt lat="14.463154357099874" lon="120.96494153994698"><ele>8.0</ele><time>2026-04-27T14:56:58Z</time></trkpt><trkpt lat="14.463225655838357" lon="120.9650504958349"><ele>8.0</ele><time>2026-04-27T14:57:00Z</time></trkpt><trkpt lat="14.463292746394066" lon="120.96515301534173"><ele>8.200000000000001</ele><time>2026-04-27T14:57:02Z</time></trkpt><trkpt lat="14.463356072592903" lon="120.96524977483628"><ele>8.4</ele><time>2026-04-27T14:57:04Z</time></trkpt><trkpt lat="14.463426163267815" lon="120.96535687013284"><ele>8.600000000000001</ele><time>2026-04-27T14:57:06Z</time></trkpt><trkpt lat="14.463498316211954" lon="120.96546510591835"><ele>8.8</ele><time>2026-04-27T14:57:08Z</time></trkpt><trkpt lat="14.463535760305994" lon="120.96552056915024"><ele>9.0</ele><time>2026-04-27T14:57:09Z</time></trkpt><trkpt lat="14.463571866486749" lon="120.96557405063616"><ele>9.0</ele><time>2026-04-27T14:57:10Z</time></trkpt><trkpt lat="14.463649418045577" lon="120.96568892214192"><ele>9.0</ele><time>2026-04-27T14:57:12Z</time></trkpt><trkpt lat="14.463697641272008" lon="120.96576035174431"><ele>9.0</ele><time>2026-04-27T14:57:13Z</time></trkpt><trkpt lat="14.463751302785738" lon="120.96583983664082"><ele>9.0</ele><time>2026-04-27T14:57:14Z</time></trkpt><trkpt lat="14.463810343469014" lon="120.96592728935572"><ele>9.0</ele><time>2026-04-27T14:57:15Z</time></trkpt><trkpt lat="14.463875485848215" lon="120.966023235116"><ele>9.0</ele><time>2026-04-27T14:57:16Z</time></trkpt><trkpt lat="14.463940120267692" lon="120.96611957836353"><ele>9.0</ele><time>2026-04-27T14:57:17Z</time></trkpt><trkpt lat="14.464008302602805" lon="120.96622867563121"><ele>9.0</ele><time>2026-04-27T14:57:18Z</time></trkpt><trkpt lat="14.464069895179996" lon="120.96632680220921"><ele>9.0</ele><time>2026-04-27T14:57:19Z</time></trkpt><trkpt lat="14.464131926499864" lon="120.96642524174908"><ele>9.0</ele><time>2026-04-27T14:57:20Z</time></trkpt><trkpt lat="14.464205695668012" lon="120.96652020194493"><ele>9.0</ele><time>2026-04-27T14:57:21Z</time></trkpt><trkpt lat="14.464266179333856" lon="120.96661993251782"><ele>9.0</ele><time>2026-04-27T14:57:22Z</time></trkpt><trkpt lat="14.46432451119284" lon="120.96672534351502"><ele>9.0</ele><time>2026-04-27T14:57:23Z</time></trkpt><trkpt lat="14.464387362715573" lon="120.96683200222273"><ele>8.75</ele><time>2026-04-27T14:57:24Z</time></trkpt><trkpt lat="14.464454546641994" lon="120.96693778311422"><ele>8.5</ele><time>2026-04-27T14:57:25Z</time></trkpt><trkpt lat="14.46452564289429" lon="120.96703858990645"><ele>8.25</ele><time>2026-04-27T14:57:26Z</time></trkpt><trkpt lat="14.4646102627177" lon="120.96713122547119"><ele>8.0</ele><time>2026-04-27T14:57:27Z</time></trkpt><trkpt lat="14.464689962926974" lon="120.96721389784527"><ele>8.75</ele><time>2026-04-27T14:57:28Z</time></trkpt><trkpt lat="14.46478310291372" lon="120.96729197919556"><ele>9.5</ele><time>2026-04-27T14:57:29Z</time></trkpt><trkpt lat="14.464883745496639" lon="120.9673656590611"><ele>10.25</ele><time>2026-04-27T14:57:30Z</time></trkpt><trkpt lat="14.464984060458962" lon="120.96744156018225"><ele>11.0</ele><time>2026-04-27T14:57:31Z</time></trkpt><trkpt lat="14.465087470819995" lon="120.96752096155312"><ele>10.833333333333332</ele><time>2026-04-27T14:57:32Z</time></trkpt><trkpt lat="14.465180869131995" lon="120.96759219714856"><ele>10.666666666666666</ele><time>2026-04-27T14:57:33Z</time></trkpt><trkpt lat="14.46526249349725" lon="120.96764887104474"><ele>10.5</ele><time>2026-04-27T14:57:34Z</time></trkpt><trkpt lat="14.465340102398317" lon="120.96769936101398"><ele>10.333333333333334</ele><time>2026-04-27T14:57:35Z</time></trkpt><trkpt lat="14.465400123049218" lon="120.96774350558603"><ele>10.166666666666668</ele><time>2026-04-27T14:57:36Z</time></trkpt><trkpt lat="14.465454024280785" lon="120.96778028070197"><ele>10.0</ele><time>2026-04-27T14:57:37Z</time></trkpt><trkpt lat="14.46553418925799" lon="120.96783482334845"><ele>9.4</ele><time>2026-04-27T14:57:39Z</time></trkpt><trkpt lat="14.465596295446005" lon="120.9678862986422"><ele>8.8</ele><time>2026-04-27T14:57:42Z</time></trkpt><trkpt lat="14.465683655199935" lon="120.96795396995152"><ele>8.2</ele><time>2026-04-27T14:58:38Z</time></trkpt><trkpt lat="14.465785770756977" lon="120.96803651902212"><ele>7.6</ele><time>2026-04-27T14:58:40Z</time></trkpt><trkpt lat="14.46584942067136" lon="120.96808298737031"><ele>7.0</ele><time>2026-04-27T14:58:41Z</time></trkpt><trkpt lat="14.465919778066835" lon="120.96814382315986"><ele>7.0</ele><time>2026-04-27T14:58:42Z</time></trkpt><trkpt lat="14.465983015092878" lon="120.96821026557853"><ele>6.999999999999999</ele><time>2026-04-27T14:58:43Z</time></trkpt><trkpt lat="14.466049016358001" lon="120.96827054178114"><ele>6.999999999999999</ele><time>2026-04-27T14:58:44Z</time></trkpt><trkpt lat="14.466141806765581" lon="120.96830822678834"><ele>7.0</ele><time>2026-04-27T14:58:45Z</time></trkpt><trkpt lat="14.466234894287021" lon="120.96837398942836"><ele>7.0</ele><time>2026-04-27T14:58:46Z</time></trkpt><trkpt lat="14.466329002226313" lon="120.96845127131141"><ele>7.199999999999999</ele><time>2026-04-27T14:58:47Z</time></trkpt><trkpt lat="14.46641837055372" lon="120.96853385575689"><ele>7.3999999999999995</ele><time>2026-04-27T14:58:48Z</time></trkpt><trkpt lat="14.466501332456826" lon="120.96861338056512"><ele>7.6000000000000005</ele><time>2026-04-27T14:58:49Z</time></trkpt><trkpt lat="14.466584849695684" lon="120.9686878307266"><ele>7.800000000000001</ele><time>2026-04-27T14:58:50Z</time></trkpt><trkpt lat="14.46665984791458" lon="120.96875554586241"><ele>8.0</ele><time>2026-04-27T14:58:51Z</time></trkpt><trkpt lat="14.46673246026766" lon="120.96881785562242"><ele>8.0</ele><time>2026-04-27T14:58:52Z</time></trkpt><trkpt lat="14.466811196429017" lon="120.9688811212951"><ele>8.0</ele><time>2026-04-27T14:58:53Z</time></trkpt><trkpt lat="14.46689433072458" lon="120.9689452452833"><ele>8.0</ele><time>2026-04-27T14:58:54Z</time></trkpt><trkpt lat="14.466979413789618" lon="120.96900947306642"><ele>8.0</ele><time>2026-04-27T14:58:55Z</time></trkpt><trkpt lat="14.467061428614963" lon="120.9690744162143"><ele>8.0</ele><time>2026-04-27T14:58:56Z</time></trkpt><trkpt lat="14.467149570385253" lon="120.96914354125296"><ele>7.800000000000001</ele><time>2026-04-27T14:58:57Z</time></trkpt><trkpt lat="14.467237008528505" lon="120.96921286431404"><ele>7.6000000000000005</ele><time>2026-04-27T14:58:58Z</time></trkpt><trkpt lat="14.46731977067494" lon="120.96928191126511"><ele>7.3999999999999995</ele><time>2026-04-27T14:58:59Z</time></trkpt><trkpt lat="14.467405603768343" lon="120.96935127671293"><ele>7.199999999999999</ele><time>2026-04-27T14:59:00Z</time></trkpt><trkpt lat="14.467490938858964" lon="120.96941704376002"><ele>7.0</ele><time>2026-04-27T14:59:01Z</time></trkpt><trkpt lat="14.467574461296264" lon="120.96948349353693"><ele>7.0</ele><time>2026-04-27T14:59:02Z</time></trkpt><trkpt lat="14.467669611166091" lon="120.96955757473302"><ele>7.0</ele><time>2026-04-27T14:59:03Z</time></trkpt><trkpt lat="14.467765531409011" lon="120.96962978808091"><ele>7.0</ele><time>2026-04-27T14:59:04Z</time></trkpt><trkpt lat="14.467868047203911" lon="120.96970613575695"><ele>7.0</ele><time>2026-04-27T14:59:05Z</time></trkpt><trkpt lat="14.467966273160403" lon="120.96977693085127"><ele>7.000000000000001</ele><time>2026-04-27T14:59:06Z</time></trkpt><trkpt lat="14.468055485408883" lon="120.96983521945363"><ele>7.0</ele><time>2026-04-27T14:59:07Z</time></trkpt><trkpt lat="14.46813936009385" lon="120.96988673051007"><ele>7.0</ele><time>2026-04-27T14:59:08Z</time></trkpt><trkpt lat="14.468209194230178" lon="120.96992930094379"><ele>7.0</ele><time>2026-04-27T14:59:09Z</time></trkpt><trkpt lat="14.468279627903915" lon="120.96996833396716"><ele>7.000000000000001</ele><time>2026-04-27T14:59:10Z</time></trkpt><trkpt lat="14.468350854272655" lon="120.97000324687663"><ele>7.0</ele><time>2026-04-27T14:59:11Z</time></trkpt><trkpt lat="14.468436954607167" lon="120.9700412714797"><ele>7.199999999999999</ele><time>2026-04-27T14:59:12Z</time></trkpt><trkpt lat="14.46852740772664" lon="120.97007583521442"><ele>7.3999999999999995</ele><time>2026-04-27T14:59:13Z</time></trkpt><trkpt lat="14.468622959374569" lon="120.97010990038143"><ele>7.6000000000000005</ele><time>2026-04-27T14:59:14Z</time></trkpt><trkpt lat="14.46873211008396" lon="120.9701397058366"><ele>7.800000000000001</ele><time>2026-04-27T14:59:15Z</time></trkpt><trkpt lat="14.468841613762171" lon="120.97018137670624"><ele>8.0</ele><time>2026-04-27T14:59:16Z</time></trkpt><trkpt lat="14.468948269917469" lon="120.97023979385477"><ele>8.0</ele><time>2026-04-27T14:59:17Z</time></trkpt><trkpt lat="14.469049891913018" lon="120.97031868793673"><ele>8.0</ele><time>2026-04-27T14:59:18Z</time></trkpt><trkpt lat="14.469149328715709" lon="120.97041389937108"><ele>8.0</ele><time>2026-04-27T14:59:19Z</time></trkpt><trkpt lat="14.469241581199856" lon="120.97051969176853"><ele>8.0</ele><time>2026-04-27T14:59:20Z</time></trkpt><trkpt lat="14.469333531118405" lon="120.97063140288982"><ele>8.0</ele><time>2026-04-27T14:59:21Z</time></trkpt><trkpt lat="14.469424248220895" lon="120.97073352189226"><ele>8.0</ele><time>2026-04-27T14:59:22Z</time></trkpt><trkpt lat="14.469515274823165" lon="120.97083224187698"><ele>8.0</ele><time>2026-04-27T14:59:23Z</time></trkpt><trkpt lat="14.469607734638542" lon="120.97093112844135"><ele>8.0</ele><time>2026-04-27T14:59:24Z</time></trkpt><trkpt lat="14.469695591141747" lon="120.97103521964667"><ele>7.75</ele><time>2026-04-27T14:59:25Z</time></trkpt><trkpt lat="14.46978286607195" lon="120.97114359628443"><ele>7.5</ele><time>2026-04-27T14:59:26Z</time></trkpt><trkpt lat="14.469874550397593" lon="120.971257800956"><ele>7.25</ele><time>2026-04-27T14:59:27Z</time></trkpt><trkpt lat="14.46996160472596" lon="120.97136786968069"><ele>7.0</ele><time>2026-04-27T14:59:28Z</time></trkpt><trkpt lat="14.470051133959164" lon="120.97148446027023"><ele>7.0</ele><time>2026-04-27T14:59:29Z</time></trkpt><trkpt lat="14.470137918762749" lon="120.9716048488333"><ele>7.0</ele><time>2026-04-27T14:59:30Z</time></trkpt><trkpt lat="14.470223554219167" lon="120.97172649846883"><ele>7.0</ele><time>2026-04-27T14:59:31Z</time></trkpt><trkpt lat="14.47030603669254" lon="120.97184784637516"><ele>7.0</ele><time>2026-04-27T14:59:32Z</time></trkpt><trkpt lat="14.470384636272627" lon="120.97196404071543"><ele>7.0</ele><time>2026-04-27T14:59:33Z</time></trkpt><trkpt lat="14.47045966012148" lon="120.97207678723754"><ele>7.0</ele><time>2026-04-27T14:59:34Z</time></trkpt><trkpt lat="14.470532371012713" lon="120.97218633451624"><ele>7.0</ele><time>2026-04-27T14:59:35Z</time></trkpt><trkpt lat="14.470601335488105" lon="120.97229621534869"><ele>7.0</ele><time>2026-04-27T14:59:36Z</time></trkpt><trkpt lat="14.470671703022006" lon="120.9724040116298"><ele>7.0</ele><time>2026-04-27T14:59:37Z</time></trkpt><trkpt lat="14.470743820184145" lon="120.97251893598045"><ele>7.0</ele><time>2026-04-27T14:59:38Z</time></trkpt><trkpt lat="14.470808934041207" lon="120.97263503697445"><ele>7.0</ele><time>2026-04-27T14:59:39Z</time></trkpt><trkpt lat="14.470870444298217" lon="120.97275393908969"><ele>7.0</ele><time>2026-04-27T14:59:40Z</time></trkpt><trkpt lat="14.470923938145837" lon="120.9728580117346"><ele>7.0</ele><time>2026-04-27T14:59:41Z</time></trkpt><trkpt lat="14.470978649533636" lon="120.97295543367959"><ele>6.999999999999999</ele><time>2026-04-27T14:59:42Z</time></trkpt><trkpt lat="14.471033570614855" lon="120.97305501059776"><ele>6.999999999999999</ele><time>2026-04-27T14:59:43Z</time></trkpt><trkpt lat="14.471085237787834" lon="120.97315647387404"><ele>7.0</ele><time>2026-04-27T14:59:44Z</time></trkpt><trkpt lat="14.471138688010333" lon="120.97325267903244"><ele>7.0</ele><time>2026-04-27T14:59:45Z</time></trkpt><trkpt lat="14.471188412444004" lon="120.97334569200459"><ele>6.8</ele><time>2026-04-27T14:59:46Z</time></trkpt><trkpt lat="14.47123085698101" lon="120.97343151710767"><ele>6.6</ele><time>2026-04-27T14:59:47Z</time></trkpt><trkpt lat="14.471276081176493" lon="120.97351875835902"><ele>6.3999999999999995</ele><time>2026-04-27T14:59:48Z</time></trkpt><trkpt lat="14.471321381876356" lon="120.9736075874804"><ele>6.199999999999999</ele><time>2026-04-27T14:59:49Z</time></trkpt><trkpt lat="14.471369412955383" lon="120.97369827976846"><ele>6.0</ele><time>2026-04-27T14:59:50Z</time></trkpt><trkpt lat="14.471411085257584" lon="120.97378496350737"><ele>6.0</ele><time>2026-04-27T14:59:51Z</time></trkpt><trkpt lat="14.471448825237996" lon="120.97386789375841"><ele>6.0</ele><time>2026-04-27T14:59:52Z</time></trkpt><trkpt lat="14.471486953089903" lon="120.9739529774269"><ele>6.0</ele><time>2026-04-27T14:59:53Z</time></trkpt><trkpt lat="14.471527509046716" lon="120.97403239951649"><ele>6.0</ele><time>2026-04-27T14:59:54Z</time></trkpt><trkpt lat="14.471565272877061" lon="120.9741125285729"><ele>6.0</ele><time>2026-04-27T14:59:55Z</time></trkpt><trkpt lat="14.471601179698176" lon="120.97419015336878"><ele>6.0</ele><time>2026-04-27T14:59:56Z</time></trkpt><trkpt lat="14.4716371374393" lon="120.97425995066867"><ele>6.199999999999999</ele><time>2026-04-27T14:59:57Z</time></trkpt><trkpt lat="14.471677314065882" lon="120.9743372701405"><ele>6.3999999999999995</ele><time>2026-04-27T14:59:58Z</time></trkpt><trkpt lat="14.471723237722658" lon="120.9744466345447"><ele>6.6</ele><time>2026-04-27T15:00:00Z</time></trkpt><trkpt lat="14.471783610082742" lon="120.97456237720422"><ele>6.8</ele><time>2026-04-27T15:00:02Z</time></trkpt><trkpt lat="14.47181856129039" lon="120.97462520811408"><ele>7.0</ele><time>2026-04-27T15:00:03Z</time></trkpt><trkpt lat="14.471860537679722" lon="120.97469971517842"><ele>7.000000000000001</ele><time>2026-04-27T15:00:04Z</time></trkpt><trkpt lat="14.471902457287156" lon="120.97477240216266"><ele>7.0</ele><time>2026-04-27T15:00:05Z</time></trkpt><trkpt lat="14.471940277775303" lon="120.97483273435422"><ele>7.0</ele><time>2026-04-27T15:00:06Z</time></trkpt><trkpt lat="14.471972019083362" lon="120.9748914471597"><ele>7.0</ele><time>2026-04-27T15:00:07Z</time></trkpt><trkpt lat="14.472021349988076" lon="120.97497676440977"><ele>7.000000000000001</ele><time>2026-04-27T15:00:09Z</time></trkpt><trkpt lat="14.472063787012655" lon="120.97504183536212"><ele>7.0</ele><time>2026-04-27T15:00:11Z</time></trkpt><trkpt lat="14.472097860628393" lon="120.97510446476905"><ele>7.0</ele><time>2026-04-27T15:00:13Z</time></trkpt><trkpt lat="14.472154079344318" lon="120.97520239255967"><ele>6.999999999999999</ele><time>2026-04-27T15:00:15Z</time></trkpt><trkpt lat="14.472197037940994" lon="120.9752684073267"><ele>6.999999999999999</ele><time>2026-04-27T15:00:16Z</time></trkpt><trkpt lat="14.472249682930705" lon="120.97533508905488"><ele>7.0</ele><time>2026-04-27T15:00:17Z</time></trkpt><trkpt lat="14.472308476642018" lon="120.97540875127996"><ele>7.0</ele><time>2026-04-27T15:00:18Z</time></trkpt><trkpt lat="14.472366294255982" lon="120.97548668291704"><ele>7.000000000000001</ele><time>2026-04-27T15:00:19Z</time></trkpt><trkpt lat="14.472415672478185" lon="120.97555617739678"><ele>7.0</ele><time>2026-04-27T15:00:20Z</time></trkpt><trkpt lat="14.472467135109286" lon="120.97562488554787"><ele>7.0</ele><time>2026-04-27T15:00:21Z</time></trkpt><trkpt lat="14.472522220517414" lon="120.97569159982937"><ele>7.0</ele><time>2026-04-27T15:00:22Z</time></trkpt><trkpt lat="14.47258043041749" lon="120.97575816914197"><ele>7.000000000000001</ele><time>2026-04-27T15:00:23Z</time></trkpt><trkpt lat="14.472639289789505" lon="120.97582856054859"><ele>7.0</ele><time>2026-04-27T15:00:24Z</time></trkpt><trkpt lat="14.472691514983568" lon="120.97589406857078"><ele>7.000000000000001</ele><time>2026-04-27T15:00:25Z</time></trkpt><trkpt lat="14.472748700126575" lon="120.9759630284451"><ele>7.0</ele><time>2026-04-27T15:00:26Z</time></trkpt><trkpt lat="14.472807895893787" lon="120.97603371577597"><ele>7.0</ele><time>2026-04-27T15:00:27Z</time></trkpt><trkpt lat="14.472864718805006" lon="120.9761067541018"><ele>7.0</ele><time>2026-04-27T15:00:28Z</time></trkpt><trkpt lat="14.472920936109944" lon="120.97617709245338"><ele>7.000000000000001</ele><time>2026-04-27T15:00:29Z</time></trkpt><trkpt lat="14.472971836678004" lon="120.9762416627455"><ele>7.0</ele><time>2026-04-27T15:00:30Z</time></trkpt><trkpt lat="14.473014294714723" lon="120.97629459217657"><ele>7.0</ele><time>2026-04-27T15:00:31Z</time></trkpt><trkpt lat="14.473075271405989" lon="120.9763706627261"><ele>6.999999999999999</ele><time>2026-04-27T15:00:33Z</time></trkpt><trkpt lat="14.47312486779958" lon="120.97643156323078"><ele>6.999999999999999</ele><time>2026-04-27T15:00:36Z</time></trkpt><trkpt lat="14.473183206975055" lon="120.97651947213032"><ele>7.0</ele><time>2026-04-27T15:00:39Z</time></trkpt><trkpt lat="14.473247431375698" lon="120.97661138817648"><ele>7.0</ele><time>2026-04-27T15:00:41Z</time></trkpt><trkpt lat="14.473286477941977" lon="120.9766683063359"><ele>6.833333333333334</ele><time>2026-04-27T15:00:42Z</time></trkpt><trkpt lat="14.473330361989474" lon="120.97672955201605"><ele>6.666666666666667</ele><time>2026-04-27T15:00:43Z</time></trkpt><trkpt lat="14.473377987871926" lon="120.97679404731676"><ele>6.5</ele><time>2026-04-27T15:00:44Z</time></trkpt><trkpt lat="14.473427078301079" lon="120.97686399097365"><ele>6.333333333333334</ele><time>2026-04-27T15:00:45Z</time></trkpt><trkpt lat="14.473476793506945" lon="120.9769375317102"><ele>6.166666666666667</ele><time>2026-04-27T15:00:46Z</time></trkpt><trkpt lat="14.473526402089076" lon="120.97701475331176"><ele>6.0</ele><time>2026-04-27T15:00:47Z</time></trkpt><trkpt lat="14.473575591338458" lon="120.97709228002964"><ele>6.0</ele><time>2026-04-27T15:00:48Z</time></trkpt><trkpt lat="14.47362259010341" lon="120.97717212524097"><ele>6.0</ele><time>2026-04-27T15:00:49Z</time></trkpt><trkpt lat="14.473671680534798" lon="120.97725641164128"><ele>6.0</ele><time>2026-04-27T15:00:50Z</time></trkpt><trkpt lat="14.473706284469756" lon="120.97731204282677"><ele>6.0</ele><time>2026-04-27T15:00:51Z</time></trkpt><trkpt lat="14.473739688924605" lon="120.97737632340517"><ele>6.0</ele><time>2026-04-27T15:00:52Z</time></trkpt><trkpt lat="14.473765359972532" lon="120.97743570058151"><ele>6.0</ele><time>2026-04-27T15:00:53Z</time></trkpt><trkpt lat="14.473822262389895" lon="120.977544894392"><ele>6.0</ele><time>2026-04-27T15:00:55Z</time></trkpt><trkpt lat="14.473867898937995" lon="120.97762120642186"><ele>6.0</ele><time>2026-04-27T15:00:57Z</time></trkpt><trkpt lat="14.4739113260758" lon="120.97769448104073"><ele>6.0</ele><time>2026-04-27T15:00:59Z</time></trkpt><trkpt lat="14.473964772478736" lon="120.9777966762376"><ele>6.0</ele><time>2026-04-27T15:01:01Z</time></trkpt><trkpt lat="14.47398705541223" lon="120.97786143831246"><ele>6.0</ele><time>2026-04-27T15:01:02Z</time></trkpt><trkpt lat="14.474007080630772" lon="120.97793494169306"><ele>6.0</ele><time>2026-04-27T15:01:03Z</time></trkpt><trkpt lat="14.474019135196185" lon="120.97801496917731"><ele>6.0</ele><time>2026-04-27T15:01:04Z</time></trkpt><trkpt lat="14.473988648977597" lon="120.97809890274318"><ele>6.0</ele><time>2026-04-27T15:01:05Z</time></trkpt><trkpt lat="14.47395368680352" lon="120.97819200899075"><ele>6.0</ele><time>2026-04-27T15:01:06Z</time></trkpt><trkpt lat="14.473922953876595" lon="120.9782848181285"><ele>6.0</ele><time>2026-04-27T15:01:07Z</time></trkpt><trkpt lat="14.473876155999925" lon="120.97837255864975"><ele>6.0</ele><time>2026-04-27T15:01:08Z</time></trkpt><trkpt lat="14.473834640189363" lon="120.97846440102484"><ele>6.199999999999999</ele><time>2026-04-27T15:01:09Z</time></trkpt><trkpt lat="14.473797971942084" lon="120.97854452884978"><ele>6.3999999999999995</ele><time>2026-04-27T15:01:10Z</time></trkpt><trkpt lat="14.473766652122462" lon="120.97860826313772"><ele>6.6</ele><time>2026-04-27T15:01:11Z</time></trkpt><trkpt lat="14.47372011239741" lon="120.97873962476935"><ele>6.8</ele><time>2026-04-27T15:01:13Z</time></trkpt><trkpt lat="14.473703605800395" lon="120.97882140131901"><ele>7.0</ele><time>2026-04-27T15:01:14Z</time></trkpt><trkpt lat="14.473692031916983" lon="120.97891585087663"><ele>6.75</ele><time>2026-04-27T15:01:15Z</time></trkpt><trkpt lat="14.47368816757037" lon="120.97902715929642"><ele>6.5</ele><time>2026-04-27T15:01:16Z</time></trkpt><trkpt lat="14.473695591800752" lon="120.97914273253576"><ele>6.25</ele><time>2026-04-27T15:01:17Z</time></trkpt><trkpt lat="14.473708002509289" lon="120.97925978812766"><ele>6.0</ele><time>2026-04-27T15:01:18Z</time></trkpt><trkpt lat="14.473739211381758" lon="120.97939278213511"><ele>6.0</ele><time>2026-04-27T15:01:19Z</time></trkpt><trkpt lat="14.473763267799445" lon="120.97953681602402"><ele>6.0</ele><time>2026-04-27T15:01:20Z</time></trkpt><trkpt lat="14.47378409579043" lon="120.97968248006005"><ele>6.0</ele><time>2026-04-27T15:01:21Z</time></trkpt><trkpt lat="14.473802227830115" lon="120.9798294206419"><ele>6.0</ele><time>2026-04-27T15:01:22Z</time></trkpt><trkpt lat="14.473829249555983" lon="120.97997820223921"><ele>5.75</ele><time>2026-04-27T15:01:23Z</time></trkpt><trkpt lat="14.473857551575371" lon="120.98012016941311"><ele>5.5</ele><time>2026-04-27T15:01:24Z</time></trkpt><trkpt lat="14.47389481516774" lon="120.98024136571175"><ele>5.25</ele><time>2026-04-27T15:01:25Z</time></trkpt><trkpt lat="14.473949879575143" lon="120.98036403373281"><ele>5.0</ele><time>2026-04-27T15:01:26Z</time></trkpt><trkpt lat="14.474022937671132" lon="120.98048132010717"><ele>5.0</ele><time>2026-04-27T15:01:27Z</time></trkpt><trkpt lat="14.474105309899961" lon="120.9806039433904"><ele>5.0</ele><time>2026-04-27T15:01:28Z</time></trkpt><trkpt lat="14.474191415697458" lon="120.98072968753772"><ele>5.0</ele><time>2026-04-27T15:01:29Z</time></trkpt><trkpt lat="14.47426562530337" lon="120.98085953298259"><ele>5.0</ele><time>2026-04-27T15:01:30Z</time></trkpt><trkpt lat="14.474340276394592" lon="120.98098577745257"><ele>5.75</ele><time>2026-04-27T15:01:31Z</time></trkpt><trkpt lat="14.47441785420769" lon="120.98111388438305"><ele>6.5</ele><time>2026-04-27T15:01:32Z</time></trkpt><trkpt lat="14.474501360706022" lon="120.98123381152801"><ele>7.25</ele><time>2026-04-27T15:01:33Z</time></trkpt><trkpt lat="14.474592640400695" lon="120.98135145213753"><ele>8.0</ele><time>2026-04-27T15:01:34Z</time></trkpt><trkpt lat="14.474699348982853" lon="120.98146488999757"><ele>8.0</ele><time>2026-04-27T15:01:35Z</time></trkpt><trkpt lat="14.474807908972217" lon="120.98157347202225"><ele>8.0</ele><time>2026-04-27T15:01:36Z</time></trkpt><trkpt lat="14.474916767148608" lon="120.98168516843775"><ele>8.0</ele><time>2026-04-27T15:01:37Z</time></trkpt><trkpt lat="14.475030822293544" lon="120.98179801656227"><ele>8.0</ele><time>2026-04-27T15:01:38Z</time></trkpt><trkpt lat="14.475141680826397" lon="120.98190960000484"><ele>8.0</ele><time>2026-04-27T15:01:39Z</time></trkpt><trkpt lat="14.475253545904735" lon="120.98202144171381"><ele>8.0</ele><time>2026-04-27T15:01:40Z</time></trkpt><trkpt lat="14.475366368416752" lon="120.9821376403994"><ele>8.0</ele><time>2026-04-27T15:01:41Z</time></trkpt><trkpt lat="14.475484988003917" lon="120.9822538497402"><ele>8.0</ele><time>2026-04-27T15:01:42Z</time></trkpt><trkpt lat="14.475605325642768" lon="120.98237470406586"><ele>8.0</ele><time>2026-04-27T15:01:43Z</time></trkpt><trkpt lat="14.475724958851798" lon="120.98250008229473"><ele>7.333333333333333</ele><time>2026-04-27T15:01:44Z</time></trkpt><trkpt lat="14.475847880861307" lon="120.98263056500319"><ele>6.666666666666666</ele><time>2026-04-27T15:01:45Z</time></trkpt><trkpt lat="14.47597408869681" lon="120.98275928516524"><ele>6.0</ele><time>2026-04-27T15:01:46Z</time></trkpt><trkpt lat="14.476100475565774" lon="120.98288929664326"><ele>6.0</ele><time>2026-04-27T15:01:47Z</time></trkpt><trkpt lat="14.476222786091805" lon="120.98301269309081"><ele>6.0</ele><time>2026-04-27T15:01:48Z</time></trkpt><trkpt lat="14.476335775295334" lon="120.98313023607209"><ele>6.0</ele><time>2026-04-27T15:01:49Z</time></trkpt><trkpt lat="14.476446276725488" lon="120.98324450968143"><ele>7.0</ele><time>2026-04-27T15:01:50Z</time></trkpt><trkpt lat="14.476559781754085" lon="120.98335865754255"><ele>8.0</ele><time>2026-04-27T15:01:51Z</time></trkpt><trkpt lat="14.47667133195864" lon="120.98347249749693"><ele>9.0</ele><time>2026-04-27T15:01:52Z</time></trkpt><trkpt lat="14.476785038108602" lon="120.98359208233231"><ele>9.0</ele><time>2026-04-27T15:01:53Z</time></trkpt><trkpt lat="14.476900736728592" lon="120.98371020220394"><ele>9.0</ele><time>2026-04-27T15:01:54Z</time></trkpt><trkpt lat="14.47702018604009" lon="120.98382936316082"><ele>9.0</ele><time>2026-04-27T15:01:55Z</time></trkpt><trkpt lat="14.477142500423579" lon="120.98395299823791"><ele>6.666666666666667</ele><time>2026-04-27T15:01:56Z</time></trkpt><trkpt lat="14.477263868175516" lon="120.98407726576707"><ele>4.333333333333333</ele><time>2026-04-27T15:01:57Z</time></trkpt><trkpt lat="14.477387031046007" lon="120.98420280180746"><ele>2.0</ele><time>2026-04-27T15:01:58Z</time></trkpt><trkpt lat="14.477511868046431" lon="120.98432787639224"><ele>2.0</ele><time>2026-04-27T15:01:59Z</time></trkpt><trkpt lat="14.477635416645343" lon="120.98445686408589"><ele>2.0</ele><time>2026-04-27T15:02:00Z</time></trkpt><trkpt lat="14.47776200910707" lon="120.98458599944689"><ele>2.0</ele><time>2026-04-27T15:02:01Z</time></trkpt><trkpt lat="14.477889381896542" lon="120.98471361138064"><ele>3.666666666666667</ele><time>2026-04-27T15:02:02Z</time></trkpt><trkpt lat="14.47800674185182" lon="120.98483608406067"><ele>5.333333333333334</ele><time>2026-04-27T15:02:03Z</time></trkpt><trkpt lat="14.478114376323918" lon="120.98494881536662"><ele>7.0</ele><time>2026-04-27T15:02:04Z</time></trkpt><trkpt lat="14.478214403129071" lon="120.98505548474945"><ele>8.0</ele><time>2026-04-27T15:02:05Z</time></trkpt><trkpt lat="14.478307946329869" lon="120.98515750849465"><ele>9.0</ele><time>2026-04-27T15:02:06Z</time></trkpt><trkpt lat="14.478402883675631" lon="120.9852582565345"><ele>10.0</ele><time>2026-04-27T15:02:07Z</time></trkpt><trkpt lat="14.47849846973477" lon="120.9853593670748"><ele>11.0</ele><time>2026-04-27T15:02:08Z</time></trkpt><trkpt lat="14.478596627429528" lon="120.9854574250485"><ele>11.0</ele><time>2026-04-27T15:02:09Z</time></trkpt><trkpt lat="14.478694961255496" lon="120.98555485828135"><ele>11.0</ele><time>2026-04-27T15:02:10Z</time></trkpt><trkpt lat="14.478790379739271" lon="120.98565211703345"><ele>11.0</ele><time>2026-04-27T15:02:11Z</time></trkpt><trkpt lat="14.478887583547078" lon="120.98574999147682"><ele>11.0</ele><time>2026-04-27T15:02:12Z</time></trkpt><trkpt lat="14.478986553343633" lon="120.98584810152207"><ele>8.75</ele><time>2026-04-27T15:02:13Z</time></trkpt><trkpt lat="14.479091520241566" lon="120.98595294815097"><ele>6.5</ele><time>2026-04-27T15:02:14Z</time></trkpt><trkpt lat="14.479196359036859" lon="120.98606003627214"><ele>4.25</ele><time>2026-04-27T15:02:15Z</time></trkpt><trkpt lat="14.479305770913317" lon="120.98617037565992"><ele>2.0</ele><time>2026-04-27T15:02:16Z</time></trkpt><trkpt lat="14.479416592112404" lon="120.98628397825775"><ele>2.0</ele><time>2026-04-27T15:02:17Z</time></trkpt><trkpt lat="14.479527364973267" lon="120.98639758449141"><ele>2.0</ele><time>2026-04-27T15:02:18Z</time></trkpt><trkpt lat="14.479639894262665" lon="120.9865151272774"><ele>2.0</ele><time>2026-04-27T15:02:19Z</time></trkpt><trkpt lat="14.479755210315037" lon="120.98663343923234"><ele>2.6666666666666665</ele><time>2026-04-27T15:02:20Z</time></trkpt><trkpt lat="14.479871948495763" lon="120.9867540323662"><ele>3.333333333333333</ele><time>2026-04-27T15:02:21Z</time></trkpt><trkpt lat="14.479989694786413" lon="120.98687694884296"><ele>4.0</ele><time>2026-04-27T15:02:22Z</time></trkpt><trkpt lat="14.480109222227151" lon="120.9870002899465"><ele>4.0</ele><time>2026-04-27T15:02:23Z</time></trkpt><trkpt lat="14.480233291308057" lon="120.98712174254804"><ele>4.0</ele><time>2026-04-27T15:02:24Z</time></trkpt><trkpt lat="14.480363405740999" lon="120.98723577014174"><ele>4.0</ele><time>2026-04-27T15:02:25Z</time></trkpt><trkpt lat="14.480501259667651" lon="120.98734240022414"><ele>3.6666666666666665</ele><time>2026-04-27T15:02:26Z</time></trkpt><trkpt lat="14.48065040642354" lon="120.98743915342887"><ele>3.333333333333333</ele><time>2026-04-27T15:02:27Z</time></trkpt><trkpt lat="14.480805152533698" lon="120.98752269438745"><ele>3.0</ele><time>2026-04-27T15:02:28Z</time></trkpt><trkpt lat="14.480964167269873" lon="120.98760373184562"><ele>3.0</ele><time>2026-04-27T15:02:29Z</time></trkpt><trkpt lat="14.481126530902023" lon="120.98768313329745"><ele>3.0</ele><time>2026-04-27T15:02:30Z</time></trkpt><trkpt lat="14.481289653314093" lon="120.98775920772587"><ele>3.0</ele><time>2026-04-27T15:02:31Z</time></trkpt><trkpt lat="14.481456695686338" lon="120.98783992702911"><ele>0.6666666666666667</ele><time>2026-04-27T15:02:32Z</time></trkpt><trkpt lat="14.481621769794103" lon="120.98792239676204"><ele>-1.6666666666666665</ele><time>2026-04-27T15:02:33Z</time></trkpt><trkpt lat="14.481787583414782" lon="120.98800378504903"><ele>-4.0</ele><time>2026-04-27T15:02:34Z</time></trkpt><trkpt lat="14.481954594328103" lon="120.9880870728881"><ele>-2.0</ele><time>2026-04-27T15:02:35Z</time></trkpt><trkpt lat="14.482116227642885" lon="120.98816978186687"><ele>0.0</ele><time>2026-04-27T15:02:36Z</time></trkpt><trkpt lat="14.48227402033179" lon="120.98824990267244"><ele>2.0</ele><time>2026-04-27T15:02:37Z</time></trkpt><trkpt lat="14.482430191128257" lon="120.98833085403277"><ele>2.25</ele><time>2026-04-27T15:02:38Z</time></trkpt><trkpt lat="14.48257659253799" lon="120.98840757824647"><ele>2.5</ele><time>2026-04-27T15:02:39Z</time></trkpt><trkpt lat="14.482709736727879" lon="120.98848352078791"><ele>2.75</ele><time>2026-04-27T15:02:40Z</time></trkpt><trkpt lat="14.482813810428137" lon="120.98856518763102"><ele>3.0</ele><time>2026-04-27T15:02:41Z</time></trkpt><trkpt lat="14.482914725373991" lon="120.98866775882183"><ele>3.25</ele><time>2026-04-27T15:02:42Z</time></trkpt><trkpt lat="14.482978758010463" lon="120.98876759754125"><ele>3.5</ele><time>2026-04-27T15:02:43Z</time></trkpt><trkpt lat="14.483027897441819" lon="120.9888759655826"><ele>3.75</ele><time>2026-04-27T15:02:44Z</time></trkpt><trkpt lat="14.483080917520784" lon="120.98898800345718"><ele>4.0</ele><time>2026-04-27T15:02:45Z</time></trkpt><trkpt lat="14.48314324913248" lon="120.98911434606042"><ele>3.75</ele><time>2026-04-27T15:02:46Z</time></trkpt><trkpt lat="14.48320512683854" lon="120.98922438058773"><ele>3.5</ele><time>2026-04-27T15:02:47Z</time></trkpt><trkpt lat="14.483265947270981" lon="120.9893394237951"><ele>3.25</ele><time>2026-04-27T15:02:48Z</time></trkpt><trkpt lat="14.483327964571385" lon="120.98946275514054"><ele>3.0</ele><time>2026-04-27T15:02:49Z</time></trkpt><trkpt lat="14.483397462026568" lon="120.98958984395195"><ele>3.0</ele><time>2026-04-27T15:02:50Z</time></trkpt><trkpt lat="14.483450534105334" lon="120.98969779997836"><ele>3.0</ele><time>2026-04-27T15:02:51Z</time></trkpt><trkpt lat="14.48349097489636" lon="120.98980403382285"><ele>3.0</ele><time>2026-04-27T15:02:52Z</time></trkpt><trkpt lat="14.483517574017181" lon="120.98991218057265"><ele>3.0</ele><time>2026-04-27T15:02:53Z</time></trkpt><trkpt lat="14.483524601921284" lon="120.99002459269629"><ele>3.0</ele><time>2026-04-27T15:02:54Z</time></trkpt><trkpt lat="14.483486180106073" lon="120.9901346755672"><ele>4.0</ele><time>2026-04-27T15:02:55Z</time></trkpt><trkpt lat="14.483442876433143" lon="120.9902497135508"><ele>5.0</ele><time>2026-04-27T15:02:56Z</time></trkpt><trkpt lat="14.48339615011399" lon="120.99036980617444"><ele>6.0</ele><time>2026-04-27T15:02:57Z</time></trkpt><trkpt lat="14.48334909090521" lon="120.99049120228861"><ele>7.0</ele><time>2026-04-27T15:02:58Z</time></trkpt><trkpt lat="14.483313841764264" lon="120.99062401819344"><ele>7.0</ele><time>2026-04-27T15:02:59Z</time></trkpt><trkpt lat="14.483267531205888" lon="120.9907484219717"><ele>7.0</ele><time>2026-04-27T15:03:00Z</time></trkpt><trkpt lat="14.483226689040654" lon="120.99087915010848"><ele>7.0</ele><time>2026-04-27T15:03:01Z</time></trkpt><trkpt lat="14.483191303246729" lon="120.99100859901594"><ele>7.0</ele><time>2026-04-27T15:03:02Z</time></trkpt><trkpt lat="14.483169472260773" lon="120.99114118821498"><ele>7.0</ele><time>2026-04-27T15:03:03Z</time></trkpt><trkpt lat="14.483162506026716" lon="120.99127849607001"><ele>7.0</ele><time>2026-04-27T15:03:04Z</time></trkpt><trkpt lat="14.483174947323105" lon="120.99141730332468"><ele>7.0</ele><time>2026-04-27T15:03:05Z</time></trkpt><trkpt lat="14.483209008435034" lon="120.99155591760743"><ele>7.0</ele><time>2026-04-27T15:03:06Z</time></trkpt><trkpt lat="14.483257697555556" lon="120.99168766310312"><ele>5.75</ele><time>2026-04-27T15:03:07Z</time></trkpt><trkpt lat="14.483305061565932" lon="120.99181473833437"><ele>4.5</ele><time>2026-04-27T15:03:08Z</time></trkpt><trkpt lat="14.483341578222603" lon="120.99193849029322"><ele>3.25</ele><time>2026-04-27T15:03:09Z</time></trkpt><trkpt lat="14.483375242962914" lon="120.99205447272723"><ele>2.0</ele><time>2026-04-27T15:03:10Z</time></trkpt><trkpt lat="14.483406020512163" lon="120.99216764376696"><ele>2.0</ele><time>2026-04-27T15:03:11Z</time></trkpt><trkpt lat="14.48343629991037" lon="120.99226892272702"><ele>2.0</ele><time>2026-04-27T15:03:12Z</time></trkpt><trkpt lat="14.483476394738137" lon="120.99236552311544"><ele>2.0</ele><time>2026-04-27T15:03:13Z</time></trkpt><trkpt lat="14.483528134133408" lon="120.99245208337234"><ele>2.0</ele><time>2026-04-27T15:03:14Z</time></trkpt><trkpt lat="14.483604539724046" lon="120.99252646693084"><ele>2.0</ele><time>2026-04-27T15:03:15Z</time></trkpt><trkpt lat="14.483702611926056" lon="120.99260042382737"><ele>3.0</ele><time>2026-04-27T15:03:16Z</time></trkpt><trkpt lat="14.483811263292667" lon="120.99265666785249"><ele>4.0</ele><time>2026-04-27T15:03:17Z</time></trkpt><trkpt lat="14.483920375409154" lon="120.99271772502317"><ele>5.0</ele><time>2026-04-27T15:03:18Z</time></trkpt><trkpt lat="14.484032165272502" lon="120.99278702550174"><ele>6.0</ele><time>2026-04-27T15:03:19Z</time></trkpt><trkpt lat="14.484140726811885" lon="120.99286110684551"><ele>6.0</ele><time>2026-04-27T15:03:20Z</time></trkpt><trkpt lat="14.484246431575045" lon="120.99293078480315"><ele>6.0</ele><time>2026-04-27T15:03:21Z</time></trkpt><trkpt lat="14.484325649841004" lon="120.9929873072664"><ele>6.0</ele><time>2026-04-27T15:03:22Z</time></trkpt><trkpt lat="14.484407084409607" lon="120.99303586675694"><ele>6.0</ele><time>2026-04-27T15:03:23Z</time></trkpt><trkpt lat="14.484471529290307" lon="120.9930811255138"><ele>6.0</ele><time>2026-04-27T15:03:24Z</time></trkpt><trkpt lat="14.484529117422106" lon="120.99312347614423"><ele>6.0</ele><time>2026-04-27T15:03:25Z</time></trkpt><trkpt lat="14.484587340408213" lon="120.99315557540297"><ele>6.0</ele><time>2026-04-27T15:03:26Z</time></trkpt><trkpt lat="14.484651086181607" lon="120.99318573083778"><ele>6.0</ele><time>2026-04-27T15:03:27Z</time></trkpt><trkpt lat="14.484718029816547" lon="120.99322322960424"><ele>6.0</ele><time>2026-04-27T15:03:29Z</time></trkpt><trkpt lat="14.48477945257858" lon="120.99324661404793"><ele>6.0</ele><time>2026-04-27T15:03:35Z</time></trkpt><trkpt lat="14.484828536905287" lon="120.99328892772307"><ele>6.0</ele><time>2026-04-27T15:03:38Z</time></trkpt><trkpt lat="14.484925418771747" lon="120.99322125336526"><ele>6.166666666666667</ele><time>2026-04-27T15:03:42Z</time></trkpt><trkpt lat="14.48493917572715" lon="120.9931566620628"><ele>6.333333333333334</ele><time>2026-04-27T15:03:43Z</time></trkpt><trkpt lat="14.484944263652196" lon="120.99308074370498"><ele>6.5</ele><time>2026-04-27T15:03:44Z</time></trkpt><trkpt lat="14.4849614834539" lon="120.99299028371875"><ele>6.666666666666667</ele><time>2026-04-27T15:03:45Z</time></trkpt><trkpt lat="14.484974953247676" lon="120.99289914832015"><ele>6.833333333333334</ele><time>2026-04-27T15:03:46Z</time></trkpt><trkpt lat="14.484990520831634" lon="120.99279784287421"><ele>7.0</ele><time>2026-04-27T15:03:47Z</time></trkpt><trkpt lat="14.485007825271085" lon="120.9926852348809"><ele>7.0</ele><time>2026-04-27T15:03:48Z</time></trkpt><trkpt lat="14.485025310864955" lon="120.99256744846588"><ele>7.0</ele><time>2026-04-27T15:03:49Z</time></trkpt><trkpt lat="14.485066291075238" lon="120.99245157290989"><ele>7.0</ele><time>2026-04-27T15:03:50Z</time></trkpt><trkpt lat="14.485118733738483" lon="120.99233429086915"><ele>7.0</ele><time>2026-04-27T15:03:51Z</time></trkpt><trkpt lat="14.485182922769683" lon="120.99222225157656"><ele>7.0</ele><time>2026-04-27T15:03:52Z</time></trkpt><trkpt lat="14.485253347538778" lon="120.9921073452563"><ele>7.0</ele><time>2026-04-27T15:03:53Z</time></trkpt><trkpt lat="14.485329387365736" lon="120.99199843480604"><ele>7.0</ele><time>2026-04-27T15:03:54Z</time></trkpt><trkpt lat="14.485414522947918" lon="120.99189374871452"><ele>7.0</ele><time>2026-04-27T15:03:55Z</time></trkpt><trkpt lat="14.485500815837565" lon="120.99179605489883"><ele>7.0</ele><time>2026-04-27T15:03:56Z</time></trkpt><trkpt lat="14.485595194182782" lon="120.9917084351258"><ele>7.0</ele><time>2026-04-27T15:03:57Z</time></trkpt><trkpt lat="14.48569077621703" lon="120.99162799225525"><ele>7.0</ele><time>2026-04-27T15:03:58Z</time></trkpt><trkpt lat="14.485797151364718" lon="120.99155134585902"><ele>7.0</ele><time>2026-04-27T15:03:59Z</time></trkpt><trkpt lat="14.485905775315375" lon="120.99148174879377"><ele>7.25</ele><time>2026-04-27T15:04:00Z</time></trkpt><trkpt lat="14.486019659336796" lon="120.99141731295423"><ele>7.5</ele><time>2026-04-27T15:04:01Z</time></trkpt><trkpt lat="14.48614632123758" lon="120.99136474343392"><ele>7.75</ele><time>2026-04-27T15:04:02Z</time></trkpt><trkpt lat="14.486271591853095" lon="120.99132319399168"><ele>8.0</ele><time>2026-04-27T15:04:03Z</time></trkpt><trkpt lat="14.486402582931797" lon="120.99129794985198"><ele>8.0</ele><time>2026-04-27T15:04:04Z</time></trkpt><trkpt lat="14.486534220167202" lon="120.9912759661358"><ele>8.0</ele><time>2026-04-27T15:04:05Z</time></trkpt><trkpt lat="14.486672711289428" lon="120.99125719864145"><ele>8.0</ele><time>2026-04-27T15:04:06Z</time></trkpt><trkpt lat="14.486808991781777" lon="120.99125055991432"><ele>8.0</ele><time>2026-04-27T15:04:07Z</time></trkpt><trkpt lat="14.486953688831568" lon="120.99125585321397"><ele>8.0</ele><time>2026-04-27T15:04:08Z</time></trkpt><trkpt lat="14.487077728545358" lon="120.99126741380971"><ele>8.0</ele><time>2026-04-27T15:04:09Z</time></trkpt><trkpt lat="14.487209916356788" lon="120.99127596511576"><ele>8.0</ele><time>2026-04-27T15:04:10Z</time></trkpt><trkpt lat="14.487331696175975" lon="120.99129104437222"><ele>8.0</ele><time>2026-04-27T15:04:11Z</time></trkpt><trkpt lat="14.487436161876465" lon="120.99130575862412"><ele>8.0</ele><time>2026-04-27T15:04:12Z</time></trkpt><trkpt lat="14.487532383174111" lon="120.9913167112007"><ele>8.0</ele><time>2026-04-27T15:04:13Z</time></trkpt><trkpt lat="14.487598158608838" lon="120.99132535570733"><ele>8.0</ele><time>2026-04-27T15:04:14Z</time></trkpt><trkpt lat="14.48766170095106" lon="120.99133285932339"><ele>8.0</ele><time>2026-04-27T15:04:15Z</time></trkpt><trkpt lat="14.48777806119006" lon="120.99134617670265"><ele>8.0</ele><time>2026-04-27T15:04:17Z</time></trkpt><trkpt lat="14.487894237116342" lon="120.99136488621791"><ele>7.833333333333333</ele><time>2026-04-27T15:04:19Z</time></trkpt><trkpt lat="14.487966029924163" lon="120.99137670908108"><ele>7.666666666666666</ele><time>2026-04-27T15:04:20Z</time></trkpt><trkpt lat="14.488048630385407" lon="120.99138580652945"><ele>7.5</ele><time>2026-04-27T15:04:21Z</time></trkpt><trkpt lat="14.488127421220058" lon="120.99139206150835"><ele>7.333333333333334</ele><time>2026-04-27T15:04:22Z</time></trkpt><trkpt lat="14.48821756266079" lon="120.99140120429871"><ele>7.166666666666667</ele><time>2026-04-27T15:04:23Z</time></trkpt><trkpt lat="14.488310614685538" lon="120.99141497647949"><ele>7.0</ele><time>2026-04-27T15:04:24Z</time></trkpt><trkpt lat="14.488408233976953" lon="120.99143191690197"><ele>7.0</ele><time>2026-04-27T15:04:25Z</time></trkpt><trkpt lat="14.488506480800817" lon="120.99144598711511"><ele>6.999999999999999</ele><time>2026-04-27T15:04:26Z</time></trkpt><trkpt lat="14.48861205383314" lon="120.99145994681253"><ele>6.999999999999999</ele><time>2026-04-27T15:04:27Z</time></trkpt><trkpt lat="14.488725859808177" lon="120.99147362271457"><ele>7.0</ele><time>2026-04-27T15:04:28Z</time></trkpt><trkpt lat="14.488850221884741" lon="120.991494453724"><ele>7.0</ele><time>2026-04-27T15:04:29Z</time></trkpt><trkpt lat="14.48897941194453" lon="120.99151897411582"><ele>6.75</ele><time>2026-04-27T15:04:30Z</time></trkpt><trkpt lat="14.489117315455777" lon="120.9915467565225"><ele>6.5</ele><time>2026-04-27T15:04:31Z</time></trkpt><trkpt lat="14.489265114515696" lon="120.99157201644427"><ele>6.25</ele><time>2026-04-27T15:04:32Z</time></trkpt><trkpt lat="14.489417850890632" lon="120.99159953758404"><ele>6.0</ele><time>2026-04-27T15:04:33Z</time></trkpt><trkpt lat="14.489575906387161" lon="120.99162483118272"><ele>5.666666666666667</ele><time>2026-04-27T15:04:34Z</time></trkpt><trkpt lat="14.489738544313955" lon="120.99165131409401"><ele>5.333333333333334</ele><time>2026-04-27T15:04:35Z</time></trkpt><trkpt lat="14.489903831534932" lon="120.99168195205148"><ele>5.0</ele><time>2026-04-27T15:04:36Z</time></trkpt><trkpt lat="14.490068781147729" lon="120.99171065496668"><ele>5.0</ele><time>2026-04-27T15:04:37Z</time></trkpt><trkpt lat="14.490239153590823" lon="120.99173705514133"><ele>5.0</ele><time>2026-04-27T15:04:38Z</time></trkpt><trkpt lat="14.490399549953567" lon="120.99176454028941"><ele>5.0</ele><time>2026-04-27T15:04:39Z</time></trkpt><trkpt lat="14.490560843548518" lon="120.99178955538196"><ele>5.0</ele><time>2026-04-27T15:04:40Z</time></trkpt><trkpt lat="14.490708852649348" lon="120.99181566633568"><ele>5.0</ele><time>2026-04-27T15:04:41Z</time></trkpt><trkpt lat="14.49086882641606" lon="120.99183756655408"><ele>5.0</ele><time>2026-04-27T15:04:42Z</time></trkpt><trkpt lat="14.491025990063404" lon="120.99186511805662"><ele>5.0</ele><time>2026-04-27T15:04:43Z</time></trkpt><trkpt lat="14.491182483512464" lon="120.99190037548894"><ele>5.0</ele><time>2026-04-27T15:04:44Z</time></trkpt><trkpt lat="14.491342753557584" lon="120.99192899220357"><ele>5.0</ele><time>2026-04-27T15:04:45Z</time></trkpt><trkpt lat="14.491502008158653" lon="120.99195261745496"><ele>5.75</ele><time>2026-04-27T15:04:46Z</time></trkpt><trkpt lat="14.491652574988716" lon="120.99197815481482"><ele>6.5</ele><time>2026-04-27T15:04:47Z</time></trkpt><trkpt lat="14.491777774558" lon="120.99200310840001"><ele>7.25</ele><time>2026-04-27T15:04:48Z</time></trkpt><trkpt lat="14.49188692369048" lon="120.99201585213325"><ele>8.0</ele><time>2026-04-27T15:04:49Z</time></trkpt><trkpt lat="14.49198801583701" lon="120.99203125300366"><ele>7.75</ele><time>2026-04-27T15:04:50Z</time></trkpt><trkpt lat="14.492090335707092" lon="120.99204742035565"><ele>7.5</ele><time>2026-04-27T15:04:51Z</time></trkpt><trkpt lat="14.492199412703986" lon="120.99206263846398"><ele>7.25</ele><time>2026-04-27T15:04:52Z</time></trkpt><trkpt lat="14.492312160947304" lon="120.9920773388037"><ele>7.0</ele><time>2026-04-27T15:04:53Z</time></trkpt><trkpt lat="14.492435963831872" lon="120.99209500995063"><ele>7.0</ele><time>2026-04-27T15:04:54Z</time></trkpt><trkpt lat="14.49256831092859" lon="120.99211681895657"><ele>7.0</ele><time>2026-04-27T15:04:55Z</time></trkpt><trkpt lat="14.492706875948148" lon="120.99214217816196"><ele>7.0</ele><time>2026-04-27T15:04:56Z</time></trkpt><trkpt lat="14.492851504828884" lon="120.99216539831039"><ele>7.0</ele><time>2026-04-27T15:04:57Z</time></trkpt><trkpt lat="14.493001475267619" lon="120.99219112958257"><ele>6.333333333333334</ele><time>2026-04-27T15:04:58Z</time></trkpt><trkpt lat="14.493158723348019" lon="120.9922140154347"><ele>5.666666666666667</ele><time>2026-04-27T15:04:59Z</time></trkpt><trkpt lat="14.493320510312063" lon="120.99224216154143"><ele>5.0</ele><time>2026-04-27T15:05:00Z</time></trkpt><trkpt lat="14.493487030501464" lon="120.9922707114568"><ele>5.0</ele><time>2026-04-27T15:05:01Z</time></trkpt><trkpt lat="14.493659503069134" lon="120.99230246819772"><ele>5.0</ele><time>2026-04-27T15:05:02Z</time></trkpt><trkpt lat="14.493832289479057" lon="120.99233308798838"><ele>5.0</ele><time>2026-04-27T15:05:03Z</time></trkpt><trkpt lat="14.494007725807457" lon="120.99236501375961"><ele>5.666666666666667</ele><time>2026-04-27T15:05:04Z</time></trkpt><trkpt lat="14.494183416716679" lon="120.99239419295021"><ele>6.333333333333334</ele><time>2026-04-27T15:05:05Z</time></trkpt><trkpt lat="14.494366916104447" lon="120.9924259449838"><ele>7.0</ele><time>2026-04-27T15:05:06Z</time></trkpt><trkpt lat="14.494547685998075" lon="120.99245627684624"><ele>6.666666666666667</ele><time>2026-04-27T15:05:07Z</time></trkpt><trkpt lat="14.494729609402917" lon="120.992487154382"><ele>6.333333333333334</ele><time>2026-04-27T15:05:08Z</time></trkpt><trkpt lat="14.494914492959104" lon="120.9925177759563"><ele>6.0</ele><time>2026-04-27T15:05:09Z</time></trkpt><trkpt lat="14.495095702558572" lon="120.99254825582861"><ele>6.333333333333334</ele><time>2026-04-27T15:05:10Z</time></trkpt><trkpt lat="14.495275085299781" lon="120.99257923217296"><ele>6.666666666666667</ele><time>2026-04-27T15:05:11Z</time></trkpt><trkpt lat="14.495458953264857" lon="120.99260801578109"><ele>7.0</ele><time>2026-04-27T15:05:12Z</time></trkpt><trkpt lat="14.49563650669236" lon="120.99263862513871"><ele>7.0</ele><time>2026-04-27T15:05:13Z</time></trkpt><trkpt lat="14.495808945097332" lon="120.9926601101077"><ele>7.0</ele><time>2026-04-27T15:05:14Z</time></trkpt><trkpt lat="14.495985503033666" lon="120.99268437997708"><ele>7.0</ele><time>2026-04-27T15:05:15Z</time></trkpt><trkpt lat="14.4961607546007" lon="120.99270378393412"><ele>6.666666666666667</ele><time>2026-04-27T15:05:16Z</time></trkpt><trkpt lat="14.49633754229504" lon="120.99272081425251"><ele>6.333333333333334</ele><time>2026-04-27T15:05:17Z</time></trkpt><trkpt lat="14.496513560902038" lon="120.99273205897079"><ele>6.0</ele><time>2026-04-27T15:05:18Z</time></trkpt><trkpt lat="14.49669445714992" lon="120.99273088034614"><ele>6.0</ele><time>2026-04-27T15:05:19Z</time></trkpt><trkpt lat="14.49687011315039" lon="120.99271374490995"><ele>6.0</ele><time>2026-04-27T15:05:20Z</time></trkpt><trkpt lat="14.49704800735333" lon="120.99268777325591"><ele>6.0</ele><time>2026-04-27T15:05:21Z</time></trkpt><trkpt lat="14.497225301767852" lon="120.99266164126753"><ele>6.333333333333334</ele><time>2026-04-27T15:05:22Z</time></trkpt><trkpt lat="14.49739296222949" lon="120.99263746131648"><ele>6.666666666666667</ele><time>2026-04-27T15:05:23Z</time></trkpt><trkpt lat="14.497556805598252" lon="120.99261104039968"><ele>7.0</ele><time>2026-04-27T15:05:24Z</time></trkpt><trkpt lat="14.49770293608191" lon="120.99258642995018"><ele>7.0</ele><time>2026-04-27T15:05:25Z</time></trkpt><trkpt lat="14.49784704126713" lon="120.99257103914921"><ele>7.0</ele><time>2026-04-27T15:05:26Z</time></trkpt><trkpt lat="14.497990691387049" lon="120.9925645940855"><ele>7.0</ele><time>2026-04-27T15:05:27Z</time></trkpt><trkpt lat="14.498118075411472" lon="120.99257351106425"><ele>7.0</ele><time>2026-04-27T15:05:28Z</time></trkpt><trkpt lat="14.498234624922999" lon="120.9926009826407"><ele>7.0</ele><time>2026-04-27T15:05:29Z</time></trkpt><trkpt lat="14.498342660148275" lon="120.99265372040499"><ele>7.0</ele><time>2026-04-27T15:05:30Z</time></trkpt><trkpt lat="14.498442324403447" lon="120.99272155198916"><ele>7.0</ele><time>2026-04-27T15:05:31Z</time></trkpt><trkpt lat="14.498525386312231" lon="120.99280679286996"><ele>7.0</ele><time>2026-04-27T15:05:32Z</time></trkpt><trkpt lat="14.498593667842501" lon="120.99290618002715"><ele>7.0</ele><time>2026-04-27T15:05:33Z</time></trkpt><trkpt lat="14.498654004821606" lon="120.99301905911909"><ele>7.0</ele><time>2026-04-27T15:05:34Z</time></trkpt><trkpt lat="14.498698122743868" lon="120.99314218571301"><ele>7.0</ele><time>2026-04-27T15:05:35Z</time></trkpt><trkpt lat="14.49872821356561" lon="120.9932693010931"><ele>7.0</ele><time>2026-04-27T15:05:36Z</time></trkpt><trkpt lat="14.498751970662061" lon="120.99340629783089"><ele>6.5</ele><time>2026-04-27T15:05:37Z</time></trkpt><trkpt lat="14.498777077212475" lon="120.9935487018549"><ele>6.0</ele><time>2026-04-27T15:05:38Z</time></trkpt><trkpt lat="14.498801505949283" lon="120.99369193663556"><ele>5.5</ele><time>2026-04-27T15:05:39Z</time></trkpt><trkpt lat="14.49882719973118" lon="120.99382985866471"><ele>5.0</ele><time>2026-04-27T15:05:40Z</time></trkpt><trkpt lat="14.498861113192211" lon="120.99398250932019"><ele>5.0</ele><time>2026-04-27T15:05:41Z</time></trkpt><trkpt lat="14.498887016119285" lon="120.99412828353807"><ele>5.0</ele><time>2026-04-27T15:05:42Z</time></trkpt><trkpt lat="14.49891199713411" lon="120.99427859875318"><ele>5.0</ele><time>2026-04-27T15:05:43Z</time></trkpt><trkpt lat="14.4989449195088" lon="120.99442678969791"><ele>5.0</ele><time>2026-04-27T15:05:44Z</time></trkpt><trkpt lat="14.498982812327595" lon="120.99457462666876"><ele>4.75</ele><time>2026-04-27T15:05:45Z</time></trkpt><trkpt lat="14.499004990144321" lon="120.99470995417686"><ele>4.5</ele><time>2026-04-27T15:05:46Z</time></trkpt><trkpt lat="14.499024910819637" lon="120.99484387647036"><ele>4.25</ele><time>2026-04-27T15:05:47Z</time></trkpt><trkpt lat="14.499048622252747" lon="120.99495677070543"><ele>4.0</ele><time>2026-04-27T15:05:48Z</time></trkpt><trkpt lat="14.499077772141867" lon="120.99508500302316"><ele>4.0</ele><time>2026-04-27T15:05:49Z</time></trkpt><trkpt lat="14.49910875109283" lon="120.99522107575207"><ele>4.0</ele><time>2026-04-27T15:05:50Z</time></trkpt><trkpt lat="14.49914419019878" lon="120.99535750701975"><ele>4.0</ele><time>2026-04-27T15:05:51Z</time></trkpt><trkpt lat="14.499180559711306" lon="120.9954982035375"><ele>4.0</ele><time>2026-04-27T15:05:52Z</time></trkpt><trkpt lat="14.499227380526296" lon="120.99564306865726"><ele>4.0</ele><time>2026-04-27T15:05:53Z</time></trkpt><trkpt lat="14.499278074425678" lon="120.99578567448326"><ele>4.0</ele><time>2026-04-27T15:05:54Z</time></trkpt><trkpt lat="14.499344615698568" lon="120.99593215881161"><ele>4.0</ele><time>2026-04-27T15:05:55Z</time></trkpt><trkpt lat="14.499388507679404" lon="120.9960831450066"><ele>5.333333333333333</ele><time>2026-04-27T15:05:56Z</time></trkpt><trkpt lat="14.499481493462103" lon="120.99622114098"><ele>6.666666666666666</ele><time>2026-04-27T15:05:57Z</time></trkpt><trkpt lat="14.499563559445027" lon="120.99636879505269"><ele>8.0</ele><time>2026-04-27T15:05:58Z</time></trkpt><trkpt lat="14.499648594179364" lon="120.99650949917742"><ele>8.333333333333332</ele><time>2026-04-27T15:05:59Z</time></trkpt><trkpt lat="14.49974139951619" lon="120.99665232224675"><ele>8.666666666666666</ele><time>2026-04-27T15:06:00Z</time></trkpt><trkpt lat="14.499840184663608" lon="120.99679071888849"><ele>9.0</ele><time>2026-04-27T15:06:01Z</time></trkpt><trkpt lat="14.49994580521144" lon="120.9969223692582"><ele>8.0</ele><time>2026-04-27T15:06:02Z</time></trkpt><trkpt lat="14.500055116769646" lon="120.99704683694266"><ele>7.0</ele><time>2026-04-27T15:06:03Z</time></trkpt><trkpt lat="14.500175175004248" lon="120.99717222577327"><ele>6.0</ele><time>2026-04-27T15:06:04Z</time></trkpt><trkpt lat="14.500274432661225" lon="120.99727569308057"><ele>6.0</ele><time>2026-04-27T15:06:05Z</time></trkpt><trkpt lat="14.50036097703407" lon="120.99736410440562"><ele>6.0</ele><time>2026-04-27T15:06:06Z</time></trkpt><trkpt lat="14.500458595309432" lon="120.99744581839744"><ele>6.0</ele><time>2026-04-27T15:06:07Z</time></trkpt><trkpt lat="14.500565277584077" lon="120.99753231156792"><ele>6.0</ele><time>2026-04-27T15:06:08Z</time></trkpt><trkpt lat="14.500670900015066" lon="120.99761630790522"><ele>5.75</ele><time>2026-04-27T15:06:09Z</time></trkpt><trkpt lat="14.500778770993483" lon="120.99769842914797"><ele>5.5</ele><time>2026-04-27T15:06:10Z</time></trkpt><trkpt lat="14.500898410707112" lon="120.9977816409124"><ele>5.25</ele><time>2026-04-27T15:06:11Z</time></trkpt><trkpt lat="14.501021747155718" lon="120.99786204014352"><ele>5.0</ele><time>2026-04-27T15:06:12Z</time></trkpt><trkpt lat="14.50114891750522" lon="120.99794265949828"><ele>5.333333333333334</ele><time>2026-04-27T15:06:13Z</time></trkpt><trkpt lat="14.501281781182861" lon="120.99802188988481"><ele>5.666666666666667</ele><time>2026-04-27T15:06:14Z</time></trkpt><trkpt lat="14.501414962841409" lon="120.99810096189724"><ele>6.0</ele><time>2026-04-27T15:06:15Z</time></trkpt><trkpt lat="14.501550894337736" lon="120.9981826375375"><ele>6.0</ele><time>2026-04-27T15:06:16Z</time></trkpt><trkpt lat="14.501676461087284" lon="120.99826337678118"><ele>6.0</ele><time>2026-04-27T15:06:17Z</time></trkpt><trkpt lat="14.501809105775473" lon="120.99834714345236"><ele>6.0</ele><time>2026-04-27T15:06:18Z</time></trkpt><trkpt lat="14.501924394125359" lon="120.99842407244111"><ele>6.0</ele><time>2026-04-27T15:06:19Z</time></trkpt><trkpt lat="14.502054979747834" lon="120.99850290162942"><ele>6.75</ele><time>2026-04-27T15:06:20Z</time></trkpt><trkpt lat="14.502176689157123" lon="120.99858091897775"><ele>7.5</ele><time>2026-04-27T15:06:21Z</time></trkpt><trkpt lat="14.502296828742026" lon="120.99865557990402"><ele>8.25</ele><time>2026-04-27T15:06:22Z</time></trkpt><trkpt lat="14.502416580255066" lon="120.99872755136329"><ele>9.0</ele><time>2026-04-27T15:06:23Z</time></trkpt><trkpt lat="14.502538601275923" lon="120.99879674167924"><ele>9.0</ele><time>2026-04-27T15:06:24Z</time></trkpt><trkpt lat="14.502658441539849" lon="120.9988712714049"><ele>9.0</ele><time>2026-04-27T15:06:25Z</time></trkpt><trkpt lat="14.502778672991472" lon="120.99894686361012"><ele>9.0</ele><time>2026-04-27T15:06:26Z</time></trkpt><trkpt lat="14.50289979086441" lon="120.99902410761622"><ele>9.0</ele><time>2026-04-27T15:06:27Z</time></trkpt><trkpt lat="14.50302403617436" lon="120.99910255170217"><ele>9.0</ele><time>2026-04-27T15:06:28Z</time></trkpt><trkpt lat="14.503147682344721" lon="120.99917913210183"><ele>9.0</ele><time>2026-04-27T15:06:29Z</time></trkpt><trkpt lat="14.50327389675851" lon="120.99925787476764"><ele>9.0</ele><time>2026-04-27T15:06:30Z</time></trkpt><trkpt lat="14.503408324378997" lon="120.99934149062025"><ele>9.0</ele><time>2026-04-27T15:06:31Z</time></trkpt><trkpt lat="14.503533242825483" lon="120.9994206997655"><ele>9.0</ele><time>2026-04-27T15:06:32Z</time></trkpt><trkpt lat="14.50367486928954" lon="120.99950269420947"><ele>9.0</ele><time>2026-04-27T15:06:33Z</time></trkpt><trkpt lat="14.503811393744124" lon="120.99958423884226"><ele>9.0</ele><time>2026-04-27T15:06:34Z</time></trkpt><trkpt lat="14.503947106584354" lon="120.9996737860111"><ele>9.333333333333334</ele><time>2026-04-27T15:06:35Z</time></trkpt><trkpt lat="14.504082410699647" lon="120.99975571740373"><ele>9.666666666666668</ele><time>2026-04-27T15:06:36Z</time></trkpt><trkpt lat="14.504220429400599" lon="120.99984415879379"><ele>10.0</ele><time>2026-04-27T15:06:37Z</time></trkpt><trkpt lat="14.504339204093919" lon="120.99993263324092"><ele>10.0</ele><time>2026-04-27T15:06:38Z</time></trkpt><trkpt lat="14.504452136005852" lon="121.00002713891924"><ele>10.0</ele><time>2026-04-27T15:06:39Z</time></trkpt><trkpt lat="14.504566848230779" lon="121.00012052288027"><ele>10.0</ele><time>2026-04-27T15:06:40Z</time></trkpt><trkpt lat="14.504684317617816" lon="121.00020248887394"><ele>10.0</ele><time>2026-04-27T15:06:41Z</time></trkpt><trkpt lat="14.504803790384319" lon="121.00027575728312"><ele>9.25</ele><time>2026-04-27T15:06:42Z</time></trkpt><trkpt lat="14.504914462431422" lon="121.00034315355607"><ele>8.5</ele><time>2026-04-27T15:06:43Z</time></trkpt><trkpt lat="14.50502432270272" lon="121.0004120723032"><ele>7.75</ele><time>2026-04-27T15:06:44Z</time></trkpt><trkpt lat="14.505129031359647" lon="121.0004827512758"><ele>7.0</ele><time>2026-04-27T15:06:45Z</time></trkpt><trkpt lat="14.505228848715037" lon="121.00054916638229"><ele>7.0</ele><time>2026-04-27T15:06:46Z</time></trkpt><trkpt lat="14.505336038037278" lon="121.00061625836518"><ele>7.0</ele><time>2026-04-27T15:06:47Z</time></trkpt><trkpt lat="14.505447410882272" lon="121.00067888885282"><ele>7.0</ele><time>2026-04-27T15:06:48Z</time></trkpt><trkpt lat="14.50557213291854" lon="121.00073555635612"><ele>7.0</ele><time>2026-04-27T15:06:49Z</time></trkpt><trkpt lat="14.505701683760286" lon="121.00078784532036"><ele>7.75</ele><time>2026-04-27T15:06:50Z</time></trkpt><trkpt lat="14.505831535067715" lon="121.00084214471083"><ele>8.5</ele><time>2026-04-27T15:06:51Z</time></trkpt><trkpt lat="14.50595741478466" lon="121.00089963671236"><ele>9.25</ele><time>2026-04-27T15:06:52Z</time></trkpt><trkpt lat="14.506069974173618" lon="121.00095100013058"><ele>10.0</ele><time>2026-04-27T15:06:53Z</time></trkpt><trkpt lat="14.506182023697692" lon="121.0009982842132"><ele>10.0</ele><time>2026-04-27T15:06:54Z</time></trkpt><trkpt lat="14.50629547697201" lon="121.00104441510649"><ele>10.0</ele><time>2026-04-27T15:06:55Z</time></trkpt><trkpt lat="14.506407244185592" lon="121.00109263053814"><ele>10.0</ele><time>2026-04-27T15:06:56Z</time></trkpt><trkpt lat="14.506522576870896" lon="121.00113874262547"><ele>10.0</ele><time>2026-04-27T15:06:57Z</time></trkpt><trkpt lat="14.506630695467019" lon="121.00117872704534"><ele>10.0</ele><time>2026-04-27T15:06:58Z</time></trkpt><trkpt lat="14.506732292126669" lon="121.00121365141996"><ele>10.0</ele><time>2026-04-27T15:06:59Z</time></trkpt><trkpt lat="14.506810627008445" lon="121.00124094276431"><ele>10.0</ele><time>2026-04-27T15:07:01Z</time></trkpt><trkpt lat="14.506902480517326" lon="121.00128897920702"><ele>10.0</ele><time>2026-04-27T15:07:13Z</time></trkpt><trkpt lat="14.506967082713262" lon="121.00131771669749"><ele>10.0</ele><time>2026-04-27T15:07:14Z</time></trkpt><trkpt lat="14.507049188400702" lon="121.00134172833599"><ele>10.0</ele><time>2026-04-27T15:07:15Z</time></trkpt><trkpt lat="14.507139881361375" lon="121.00136913720857"><ele>9.5</ele><time>2026-04-27T15:07:16Z</time></trkpt><trkpt lat="14.50723919925032" lon="121.00140479476589"><ele>9.0</ele><time>2026-04-27T15:07:17Z</time></trkpt><trkpt lat="14.50734574689447" lon="121.00144550369833"><ele>8.5</ele><time>2026-04-27T15:07:18Z</time></trkpt><trkpt lat="14.50746079554585" lon="121.0014882151549"><ele>8.0</ele><time>2026-04-27T15:07:19Z</time></trkpt><trkpt lat="14.507583201896177" lon="121.00153333425173"><ele>8.0</ele><time>2026-04-27T15:07:20Z</time></trkpt><trkpt lat="14.507707815081657" lon="121.00158886366809"><ele>8.0</ele><time>2026-04-27T15:07:21Z</time></trkpt><trkpt lat="14.507830551452553" lon="121.00165257992442"><ele>8.0</ele><time>2026-04-27T15:07:22Z</time></trkpt><trkpt lat="14.50795920842878" lon="121.00171654729743"><ele>8.0</ele><time>2026-04-27T15:07:23Z</time></trkpt><trkpt lat="14.508091880124615" lon="121.00177127502026"><ele>8.25</ele><time>2026-04-27T15:07:24Z</time></trkpt><trkpt lat="14.508233675484602" lon="121.00182726179719"><ele>8.5</ele><time>2026-04-27T15:07:25Z</time></trkpt><trkpt lat="14.508374551227067" lon="121.0018868421799"><ele>8.75</ele><time>2026-04-27T15:07:26Z</time></trkpt><trkpt lat="14.508505765790362" lon="121.00194486644885"><ele>9.0</ele><time>2026-04-27T15:07:27Z</time></trkpt><trkpt lat="14.50862914330587" lon="121.0019763163338"><ele>8.5</ele><time>2026-04-27T15:07:28Z</time></trkpt><trkpt lat="14.508769168417288" lon="121.00200993794054"><ele>8.0</ele><time>2026-04-27T15:07:29Z</time></trkpt><trkpt lat="14.508916120719627" lon="121.00204935869075"><ele>7.5</ele><time>2026-04-27T15:07:30Z</time></trkpt><trkpt lat="14.509064097781394" lon="121.00208344505094"><ele>7.0</ele><time>2026-04-27T15:07:31Z</time></trkpt><trkpt lat="14.509208563197374" lon="121.00212493008097"><ele>7.0</ele><time>2026-04-27T15:07:32Z</time></trkpt><trkpt lat="14.50934940905305" lon="121.00217237416877"><ele>7.0</ele><time>2026-04-27T15:07:33Z</time></trkpt><trkpt lat="14.509491101733147" lon="121.00222512836932"><ele>7.0</ele><time>2026-04-27T15:07:34Z</time></trkpt><trkpt lat="14.509641194483397" lon="121.00227728688122"><ele>6.333333333333334</ele><time>2026-04-27T15:07:35Z</time></trkpt><trkpt lat="14.509786566454249" lon="121.00232619294509"><ele>5.666666666666667</ele><time>2026-04-27T15:07:36Z</time></trkpt><trkpt lat="14.509930796816363" lon="121.00237799791182"><ele>5.0</ele><time>2026-04-27T15:07:37Z</time></trkpt><trkpt lat="14.51006959227171" lon="121.00241862370932"><ele>5.0</ele><time>2026-04-27T15:07:38Z</time></trkpt><trkpt lat="14.51021583597189" lon="121.0024785462831"><ele>5.0</ele><time>2026-04-27T15:07:39Z</time></trkpt><trkpt lat="14.51035761597237" lon="121.00253458429422"><ele>5.0</ele><time>2026-04-27T15:07:40Z</time></trkpt><trkpt lat="14.510502503095902" lon="121.00259541944291"><ele>5.333333333333334</ele><time>2026-04-27T15:07:41Z</time></trkpt><trkpt lat="14.510645349413858" lon="121.00265322125476"><ele>5.666666666666667</ele><time>2026-04-27T15:07:42Z</time></trkpt><trkpt lat="14.510791659184136" lon="121.0027120594472"><ele>6.0</ele><time>2026-04-27T15:07:43Z</time></trkpt><trkpt lat="14.510937245922518" lon="121.00276696658806"><ele>6.0</ele><time>2026-04-27T15:07:44Z</time></trkpt><trkpt lat="14.511085450214738" lon="121.0028233975933"><ele>6.0</ele><time>2026-04-27T15:07:45Z</time></trkpt><trkpt lat="14.511230595517963" lon="121.00287307824823"><ele>6.0</ele><time>2026-04-27T15:07:46Z</time></trkpt><trkpt lat="14.51137330104102" lon="121.00292140462292"><ele>6.0</ele><time>2026-04-27T15:07:47Z</time></trkpt><trkpt lat="14.511508926804897" lon="121.00296755911106"><ele>6.0</ele><time>2026-04-27T15:07:48Z</time></trkpt><trkpt lat="14.51163425589779" lon="121.00301156244998"><ele>6.0</ele><time>2026-04-27T15:07:49Z</time></trkpt><trkpt lat="14.511751858903082" lon="121.00305585228392"><ele>6.0</ele><time>2026-04-27T15:07:50Z</time></trkpt><trkpt lat="14.51186290650139" lon="121.00309813237773"><ele>6.0</ele><time>2026-04-27T15:07:51Z</time></trkpt><trkpt lat="14.511975770430228" lon="121.0031367182468"><ele>6.0</ele><time>2026-04-27T15:07:52Z</time></trkpt><trkpt lat="14.512084818843482" lon="121.00317409109677"><ele>6.0</ele><time>2026-04-27T15:07:53Z</time></trkpt><trkpt lat="14.512185760695017" lon="121.00320858740348"><ele>6.0</ele><time>2026-04-27T15:07:54Z</time></trkpt><trkpt lat="14.512285081743217" lon="121.00324337921145"><ele>6.0</ele><time>2026-04-27T15:07:55Z</time></trkpt><trkpt lat="14.512374529692243" lon="121.00327688098615"><ele>6.199999999999999</ele><time>2026-04-27T15:07:56Z</time></trkpt><trkpt lat="14.512460945207588" lon="121.00330625545195"><ele>6.3999999999999995</ele><time>2026-04-27T15:07:57Z</time></trkpt><trkpt lat="14.512545284841961" lon="121.00334112060494"><ele>6.6</ele><time>2026-04-27T15:07:58Z</time></trkpt><trkpt lat="14.512634818016666" lon="121.00337563796549"><ele>6.8</ele><time>2026-04-27T15:07:59Z</time></trkpt><trkpt lat="14.512740512777398" lon="121.0034068516263"><ele>7.0</ele><time>2026-04-27T15:08:00Z</time></trkpt><trkpt lat="14.512845890902621" lon="121.00345009834383"><ele>7.25</ele><time>2026-04-27T15:08:01Z</time></trkpt><trkpt lat="14.512956664812313" lon="121.00349160769414"><ele>7.5</ele><time>2026-04-27T15:08:02Z</time></trkpt><trkpt lat="14.513069367646672" lon="121.00354058953694"><ele>7.75</ele><time>2026-04-27T15:08:03Z</time></trkpt><trkpt lat="14.513191076093063" lon="121.00358663023307"><ele>8.0</ele><time>2026-04-27T15:08:04Z</time></trkpt><trkpt lat="14.513320491847326" lon="121.00363496856332"><ele>8.0</ele><time>2026-04-27T15:08:05Z</time></trkpt><trkpt lat="14.51345405868312" lon="121.00368026088691"><ele>8.0</ele><time>2026-04-27T15:08:06Z</time></trkpt><trkpt lat="14.513590829638058" lon="121.00372662867018"><ele>8.0</ele><time>2026-04-27T15:08:07Z</time></trkpt><trkpt lat="14.513726846245103" lon="121.00377175145806"><ele>8.0</ele><time>2026-04-27T15:08:08Z</time></trkpt><trkpt lat="14.513855280804302" lon="121.00381953082001"><ele>9.0</ele><time>2026-04-27T15:08:09Z</time></trkpt><trkpt lat="14.513981709851754" lon="121.0038642814976"><ele>10.0</ele><time>2026-04-27T15:08:10Z</time></trkpt><trkpt lat="14.514107554425056" lon="121.00390848199066"><ele>11.0</ele><time>2026-04-27T15:08:11Z</time></trkpt><trkpt lat="14.514222431857155" lon="121.00394809173035"><ele>12.0</ele><time>2026-04-27T15:08:12Z</time></trkpt><trkpt lat="14.514334707776538" lon="121.00398727131883"><ele>12.0</ele><time>2026-04-27T15:08:13Z</time></trkpt><trkpt lat="14.514443132834526" lon="121.00402383067784"><ele>12.0</ele><time>2026-04-27T15:08:14Z</time></trkpt><trkpt lat="14.514555888751746" lon="121.00404862745994"><ele>12.0</ele><time>2026-04-27T15:08:15Z</time></trkpt><trkpt lat="14.514655487566028" lon="121.00408343621253"><ele>12.0</ele><time>2026-04-27T15:08:16Z</time></trkpt><trkpt lat="14.51475079161994" lon="121.00412252532804"><ele>12.0</ele><time>2026-04-27T15:08:17Z</time></trkpt><trkpt lat="14.514845671415076" lon="121.00416182723876"><ele>11.5</ele><time>2026-04-27T15:08:18Z</time></trkpt><trkpt lat="14.514942756785334" lon="121.00420036960729"><ele>11.0</ele><time>2026-04-27T15:08:19Z</time></trkpt><trkpt lat="14.515034142421808" lon="121.00423519984751"><ele>10.5</ele><time>2026-04-27T15:08:20Z</time></trkpt><trkpt lat="14.515109818474365" lon="121.00426238301941"><ele>10.0</ele><time>2026-04-27T15:08:21Z</time></trkpt><trkpt lat="14.515182675178153" lon="121.00428012698974"><ele>9.5</ele><time>2026-04-27T15:08:22Z</time></trkpt><trkpt lat="14.515255017305561" lon="121.00429171995631"><ele>9.0</ele><time>2026-04-27T15:08:23Z</time></trkpt><trkpt lat="14.515323641278032" lon="121.00429520116036"><ele>9.2</ele><time>2026-04-27T15:08:24Z</time></trkpt><trkpt lat="14.515404257315181" lon="121.00433660590164"><ele>9.4</ele><time>2026-04-27T15:08:26Z</time></trkpt><trkpt lat="14.515516272061166" lon="121.00418647962589"><ele>9.6</ele><time>2026-04-27T15:08:28Z</time></trkpt><trkpt lat="14.515550077317048" lon="121.00411250516534"><ele>9.8</ele><time>2026-04-27T15:08:29Z</time></trkpt><trkpt lat="14.51558159189078" lon="121.00402697096334"><ele>10.0</ele><time>2026-04-27T15:08:30Z</time></trkpt><trkpt lat="14.515614906057307" lon="121.00393457938263"><ele>9.6</ele><time>2026-04-27T15:08:31Z</time></trkpt><trkpt lat="14.515650158243096" lon="121.00383227238893"><ele>9.2</ele><time>2026-04-27T15:08:32Z</time></trkpt><trkpt lat="14.515687913408751" lon="121.0037286611201"><ele>8.8</ele><time>2026-04-27T15:08:33Z</time></trkpt><trkpt lat="14.51573080298816" lon="121.0036204206945"><ele>8.4</ele><time>2026-04-27T15:08:34Z</time></trkpt><trkpt lat="14.51577955200177" lon="121.00351040383262"><ele>8.0</ele><time>2026-04-27T15:08:35Z</time></trkpt><trkpt lat="14.515830849859677" lon="121.00339763000234"><ele>7.5</ele><time>2026-04-27T15:08:36Z</time></trkpt><trkpt lat="14.515890190300778" lon="121.00326428034757"><ele>7.0</ele><time>2026-04-27T15:08:37Z</time></trkpt><trkpt lat="14.515938915939481" lon="121.00315219613509"><ele>6.5</ele><time>2026-04-27T15:08:38Z</time></trkpt><trkpt lat="14.515990207028612" lon="121.00304522292822"><ele>6.0</ele><time>2026-04-27T15:08:39Z</time></trkpt><trkpt lat="14.516042832835682" lon="121.00293212519131"><ele>6.0</ele><time>2026-04-27T15:08:40Z</time></trkpt><trkpt lat="14.516094951700037" lon="121.00282122518344"><ele>6.0</ele><time>2026-04-27T15:08:41Z</time></trkpt><trkpt lat="14.51615212701889" lon="121.00270675573691"><ele>6.0</ele><time>2026-04-27T15:08:42Z</time></trkpt><trkpt lat="14.516207200684113" lon="121.00259462220538"><ele>6.0</ele><time>2026-04-27T15:08:43Z</time></trkpt><trkpt lat="14.51626647784615" lon="121.00247856857797"><ele>6.25</ele><time>2026-04-27T15:08:44Z</time></trkpt><trkpt lat="14.516327850537053" lon="121.00235633352526"><ele>6.5</ele><time>2026-04-27T15:08:45Z</time></trkpt><trkpt lat="14.516391244526165" lon="121.00223560116093"><ele>6.75</ele><time>2026-04-27T15:08:46Z</time></trkpt><trkpt lat="14.516455425455488" lon="121.00211338164696"><ele>7.0</ele><time>2026-04-27T15:08:47Z</time></trkpt><trkpt lat="14.516518225791003" lon="121.00198997642505"><ele>7.0</ele><time>2026-04-27T15:08:48Z</time></trkpt><trkpt lat="14.51656973311445" lon="121.00187455559679"><ele>7.0</ele><time>2026-04-27T15:08:49Z</time></trkpt><trkpt lat="14.516621980770337" lon="121.00176727374534"><ele>7.0</ele><time>2026-04-27T15:08:50Z</time></trkpt><trkpt lat="14.516674591373114" lon="121.00166185441842"><ele>7.0</ele><time>2026-04-27T15:08:51Z</time></trkpt><trkpt lat="14.516727439047074" lon="121.00155955239096"><ele>6.75</ele><time>2026-04-27T15:08:52Z</time></trkpt><trkpt lat="14.516765869412696" lon="121.00145213331541"><ele>6.5</ele><time>2026-04-27T15:08:53Z</time></trkpt><trkpt lat="14.516790076964098" lon="121.00134594971536"><ele>6.25</ele><time>2026-04-27T15:08:54Z</time></trkpt><trkpt lat="14.516852683380598" lon="121.00122591868133"><ele>6.0</ele><time>2026-04-27T15:08:55Z</time></trkpt><trkpt lat="14.516898290198874" lon="121.0011125710062"><ele>6.0</ele><time>2026-04-27T15:08:56Z</time></trkpt><trkpt lat="14.5169337728137" lon="121.00100482147069"><ele>6.0</ele><time>2026-04-27T15:08:57Z</time></trkpt><trkpt lat="14.516959080103133" lon="121.00089593101889"><ele>6.0</ele><time>2026-04-27T15:08:58Z</time></trkpt><trkpt lat="14.516983459749317" lon="121.00078475442619"><ele>6.0</ele><time>2026-04-27T15:08:59Z</time></trkpt><trkpt lat="14.517004271018346" lon="121.00066858447072"><ele>6.0</ele><time>2026-04-27T15:09:00Z</time></trkpt><trkpt lat="14.517023101810898" lon="121.00054853745317"><ele>5.75</ele><time>2026-04-27T15:09:01Z</time></trkpt><trkpt lat="14.517029962047742" lon="121.00042457494786"><ele>5.5</ele><time>2026-04-27T15:09:02Z</time></trkpt><trkpt lat="14.517026907016517" lon="121.00029452095231"><ele>5.25</ele><time>2026-04-27T15:09:03Z</time></trkpt><trkpt lat="14.517030857682458" lon="121.00016809624377"><ele>5.0</ele><time>2026-04-27T15:09:04Z</time></trkpt><trkpt lat="14.517031484121693" lon="121.00003877843537"><ele>5.0</ele><time>2026-04-27T15:09:05Z</time></trkpt><trkpt lat="14.517031390644078" lon="120.99989819429753"><ele>5.0</ele><time>2026-04-27T15:09:06Z</time></trkpt><trkpt lat="14.517031614254238" lon="120.99975833046423"><ele>5.0</ele><time>2026-04-27T15:09:07Z</time></trkpt><trkpt lat="14.517025012542494" lon="120.99963095232178"><ele>5.0</ele><time>2026-04-27T15:09:08Z</time></trkpt><trkpt lat="14.517026100147463" lon="120.99951461764776"><ele>5.0</ele><time>2026-04-27T15:09:09Z</time></trkpt><trkpt lat="14.517022214070073" lon="120.99938555032645"><ele>5.0</ele><time>2026-04-27T15:09:10Z</time></trkpt><trkpt lat="14.517023863175755" lon="120.99927552172619"><ele>5.0</ele><time>2026-04-27T15:09:11Z</time></trkpt><trkpt lat="14.517021870111998" lon="120.99915918057435"><ele>5.0</ele><time>2026-04-27T15:09:12Z</time></trkpt><trkpt lat="14.517024070174593" lon="120.9990415418021"><ele>5.2</ele><time>2026-04-27T15:09:13Z</time></trkpt><trkpt lat="14.517029104317666" lon="120.99892533457306"><ele>5.4</ele><time>2026-04-27T15:09:14Z</time></trkpt><trkpt lat="14.51703000568584" lon="120.99881384165052"><ele>5.6</ele><time>2026-04-27T15:09:15Z</time></trkpt><trkpt lat="14.517034456427035" lon="120.99869589313653"><ele>5.8</ele><time>2026-04-27T15:09:16Z</time></trkpt><trkpt lat="14.517041698561002" lon="120.99857971289707"><ele>6.0</ele><time>2026-04-27T15:09:17Z</time></trkpt><trkpt lat="14.517042535651782" lon="120.99845130615557"><ele>5.75</ele><time>2026-04-27T15:09:18Z</time></trkpt><trkpt lat="14.517036578915254" lon="120.99832183526537"><ele>5.5</ele><time>2026-04-27T15:09:19Z</time></trkpt><trkpt lat="14.517042943034433" lon="120.9981871094915"><ele>5.25</ele><time>2026-04-27T15:09:20Z</time></trkpt><trkpt lat="14.517045099359972" lon="120.9980570053858"><ele>5.0</ele><time>2026-04-27T15:09:21Z</time></trkpt><trkpt lat="14.517047691331316" lon="120.99792310479708"><ele>5.0</ele><time>2026-04-27T15:09:22Z</time></trkpt><trkpt lat="14.517050677458688" lon="120.99779250816017"><ele>5.0</ele><time>2026-04-27T15:09:23Z</time></trkpt><trkpt lat="14.517052843626342" lon="120.99767860774071"><ele>5.0</ele><time>2026-04-27T15:09:24Z</time></trkpt><trkpt lat="14.51705385282" lon="120.99758908509888"><ele>5.0</ele><time>2026-04-27T15:09:25Z</time></trkpt><trkpt lat="14.517065954983359" lon="120.99750129059211"><ele>5.0</ele><time>2026-04-27T15:09:26Z</time></trkpt><trkpt lat="14.51706910875639" lon="120.99742702370203"><ele>4.8</ele><time>2026-04-27T15:09:27Z</time></trkpt><trkpt lat="14.517082234381768" lon="120.99732842621565"><ele>4.6</ele><time>2026-04-27T15:09:28Z</time></trkpt><trkpt lat="14.517079688823719" lon="120.9971978542249"><ele>4.4</ele><time>2026-04-27T15:09:29Z</time></trkpt><trkpt lat="14.517099074266364" lon="120.99711214323774"><ele>4.2</ele><time>2026-04-27T15:09:30Z</time></trkpt><trkpt lat="14.517106559087972" lon="120.99701564956884"><ele>4.0</ele><time>2026-04-27T15:09:31Z</time></trkpt><trkpt lat="14.517109210397372" lon="120.99692777362033"><ele>4.0</ele><time>2026-04-27T15:09:32Z</time></trkpt><trkpt lat="14.517120183528618" lon="120.99684790070984"><ele>3.9999999999999996</ele><time>2026-04-27T15:09:33Z</time></trkpt><trkpt lat="14.517131858377958" lon="120.99678218474634"><ele>4.0</ele><time>2026-04-27T15:09:34Z</time></trkpt><trkpt lat="14.517147014218711" lon="120.99670494551003"><ele>4.0</ele><time>2026-04-27T15:09:36Z</time></trkpt><trkpt lat="14.517159080663761" lon="120.99663424257177"><ele>3.9999999999999996</ele><time>2026-04-27T15:09:38Z</time></trkpt><trkpt lat="14.517170639338193" lon="120.99656209163712"><ele>4.0</ele><time>2026-04-27T15:09:40Z</time></trkpt><trkpt lat="14.51717763796293" lon="120.99649419367765"><ele>4.0</ele><time>2026-04-27T15:09:43Z</time></trkpt><trkpt lat="14.517202363033714" lon="120.99639973690704"><ele>4.6</ele><time>2026-04-27T15:10:45Z</time></trkpt><trkpt lat="14.517220256206885" lon="120.99627659100109"><ele>5.2</ele><time>2026-04-27T15:10:47Z</time></trkpt><trkpt lat="14.517218283261283" lon="120.99617483109658"><ele>5.799999999999999</ele><time>2026-04-27T15:10:48Z</time></trkpt><trkpt lat="14.517229209344304" lon="120.9960809644414"><ele>6.3999999999999995</ele><time>2026-04-27T15:10:49Z</time></trkpt><trkpt lat="14.517239281635959" lon="120.99597529447612"><ele>7.0</ele><time>2026-04-27T15:10:50Z</time></trkpt><trkpt lat="14.517241409466802" lon="120.9958463753487"><ele>7.0</ele><time>2026-04-27T15:10:51Z</time></trkpt><trkpt lat="14.517267210875595" lon="120.995716587359"><ele>7.0</ele><time>2026-04-27T15:10:52Z</time></trkpt><trkpt lat="14.517280572681152" lon="120.99556851695594"><ele>7.0</ele><time>2026-04-27T15:10:53Z</time></trkpt><trkpt lat="14.517297261867927" lon="120.99542147334294"><ele>7.0</ele><time>2026-04-27T15:10:54Z</time></trkpt><trkpt lat="14.517319977848738" lon="120.99526630495964"><ele>7.0</ele><time>2026-04-27T15:10:55Z</time></trkpt><trkpt lat="14.517337251267282" lon="120.99512307830763"><ele>7.0</ele><time>2026-04-27T15:10:56Z</time></trkpt><trkpt lat="14.51734920041191" lon="120.99497430175549"><ele>7.0</ele><time>2026-04-27T15:10:57Z</time></trkpt><trkpt lat="14.517367805283532" lon="120.99483214899489"><ele>7.0</ele><time>2026-04-27T15:10:58Z</time></trkpt><trkpt lat="14.517390772605745" lon="120.99469919824251"><ele>7.199999999999999</ele><time>2026-04-27T15:10:59Z</time></trkpt><trkpt lat="14.517418027169063" lon="120.99457890264515"><ele>7.3999999999999995</ele><time>2026-04-27T15:11:00Z</time></trkpt><trkpt lat="14.51742596654836" lon="120.9944637455845"><ele>7.6000000000000005</ele><time>2026-04-27T15:11:01Z</time></trkpt><trkpt lat="14.517433927524786" lon="120.9943649971375"><ele>7.800000000000001</ele><time>2026-04-27T15:11:02Z</time></trkpt><trkpt lat="14.517444509151177" lon="120.99428278930544"><ele>8.0</ele><time>2026-04-27T15:11:03Z</time></trkpt><trkpt lat="14.517449514721637" lon="120.9941850792576"><ele>8.166666666666666</ele><time>2026-04-27T15:11:04Z</time></trkpt><trkpt lat="14.51746651013648" lon="120.99409674034106"><ele>8.333333333333332</ele><time>2026-04-27T15:11:05Z</time></trkpt><trkpt lat="14.517481976734569" lon="120.99400517256895"><ele>8.5</ele><time>2026-04-27T15:11:06Z</time></trkpt><trkpt lat="14.517496247406914" lon="120.99392151322918"><ele>8.666666666666666</ele><time>2026-04-27T15:11:07Z</time></trkpt><trkpt lat="14.517506645345962" lon="120.99383576725765"><ele>8.833333333333334</ele><time>2026-04-27T15:11:08Z</time></trkpt><trkpt lat="14.517518705411554" lon="120.99375085175134"><ele>9.0</ele><time>2026-04-27T15:11:09Z</time></trkpt><trkpt lat="14.51753594005792" lon="120.99367576513231"><ele>9.0</ele><time>2026-04-27T15:11:10Z</time></trkpt><trkpt lat="14.517562702053585" lon="120.99356695387397"><ele>9.0</ele><time>2026-04-27T15:11:12Z</time></trkpt><trkpt lat="14.517720036007503" lon="120.99349743191372"><ele>9.0</ele><time>2026-04-27T15:11:14Z</time></trkpt><trkpt lat="14.517810738421042" lon="120.99349601839519"><ele>9.0</ele><time>2026-04-27T15:11:15Z</time></trkpt><trkpt lat="14.517913141227005" lon="120.99349183836408"><ele>12.0</ele><time>2026-04-27T15:11:16Z</time></trkpt><trkpt lat="14.518025066455438" lon="120.99349964292097"><ele>15.0</ele><time>2026-04-27T15:11:17Z</time></trkpt><trkpt lat="14.518145910508759" lon="120.99350602316167"><ele>18.0</ele><time>2026-04-27T15:11:18Z</time></trkpt><trkpt lat="14.518277199221927" lon="120.99351354330058"><ele>21.0</ele><time>2026-04-27T15:11:19Z</time></trkpt><trkpt lat="14.518419384573193" lon="120.99352559911091"><ele>21.0</ele><time>2026-04-27T15:11:20Z</time></trkpt><trkpt lat="14.518565161373957" lon="120.99353810112268"><ele>21.0</ele><time>2026-04-27T15:11:21Z</time></trkpt><trkpt lat="14.518723229690256" lon="120.9935467153266"><ele>21.0</ele><time>2026-04-27T15:11:22Z</time></trkpt><trkpt lat="14.51888447214525" lon="120.9935497110463"><ele>23.0</ele><time>2026-04-27T15:11:23Z</time></trkpt><trkpt lat="14.519055026901489" lon="120.99355247756732"><ele>25.0</ele><time>2026-04-27T15:11:24Z</time></trkpt><trkpt lat="14.519226662497715" lon="120.99355906463265"><ele>27.0</ele><time>2026-04-27T15:11:25Z</time></trkpt><trkpt lat="14.519408188933209" lon="120.99356480508999"><ele>20.666666666666668</ele><time>2026-04-27T15:11:26Z</time></trkpt><trkpt lat="14.51959454677344" lon="120.99357731540121"><ele>14.333333333333332</ele><time>2026-04-27T15:11:27Z</time></trkpt><trkpt lat="14.519784892792394" lon="120.99358972622392"><ele>8.0</ele><time>2026-04-27T15:11:28Z</time></trkpt><trkpt lat="14.51997426515985" lon="120.99359653955716"><ele>8.0</ele><time>2026-04-27T15:11:29Z</time></trkpt><trkpt lat="14.520175249407586" lon="120.99360518734848"><ele>8.0</ele><time>2026-04-27T15:11:30Z</time></trkpt><trkpt lat="14.520376459214885" lon="120.99361791444426"><ele>8.0</ele><time>2026-04-27T15:11:31Z</time></trkpt><trkpt lat="14.520574592318543" lon="120.99363085578399"><ele>7.0</ele><time>2026-04-27T15:11:32Z</time></trkpt><trkpt lat="14.520779175849649" lon="120.99364858590899"><ele>6.0</ele><time>2026-04-27T15:11:33Z</time></trkpt><trkpt lat="14.520987596966982" lon="120.99366453610854"><ele>5.0</ele><time>2026-04-27T15:11:34Z</time></trkpt><trkpt lat="14.521195927138626" lon="120.99368110109954"><ele>5.0</ele><time>2026-04-27T15:11:35Z</time></trkpt><trkpt lat="14.521397768988802" lon="120.99368889363865"><ele>5.0</ele><time>2026-04-27T15:11:36Z</time></trkpt><trkpt lat="14.521614945372649" lon="120.99370709957391"><ele>5.0</ele><time>2026-04-27T15:11:37Z</time></trkpt><trkpt lat="14.521826674719165" lon="120.99371888357611"><ele>5.0</ele><time>2026-04-27T15:11:38Z</time></trkpt><trkpt lat="14.52203622714791" lon="120.99372911320032"><ele>5.0</ele><time>2026-04-27T15:11:39Z</time></trkpt><trkpt lat="14.522257686007105" lon="120.99374593812676"><ele>5.0</ele><time>2026-04-27T15:11:40Z</time></trkpt><trkpt lat="14.522487042872633" lon="120.99376573101738"><ele>5.0</ele><time>2026-04-27T15:11:41Z</time></trkpt><trkpt lat="14.522710066727408" lon="120.9937877493915"><ele>5.0</ele><time>2026-04-27T15:11:42Z</time></trkpt><trkpt lat="14.522915749900827" lon="120.99374944752958"><ele>5.0</ele><time>2026-04-27T15:11:43Z</time></trkpt><trkpt lat="14.523135136339643" lon="120.99375804911071"><ele>6.0</ele><time>2026-04-27T15:11:44Z</time></trkpt><trkpt lat="14.523355834510275" lon="120.9937618709735"><ele>7.0</ele><time>2026-04-27T15:11:45Z</time></trkpt><trkpt lat="14.523575412698246" lon="120.99376675242232"><ele>8.0</ele><time>2026-04-27T15:11:46Z</time></trkpt><trkpt lat="14.523801692489656" lon="120.99375133412516"><ele>8.0</ele><time>2026-04-27T15:11:47Z</time></trkpt><trkpt lat="14.524022142076246" lon="120.99375159486868"><ele>8.0</ele><time>2026-04-27T15:11:48Z</time></trkpt><trkpt lat="14.524257174533572" lon="120.99375925648373"><ele>8.0</ele><time>2026-04-27T15:11:49Z</time></trkpt><trkpt lat="14.524471989065649" lon="120.993752624187"><ele>8.0</ele><time>2026-04-27T15:11:50Z</time></trkpt><trkpt lat="14.524692695106673" lon="120.99375437516935"><ele>8.0</ele><time>2026-04-27T15:11:51Z</time></trkpt><trkpt lat="14.524900728956606" lon="120.9937584884172"><ele>8.333333333333332</ele><time>2026-04-27T15:11:52Z</time></trkpt><trkpt lat="14.52509875872846" lon="120.99376291564352"><ele>8.666666666666666</ele><time>2026-04-27T15:11:53Z</time></trkpt><trkpt lat="14.525280546671427" lon="120.99376249677931"><ele>9.0</ele><time>2026-04-27T15:11:54Z</time></trkpt><trkpt lat="14.525456800936889" lon="120.9937657910205"><ele>10.5</ele><time>2026-04-27T15:11:55Z</time></trkpt><trkpt lat="14.525626569470615" lon="120.99376610251413"><ele>12.0</ele><time>2026-04-27T15:11:56Z</time></trkpt><trkpt lat="14.525775461638707" lon="120.99376574112647"><ele>13.5</ele><time>2026-04-27T15:11:57Z</time></trkpt><trkpt lat="14.525892647428284" lon="120.99376922424162"><ele>15.0</ele><time>2026-04-27T15:11:58Z</time></trkpt><trkpt lat="14.525992750392948" lon="120.99377399484787"><ele>15.0</ele><time>2026-04-27T15:11:59Z</time></trkpt><trkpt lat="14.526098679049923" lon="120.99377258436508"><ele>15.0</ele><time>2026-04-27T15:12:00Z</time></trkpt><trkpt lat="14.526194660183494" lon="120.99377748471295"><ele>15.0</ele><time>2026-04-27T15:12:02Z</time></trkpt><trkpt lat="14.526263120890219" lon="120.99378158805858"><ele>15.0</ele><time>2026-04-27T15:12:04Z</time></trkpt><trkpt lat="14.526339232251742" lon="120.99378223236175"><ele>15.0</ele><time>2026-04-27T15:12:06Z</time></trkpt><trkpt lat="14.526446034961479" lon="120.99377214644"><ele>13.666666666666666</ele><time>2026-04-27T15:12:08Z</time></trkpt><trkpt lat="14.526516424043873" lon="120.993767662827"><ele>12.333333333333334</ele><time>2026-04-27T15:12:09Z</time></trkpt><trkpt lat="14.526596319688895" lon="120.9937649990263"><ele>11.0</ele><time>2026-04-27T15:12:10Z</time></trkpt><trkpt lat="14.52667951609949" lon="120.99376356884062"><ele>9.666666666666668</ele><time>2026-04-27T15:12:11Z</time></trkpt><trkpt lat="14.526767379886541" lon="120.99375795895057"><ele>8.333333333333334</ele><time>2026-04-27T15:12:12Z</time></trkpt><trkpt lat="14.526859856557866" lon="120.99374742964122"><ele>7.0</ele><time>2026-04-27T15:12:13Z</time></trkpt><trkpt lat="14.526945652879936" lon="120.9937370470131"><ele>7.0</ele><time>2026-04-27T15:12:14Z</time></trkpt><trkpt lat="14.527027235679943" lon="120.99373031088008"><ele>6.999999999999999</ele><time>2026-04-27T15:12:15Z</time></trkpt><trkpt lat="14.527095735290146" lon="120.99371942017079"><ele>6.999999999999999</ele><time>2026-04-27T15:12:16Z</time></trkpt><trkpt lat="14.527185142440754" lon="120.99369652284723"><ele>7.0</ele><time>2026-04-27T15:12:18Z</time></trkpt><trkpt lat="14.527292422176354" lon="120.99369298564497"><ele>7.0</ele><time>2026-04-27T15:12:20Z</time></trkpt><trkpt lat="14.527407720700149" lon="120.99368994594963"><ele>7.6</ele><time>2026-04-27T15:12:22Z</time></trkpt><trkpt lat="14.527490001807154" lon="120.99368595858265"><ele>8.2</ele><time>2026-04-27T15:12:24Z</time></trkpt><trkpt lat="14.527563918890438" lon="120.99368026485813"><ele>8.8</ele><time>2026-04-27T15:12:27Z</time></trkpt><trkpt lat="14.52762712178064" lon="120.9936715555958"><ele>9.4</ele><time>2026-04-27T15:12:30Z</time></trkpt><trkpt lat="14.527724712533093" lon="120.99365876323989"><ele>10.0</ele><time>2026-04-27T15:12:35Z</time></trkpt><trkpt lat="14.527857785814632" lon="120.99366126572664"><ele>9.8</ele><time>2026-04-27T15:12:37Z</time></trkpt><trkpt lat="14.527936660902666" lon="120.99365113520557"><ele>9.6</ele><time>2026-04-27T15:12:38Z</time></trkpt><trkpt lat="14.528022375440715" lon="120.99364062430617"><ele>9.4</ele><time>2026-04-27T15:12:39Z</time></trkpt><trkpt lat="14.528115552659258" lon="120.99363212685515"><ele>9.2</ele><time>2026-04-27T15:12:40Z</time></trkpt><trkpt lat="14.528220018088504" lon="120.99361907170189"><ele>9.0</ele><time>2026-04-27T15:12:41Z</time></trkpt><trkpt lat="14.528327226906566" lon="120.99360286203657"><ele>9.0</ele><time>2026-04-27T15:12:42Z</time></trkpt><trkpt lat="14.528447515277193" lon="120.99358417433383"><ele>9.0</ele><time>2026-04-27T15:12:43Z</time></trkpt><trkpt lat="14.528574417063489" lon="120.99356356261897"><ele>9.0</ele><time>2026-04-27T15:12:44Z</time></trkpt><trkpt lat="14.52871066486621" lon="120.99354265198998"><ele>9.0</ele><time>2026-04-27T15:12:45Z</time></trkpt><trkpt lat="14.52885186345719" lon="120.99352217220441"><ele>8.333333333333334</ele><time>2026-04-27T15:12:46Z</time></trkpt><trkpt lat="14.529004356573514" lon="120.99350098605795"><ele>7.666666666666667</ele><time>2026-04-27T15:12:47Z</time></trkpt><trkpt lat="14.529160521533418" lon="120.99348042313134"><ele>7.0</ele><time>2026-04-27T15:12:48Z</time></trkpt><trkpt lat="14.529333358361393" lon="120.99346020375302"><ele>7.0</ele><time>2026-04-27T15:12:49Z</time></trkpt><trkpt lat="14.529501236912829" lon="120.99343922035085"><ele>7.0</ele><time>2026-04-27T15:12:50Z</time></trkpt><trkpt lat="14.529678952733448" lon="120.99341890407293"><ele>7.0</ele><time>2026-04-27T15:12:51Z</time></trkpt><trkpt lat="14.529863197342593" lon="120.99339884299572"><ele>8.0</ele><time>2026-04-27T15:12:52Z</time></trkpt><trkpt lat="14.530045740699425" lon="120.99337444680798"><ele>9.0</ele><time>2026-04-27T15:12:53Z</time></trkpt><trkpt lat="14.530240620916457" lon="120.99335464852084"><ele>10.0</ele><time>2026-04-27T15:12:54Z</time></trkpt><trkpt lat="14.530434926851166" lon="120.99333208660612"><ele>7.666666666666667</ele><time>2026-04-27T15:12:55Z</time></trkpt><trkpt lat="14.530628504284694" lon="120.99331169046816"><ele>5.333333333333334</ele><time>2026-04-27T15:12:56Z</time></trkpt><trkpt lat="14.530824352326919" lon="120.9932875109852"><ele>3.0</ele><time>2026-04-27T15:12:57Z</time></trkpt><trkpt lat="14.531029575869011" lon="120.99326876278428"><ele>4.0</ele><time>2026-04-27T15:12:58Z</time></trkpt><trkpt lat="14.531226123323195" lon="120.99324598378756"><ele>5.0</ele><time>2026-04-27T15:12:59Z</time></trkpt><trkpt lat="14.531425067955752" lon="120.9932267010249"><ele>6.0</ele><time>2026-04-27T15:13:00Z</time></trkpt><trkpt lat="14.531621133278632" lon="120.99319634052776"><ele>6.0</ele><time>2026-04-27T15:13:01Z</time></trkpt><trkpt lat="14.531812048277997" lon="120.99316903558643"><ele>6.0</ele><time>2026-04-27T15:13:02Z</time></trkpt><trkpt lat="14.53200501288217" lon="120.99314692873368"><ele>6.0</ele><time>2026-04-27T15:13:03Z</time></trkpt><trkpt lat="14.532205916942678" lon="120.99313385350867"><ele>6.666666666666666</ele><time>2026-04-27T15:13:04Z</time></trkpt><trkpt lat="14.532398290885462" lon="120.99310274405315"><ele>7.333333333333333</ele><time>2026-04-27T15:13:05Z</time></trkpt><trkpt lat="14.532584948349466" lon="120.9930712299302"><ele>8.0</ele><time>2026-04-27T15:13:06Z</time></trkpt><trkpt lat="14.53278221705085" lon="120.9930419735502"><ele>9.666666666666666</ele><time>2026-04-27T15:13:07Z</time></trkpt><trkpt lat="14.532968790075477" lon="120.99301011444624"><ele>11.333333333333332</ele><time>2026-04-27T15:13:08Z</time></trkpt><trkpt lat="14.533163534447219" lon="120.99298275316809"><ele>13.0</ele><time>2026-04-27T15:13:09Z</time></trkpt><trkpt lat="14.533352298013531" lon="120.99295585769602"><ele>13.0</ele><time>2026-04-27T15:13:10Z</time></trkpt><trkpt lat="14.533547798876418" lon="120.99294943968819"><ele>13.0</ele><time>2026-04-27T15:13:11Z</time></trkpt><trkpt lat="14.533729032929367" lon="120.99293020980998"><ele>13.0</ele><time>2026-04-27T15:13:12Z</time></trkpt><trkpt lat="14.53390731785362" lon="120.99290915490714"><ele>11.0</ele><time>2026-04-27T15:13:13Z</time></trkpt><trkpt lat="14.53408139830933" lon="120.99288287255536"><ele>9.0</ele><time>2026-04-27T15:13:14Z</time></trkpt><trkpt lat="14.534255341798488" lon="120.99285904421755"><ele>7.0</ele><time>2026-04-27T15:13:15Z</time></trkpt><trkpt lat="14.534434224147574" lon="120.99284131260069"><ele>7.666666666666667</ele><time>2026-04-27T15:13:16Z</time></trkpt><trkpt lat="14.534599751368797" lon="120.99281251212946"><ele>8.333333333333334</ele><time>2026-04-27T15:13:17Z</time></trkpt><trkpt lat="14.534759784564821" lon="120.99279685410556"><ele>9.0</ele><time>2026-04-27T15:13:18Z</time></trkpt><trkpt lat="14.534923345068037" lon="120.99277458068126"><ele>9.0</ele><time>2026-04-27T15:13:19Z</time></trkpt><trkpt lat="14.535086149264608" lon="120.99276185074999"><ele>9.0</ele><time>2026-04-27T15:13:20Z</time></trkpt><trkpt lat="14.535241521217968" lon="120.99272421238074"><ele>9.0</ele><time>2026-04-27T15:13:21Z</time></trkpt><trkpt lat="14.535397867204681" lon="120.99271364042414"><ele>9.0</ele><time>2026-04-27T15:13:22Z</time></trkpt><trkpt lat="14.535564454266847" lon="120.99269247034505"><ele>9.0</ele><time>2026-04-27T15:13:23Z</time></trkpt><trkpt lat="14.535736939751214" lon="120.99268153307645"><ele>9.0</ele><time>2026-04-27T15:13:24Z</time></trkpt><trkpt lat="14.535881645701886" lon="120.99265734624598"><ele>9.0</ele><time>2026-04-27T15:13:25Z</time></trkpt><trkpt lat="14.53602852713691" lon="120.99264476271078"><ele>9.0</ele><time>2026-04-27T15:13:26Z</time></trkpt><trkpt lat="14.536178046762775" lon="120.99262599899818"><ele>9.0</ele><time>2026-04-27T15:13:27Z</time></trkpt><trkpt lat="14.536326402540585" lon="120.99260581228845"><ele>9.0</ele><time>2026-04-27T15:13:28Z</time></trkpt><trkpt lat="14.536473045957571" lon="120.99259313120164"><ele>10.666666666666668</ele><time>2026-04-27T15:13:29Z</time></trkpt><trkpt lat="14.536626634110151" lon="120.99257025288574"><ele>12.333333333333334</ele><time>2026-04-27T15:13:30Z</time></trkpt><trkpt lat="14.536778891039672" lon="120.99255305571947"><ele>14.0</ele><time>2026-04-27T15:13:31Z</time></trkpt><trkpt lat="14.53693203237034" lon="120.99253435549493"><ele>11.333333333333334</ele><time>2026-04-27T15:13:32Z</time></trkpt><trkpt lat="14.537084008971759" lon="120.99252121364414"><ele>8.666666666666668</ele><time>2026-04-27T15:13:33Z</time></trkpt><trkpt lat="14.537237780802014" lon="120.9925095777782"><ele>6.0</ele><time>2026-04-27T15:13:34Z</time></trkpt><trkpt lat="14.537398028441938" lon="120.99249715392901"><ele>5.666666666666667</ele><time>2026-04-27T15:13:35Z</time></trkpt><trkpt lat="14.537558177214457" lon="120.99247302594856"><ele>5.333333333333334</ele><time>2026-04-27T15:13:36Z</time></trkpt><trkpt lat="14.537709055485545" lon="120.99246423807729"><ele>5.0</ele><time>2026-04-27T15:13:37Z</time></trkpt><trkpt lat="14.53785190451143" lon="120.99245587392373"><ele>6.333333333333334</ele><time>2026-04-27T15:13:38Z</time></trkpt><trkpt lat="14.538004493311792" lon="120.9924292769531"><ele>7.666666666666667</ele><time>2026-04-27T15:13:39Z</time></trkpt><trkpt lat="14.5381716225979" lon="120.9924063531878"><ele>9.0</ele><time>2026-04-27T15:13:40Z</time></trkpt><trkpt lat="14.538330322060808" lon="120.99238478997361"><ele>9.0</ele><time>2026-04-27T15:13:41Z</time></trkpt><trkpt lat="14.538499171107517" lon="120.99237303916034"><ele>9.0</ele><time>2026-04-27T15:13:42Z</time></trkpt><trkpt lat="14.538669679396778" lon="120.99235258977531"><ele>9.0</ele><time>2026-04-27T15:13:43Z</time></trkpt><trkpt lat="14.538844210310895" lon="120.99233682833675"><ele>8.0</ele><time>2026-04-27T15:13:44Z</time></trkpt><trkpt lat="14.539012864560037" lon="120.99231593572965"><ele>7.0</ele><time>2026-04-27T15:13:45Z</time></trkpt><trkpt lat="14.539169543477207" lon="120.99230153786466"><ele>6.0</ele><time>2026-04-27T15:13:46Z</time></trkpt><trkpt lat="14.539331813660084" lon="120.99229266538592"><ele>6.0</ele><time>2026-04-27T15:13:47Z</time></trkpt><trkpt lat="14.539486174962624" lon="120.9922630690249"><ele>6.0</ele><time>2026-04-27T15:13:48Z</time></trkpt><trkpt lat="14.539655317403604" lon="120.99223516395827"><ele>6.0</ele><time>2026-04-27T15:13:49Z</time></trkpt><trkpt lat="14.539827392747242" lon="120.99221158470462"><ele>7.0</ele><time>2026-04-27T15:13:50Z</time></trkpt><trkpt lat="14.539998500072555" lon="120.99218724811938"><ele>8.0</ele><time>2026-04-27T15:13:51Z</time></trkpt><trkpt lat="14.540192556172508" lon="120.99216508859642"><ele>9.0</ele><time>2026-04-27T15:13:52Z</time></trkpt><trkpt lat="14.540373680160224" lon="120.99214045121877"><ele>12.666666666666668</ele><time>2026-04-27T15:13:53Z</time></trkpt><trkpt lat="14.54056777355158" lon="120.99211716658081"><ele>16.333333333333336</ele><time>2026-04-27T15:13:54Z</time></trkpt><trkpt lat="14.540756806333025" lon="120.99208513372953"><ele>20.0</ele><time>2026-04-27T15:13:55Z</time></trkpt><trkpt lat="14.540950213211914" lon="120.99205614117368"><ele>20.0</ele><time>2026-04-27T15:13:56Z</time></trkpt><trkpt lat="14.541154520973874" lon="120.9920243764291"><ele>20.0</ele><time>2026-04-27T15:13:57Z</time></trkpt><trkpt lat="14.541346557603301" lon="120.99199261470116"><ele>20.0</ele><time>2026-04-27T15:13:58Z</time></trkpt><trkpt lat="14.54154173661846" lon="120.99195520447641"><ele>16.0</ele><time>2026-04-27T15:13:59Z</time></trkpt><trkpt lat="14.541738548257666" lon="120.99192103854745"><ele>12.0</ele><time>2026-04-27T15:14:00Z</time></trkpt><trkpt lat="14.541940680153234" lon="120.99188731216886"><ele>8.0</ele><time>2026-04-27T15:14:01Z</time></trkpt><trkpt lat="14.542145214229379" lon="120.9918519291214"><ele>8.0</ele><time>2026-04-27T15:14:02Z</time></trkpt><trkpt lat="14.542343433071" lon="120.99181862321998"><ele>8.0</ele><time>2026-04-27T15:14:03Z</time></trkpt><trkpt lat="14.542558517946237" lon="120.99178677122552"><ele>8.0</ele><time>2026-04-27T15:14:04Z</time></trkpt><trkpt lat="14.542759946336854" lon="120.99175220883875"><ele>7.666666666666666</ele><time>2026-04-27T15:14:05Z</time></trkpt><trkpt lat="14.54297199055598" lon="120.99170823743988"><ele>7.333333333333334</ele><time>2026-04-27T15:14:06Z</time></trkpt><trkpt lat="14.543183140155435" lon="120.99167092098855"><ele>7.0</ele><time>2026-04-27T15:14:07Z</time></trkpt><trkpt lat="14.543397445880863" lon="120.99162549117237"><ele>6.666666666666667</ele><time>2026-04-27T15:14:08Z</time></trkpt><trkpt lat="14.543615622029574" lon="120.99157902276669"><ele>6.333333333333334</ele><time>2026-04-27T15:14:09Z</time></trkpt><trkpt lat="14.543832210099188" lon="120.99154576037053"><ele>6.0</ele><time>2026-04-27T15:14:10Z</time></trkpt><trkpt lat="14.544054928703092" lon="120.99151118001792"><ele>6.666666666666666</ele><time>2026-04-27T15:14:11Z</time></trkpt><trkpt lat="14.544281029801745" lon="120.99147351967538"><ele>7.333333333333333</ele><time>2026-04-27T15:14:12Z</time></trkpt><trkpt lat="14.544498031573463" lon="120.99143502307277"><ele>8.0</ele><time>2026-04-27T15:14:13Z</time></trkpt><trkpt lat="14.544718988739858" lon="120.9913914217736"><ele>9.5</ele><time>2026-04-27T15:14:14Z</time></trkpt><trkpt lat="14.544952351535134" lon="120.99134186731264"><ele>11.0</ele><time>2026-04-27T15:14:15Z</time></trkpt><trkpt lat="14.545186333250962" lon="120.99129848051854"><ele>9.666666666666666</ele><time>2026-04-27T15:14:16Z</time></trkpt><trkpt lat="14.545381579400654" lon="120.991245437081"><ele>8.333333333333334</ele><time>2026-04-27T15:14:17Z</time></trkpt><trkpt lat="14.545605816901704" lon="120.99119443754024"><ele>7.0</ele><time>2026-04-27T15:14:18Z</time></trkpt><trkpt lat="14.545825979865983" lon="120.99114082094113"><ele>7.0</ele><time>2026-04-27T15:14:19Z</time></trkpt><trkpt lat="14.546047435890936" lon="120.99109571467262"><ele>7.0</ele><time>2026-04-27T15:14:20Z</time></trkpt><trkpt lat="14.546267832932346" lon="120.99105023642102"><ele>9.5</ele><time>2026-04-27T15:14:21Z</time></trkpt><trkpt lat="14.546482597713439" lon="120.9910054991316"><ele>12.0</ele><time>2026-04-27T15:14:22Z</time></trkpt><trkpt lat="14.546709828353263" lon="120.9909528903784"><ele>12.0</ele><time>2026-04-27T15:14:23Z</time></trkpt><trkpt lat="14.546929962431806" lon="120.99090806015509"><ele>12.0</ele><time>2026-04-27T15:14:24Z</time></trkpt><trkpt lat="14.547152870847592" lon="120.99085355898151"><ele>10.0</ele><time>2026-04-27T15:14:25Z</time></trkpt><trkpt lat="14.547373059710043" lon="120.99080054331407"><ele>8.0</ele><time>2026-04-27T15:14:26Z</time></trkpt><trkpt lat="14.547597265544562" lon="120.99074865379397"><ele>8.0</ele><time>2026-04-27T15:14:27Z</time></trkpt><trkpt lat="14.547818993512022" lon="120.99069375179025"><ele>8.0</ele><time>2026-04-27T15:14:28Z</time></trkpt><trkpt lat="14.54803615039096" lon="120.99064976603466"><ele>8.0</ele><time>2026-04-27T15:14:29Z</time></trkpt><trkpt lat="14.548261837175453" lon="120.99058840880554"><ele>11.5</ele><time>2026-04-27T15:14:30Z</time></trkpt><trkpt lat="14.548485411012697" lon="120.9905306959812"><ele>15.0</ele><time>2026-04-27T15:14:31Z</time></trkpt><trkpt lat="14.548705299095602" lon="120.99047897463028"><ele>11.5</ele><time>2026-04-27T15:14:32Z</time></trkpt><trkpt lat="14.54892858752117" lon="120.99042702701712"><ele>8.0</ele><time>2026-04-27T15:14:33Z</time></trkpt><trkpt lat="14.549149775248383" lon="120.99037593561137"><ele>8.0</ele><time>2026-04-27T15:14:34Z</time></trkpt><trkpt lat="14.549374366533993" lon="120.99031771288188"><ele>8.0</ele><time>2026-04-27T15:14:35Z</time></trkpt><trkpt lat="14.549594548998734" lon="120.99027379725815"><ele>8.5</ele><time>2026-04-27T15:14:36Z</time></trkpt><trkpt lat="14.549815006372503" lon="120.99021994490492"><ele>9.0</ele><time>2026-04-27T15:14:37Z</time></trkpt><trkpt lat="14.550039305852662" lon="120.99017110081797"><ele>9.0</ele><time>2026-04-27T15:14:38Z</time></trkpt><trkpt lat="14.550251862392802" lon="120.99012259420131"><ele>9.0</ele><time>2026-04-27T15:14:39Z</time></trkpt><trkpt lat="14.550442043609882" lon="120.99007632001837"><ele>9.0</ele><time>2026-04-27T15:14:40Z</time></trkpt><trkpt lat="14.550627898599185" lon="120.99004278851919"><ele>8.333333333333334</ele><time>2026-04-27T15:14:41Z</time></trkpt><trkpt lat="14.550798450640361" lon="120.98998849719851"><ele>7.666666666666667</ele><time>2026-04-27T15:14:42Z</time></trkpt><trkpt lat="14.550961186872836" lon="120.98992984409301"><ele>7.0</ele><time>2026-04-27T15:14:43Z</time></trkpt><trkpt lat="14.551127901837074" lon="120.98992343607945"><ele>7.666666666666667</ele><time>2026-04-27T15:14:44Z</time></trkpt><trkpt lat="14.551283833912677" lon="120.98989832186005"><ele>8.333333333333334</ele><time>2026-04-27T15:14:45Z</time></trkpt><trkpt lat="14.551426817934034" lon="120.989855590154"><ele>9.0</ele><time>2026-04-27T15:14:46Z</time></trkpt><trkpt lat="14.551569657085645" lon="120.98983418279046"><ele>9.0</ele><time>2026-04-27T15:14:47Z</time></trkpt><trkpt lat="14.551694220743663" lon="120.98980558869683"><ele>9.0</ele><time>2026-04-27T15:14:48Z</time></trkpt><trkpt lat="14.551804914687947" lon="120.98978191478331"><ele>9.0</ele><time>2026-04-27T15:14:49Z</time></trkpt><trkpt lat="14.551904078765913" lon="120.98976138630735"><ele>9.0</ele><time>2026-04-27T15:14:50Z</time></trkpt><trkpt lat="14.551988541591667" lon="120.98974450572088"><ele>9.0</ele><time>2026-04-27T15:14:51Z</time></trkpt><trkpt lat="14.552072612986176" lon="120.98973512560828"><ele>9.2</ele><time>2026-04-27T15:14:52Z</time></trkpt><trkpt lat="14.552180724584355" lon="120.98974357959895"><ele>9.4</ele><time>2026-04-27T15:14:54Z</time></trkpt><trkpt lat="14.552250646443333" lon="120.98978733946035"><ele>9.6</ele><time>2026-04-27T15:14:56Z</time></trkpt><trkpt lat="14.552281052602424" lon="120.9898993663804"><ele>9.8</ele><time>2026-04-27T15:14:57Z</time></trkpt><trkpt lat="14.552288527152237" lon="120.99001948398262"><ele>10.0</ele><time>2026-04-27T15:14:58Z</time></trkpt><trkpt lat="14.552326821854791" lon="120.99015350112913"><ele>10.0</ele><time>2026-04-27T15:14:59Z</time></trkpt><trkpt lat="14.55235157249071" lon="120.99023611227815"><ele>10.0</ele><time>2026-04-27T15:15:00Z</time></trkpt><trkpt lat="14.552429374428046" lon="120.99037674493262"><ele>10.0</ele><time>2026-04-27T15:15:02Z</time></trkpt><trkpt lat="14.552485971902277" lon="120.99047545120045"><ele>10.0</ele><time>2026-04-27T15:15:03Z</time></trkpt><trkpt lat="14.552529473626917" lon="120.99060657862427"><ele>10.0</ele><time>2026-04-27T15:15:04Z</time></trkpt><trkpt lat="14.552563571826063" lon="120.99071615308961"><ele>10.0</ele><time>2026-04-27T15:15:05Z</time></trkpt><trkpt lat="14.552603983504738" lon="120.99083121245592"><ele>10.0</ele><time>2026-04-27T15:15:06Z</time></trkpt><trkpt lat="14.552633573654667" lon="120.99097452484028"><ele>10.0</ele><time>2026-04-27T15:15:07Z</time></trkpt><trkpt lat="14.552694812499844" lon="120.99111117943028"><ele>10.0</ele><time>2026-04-27T15:15:08Z</time></trkpt><trkpt lat="14.552735421599015" lon="120.99125805759871"><ele>10.0</ele><time>2026-04-27T15:15:09Z</time></trkpt><trkpt lat="14.552782524095653" lon="120.99140787573769"><ele>10.0</ele><time>2026-04-27T15:15:10Z</time></trkpt><trkpt lat="14.552833780694964" lon="120.99155801959446"><ele>10.0</ele><time>2026-04-27T15:15:11Z</time></trkpt><trkpt lat="14.552883559171027" lon="120.99171710682333"><ele>10.0</ele><time>2026-04-27T15:15:12Z</time></trkpt><trkpt lat="14.552928735379265" lon="120.9918770168963"><ele>10.0</ele><time>2026-04-27T15:15:13Z</time></trkpt><trkpt lat="14.552981391512425" lon="120.99204343035179"><ele>10.0</ele><time>2026-04-27T15:15:14Z</time></trkpt><trkpt lat="14.553029608546526" lon="120.9922067461572"><ele>10.0</ele><time>2026-04-27T15:15:15Z</time></trkpt><trkpt lat="14.55307580377964" lon="120.9923774201301"><ele>10.0</ele><time>2026-04-27T15:15:16Z</time></trkpt><trkpt lat="14.553120072303992" lon="120.99253740402158"><ele>9.666666666666668</ele><time>2026-04-27T15:15:17Z</time></trkpt><trkpt lat="14.553165237030177" lon="120.99269445502252"><ele>9.333333333333334</ele><time>2026-04-27T15:15:18Z</time></trkpt><trkpt lat="14.553203353361239" lon="120.99285012632551"><ele>9.0</ele><time>2026-04-27T15:15:19Z</time></trkpt><trkpt lat="14.553229462803401" lon="120.99300155944172"><ele>9.0</ele><time>2026-04-27T15:15:20Z</time></trkpt><trkpt lat="14.553257257117531" lon="120.99316402095354"><ele>9.0</ele><time>2026-04-27T15:15:21Z</time></trkpt><trkpt lat="14.55327395380203" lon="120.9933335235468"><ele>9.0</ele><time>2026-04-27T15:15:22Z</time></trkpt><trkpt lat="14.55329301484265" lon="120.99351075272286"><ele>9.25</ele><time>2026-04-27T15:15:23Z</time></trkpt><trkpt lat="14.553310297180023" lon="120.99367144354389"><ele>9.5</ele><time>2026-04-27T15:15:24Z</time></trkpt><trkpt lat="14.553325268717805" lon="120.99381064861502"><ele>9.75</ele><time>2026-04-27T15:15:25Z</time></trkpt><trkpt lat="14.553338244318727" lon="120.99393129537317"><ele>10.0</ele><time>2026-04-27T15:15:26Z</time></trkpt><trkpt lat="14.553352620872351" lon="120.99403460461244"><ele>10.0</ele><time>2026-04-27T15:15:27Z</time></trkpt><trkpt lat="14.55336487430068" lon="120.99412395769485"><ele>10.0</ele><time>2026-04-27T15:15:28Z</time></trkpt><trkpt lat="14.553375271112191" lon="120.99419977217875"><ele>10.0</ele><time>2026-04-27T15:15:29Z</time></trkpt><trkpt lat="14.553385000518361" lon="120.99427071989611"><ele>10.0</ele><time>2026-04-27T15:15:30Z</time></trkpt><trkpt lat="14.553395454065052" lon="120.99435441729547"><ele>10.0</ele><time>2026-04-27T15:15:31Z</time></trkpt><trkpt lat="14.553407532526126" lon="120.99445285676215"><ele>10.0</ele><time>2026-04-27T15:15:32Z</time></trkpt><trkpt lat="14.553419564240967" lon="120.99455753354468"><ele>9.25</ele><time>2026-04-27T15:15:33Z</time></trkpt><trkpt lat="14.553431909499462" lon="120.99467201256681"><ele>8.5</ele><time>2026-04-27T15:15:34Z</time></trkpt><trkpt lat="14.553444389426987" lon="120.99478890997936"><ele>7.75</ele><time>2026-04-27T15:15:35Z</time></trkpt><trkpt lat="14.553462579354452" lon="120.99490621015094"><ele>7.0</ele><time>2026-04-27T15:15:36Z</time></trkpt><trkpt lat="14.553478966893627" lon="120.9950188874038"><ele>8.2</ele><time>2026-04-27T15:15:37Z</time></trkpt><trkpt lat="14.553494815986037" lon="120.99512786235937"><ele>9.399999999999999</ele><time>2026-04-27T15:15:38Z</time></trkpt><trkpt lat="14.55351086359904" lon="120.99523872402298"><ele>10.600000000000001</ele><time>2026-04-27T15:15:39Z</time></trkpt><trkpt lat="14.553534982843603" lon="120.99534900035164"><ele>11.8</ele><time>2026-04-27T15:15:40Z</time></trkpt><trkpt lat="14.5535592020987" lon="120.99546215096767"><ele>13.0</ele><time>2026-04-27T15:15:41Z</time></trkpt><trkpt lat="14.553585400651516" lon="120.99557791464366"><ele>13.0</ele><time>2026-04-27T15:15:42Z</time></trkpt><trkpt lat="14.553612921663298" lon="120.99569751740515"><ele>13.0</ele><time>2026-04-27T15:15:43Z</time></trkpt><trkpt lat="14.553643109047528" lon="120.99582253649322"><ele>13.0</ele><time>2026-04-27T15:15:44Z</time></trkpt><trkpt lat="14.55367321399983" lon="120.99594721416996"><ele>13.0</ele><time>2026-04-27T15:15:45Z</time></trkpt><trkpt lat="14.553713648866761" lon="120.99606210120722"><ele>12.0</ele><time>2026-04-27T15:15:46Z</time></trkpt><trkpt lat="14.553740815661218" lon="120.9961849639426"><ele>11.0</ele><time>2026-04-27T15:15:47Z</time></trkpt><trkpt lat="14.55377318494215" lon="120.99630876273206"><ele>10.0</ele><time>2026-04-27T15:15:48Z</time></trkpt><trkpt lat="14.553804843591223" lon="120.99642153666137"><ele>9.0</ele><time>2026-04-27T15:15:49Z</time></trkpt><trkpt lat="14.55383017896903" lon="120.99652824557373"><ele>9.0</ele><time>2026-04-27T15:15:50Z</time></trkpt><trkpt lat="14.553855907477823" lon="120.99661957079017"><ele>9.0</ele><time>2026-04-27T15:15:51Z</time></trkpt><trkpt lat="14.553859256895107" lon="120.99670025781609"><ele>9.0</ele><time>2026-04-27T15:15:52Z</time></trkpt><trkpt lat="14.553877122642291" lon="120.99677301681756"><ele>9.0</ele><time>2026-04-27T15:15:53Z</time></trkpt><trkpt lat="14.553895672642884" lon="120.99684856256913"><ele>9.0</ele><time>2026-04-27T15:15:54Z</time></trkpt><trkpt lat="14.553938888106574" lon="120.99695764904789"><ele>9.0</ele><time>2026-04-27T15:15:56Z</time></trkpt><trkpt lat="14.553942853157263" lon="120.99704070627797"><ele>8.4</ele><time>2026-04-27T15:15:58Z</time></trkpt><trkpt lat="14.55396294514359" lon="120.99712253089649"><ele>7.800000000000001</ele><time>2026-04-27T15:16:01Z</time></trkpt><trkpt lat="14.55405123278956" lon="120.99717796263789"><ele>7.199999999999999</ele><time>2026-04-27T15:16:05Z</time></trkpt><trkpt lat="14.554136918818099" lon="120.99720187477175"><ele>6.6</ele><time>2026-04-27T15:16:08Z</time></trkpt><trkpt lat="14.554266566839305" lon="120.99716440745655"><ele>6.0</ele><time>2026-04-27T15:16:10Z</time></trkpt><trkpt lat="14.554325509058643" lon="120.99713062402988"><ele>6.0</ele><time>2026-04-27T15:16:11Z</time></trkpt><trkpt lat="14.554388371408963" lon="120.99710618529824"><ele>6.0</ele><time>2026-04-27T15:16:12Z</time></trkpt><trkpt lat="14.55449146305436" lon="120.99708210282951"><ele>6.0</ele><time>2026-04-27T15:16:14Z</time></trkpt><trkpt lat="14.554593239244483" lon="120.997074072813"><ele>6.0</ele><time>2026-04-27T15:16:16Z</time></trkpt><trkpt lat="14.55470439602365" lon="120.99707207460104"><ele>6.0</ele><time>2026-04-27T15:16:18Z</time></trkpt><trkpt lat="14.55487446819772" lon="120.9970365760301"><ele>6.6</ele><time>2026-04-27T15:16:19Z</time></trkpt><trkpt lat="14.554988354336356" lon="120.99700076653747"><ele>7.199999999999999</ele><time>2026-04-27T15:16:20Z</time></trkpt><trkpt lat="14.555099466012182" lon="120.9969730564845"><ele>7.800000000000001</ele><time>2026-04-27T15:16:21Z</time></trkpt><trkpt lat="14.55520083076298" lon="120.99694601150405"><ele>8.4</ele><time>2026-04-27T15:16:22Z</time></trkpt><trkpt lat="14.55529782525093" lon="120.99692457519637"><ele>9.0</ele><time>2026-04-27T15:16:23Z</time></trkpt><trkpt lat="14.555401161229765" lon="120.99690605053696"><ele>9.0</ele><time>2026-04-27T15:16:24Z</time></trkpt><trkpt lat="14.555489114473923" lon="120.99688991398938"><ele>9.0</ele><time>2026-04-27T15:16:25Z</time></trkpt><trkpt lat="14.555555539165182" lon="120.99687505324093"><ele>9.0</ele><time>2026-04-27T15:16:26Z</time></trkpt><trkpt lat="14.555649747648841" lon="120.9968522082063"><ele>9.0</ele><time>2026-04-27T15:16:28Z</time></trkpt><trkpt lat="14.555715981692815" lon="120.99685218724444"><ele>9.0</ele><time>2026-04-27T15:16:30Z</time></trkpt><trkpt lat="14.555778290415361" lon="120.99683998661119"><ele>9.0</ele><time>2026-04-27T15:16:31Z</time></trkpt><trkpt lat="14.555869941356194" lon="120.99681859569712"><ele>9.0</ele><time>2026-04-27T15:16:32Z</time></trkpt><trkpt lat="14.555950106886835" lon="120.99679278010792"><ele>9.0</ele><time>2026-04-27T15:16:33Z</time></trkpt><trkpt lat="14.556054321608464" lon="120.99676840388396"><ele>9.0</ele><time>2026-04-27T15:16:34Z</time></trkpt><trkpt lat="14.556166237816257" lon="120.99673980287399"><ele>9.0</ele><time>2026-04-27T15:16:35Z</time></trkpt><trkpt lat="14.556266921945227" lon="120.99671757635208"><ele>9.0</ele><time>2026-04-27T15:16:36Z</time></trkpt><trkpt lat="14.556360792781513" lon="120.9967099257527"><ele>9.2</ele><time>2026-04-27T15:16:37Z</time></trkpt><trkpt lat="14.556443898702977" lon="120.99668842975382"><ele>9.4</ele><time>2026-04-27T15:16:38Z</time></trkpt><trkpt lat="14.556549630126389" lon="120.99666411018558"><ele>9.6</ele><time>2026-04-27T15:16:39Z</time></trkpt><trkpt lat="14.556655780322915" lon="120.99665402320844"><ele>9.8</ele><time>2026-04-27T15:16:40Z</time></trkpt><trkpt lat="14.556749668787566" lon="120.9966281490305"><ele>10.0</ele><time>2026-04-27T15:16:41Z</time></trkpt><trkpt lat="14.556842193126192" lon="120.9966035324414"><ele>10.2</ele><time>2026-04-27T15:16:42Z</time></trkpt><trkpt lat="14.556949760249077" lon="120.9965806449782"><ele>10.4</ele><time>2026-04-27T15:16:43Z</time></trkpt><trkpt lat="14.557048015238545" lon="120.99656474776806"><ele>10.600000000000001</ele><time>2026-04-27T15:16:44Z</time></trkpt><trkpt lat="14.557156098461299" lon="120.99654420800037"><ele>10.8</ele><time>2026-04-27T15:16:45Z</time></trkpt><trkpt lat="14.557247604546689" lon="120.99652521011755"><ele>11.0</ele><time>2026-04-27T15:16:46Z</time></trkpt><trkpt lat="14.557351693970716" lon="120.99649945206133"><ele>11.0</ele><time>2026-04-27T15:16:47Z</time></trkpt><trkpt lat="14.557454249014732" lon="120.99647657512783"><ele>11.0</ele><time>2026-04-27T15:16:48Z</time></trkpt><trkpt lat="14.557559811026428" lon="120.99645908081669"><ele>11.0</ele><time>2026-04-27T15:16:49Z</time></trkpt><trkpt lat="14.557652641898102" lon="120.99643778822225"><ele>11.0</ele><time>2026-04-27T15:16:50Z</time></trkpt><trkpt lat="14.557751099562577" lon="120.99641630586031"><ele>11.0</ele><time>2026-04-27T15:16:51Z</time></trkpt><trkpt lat="14.557832820497389" lon="120.99638377462189"><ele>10.666666666666666</ele><time>2026-04-27T15:16:52Z</time></trkpt><trkpt lat="14.557918494428122" lon="120.99636355344465"><ele>10.333333333333332</ele><time>2026-04-27T15:16:53Z</time></trkpt><trkpt lat="14.558005053148397" lon="120.99634312353479"><ele>10.0</ele><time>2026-04-27T15:16:54Z</time></trkpt><trkpt lat="14.558093221761242" lon="120.99635921359443"><ele>9.666666666666666</ele><time>2026-04-27T15:16:55Z</time></trkpt><trkpt lat="14.558164842380291" lon="120.9963131247351"><ele>9.333333333333334</ele><time>2026-04-27T15:16:56Z</time></trkpt><trkpt lat="14.558233991576504" lon="120.99628950788343"><ele>9.0</ele><time>2026-04-27T15:16:57Z</time></trkpt><trkpt lat="14.558270412124473" lon="120.99621980171571"><ele>9.0</ele><time>2026-04-27T15:17:00Z</time></trkpt><trkpt lat="14.558245664415852" lon="120.99604977956989"><ele>9.0</ele><time>2026-04-27T15:17:15Z</time></trkpt><trkpt lat="14.558204115399297" lon="120.99596942522295"><ele>9.0</ele><time>2026-04-27T15:17:17Z</time></trkpt><trkpt lat="14.558079219955832" lon="120.99592120032717"><ele>9.0</ele><time>2026-04-27T15:17:19Z</time></trkpt><trkpt lat="14.558160953552532" lon="120.99584297775597"><ele>9.0</ele><time>2026-04-27T15:17:21Z</time></trkpt><trkpt lat="14.558117647658266" lon="120.99578259379953"><ele>9.0</ele><time>2026-04-27T15:17:32.044Z</time></trkpt><trkpt lat="14.558457500524545" lon="120.99527748955177"><ele>9.0</ele><time>2026-04-27T15:19:01Z</time></trkpt><trkpt lat="14.558346345602542" lon="120.9953424822763"><ele>9.0</ele><time>2026-04-27T15:19:25Z</time></trkpt><trkpt lat="14.558285819855897" lon="120.99537720749794"><ele>9.0</ele><time>2026-04-27T15:22:58Z</time></trkpt><trkpt lat="14.558215659920378" lon="120.99538080604279"><ele>9.0</ele><time>2026-04-27T15:24:24Z</time></trkpt><trkpt lat="14.558288287255934" lon="120.99536309908234"><ele>9.0</ele><time>2026-04-27T15:24:54Z</time></trkpt><trkpt lat="14.5582012044927" lon="120.99537178356486"><ele>9.0</ele><time>2026-04-27T15:25:03Z</time></trkpt><trkpt lat="14.55825200671666" lon="120.995329331881"><ele>9.000000000000002</ele><time>2026-04-27T15:25:16Z</time></trkpt><trkpt lat="14.558217523020012" lon="120.99526885290759"><ele>9.0</ele><time>2026-04-27T15:25:18Z</time></trkpt><trkpt lat="14.558235316978939" lon="120.99519008114856"><ele>9.0</ele><time>2026-04-27T15:25:21Z</time></trkpt><trkpt lat="14.558249820435414" lon="120.99512511695464"><ele>9.0</ele><time>2026-04-27T15:25:23.999Z</time></trkpt><trkpt lat="14.558275663468951" lon="120.99505310418158"><ele>9.0</ele><time>2026-04-27T15:25:27.029Z</time></trkpt><trkpt lat="14.558255682127392" lon="120.99497101460187"><ele>9.000000000000002</ele><time>2026-04-27T15:25:29.026Z</time></trkpt><trkpt lat="14.558257733096994" lon="120.99489288008745"><ele>9.0</ele><time>2026-04-27T15:25:31.027Z</time></trkpt><trkpt lat="14.558292502384148" lon="120.99482007443555"><ele>9.0</ele><time>2026-04-27T15:25:33.027Z</time></trkpt><trkpt lat="14.558335289026392" lon="120.99476405530338"><ele>9.0</ele><time>2026-04-27T15:25:35.027Z</time></trkpt><trkpt lat="14.558368392538586" lon="120.99469591006307"><ele>9.0</ele><time>2026-04-27T15:25:38.03Z</time></trkpt><trkpt lat="14.558292763681846" lon="120.9949536435506"><ele>9.0</ele><time>2026-04-27T15:25:39.029Z</time></trkpt><trkpt lat="14.558246764262675" lon="120.99508390253348"><ele>9.0</ele><time>2026-04-27T15:25:40.024Z</time></trkpt><trkpt lat="14.55820567900728" lon="120.99516957197349"><ele>9.0</ele><time>2026-04-27T15:25:42.023Z</time></trkpt><trkpt lat="14.558253015687505" lon="120.99523022308655"><ele>9.0</ele><time>2026-04-27T15:25:49.025Z</time></trkpt><trkpt lat="14.558219469370627" lon="120.99529729889402"><ele>9.0</ele><time>2026-04-27T15:25:56.025Z</time></trkpt><trkpt lat="14.558198278400221" lon="120.99538645975603"><ele>9.0</ele><time>2026-04-27T15:26:01.032Z</time></trkpt><trkpt lat="14.558185320811772" lon="120.99547427809958"><ele>9.0</ele><time>2026-04-27T15:26:07.022Z</time></trkpt><trkpt lat="14.55841817956508" lon="120.9954631593774"><ele>9.0</ele><time>2026-04-27T15:26:34.012Z</time></trkpt><trkpt lat="14.558484616929986" lon="120.99548252188318"><ele>9.0</ele><time>2026-04-27T15:26:38.013Z</time></trkpt><trkpt lat="14.558584963069146" lon="120.99549171022052"><ele>9.0</ele><time>2026-04-27T15:26:42.013Z</time></trkpt><trkpt lat="14.558647731911366" lon="120.99550881313863"><ele>9.0</ele><time>2026-04-27T15:26:45.012Z</time></trkpt><trkpt lat="14.558610253026885" lon="120.99558061177713"><ele>9.0</ele><time>2026-04-27T15:26:48.013Z</time></trkpt></trkseg></trk></gpx>